<?xml version="1.0" encoding="UTF-8" standalone="no" ?>
<gpx xmlns="http://www.topografix.com/GPX/1/1" xmlns:xsi="http://www.w3.org/2001/XMLSchema-instance" xsi:schemaLocation="http://www.topografix.com/GPX/1/1 http://www.topografix.com/GPX/1/1/gpx.xsd" version="1.1" creator="VisuGPX - https://www.visugpx.com">
  <metadata>
    <name>Marche Gascougnolles Mougon</name>
    <desc><![CDATA[Marche entre gascougnolles et mougon.]]></desc>
  </metadata>
  <trk>
    <name><![CDATA[Entraînement libre]]></name>
    <trkseg>
      <trkpt lat="46.30864" lon="-0.34074">
        <ele>55.3697</ele>
        <time>2010-12-26T09:22:41Z</time>
      </trkpt>
      <trkpt lat="46.30866" lon="-0.34071">
        <ele>59.0625</ele>
        <time>2010-12-26T09:22:43Z</time>
      </trkpt>
      <trkpt lat="46.30867" lon="-0.34069">
        <ele>60.4508</ele>
        <time>2010-12-26T09:22:44Z</time>
      </trkpt>
      <trkpt lat="46.3087" lon="-0.34066">
        <ele>61.8601</ele>
        <time>2010-12-26T09:22:46Z</time>
      </trkpt>
      <trkpt lat="46.30873" lon="-0.34064">
        <ele>63.2634</ele>
        <time>2010-12-26T09:22:48Z</time>
      </trkpt>
      <trkpt lat="46.30874" lon="-0.34063">
        <ele>64.2001</ele>
        <time>2010-12-26T09:22:49Z</time>
      </trkpt>
      <trkpt lat="46.30877" lon="-0.3406">
        <ele>66.4171</ele>
        <time>2010-12-26T09:22:51Z</time>
      </trkpt>
      <trkpt lat="46.30878" lon="-0.34059">
        <ele>67.5055</ele>
        <time>2010-12-26T09:22:52Z</time>
      </trkpt>
      <trkpt lat="46.30879" lon="-0.34057">
        <ele>68.5583</ele>
        <time>2010-12-26T09:22:53Z</time>
      </trkpt>
      <trkpt lat="46.3088" lon="-0.34056">
        <ele>69.7128</ele>
        <time>2010-12-26T09:22:54Z</time>
      </trkpt>
      <trkpt lat="46.30882" lon="-0.34056">
        <ele>70.1396</ele>
        <time>2010-12-26T09:22:55Z</time>
      </trkpt>
      <trkpt lat="46.30883" lon="-0.34055">
        <ele>70.599</ele>
        <time>2010-12-26T09:22:56Z</time>
      </trkpt>
      <trkpt lat="46.30883" lon="-0.34053">
        <ele>71.1736</ele>
        <time>2010-12-26T09:22:57Z</time>
      </trkpt>
      <trkpt lat="46.30885" lon="-0.34052">
        <ele>71.7732</ele>
        <time>2010-12-26T09:22:58Z</time>
      </trkpt>
      <trkpt lat="46.30886" lon="-0.34051">
        <ele>72.2746</ele>
        <time>2010-12-26T09:22:59Z</time>
      </trkpt>
      <trkpt lat="46.30887" lon="-0.3405">
        <ele>72.4404</ele>
        <time>2010-12-26T09:23:00Z</time>
      </trkpt>
      <trkpt lat="46.30888" lon="-0.34049">
        <ele>72.5087</ele>
        <time>2010-12-26T09:23:01Z</time>
      </trkpt>
      <trkpt lat="46.3089" lon="-0.34049">
        <ele>72.5561</ele>
        <time>2010-12-26T09:23:02Z</time>
      </trkpt>
      <trkpt lat="46.30891" lon="-0.34048">
        <ele>72.7502</ele>
        <time>2010-12-26T09:23:03Z</time>
      </trkpt>
      <trkpt lat="46.30892" lon="-0.34047">
        <ele>72.7608</ele>
        <time>2010-12-26T09:23:04Z</time>
      </trkpt>
      <trkpt lat="46.30894" lon="-0.34046">
        <ele>72.7719</ele>
        <time>2010-12-26T09:23:05Z</time>
      </trkpt>
      <trkpt lat="46.30895" lon="-0.34046">
        <ele>72.7792</ele>
        <time>2010-12-26T09:23:06Z</time>
      </trkpt>
      <trkpt lat="46.30898" lon="-0.34045">
        <ele>72.7886</ele>
        <time>2010-12-26T09:19:51Z</time>
      </trkpt>
      <trkpt lat="46.30899" lon="-0.34044">
        <ele>72.7907</ele>
        <time>2010-12-26T09:19:52Z</time>
      </trkpt>
      <trkpt lat="46.309" lon="-0.34044">
        <ele>72.7914</ele>
        <time>2010-12-26T09:19:53Z</time>
      </trkpt>
      <trkpt lat="46.30901" lon="-0.34043">
        <ele>72.7923</ele>
        <time>2010-12-26T09:19:54Z</time>
      </trkpt>
      <trkpt lat="46.30902" lon="-0.34042">
        <ele>72.798</ele>
        <time>2010-12-26T09:19:55Z</time>
      </trkpt>
      <trkpt lat="46.30904" lon="-0.34042">
        <ele>72.8094</ele>
        <time>2010-12-26T09:19:56Z</time>
      </trkpt>
      <trkpt lat="46.30905" lon="-0.34041">
        <ele>72.8212</ele>
        <time>2010-12-26T09:19:57Z</time>
      </trkpt>
      <trkpt lat="46.30907" lon="-0.3404">
        <ele>72.8392</ele>
        <time>2010-12-26T09:19:58Z</time>
      </trkpt>
      <trkpt lat="46.30908" lon="-0.3404">
        <ele>72.8652</ele>
        <time>2010-12-26T09:19:59Z</time>
      </trkpt>
      <trkpt lat="46.30909" lon="-0.34039">
        <ele>72.8946</ele>
        <time>2010-12-26T09:20:00Z</time>
      </trkpt>
      <trkpt lat="46.30911" lon="-0.34038">
        <ele>72.93</ele>
        <time>2010-12-26T09:20:01Z</time>
      </trkpt>
      <trkpt lat="46.30912" lon="-0.34038">
        <ele>72.9681</ele>
        <time>2010-12-26T09:20:02Z</time>
      </trkpt>
      <trkpt lat="46.30913" lon="-0.34037">
        <ele>73.0076</ele>
        <time>2010-12-26T09:20:03Z</time>
      </trkpt>
      <trkpt lat="46.30914" lon="-0.34037">
        <ele>73.0499</ele>
        <time>2010-12-26T09:20:04Z</time>
      </trkpt>
      <trkpt lat="46.30916" lon="-0.34037">
        <ele>73.0935</ele>
        <time>2010-12-26T09:20:05Z</time>
      </trkpt>
      <trkpt lat="46.30917" lon="-0.34036">
        <ele>73.1381</ele>
        <time>2010-12-26T09:20:06Z</time>
      </trkpt>
      <trkpt lat="46.30918" lon="-0.34036">
        <ele>73.1821</ele>
        <time>2010-12-26T09:20:07Z</time>
      </trkpt>
      <trkpt lat="46.3092" lon="-0.34035">
        <ele>73.2264</ele>
        <time>2010-12-26T09:20:08Z</time>
      </trkpt>
      <trkpt lat="46.30921" lon="-0.34034">
        <ele>73.2713</ele>
        <time>2010-12-26T09:20:09Z</time>
      </trkpt>
      <trkpt lat="46.30922" lon="-0.34034">
        <ele>73.3198</ele>
        <time>2010-12-26T09:20:10Z</time>
      </trkpt>
      <trkpt lat="46.30923" lon="-0.34033">
        <ele>73.3702</ele>
        <time>2010-12-26T09:20:11Z</time>
      </trkpt>
      <trkpt lat="46.30924" lon="-0.34033">
        <ele>73.4189</ele>
        <time>2010-12-26T09:20:12Z</time>
      </trkpt>
      <trkpt lat="46.30925" lon="-0.34034">
        <ele>73.4687</ele>
        <time>2010-12-26T09:20:13Z</time>
      </trkpt>
      <trkpt lat="46.30927" lon="-0.34033">
        <ele>73.5198</ele>
        <time>2010-12-26T09:20:14Z</time>
      </trkpt>
      <trkpt lat="46.30928" lon="-0.34033">
        <ele>73.5715</ele>
        <time>2010-12-26T09:20:15Z</time>
      </trkpt>
      <trkpt lat="46.30929" lon="-0.34032">
        <ele>73.619</ele>
        <time>2010-12-26T09:20:16Z</time>
      </trkpt>
      <trkpt lat="46.30931" lon="-0.34032">
        <ele>73.6626</ele>
        <time>2010-12-26T09:20:17Z</time>
      </trkpt>
      <trkpt lat="46.30932" lon="-0.34032">
        <ele>73.7031</ele>
        <time>2010-12-26T09:20:18Z</time>
      </trkpt>
      <trkpt lat="46.30934" lon="-0.34031">
        <ele>73.7431</ele>
        <time>2010-12-26T09:20:19Z</time>
      </trkpt>
      <trkpt lat="46.30935" lon="-0.34031">
        <ele>73.7808</ele>
        <time>2010-12-26T09:20:20Z</time>
      </trkpt>
      <trkpt lat="46.30937" lon="-0.3403">
        <ele>73.8164</ele>
        <time>2010-12-26T09:20:21Z</time>
      </trkpt>
      <trkpt lat="46.30938" lon="-0.3403">
        <ele>73.8521</ele>
        <time>2010-12-26T09:20:22Z</time>
      </trkpt>
      <trkpt lat="46.3094" lon="-0.34029">
        <ele>73.8881</ele>
        <time>2010-12-26T09:20:23Z</time>
      </trkpt>
      <trkpt lat="46.30941" lon="-0.34029">
        <ele>73.9184</ele>
        <time>2010-12-26T09:20:24Z</time>
      </trkpt>
      <trkpt lat="46.30943" lon="-0.34028">
        <ele>73.9497</ele>
        <time>2010-12-26T09:20:25Z</time>
      </trkpt>
      <trkpt lat="46.30944" lon="-0.34028">
        <ele>73.9805</ele>
        <time>2010-12-26T09:20:26Z</time>
      </trkpt>
      <trkpt lat="46.30945" lon="-0.34028">
        <ele>74.0115</ele>
        <time>2010-12-26T09:20:27Z</time>
      </trkpt>
      <trkpt lat="46.30947" lon="-0.34027">
        <ele>74.0429</ele>
        <time>2010-12-26T09:20:28Z</time>
      </trkpt>
      <trkpt lat="46.30948" lon="-0.34027">
        <ele>74.0719</ele>
        <time>2010-12-26T09:20:29Z</time>
      </trkpt>
      <trkpt lat="46.30949" lon="-0.34027">
        <ele>74.0982</ele>
        <time>2010-12-26T09:20:30Z</time>
      </trkpt>
      <trkpt lat="46.30951" lon="-0.34026">
        <ele>74.123</ele>
        <time>2010-12-26T09:20:31Z</time>
      </trkpt>
      <trkpt lat="46.30952" lon="-0.34026">
        <ele>74.1447</ele>
        <time>2010-12-26T09:20:32Z</time>
      </trkpt>
      <trkpt lat="46.30954" lon="-0.34026">
        <ele>74.1639</ele>
        <time>2010-12-26T09:20:33Z</time>
      </trkpt>
      <trkpt lat="46.30955" lon="-0.34025">
        <ele>74.1808</ele>
        <time>2010-12-26T09:20:34Z</time>
      </trkpt>
      <trkpt lat="46.30957" lon="-0.34025">
        <ele>74.1938</ele>
        <time>2010-12-26T09:20:35Z</time>
      </trkpt>
      <trkpt lat="46.30958" lon="-0.34025">
        <ele>74.2021</ele>
        <time>2010-12-26T09:20:36Z</time>
      </trkpt>
      <trkpt lat="46.3096" lon="-0.34025">
        <ele>74.2075</ele>
        <time>2010-12-26T09:20:37Z</time>
      </trkpt>
      <trkpt lat="46.30961" lon="-0.34024">
        <ele>74.2109</ele>
        <time>2010-12-26T09:20:38Z</time>
      </trkpt>
      <trkpt lat="46.30962" lon="-0.34024">
        <ele>74.2112</ele>
        <time>2010-12-26T09:20:39Z</time>
      </trkpt>
      <trkpt lat="46.30964" lon="-0.34024">
        <ele>74.2131</ele>
        <time>2010-12-26T09:20:40Z</time>
      </trkpt>
      <trkpt lat="46.30965" lon="-0.34023">
        <ele>74.215</ele>
        <time>2010-12-26T09:20:41Z</time>
      </trkpt>
      <trkpt lat="46.30967" lon="-0.34023">
        <ele>74.2131</ele>
        <time>2010-12-26T09:20:42Z</time>
      </trkpt>
      <trkpt lat="46.30968" lon="-0.34023">
        <ele>74.2112</ele>
        <time>2010-12-26T09:20:43Z</time>
      </trkpt>
      <trkpt lat="46.30969" lon="-0.34023">
        <ele>74.2071</ele>
        <time>2010-12-26T09:20:44Z</time>
      </trkpt>
      <trkpt lat="46.30971" lon="-0.34023">
        <ele>74.204</ele>
        <time>2010-12-26T09:20:45Z</time>
      </trkpt>
      <trkpt lat="46.30972" lon="-0.34023">
        <ele>74.2016</ele>
        <time>2010-12-26T09:20:46Z</time>
      </trkpt>
      <trkpt lat="46.30974" lon="-0.34023">
        <ele>74.2028</ele>
        <time>2010-12-26T09:20:47Z</time>
      </trkpt>
      <trkpt lat="46.30975" lon="-0.34023">
        <ele>74.2074</ele>
        <time>2010-12-26T09:20:48Z</time>
      </trkpt>
      <trkpt lat="46.30977" lon="-0.34022">
        <ele>74.214</ele>
        <time>2010-12-26T09:20:49Z</time>
      </trkpt>
      <trkpt lat="46.30978" lon="-0.34022">
        <ele>74.2202</ele>
        <time>2010-12-26T09:20:50Z</time>
      </trkpt>
      <trkpt lat="46.3098" lon="-0.34021">
        <ele>74.2271</ele>
        <time>2010-12-26T09:20:51Z</time>
      </trkpt>
      <trkpt lat="46.30981" lon="-0.34021">
        <ele>74.2355</ele>
        <time>2010-12-26T09:20:52Z</time>
      </trkpt>
      <trkpt lat="46.30983" lon="-0.3402">
        <ele>74.246</ele>
        <time>2010-12-26T09:20:53Z</time>
      </trkpt>
      <trkpt lat="46.30984" lon="-0.3402">
        <ele>74.2564</ele>
        <time>2010-12-26T09:20:54Z</time>
      </trkpt>
      <trkpt lat="46.30985" lon="-0.3402">
        <ele>74.2689</ele>
        <time>2010-12-26T09:20:55Z</time>
      </trkpt>
      <trkpt lat="46.30987" lon="-0.34019">
        <ele>74.2816</ele>
        <time>2010-12-26T09:20:56Z</time>
      </trkpt>
      <trkpt lat="46.30989" lon="-0.34019">
        <ele>74.2844</ele>
        <time>2010-12-26T09:20:57Z</time>
      </trkpt>
      <trkpt lat="46.3099" lon="-0.34019">
        <ele>74.2979</ele>
        <time>2010-12-26T09:20:58Z</time>
      </trkpt>
      <trkpt lat="46.30992" lon="-0.34019">
        <ele>74.3202</ele>
        <time>2010-12-26T09:20:59Z</time>
      </trkpt>
      <trkpt lat="46.30994" lon="-0.34018">
        <ele>74.3397</ele>
        <time>2010-12-26T09:21:00Z</time>
      </trkpt>
      <trkpt lat="46.30996" lon="-0.34018">
        <ele>74.3589</ele>
        <time>2010-12-26T09:21:01Z</time>
      </trkpt>
      <trkpt lat="46.30998" lon="-0.34018">
        <ele>74.3577</ele>
        <time>2010-12-26T09:21:02Z</time>
      </trkpt>
      <trkpt lat="46.30999" lon="-0.34018">
        <ele>74.356</ele>
        <time>2010-12-26T09:21:03Z</time>
      </trkpt>
      <trkpt lat="46.31001" lon="-0.34018">
        <ele>74.3568</ele>
        <time>2010-12-26T09:21:04Z</time>
      </trkpt>
      <trkpt lat="46.31003" lon="-0.34017">
        <ele>74.3605</ele>
        <time>2010-12-26T09:21:05Z</time>
      </trkpt>
      <trkpt lat="46.31005" lon="-0.34017">
        <ele>74.3648</ele>
        <time>2010-12-26T09:21:06Z</time>
      </trkpt>
      <trkpt lat="46.31006" lon="-0.34017">
        <ele>74.3681</ele>
        <time>2010-12-26T09:21:07Z</time>
      </trkpt>
      <trkpt lat="46.31008" lon="-0.34017">
        <ele>74.3741</ele>
        <time>2010-12-26T09:21:08Z</time>
      </trkpt>
      <trkpt lat="46.31009" lon="-0.34016">
        <ele>74.381</ele>
        <time>2010-12-26T09:21:09Z</time>
      </trkpt>
      <trkpt lat="46.31011" lon="-0.34016">
        <ele>74.3891</ele>
        <time>2010-12-26T09:21:10Z</time>
      </trkpt>
      <trkpt lat="46.31012" lon="-0.34016">
        <ele>74.3959</ele>
        <time>2010-12-26T09:21:11Z</time>
      </trkpt>
      <trkpt lat="46.31014" lon="-0.34015">
        <ele>74.4048</ele>
        <time>2010-12-26T09:21:12Z</time>
      </trkpt>
      <trkpt lat="46.31015" lon="-0.34015">
        <ele>74.4128</ele>
        <time>2010-12-26T09:21:13Z</time>
      </trkpt>
      <trkpt lat="46.31016" lon="-0.34015">
        <ele>74.4201</ele>
        <time>2010-12-26T09:21:14Z</time>
      </trkpt>
      <trkpt lat="46.31018" lon="-0.34014">
        <ele>74.4312</ele>
        <time>2010-12-26T09:21:15Z</time>
      </trkpt>
      <trkpt lat="46.31019" lon="-0.34014">
        <ele>74.4423</ele>
        <time>2010-12-26T09:21:16Z</time>
      </trkpt>
      <trkpt lat="46.3102" lon="-0.34013">
        <ele>74.4541</ele>
        <time>2010-12-26T09:21:17Z</time>
      </trkpt>
      <trkpt lat="46.31022" lon="-0.34013">
        <ele>74.4644</ele>
        <time>2010-12-26T09:21:18Z</time>
      </trkpt>
      <trkpt lat="46.31023" lon="-0.34012">
        <ele>74.4729</ele>
        <time>2010-12-26T09:21:19Z</time>
      </trkpt>
      <trkpt lat="46.31024" lon="-0.34012">
        <ele>74.4803</ele>
        <time>2010-12-26T09:21:20Z</time>
      </trkpt>
      <trkpt lat="46.31026" lon="-0.34012">
        <ele>74.4872</ele>
        <time>2010-12-26T09:21:21Z</time>
      </trkpt>
      <trkpt lat="46.31027" lon="-0.34011">
        <ele>74.4925</ele>
        <time>2010-12-26T09:21:22Z</time>
      </trkpt>
      <trkpt lat="46.31029" lon="-0.34011">
        <ele>74.5221</ele>
        <time>2010-12-26T09:21:23Z</time>
      </trkpt>
      <trkpt lat="46.3103" lon="-0.34011">
        <ele>74.5487</ele>
        <time>2010-12-26T09:21:24Z</time>
      </trkpt>
      <trkpt lat="46.31031" lon="-0.3401">
        <ele>74.5735</ele>
        <time>2010-12-26T09:21:25Z</time>
      </trkpt>
      <trkpt lat="46.31033" lon="-0.3401">
        <ele>74.6003</ele>
        <time>2010-12-26T09:21:26Z</time>
      </trkpt>
      <trkpt lat="46.31034" lon="-0.3401">
        <ele>74.6308</ele>
        <time>2010-12-26T09:21:27Z</time>
      </trkpt>
      <trkpt lat="46.31036" lon="-0.34009">
        <ele>74.6644</ele>
        <time>2010-12-26T09:21:28Z</time>
      </trkpt>
      <trkpt lat="46.31037" lon="-0.34009">
        <ele>74.6967</ele>
        <time>2010-12-26T09:21:29Z</time>
      </trkpt>
      <trkpt lat="46.31038" lon="-0.34008">
        <ele>74.7277</ele>
        <time>2010-12-26T09:21:30Z</time>
      </trkpt>
      <trkpt lat="46.31039" lon="-0.34008">
        <ele>74.7542</ele>
        <time>2010-12-26T09:21:31Z</time>
      </trkpt>
      <trkpt lat="46.3104" lon="-0.34007">
        <ele>74.7827</ele>
        <time>2010-12-26T09:21:32Z</time>
      </trkpt>
      <trkpt lat="46.31041" lon="-0.34007">
        <ele>74.8121</ele>
        <time>2010-12-26T09:21:33Z</time>
      </trkpt>
      <trkpt lat="46.31043" lon="-0.34007">
        <ele>74.8424</ele>
        <time>2010-12-26T09:21:34Z</time>
      </trkpt>
      <trkpt lat="46.31044" lon="-0.34006">
        <ele>74.874</ele>
        <time>2010-12-26T09:21:35Z</time>
      </trkpt>
      <trkpt lat="46.31046" lon="-0.34006">
        <ele>74.9081</ele>
        <time>2010-12-26T09:21:36Z</time>
      </trkpt>
      <trkpt lat="46.31047" lon="-0.34005">
        <ele>74.9447</ele>
        <time>2010-12-26T09:21:37Z</time>
      </trkpt>
      <trkpt lat="46.31049" lon="-0.34005">
        <ele>74.9791</ele>
        <time>2010-12-26T09:21:38Z</time>
      </trkpt>
      <trkpt lat="46.3105" lon="-0.34004">
        <ele>75.0229</ele>
        <time>2010-12-26T09:21:39Z</time>
      </trkpt>
      <trkpt lat="46.31052" lon="-0.34003">
        <ele>75.0677</ele>
        <time>2010-12-26T09:21:40Z</time>
      </trkpt>
      <trkpt lat="46.31054" lon="-0.34002">
        <ele>75.1107</ele>
        <time>2010-12-26T09:21:41Z</time>
      </trkpt>
      <trkpt lat="46.31055" lon="-0.34">
        <ele>75.1426</ele>
        <time>2010-12-26T09:21:42Z</time>
      </trkpt>
      <trkpt lat="46.31056" lon="-0.33998">
        <ele>75.1528</ele>
        <time>2010-12-26T09:21:43Z</time>
      </trkpt>
      <trkpt lat="46.31058" lon="-0.33997">
        <ele>75.1616</ele>
        <time>2010-12-26T09:21:44Z</time>
      </trkpt>
      <trkpt lat="46.31059" lon="-0.33995">
        <ele>75.1715</ele>
        <time>2010-12-26T09:21:45Z</time>
      </trkpt>
      <trkpt lat="46.3106" lon="-0.33993">
        <ele>75.183</ele>
        <time>2010-12-26T09:21:46Z</time>
      </trkpt>
      <trkpt lat="46.31061" lon="-0.33991">
        <ele>75.1692</ele>
        <time>2010-12-26T09:21:47Z</time>
      </trkpt>
      <trkpt lat="46.31062" lon="-0.33989">
        <ele>75.113</ele>
        <time>2010-12-26T09:21:48Z</time>
      </trkpt>
      <trkpt lat="46.31063" lon="-0.33987">
        <ele>75.0102</ele>
        <time>2010-12-26T09:21:49Z</time>
      </trkpt>
      <trkpt lat="46.31064" lon="-0.33984">
        <ele>74.9159</ele>
        <time>2010-12-26T09:21:50Z</time>
      </trkpt>
      <trkpt lat="46.31065" lon="-0.33982">
        <ele>74.8263</ele>
        <time>2010-12-26T09:21:51Z</time>
      </trkpt>
      <trkpt lat="46.31066" lon="-0.33979">
        <ele>74.7313</ele>
        <time>2010-12-26T09:21:52Z</time>
      </trkpt>
      <trkpt lat="46.31066" lon="-0.33977">
        <ele>74.6383</ele>
        <time>2010-12-26T09:21:53Z</time>
      </trkpt>
      <trkpt lat="46.31066" lon="-0.33974">
        <ele>74.5241</ele>
        <time>2010-12-26T09:21:54Z</time>
      </trkpt>
      <trkpt lat="46.31067" lon="-0.33972">
        <ele>74.3905</ele>
        <time>2010-12-26T09:21:55Z</time>
      </trkpt>
      <trkpt lat="46.31066" lon="-0.3397">
        <ele>74.2566</ele>
        <time>2010-12-26T09:21:56Z</time>
      </trkpt>
      <trkpt lat="46.31066" lon="-0.33968">
        <ele>74.1277</ele>
        <time>2010-12-26T09:21:57Z</time>
      </trkpt>
      <trkpt lat="46.31066" lon="-0.33966">
        <ele>73.9867</ele>
        <time>2010-12-26T09:21:58Z</time>
      </trkpt>
      <trkpt lat="46.31065" lon="-0.33964">
        <ele>73.8455</ele>
        <time>2010-12-26T09:21:59Z</time>
      </trkpt>
      <trkpt lat="46.31065" lon="-0.33961">
        <ele>73.7061</ele>
        <time>2010-12-26T09:22:00Z</time>
      </trkpt>
      <trkpt lat="46.31064" lon="-0.33959">
        <ele>73.5612</ele>
        <time>2010-12-26T09:22:01Z</time>
      </trkpt>
      <trkpt lat="46.31064" lon="-0.33956">
        <ele>73.411</ele>
        <time>2010-12-26T09:22:02Z</time>
      </trkpt>
      <trkpt lat="46.31064" lon="-0.33954">
        <ele>73.2564</ele>
        <time>2010-12-26T09:22:03Z</time>
      </trkpt>
      <trkpt lat="46.31063" lon="-0.33952">
        <ele>73.1042</ele>
        <time>2010-12-26T09:22:04Z</time>
      </trkpt>
      <trkpt lat="46.31062" lon="-0.33949">
        <ele>72.955</ele>
        <time>2010-12-26T09:22:05Z</time>
      </trkpt>
      <trkpt lat="46.31062" lon="-0.33947">
        <ele>72.8107</ele>
        <time>2010-12-26T09:22:06Z</time>
      </trkpt>
      <trkpt lat="46.31062" lon="-0.33945">
        <ele>72.6708</ele>
        <time>2010-12-26T09:22:07Z</time>
      </trkpt>
      <trkpt lat="46.3106" lon="-0.3394">
        <ele>72.5363</ele>
        <time>2010-12-26T09:22:08Z</time>
      </trkpt>
      <trkpt lat="46.31059" lon="-0.33939">
        <ele>72.4124</ele>
        <time>2010-12-26T09:22:09Z</time>
      </trkpt>
      <trkpt lat="46.31059" lon="-0.33937">
        <ele>72.2854</ele>
        <time>2010-12-26T09:22:10Z</time>
      </trkpt>
      <trkpt lat="46.31058" lon="-0.33935">
        <ele>72.157</ele>
        <time>2010-12-26T09:22:11Z</time>
      </trkpt>
      <trkpt lat="46.31057" lon="-0.33934">
        <ele>72.0316</ele>
        <time>2010-12-26T09:22:12Z</time>
      </trkpt>
      <trkpt lat="46.31056" lon="-0.33932">
        <ele>71.9055</ele>
        <time>2010-12-26T09:22:13Z</time>
      </trkpt>
      <trkpt lat="46.31056" lon="-0.33931">
        <ele>71.7838</ele>
        <time>2010-12-26T09:22:14Z</time>
      </trkpt>
      <trkpt lat="46.31055" lon="-0.33929">
        <ele>71.6677</ele>
        <time>2010-12-26T09:22:15Z</time>
      </trkpt>
      <trkpt lat="46.31054" lon="-0.33928">
        <ele>71.5435</ele>
        <time>2010-12-26T09:22:16Z</time>
      </trkpt>
      <trkpt lat="46.31054" lon="-0.33926">
        <ele>71.4191</ele>
        <time>2010-12-26T09:22:17Z</time>
      </trkpt>
      <trkpt lat="46.31053" lon="-0.33924">
        <ele>71.2924</ele>
        <time>2010-12-26T09:22:18Z</time>
      </trkpt>
      <trkpt lat="46.31052" lon="-0.33922">
        <ele>71.1671</ele>
        <time>2010-12-26T09:22:19Z</time>
      </trkpt>
      <trkpt lat="46.31052" lon="-0.33919">
        <ele>71.0407</ele>
        <time>2010-12-26T09:22:20Z</time>
      </trkpt>
      <trkpt lat="46.31051" lon="-0.33917">
        <ele>70.9151</ele>
        <time>2010-12-26T09:22:21Z</time>
      </trkpt>
      <trkpt lat="46.31051" lon="-0.33916">
        <ele>70.7856</ele>
        <time>2010-12-26T09:22:22Z</time>
      </trkpt>
      <trkpt lat="46.3105" lon="-0.33914">
        <ele>70.6559</ele>
        <time>2010-12-26T09:22:23Z</time>
      </trkpt>
      <trkpt lat="46.31049" lon="-0.33912">
        <ele>70.5226</ele>
        <time>2010-12-26T09:22:24Z</time>
      </trkpt>
      <trkpt lat="46.31049" lon="-0.3391">
        <ele>70.3862</ele>
        <time>2010-12-26T09:22:25Z</time>
      </trkpt>
      <trkpt lat="46.31049" lon="-0.33909">
        <ele>70.2488</ele>
        <time>2010-12-26T09:22:26Z</time>
      </trkpt>
      <trkpt lat="46.31048" lon="-0.33907">
        <ele>70.1088</ele>
        <time>2010-12-26T09:22:27Z</time>
      </trkpt>
      <trkpt lat="46.31047" lon="-0.33905">
        <ele>69.972</ele>
        <time>2010-12-26T09:22:28Z</time>
      </trkpt>
      <trkpt lat="46.31047" lon="-0.33903">
        <ele>69.8377</ele>
        <time>2010-12-26T09:22:29Z</time>
      </trkpt>
      <trkpt lat="46.31047" lon="-0.33902">
        <ele>69.7056</ele>
        <time>2010-12-26T09:22:30Z</time>
      </trkpt>
      <trkpt lat="46.31046" lon="-0.339">
        <ele>69.5772</ele>
        <time>2010-12-26T09:22:31Z</time>
      </trkpt>
      <trkpt lat="46.31046" lon="-0.33899">
        <ele>69.4492</ele>
        <time>2010-12-26T09:22:32Z</time>
      </trkpt>
      <trkpt lat="46.31045" lon="-0.33897">
        <ele>69.3218</ele>
        <time>2010-12-26T09:22:33Z</time>
      </trkpt>
      <trkpt lat="46.31045" lon="-0.33895">
        <ele>69.2024</ele>
        <time>2010-12-26T09:22:34Z</time>
      </trkpt>
      <trkpt lat="46.31044" lon="-0.33894">
        <ele>69.0843</ele>
        <time>2010-12-26T09:22:35Z</time>
      </trkpt>
      <trkpt lat="46.31043" lon="-0.33892">
        <ele>68.9706</ele>
        <time>2010-12-26T09:22:36Z</time>
      </trkpt>
      <trkpt lat="46.31043" lon="-0.3389">
        <ele>68.8521</ele>
        <time>2010-12-26T09:22:37Z</time>
      </trkpt>
      <trkpt lat="46.31042" lon="-0.33888">
        <ele>68.7266</ele>
        <time>2010-12-26T09:22:38Z</time>
      </trkpt>
      <trkpt lat="46.31041" lon="-0.33886">
        <ele>68.6057</ele>
        <time>2010-12-26T09:22:39Z</time>
      </trkpt>
      <trkpt lat="46.31041" lon="-0.33884">
        <ele>68.4741</ele>
        <time>2010-12-26T09:22:40Z</time>
      </trkpt>
      <trkpt lat="46.3104" lon="-0.33881">
        <ele>68.3443</ele>
        <time>2010-12-26T09:22:41Z</time>
      </trkpt>
      <trkpt lat="46.31039" lon="-0.33878">
        <ele>68.204</ele>
        <time>2010-12-26T09:22:42Z</time>
      </trkpt>
      <trkpt lat="46.31039" lon="-0.33876">
        <ele>68.0604</ele>
        <time>2010-12-26T09:22:43Z</time>
      </trkpt>
      <trkpt lat="46.31039" lon="-0.33874">
        <ele>67.9149</ele>
        <time>2010-12-26T09:22:44Z</time>
      </trkpt>
      <trkpt lat="46.31038" lon="-0.33872">
        <ele>67.7714</ele>
        <time>2010-12-26T09:22:45Z</time>
      </trkpt>
      <trkpt lat="46.31038" lon="-0.33869">
        <ele>67.629</ele>
        <time>2010-12-26T09:22:46Z</time>
      </trkpt>
      <trkpt lat="46.31038" lon="-0.33867">
        <ele>67.4865</ele>
        <time>2010-12-26T09:22:47Z</time>
      </trkpt>
      <trkpt lat="46.31037" lon="-0.33865">
        <ele>67.3455</ele>
        <time>2010-12-26T09:22:48Z</time>
      </trkpt>
      <trkpt lat="46.31036" lon="-0.33863">
        <ele>67.2088</ele>
        <time>2010-12-26T09:22:49Z</time>
      </trkpt>
      <trkpt lat="46.31036" lon="-0.33861">
        <ele>67.0779</ele>
        <time>2010-12-26T09:22:50Z</time>
      </trkpt>
      <trkpt lat="46.31035" lon="-0.33859">
        <ele>66.9502</ele>
        <time>2010-12-26T09:22:51Z</time>
      </trkpt>
      <trkpt lat="46.31034" lon="-0.33857">
        <ele>66.8328</ele>
        <time>2010-12-26T09:22:52Z</time>
      </trkpt>
      <trkpt lat="46.31033" lon="-0.33854">
        <ele>66.7214</ele>
        <time>2010-12-26T09:22:53Z</time>
      </trkpt>
      <trkpt lat="46.31032" lon="-0.33852">
        <ele>66.6135</ele>
        <time>2010-12-26T09:22:54Z</time>
      </trkpt>
      <trkpt lat="46.31031" lon="-0.3385">
        <ele>66.5055</ele>
        <time>2010-12-26T09:22:55Z</time>
      </trkpt>
      <trkpt lat="46.31031" lon="-0.33848">
        <ele>66.3965</ele>
        <time>2010-12-26T09:22:56Z</time>
      </trkpt>
      <trkpt lat="46.3103" lon="-0.33846">
        <ele>66.2863</ele>
        <time>2010-12-26T09:22:57Z</time>
      </trkpt>
      <trkpt lat="46.31029" lon="-0.33844">
        <ele>66.1753</ele>
        <time>2010-12-26T09:22:58Z</time>
      </trkpt>
      <trkpt lat="46.31028" lon="-0.33842">
        <ele>66.0621</ele>
        <time>2010-12-26T09:22:59Z</time>
      </trkpt>
      <trkpt lat="46.31028" lon="-0.3384">
        <ele>65.9513</ele>
        <time>2010-12-26T09:23:00Z</time>
      </trkpt>
      <trkpt lat="46.31028" lon="-0.33838">
        <ele>65.8372</ele>
        <time>2010-12-26T09:23:01Z</time>
      </trkpt>
      <trkpt lat="46.31027" lon="-0.33837">
        <ele>65.7219</ele>
        <time>2010-12-26T09:23:02Z</time>
      </trkpt>
      <trkpt lat="46.31027" lon="-0.33836">
        <ele>65.6057</ele>
        <time>2010-12-26T09:23:03Z</time>
      </trkpt>
      <trkpt lat="46.31026" lon="-0.33834">
        <ele>65.4802</ele>
        <time>2010-12-26T09:23:04Z</time>
      </trkpt>
      <trkpt lat="46.31026" lon="-0.33833">
        <ele>65.3504</ele>
        <time>2010-12-26T09:23:05Z</time>
      </trkpt>
      <trkpt lat="46.31025" lon="-0.33831">
        <ele>65.2187</ele>
        <time>2010-12-26T09:23:06Z</time>
      </trkpt>
      <trkpt lat="46.31025" lon="-0.33829">
        <ele>65.0863</ele>
        <time>2010-12-26T09:23:07Z</time>
      </trkpt>
      <trkpt lat="46.31024" lon="-0.33828">
        <ele>64.9574</ele>
        <time>2010-12-26T09:23:08Z</time>
      </trkpt>
      <trkpt lat="46.31023" lon="-0.33826">
        <ele>64.8319</ele>
        <time>2010-12-26T09:23:09Z</time>
      </trkpt>
      <trkpt lat="46.31023" lon="-0.33825">
        <ele>64.7099</ele>
        <time>2010-12-26T09:23:10Z</time>
      </trkpt>
      <trkpt lat="46.31023" lon="-0.33823">
        <ele>64.5917</ele>
        <time>2010-12-26T09:23:11Z</time>
      </trkpt>
      <trkpt lat="46.31022" lon="-0.33821">
        <ele>64.4775</ele>
        <time>2010-12-26T09:23:12Z</time>
      </trkpt>
      <trkpt lat="46.31022" lon="-0.33819">
        <ele>64.3657</ele>
        <time>2010-12-26T09:23:13Z</time>
      </trkpt>
      <trkpt lat="46.31022" lon="-0.33817">
        <ele>64.2572</ele>
        <time>2010-12-26T09:23:14Z</time>
      </trkpt>
      <trkpt lat="46.31021" lon="-0.33815">
        <ele>64.1428</ele>
        <time>2010-12-26T09:23:15Z</time>
      </trkpt>
      <trkpt lat="46.31021" lon="-0.33813">
        <ele>64.0334</ele>
        <time>2010-12-26T09:23:16Z</time>
      </trkpt>
      <trkpt lat="46.3102" lon="-0.33811">
        <ele>63.9279</ele>
        <time>2010-12-26T09:23:17Z</time>
      </trkpt>
      <trkpt lat="46.3102" lon="-0.33809">
        <ele>63.8201</ele>
        <time>2010-12-26T09:23:18Z</time>
      </trkpt>
      <trkpt lat="46.31018" lon="-0.33807">
        <ele>63.7148</ele>
        <time>2010-12-26T09:23:19Z</time>
      </trkpt>
      <trkpt lat="46.31017" lon="-0.33805">
        <ele>63.6114</ele>
        <time>2010-12-26T09:23:20Z</time>
      </trkpt>
      <trkpt lat="46.31016" lon="-0.33803">
        <ele>63.5103</ele>
        <time>2010-12-26T09:23:21Z</time>
      </trkpt>
      <trkpt lat="46.31015" lon="-0.33801">
        <ele>63.4118</ele>
        <time>2010-12-26T09:23:22Z</time>
      </trkpt>
      <trkpt lat="46.31015" lon="-0.33799">
        <ele>63.3149</ele>
        <time>2010-12-26T09:23:23Z</time>
      </trkpt>
      <trkpt lat="46.31014" lon="-0.33797">
        <ele>63.2225</ele>
        <time>2010-12-26T09:23:24Z</time>
      </trkpt>
      <trkpt lat="46.31013" lon="-0.33796">
        <ele>63.1331</ele>
        <time>2010-12-26T09:23:25Z</time>
      </trkpt>
      <trkpt lat="46.31012" lon="-0.33794">
        <ele>63.0478</ele>
        <time>2010-12-26T09:23:26Z</time>
      </trkpt>
      <trkpt lat="46.31012" lon="-0.33792">
        <ele>62.964</ele>
        <time>2010-12-26T09:23:27Z</time>
      </trkpt>
      <trkpt lat="46.31011" lon="-0.3379">
        <ele>62.8844</ele>
        <time>2010-12-26T09:23:28Z</time>
      </trkpt>
      <trkpt lat="46.3101" lon="-0.33787">
        <ele>62.7955</ele>
        <time>2010-12-26T09:23:29Z</time>
      </trkpt>
      <trkpt lat="46.31009" lon="-0.33785">
        <ele>62.7081</ele>
        <time>2010-12-26T09:23:30Z</time>
      </trkpt>
      <trkpt lat="46.31008" lon="-0.33783">
        <ele>62.6222</ele>
        <time>2010-12-26T09:23:31Z</time>
      </trkpt>
      <trkpt lat="46.31007" lon="-0.33781">
        <ele>62.5396</ele>
        <time>2010-12-26T09:23:32Z</time>
      </trkpt>
      <trkpt lat="46.31007" lon="-0.3378">
        <ele>62.4592</ele>
        <time>2010-12-26T09:23:33Z</time>
      </trkpt>
      <trkpt lat="46.31006" lon="-0.33778">
        <ele>62.3816</ele>
        <time>2010-12-26T09:23:34Z</time>
      </trkpt>
      <trkpt lat="46.31006" lon="-0.33777">
        <ele>62.3057</ele>
        <time>2010-12-26T09:23:35Z</time>
      </trkpt>
      <trkpt lat="46.31005" lon="-0.33775">
        <ele>62.2335</ele>
        <time>2010-12-26T09:23:36Z</time>
      </trkpt>
      <trkpt lat="46.31004" lon="-0.33773">
        <ele>62.1636</ele>
        <time>2010-12-26T09:23:37Z</time>
      </trkpt>
      <trkpt lat="46.31004" lon="-0.33772">
        <ele>62.0929</ele>
        <time>2010-12-26T09:23:38Z</time>
      </trkpt>
      <trkpt lat="46.31003" lon="-0.3377">
        <ele>62.0244</ele>
        <time>2010-12-26T09:23:39Z</time>
      </trkpt>
      <trkpt lat="46.31003" lon="-0.33768">
        <ele>61.9583</ele>
        <time>2010-12-26T09:23:40Z</time>
      </trkpt>
      <trkpt lat="46.31002" lon="-0.33766">
        <ele>61.897</ele>
        <time>2010-12-26T09:23:41Z</time>
      </trkpt>
      <trkpt lat="46.31002" lon="-0.33764">
        <ele>61.8426</ele>
        <time>2010-12-26T09:23:42Z</time>
      </trkpt>
      <trkpt lat="46.31001" lon="-0.33762">
        <ele>61.7954</ele>
        <time>2010-12-26T09:23:43Z</time>
      </trkpt>
      <trkpt lat="46.31001" lon="-0.3376">
        <ele>61.7505</ele>
        <time>2010-12-26T09:23:44Z</time>
      </trkpt>
      <trkpt lat="46.31" lon="-0.33758">
        <ele>61.7088</ele>
        <time>2010-12-26T09:23:45Z</time>
      </trkpt>
      <trkpt lat="46.31" lon="-0.33756">
        <ele>61.6736</ele>
        <time>2010-12-26T09:23:46Z</time>
      </trkpt>
      <trkpt lat="46.31" lon="-0.33754">
        <ele>61.6418</ele>
        <time>2010-12-26T09:23:47Z</time>
      </trkpt>
      <trkpt lat="46.30999" lon="-0.33752">
        <ele>61.6121</ele>
        <time>2010-12-26T09:23:48Z</time>
      </trkpt>
      <trkpt lat="46.30999" lon="-0.3375">
        <ele>61.5835</ele>
        <time>2010-12-26T09:23:49Z</time>
      </trkpt>
      <trkpt lat="46.30999" lon="-0.33748">
        <ele>61.5552</ele>
        <time>2010-12-26T09:23:50Z</time>
      </trkpt>
      <trkpt lat="46.30998" lon="-0.33746">
        <ele>61.527</ele>
        <time>2010-12-26T09:23:51Z</time>
      </trkpt>
      <trkpt lat="46.30998" lon="-0.33744">
        <ele>61.4987</ele>
        <time>2010-12-26T09:23:52Z</time>
      </trkpt>
      <trkpt lat="46.30997" lon="-0.33742">
        <ele>61.4737</ele>
        <time>2010-12-26T09:23:53Z</time>
      </trkpt>
      <trkpt lat="46.30996" lon="-0.33739">
        <ele>61.4516</ele>
        <time>2010-12-26T09:23:54Z</time>
      </trkpt>
      <trkpt lat="46.30996" lon="-0.33737">
        <ele>61.4348</ele>
        <time>2010-12-26T09:23:55Z</time>
      </trkpt>
      <trkpt lat="46.30996" lon="-0.33735">
        <ele>61.4228</ele>
        <time>2010-12-26T09:23:56Z</time>
      </trkpt>
      <trkpt lat="46.30996" lon="-0.33732">
        <ele>61.4144</ele>
        <time>2010-12-26T09:23:57Z</time>
      </trkpt>
      <trkpt lat="46.30996" lon="-0.3373">
        <ele>61.4084</ele>
        <time>2010-12-26T09:23:58Z</time>
      </trkpt>
      <trkpt lat="46.30995" lon="-0.33727">
        <ele>61.4038</ele>
        <time>2010-12-26T09:23:59Z</time>
      </trkpt>
      <trkpt lat="46.30995" lon="-0.33726">
        <ele>61.4004</ele>
        <time>2010-12-26T09:24:00Z</time>
      </trkpt>
      <trkpt lat="46.30994" lon="-0.33724">
        <ele>61.3977</ele>
        <time>2010-12-26T09:24:01Z</time>
      </trkpt>
      <trkpt lat="46.30994" lon="-0.33722">
        <ele>61.3973</ele>
        <time>2010-12-26T09:24:02Z</time>
      </trkpt>
      <trkpt lat="46.30994" lon="-0.3372">
        <ele>61.3967</ele>
        <time>2010-12-26T09:24:03Z</time>
      </trkpt>
      <trkpt lat="46.30993" lon="-0.33718">
        <ele>61.3975</ele>
        <time>2010-12-26T09:24:04Z</time>
      </trkpt>
      <trkpt lat="46.30993" lon="-0.33717">
        <ele>61.403</ele>
        <time>2010-12-26T09:24:05Z</time>
      </trkpt>
      <trkpt lat="46.30992" lon="-0.33715">
        <ele>61.4086</ele>
        <time>2010-12-26T09:24:06Z</time>
      </trkpt>
      <trkpt lat="46.30992" lon="-0.33713">
        <ele>61.4161</ele>
        <time>2010-12-26T09:24:07Z</time>
      </trkpt>
      <trkpt lat="46.30991" lon="-0.33711">
        <ele>61.4257</ele>
        <time>2010-12-26T09:24:08Z</time>
      </trkpt>
      <trkpt lat="46.30991" lon="-0.33709">
        <ele>61.4366</ele>
        <time>2010-12-26T09:24:09Z</time>
      </trkpt>
      <trkpt lat="46.30991" lon="-0.33707">
        <ele>61.4476</ele>
        <time>2010-12-26T09:24:10Z</time>
      </trkpt>
      <trkpt lat="46.3099" lon="-0.33705">
        <ele>61.4591</ele>
        <time>2010-12-26T09:24:11Z</time>
      </trkpt>
      <trkpt lat="46.3099" lon="-0.33703">
        <ele>61.4805</ele>
        <time>2010-12-26T09:24:12Z</time>
      </trkpt>
      <trkpt lat="46.30989" lon="-0.33701">
        <ele>61.5095</ele>
        <time>2010-12-26T09:24:13Z</time>
      </trkpt>
      <trkpt lat="46.30989" lon="-0.33698">
        <ele>61.5437</ele>
        <time>2010-12-26T09:24:14Z</time>
      </trkpt>
      <trkpt lat="46.30988" lon="-0.33696">
        <ele>61.5819</ele>
        <time>2010-12-26T09:24:15Z</time>
      </trkpt>
      <trkpt lat="46.30988" lon="-0.33694">
        <ele>61.6244</ele>
        <time>2010-12-26T09:24:16Z</time>
      </trkpt>
      <trkpt lat="46.30988" lon="-0.33692">
        <ele>61.6649</ele>
        <time>2010-12-26T09:24:17Z</time>
      </trkpt>
      <trkpt lat="46.30988" lon="-0.3369">
        <ele>61.7082</ele>
        <time>2010-12-26T09:24:18Z</time>
      </trkpt>
      <trkpt lat="46.30988" lon="-0.33688">
        <ele>61.754</ele>
        <time>2010-12-26T09:24:19Z</time>
      </trkpt>
      <trkpt lat="46.30987" lon="-0.33686">
        <ele>61.7988</ele>
        <time>2010-12-26T09:24:20Z</time>
      </trkpt>
      <trkpt lat="46.30987" lon="-0.33684">
        <ele>61.8424</ele>
        <time>2010-12-26T09:24:21Z</time>
      </trkpt>
      <trkpt lat="46.30987" lon="-0.33682">
        <ele>61.8855</ele>
        <time>2010-12-26T09:24:22Z</time>
      </trkpt>
      <trkpt lat="46.30988" lon="-0.33681">
        <ele>61.9192</ele>
        <time>2010-12-26T09:24:23Z</time>
      </trkpt>
      <trkpt lat="46.30988" lon="-0.3368">
        <ele>61.9452</ele>
        <time>2010-12-26T09:24:24Z</time>
      </trkpt>
      <trkpt lat="46.30988" lon="-0.33678">
        <ele>61.96</ele>
        <time>2010-12-26T09:24:25Z</time>
      </trkpt>
      <trkpt lat="46.30988" lon="-0.33676">
        <ele>61.9715</ele>
        <time>2010-12-26T09:24:26Z</time>
      </trkpt>
      <trkpt lat="46.30988" lon="-0.33674">
        <ele>61.9565</ele>
        <time>2010-12-26T09:24:27Z</time>
      </trkpt>
      <trkpt lat="46.30988" lon="-0.33672">
        <ele>61.9369</ele>
        <time>2010-12-26T09:24:28Z</time>
      </trkpt>
      <trkpt lat="46.30988" lon="-0.3367">
        <ele>61.9073</ele>
        <time>2010-12-26T09:24:29Z</time>
      </trkpt>
      <trkpt lat="46.30988" lon="-0.33668">
        <ele>61.8774</ele>
        <time>2010-12-26T09:24:30Z</time>
      </trkpt>
      <trkpt lat="46.30988" lon="-0.33665">
        <ele>61.8479</ele>
        <time>2010-12-26T09:24:31Z</time>
      </trkpt>
      <trkpt lat="46.30987" lon="-0.33663">
        <ele>61.8169</ele>
        <time>2010-12-26T09:24:32Z</time>
      </trkpt>
      <trkpt lat="46.30987" lon="-0.3366">
        <ele>61.784</ele>
        <time>2010-12-26T09:24:33Z</time>
      </trkpt>
      <trkpt lat="46.30987" lon="-0.33657">
        <ele>61.7527</ele>
        <time>2010-12-26T09:24:34Z</time>
      </trkpt>
      <trkpt lat="46.30987" lon="-0.33655">
        <ele>61.7257</ele>
        <time>2010-12-26T09:24:35Z</time>
      </trkpt>
      <trkpt lat="46.30987" lon="-0.33653">
        <ele>61.7004</ele>
        <time>2010-12-26T09:24:36Z</time>
      </trkpt>
      <trkpt lat="46.30987" lon="-0.3365">
        <ele>61.674</ele>
        <time>2010-12-26T09:24:37Z</time>
      </trkpt>
      <trkpt lat="46.30986" lon="-0.33647">
        <ele>61.6496</ele>
        <time>2010-12-26T09:24:38Z</time>
      </trkpt>
      <trkpt lat="46.30986" lon="-0.33645">
        <ele>61.628</ele>
        <time>2010-12-26T09:24:39Z</time>
      </trkpt>
      <trkpt lat="46.30986" lon="-0.33642">
        <ele>61.6077</ele>
        <time>2010-12-26T09:24:40Z</time>
      </trkpt>
      <trkpt lat="46.30986" lon="-0.3364">
        <ele>61.589</ele>
        <time>2010-12-26T09:24:41Z</time>
      </trkpt>
      <trkpt lat="46.30986" lon="-0.33638">
        <ele>61.5726</ele>
        <time>2010-12-26T09:24:42Z</time>
      </trkpt>
      <trkpt lat="46.30986" lon="-0.33636">
        <ele>61.5581</ele>
        <time>2010-12-26T09:24:43Z</time>
      </trkpt>
      <trkpt lat="46.30985" lon="-0.33634">
        <ele>61.5514</ele>
        <time>2010-12-26T09:24:44Z</time>
      </trkpt>
      <trkpt lat="46.30985" lon="-0.33632">
        <ele>61.5526</ele>
        <time>2010-12-26T09:24:45Z</time>
      </trkpt>
      <trkpt lat="46.30984" lon="-0.3363">
        <ele>61.5571</ele>
        <time>2010-12-26T09:24:46Z</time>
      </trkpt>
      <trkpt lat="46.30983" lon="-0.33629">
        <ele>61.5654</ele>
        <time>2010-12-26T09:24:47Z</time>
      </trkpt>
      <trkpt lat="46.30983" lon="-0.33627">
        <ele>61.5771</ele>
        <time>2010-12-26T09:24:48Z</time>
      </trkpt>
      <trkpt lat="46.30983" lon="-0.33626">
        <ele>61.5897</ele>
        <time>2010-12-26T09:24:49Z</time>
      </trkpt>
      <trkpt lat="46.30982" lon="-0.33624">
        <ele>61.6038</ele>
        <time>2010-12-26T09:24:50Z</time>
      </trkpt>
      <trkpt lat="46.30982" lon="-0.33622">
        <ele>61.6183</ele>
        <time>2010-12-26T09:24:51Z</time>
      </trkpt>
      <trkpt lat="46.30981" lon="-0.3362">
        <ele>61.6397</ele>
        <time>2010-12-26T09:24:52Z</time>
      </trkpt>
      <trkpt lat="46.30981" lon="-0.33617">
        <ele>61.6625</ele>
        <time>2010-12-26T09:24:53Z</time>
      </trkpt>
      <trkpt lat="46.3098" lon="-0.33615">
        <ele>61.6882</ele>
        <time>2010-12-26T09:24:54Z</time>
      </trkpt>
      <trkpt lat="46.3098" lon="-0.33613">
        <ele>61.7137</ele>
        <time>2010-12-26T09:24:55Z</time>
      </trkpt>
      <trkpt lat="46.30979" lon="-0.33611">
        <ele>61.7386</ele>
        <time>2010-12-26T09:24:56Z</time>
      </trkpt>
      <trkpt lat="46.30979" lon="-0.33609">
        <ele>61.7621</ele>
        <time>2010-12-26T09:24:57Z</time>
      </trkpt>
      <trkpt lat="46.30978" lon="-0.33607">
        <ele>61.7839</ele>
        <time>2010-12-26T09:24:58Z</time>
      </trkpt>
      <trkpt lat="46.30978" lon="-0.33605">
        <ele>61.8057</ele>
        <time>2010-12-26T09:24:59Z</time>
      </trkpt>
      <trkpt lat="46.30977" lon="-0.33603">
        <ele>61.8277</ele>
        <time>2010-12-26T09:25:00Z</time>
      </trkpt>
      <trkpt lat="46.30977" lon="-0.33601">
        <ele>61.8493</ele>
        <time>2010-12-26T09:25:01Z</time>
      </trkpt>
      <trkpt lat="46.30977" lon="-0.33599">
        <ele>61.8707</ele>
        <time>2010-12-26T09:25:02Z</time>
      </trkpt>
      <trkpt lat="46.30976" lon="-0.33598">
        <ele>61.8912</ele>
        <time>2010-12-26T09:25:03Z</time>
      </trkpt>
      <trkpt lat="46.30976" lon="-0.33596">
        <ele>61.9082</ele>
        <time>2010-12-26T09:25:04Z</time>
      </trkpt>
      <trkpt lat="46.30976" lon="-0.33595">
        <ele>61.9148</ele>
        <time>2010-12-26T09:25:05Z</time>
      </trkpt>
      <trkpt lat="46.30976" lon="-0.33593">
        <ele>61.9062</ele>
        <time>2010-12-26T09:25:06Z</time>
      </trkpt>
      <trkpt lat="46.30976" lon="-0.33591">
        <ele>61.8917</ele>
        <time>2010-12-26T09:25:07Z</time>
      </trkpt>
      <trkpt lat="46.30975" lon="-0.33589">
        <ele>61.8794</ele>
        <time>2010-12-26T09:25:08Z</time>
      </trkpt>
      <trkpt lat="46.30975" lon="-0.33587">
        <ele>61.8657</ele>
        <time>2010-12-26T09:25:09Z</time>
      </trkpt>
      <trkpt lat="46.30975" lon="-0.33584">
        <ele>61.8516</ele>
        <time>2010-12-26T09:25:10Z</time>
      </trkpt>
      <trkpt lat="46.30975" lon="-0.33582">
        <ele>61.8341</ele>
        <time>2010-12-26T09:25:11Z</time>
      </trkpt>
      <trkpt lat="46.30975" lon="-0.3358">
        <ele>61.8157</ele>
        <time>2010-12-26T09:25:12Z</time>
      </trkpt>
      <trkpt lat="46.30975" lon="-0.33577">
        <ele>61.7987</ele>
        <time>2010-12-26T09:25:13Z</time>
      </trkpt>
      <trkpt lat="46.30975" lon="-0.33575">
        <ele>61.7812</ele>
        <time>2010-12-26T09:25:14Z</time>
      </trkpt>
      <trkpt lat="46.30974" lon="-0.33573">
        <ele>61.7631</ele>
        <time>2010-12-26T09:25:15Z</time>
      </trkpt>
      <trkpt lat="46.30974" lon="-0.33571">
        <ele>61.7451</ele>
        <time>2010-12-26T09:25:16Z</time>
      </trkpt>
      <trkpt lat="46.30974" lon="-0.33569">
        <ele>61.7269</ele>
        <time>2010-12-26T09:25:17Z</time>
      </trkpt>
      <trkpt lat="46.30974" lon="-0.33568">
        <ele>61.7052</ele>
        <time>2010-12-26T09:25:18Z</time>
      </trkpt>
      <trkpt lat="46.30973" lon="-0.33566">
        <ele>61.6668</ele>
        <time>2010-12-26T09:25:19Z</time>
      </trkpt>
      <trkpt lat="46.30972" lon="-0.33564">
        <ele>61.6136</ele>
        <time>2010-12-26T09:25:20Z</time>
      </trkpt>
      <trkpt lat="46.30972" lon="-0.33561">
        <ele>61.5509</ele>
        <time>2010-12-26T09:25:21Z</time>
      </trkpt>
      <trkpt lat="46.30971" lon="-0.33559">
        <ele>61.4823</ele>
        <time>2010-12-26T09:25:22Z</time>
      </trkpt>
      <trkpt lat="46.3097" lon="-0.33556">
        <ele>61.4077</ele>
        <time>2010-12-26T09:25:23Z</time>
      </trkpt>
      <trkpt lat="46.3097" lon="-0.33554">
        <ele>61.3293</ele>
        <time>2010-12-26T09:25:24Z</time>
      </trkpt>
      <trkpt lat="46.30969" lon="-0.33552">
        <ele>61.2505</ele>
        <time>2010-12-26T09:25:25Z</time>
      </trkpt>
      <trkpt lat="46.30969" lon="-0.3355">
        <ele>61.1726</ele>
        <time>2010-12-26T09:25:26Z</time>
      </trkpt>
      <trkpt lat="46.30969" lon="-0.33548">
        <ele>61.0954</ele>
        <time>2010-12-26T09:25:27Z</time>
      </trkpt>
      <trkpt lat="46.30968" lon="-0.33546">
        <ele>61.0196</ele>
        <time>2010-12-26T09:25:28Z</time>
      </trkpt>
      <trkpt lat="46.30968" lon="-0.33544">
        <ele>60.9452</ele>
        <time>2010-12-26T09:25:29Z</time>
      </trkpt>
      <trkpt lat="46.30967" lon="-0.33542">
        <ele>60.8713</ele>
        <time>2010-12-26T09:25:30Z</time>
      </trkpt>
      <trkpt lat="46.30967" lon="-0.3354">
        <ele>60.8076</ele>
        <time>2010-12-26T09:25:31Z</time>
      </trkpt>
      <trkpt lat="46.30967" lon="-0.33538">
        <ele>60.7469</ele>
        <time>2010-12-26T09:25:32Z</time>
      </trkpt>
      <trkpt lat="46.30966" lon="-0.33536">
        <ele>60.6909</ele>
        <time>2010-12-26T09:25:33Z</time>
      </trkpt>
      <trkpt lat="46.30966" lon="-0.33534">
        <ele>60.6372</ele>
        <time>2010-12-26T09:25:34Z</time>
      </trkpt>
      <trkpt lat="46.30966" lon="-0.33532">
        <ele>60.5857</ele>
        <time>2010-12-26T09:25:35Z</time>
      </trkpt>
      <trkpt lat="46.30966" lon="-0.3353">
        <ele>60.5359</ele>
        <time>2010-12-26T09:25:36Z</time>
      </trkpt>
      <trkpt lat="46.30965" lon="-0.33527">
        <ele>60.4881</ele>
        <time>2010-12-26T09:25:37Z</time>
      </trkpt>
      <trkpt lat="46.30965" lon="-0.33525">
        <ele>60.442</ele>
        <time>2010-12-26T09:25:38Z</time>
      </trkpt>
      <trkpt lat="46.30965" lon="-0.33523">
        <ele>60.3985</ele>
        <time>2010-12-26T09:25:39Z</time>
      </trkpt>
      <trkpt lat="46.30965" lon="-0.33521">
        <ele>60.3562</ele>
        <time>2010-12-26T09:25:40Z</time>
      </trkpt>
      <trkpt lat="46.30964" lon="-0.3352">
        <ele>60.3144</ele>
        <time>2010-12-26T09:25:41Z</time>
      </trkpt>
      <trkpt lat="46.30964" lon="-0.33518">
        <ele>60.2732</ele>
        <time>2010-12-26T09:25:42Z</time>
      </trkpt>
      <trkpt lat="46.30963" lon="-0.33516">
        <ele>60.2349</ele>
        <time>2010-12-26T09:25:43Z</time>
      </trkpt>
      <trkpt lat="46.30962" lon="-0.33514">
        <ele>60.1974</ele>
        <time>2010-12-26T09:25:44Z</time>
      </trkpt>
      <trkpt lat="46.30962" lon="-0.33512">
        <ele>60.1629</ele>
        <time>2010-12-26T09:25:45Z</time>
      </trkpt>
      <trkpt lat="46.30962" lon="-0.33509">
        <ele>60.1261</ele>
        <time>2010-12-26T09:25:46Z</time>
      </trkpt>
      <trkpt lat="46.30961" lon="-0.33507">
        <ele>60.0917</ele>
        <time>2010-12-26T09:25:47Z</time>
      </trkpt>
      <trkpt lat="46.3096" lon="-0.33504">
        <ele>60.0563</ele>
        <time>2010-12-26T09:25:48Z</time>
      </trkpt>
      <trkpt lat="46.3096" lon="-0.33502">
        <ele>60.0197</ele>
        <time>2010-12-26T09:25:49Z</time>
      </trkpt>
      <trkpt lat="46.30959" lon="-0.335">
        <ele>59.9817</ele>
        <time>2010-12-26T09:25:50Z</time>
      </trkpt>
      <trkpt lat="46.30959" lon="-0.33498">
        <ele>59.9301</ele>
        <time>2010-12-26T09:25:51Z</time>
      </trkpt>
      <trkpt lat="46.30959" lon="-0.33496">
        <ele>59.8664</ele>
        <time>2010-12-26T09:25:52Z</time>
      </trkpt>
      <trkpt lat="46.30958" lon="-0.33494">
        <ele>59.7991</ele>
        <time>2010-12-26T09:25:53Z</time>
      </trkpt>
      <trkpt lat="46.30958" lon="-0.33492">
        <ele>59.7293</ele>
        <time>2010-12-26T09:25:54Z</time>
      </trkpt>
      <trkpt lat="46.30957" lon="-0.3349">
        <ele>59.6613</ele>
        <time>2010-12-26T09:25:55Z</time>
      </trkpt>
      <trkpt lat="46.30957" lon="-0.33488">
        <ele>59.5924</ele>
        <time>2010-12-26T09:25:56Z</time>
      </trkpt>
      <trkpt lat="46.30956" lon="-0.33486">
        <ele>59.5182</ele>
        <time>2010-12-26T09:25:57Z</time>
      </trkpt>
      <trkpt lat="46.30955" lon="-0.33484">
        <ele>59.4439</ele>
        <time>2010-12-26T09:25:58Z</time>
      </trkpt>
      <trkpt lat="46.30954" lon="-0.33482">
        <ele>59.3659</ele>
        <time>2010-12-26T09:25:59Z</time>
      </trkpt>
      <trkpt lat="46.30953" lon="-0.3348">
        <ele>59.2886</ele>
        <time>2010-12-26T09:26:00Z</time>
      </trkpt>
      <trkpt lat="46.30953" lon="-0.33479">
        <ele>59.215</ele>
        <time>2010-12-26T09:26:01Z</time>
      </trkpt>
      <trkpt lat="46.30952" lon="-0.33477">
        <ele>59.1434</ele>
        <time>2010-12-26T09:26:02Z</time>
      </trkpt>
      <trkpt lat="46.30951" lon="-0.33475">
        <ele>59.0741</ele>
        <time>2010-12-26T09:26:03Z</time>
      </trkpt>
      <trkpt lat="46.3095" lon="-0.33472">
        <ele>59.0064</ele>
        <time>2010-12-26T09:26:04Z</time>
      </trkpt>
      <trkpt lat="46.30949" lon="-0.3347">
        <ele>58.9405</ele>
        <time>2010-12-26T09:26:05Z</time>
      </trkpt>
      <trkpt lat="46.30949" lon="-0.33468">
        <ele>58.8678</ele>
        <time>2010-12-26T09:26:06Z</time>
      </trkpt>
      <trkpt lat="46.30948" lon="-0.33466">
        <ele>58.7964</ele>
        <time>2010-12-26T09:26:07Z</time>
      </trkpt>
      <trkpt lat="46.30948" lon="-0.33464">
        <ele>58.707</ele>
        <time>2010-12-26T09:26:08Z</time>
      </trkpt>
      <trkpt lat="46.30948" lon="-0.33462">
        <ele>58.6117</ele>
        <time>2010-12-26T09:26:09Z</time>
      </trkpt>
      <trkpt lat="46.30947" lon="-0.3346">
        <ele>58.5053</ele>
        <time>2010-12-26T09:26:10Z</time>
      </trkpt>
      <trkpt lat="46.30947" lon="-0.33457">
        <ele>58.3975</ele>
        <time>2010-12-26T09:26:11Z</time>
      </trkpt>
      <trkpt lat="46.30947" lon="-0.33455">
        <ele>58.289</ele>
        <time>2010-12-26T09:26:12Z</time>
      </trkpt>
      <trkpt lat="46.30946" lon="-0.33452">
        <ele>58.1829</ele>
        <time>2010-12-26T09:26:13Z</time>
      </trkpt>
      <trkpt lat="46.30946" lon="-0.3345">
        <ele>58.0734</ele>
        <time>2010-12-26T09:26:14Z</time>
      </trkpt>
      <trkpt lat="46.30946" lon="-0.33447">
        <ele>57.9632</ele>
        <time>2010-12-26T09:26:15Z</time>
      </trkpt>
      <trkpt lat="46.30946" lon="-0.33445">
        <ele>57.8484</ele>
        <time>2010-12-26T09:26:16Z</time>
      </trkpt>
      <trkpt lat="46.30946" lon="-0.33444">
        <ele>57.7241</ele>
        <time>2010-12-26T09:26:17Z</time>
      </trkpt>
      <trkpt lat="46.30945" lon="-0.33443">
        <ele>57.5788</ele>
        <time>2010-12-26T09:26:18Z</time>
      </trkpt>
      <trkpt lat="46.30944" lon="-0.33442">
        <ele>57.4256</ele>
        <time>2010-12-26T09:26:19Z</time>
      </trkpt>
      <trkpt lat="46.30943" lon="-0.33441">
        <ele>57.2626</ele>
        <time>2010-12-26T09:26:20Z</time>
      </trkpt>
      <trkpt lat="46.30943" lon="-0.33439">
        <ele>57.0946</ele>
        <time>2010-12-26T09:26:21Z</time>
      </trkpt>
      <trkpt lat="46.30941" lon="-0.33438">
        <ele>56.9298</ele>
        <time>2010-12-26T09:26:22Z</time>
      </trkpt>
      <trkpt lat="46.30941" lon="-0.33436">
        <ele>56.7703</ele>
        <time>2010-12-26T09:26:23Z</time>
      </trkpt>
      <trkpt lat="46.3094" lon="-0.33434">
        <ele>56.6161</ele>
        <time>2010-12-26T09:26:24Z</time>
      </trkpt>
      <trkpt lat="46.30939" lon="-0.33433">
        <ele>56.4703</ele>
        <time>2010-12-26T09:26:25Z</time>
      </trkpt>
      <trkpt lat="46.30938" lon="-0.33431">
        <ele>56.34</ele>
        <time>2010-12-26T09:26:26Z</time>
      </trkpt>
      <trkpt lat="46.30938" lon="-0.33429">
        <ele>56.2248</ele>
        <time>2010-12-26T09:26:27Z</time>
      </trkpt>
      <trkpt lat="46.30937" lon="-0.33427">
        <ele>56.1167</ele>
        <time>2010-12-26T09:26:28Z</time>
      </trkpt>
      <trkpt lat="46.30937" lon="-0.33425">
        <ele>56.0161</ele>
        <time>2010-12-26T09:26:29Z</time>
      </trkpt>
      <trkpt lat="46.30936" lon="-0.33423">
        <ele>55.926</ele>
        <time>2010-12-26T09:26:30Z</time>
      </trkpt>
      <trkpt lat="46.30935" lon="-0.33421">
        <ele>55.8433</ele>
        <time>2010-12-26T09:26:31Z</time>
      </trkpt>
      <trkpt lat="46.30935" lon="-0.33418">
        <ele>55.7609</ele>
        <time>2010-12-26T09:26:32Z</time>
      </trkpt>
      <trkpt lat="46.30934" lon="-0.33415">
        <ele>55.684</ele>
        <time>2010-12-26T09:26:33Z</time>
      </trkpt>
      <trkpt lat="46.30933" lon="-0.33413">
        <ele>55.6067</ele>
        <time>2010-12-26T09:26:34Z</time>
      </trkpt>
      <trkpt lat="46.30933" lon="-0.3341">
        <ele>55.5333</ele>
        <time>2010-12-26T09:26:35Z</time>
      </trkpt>
      <trkpt lat="46.30932" lon="-0.33408">
        <ele>55.4633</ele>
        <time>2010-12-26T09:26:36Z</time>
      </trkpt>
      <trkpt lat="46.30932" lon="-0.33406">
        <ele>55.3981</ele>
        <time>2010-12-26T09:26:37Z</time>
      </trkpt>
      <trkpt lat="46.30932" lon="-0.33404">
        <ele>55.3374</ele>
        <time>2010-12-26T09:26:38Z</time>
      </trkpt>
      <trkpt lat="46.30932" lon="-0.33402">
        <ele>55.2756</ele>
        <time>2010-12-26T09:26:39Z</time>
      </trkpt>
      <trkpt lat="46.30931" lon="-0.334">
        <ele>55.2133</ele>
        <time>2010-12-26T09:26:40Z</time>
      </trkpt>
      <trkpt lat="46.3093" lon="-0.33399">
        <ele>55.1497</ele>
        <time>2010-12-26T09:26:41Z</time>
      </trkpt>
      <trkpt lat="46.3093" lon="-0.33397">
        <ele>55.0839</ele>
        <time>2010-12-26T09:26:42Z</time>
      </trkpt>
      <trkpt lat="46.30929" lon="-0.33395">
        <ele>55.015</ele>
        <time>2010-12-26T09:26:43Z</time>
      </trkpt>
      <trkpt lat="46.30928" lon="-0.33393">
        <ele>54.9466</ele>
        <time>2010-12-26T09:26:44Z</time>
      </trkpt>
      <trkpt lat="46.30928" lon="-0.3339">
        <ele>54.8804</ele>
        <time>2010-12-26T09:26:45Z</time>
      </trkpt>
      <trkpt lat="46.30927" lon="-0.33388">
        <ele>54.8152</ele>
        <time>2010-12-26T09:26:46Z</time>
      </trkpt>
      <trkpt lat="46.30927" lon="-0.33386">
        <ele>54.7514</ele>
        <time>2010-12-26T09:26:47Z</time>
      </trkpt>
      <trkpt lat="46.30926" lon="-0.33384">
        <ele>54.6895</ele>
        <time>2010-12-26T09:26:48Z</time>
      </trkpt>
      <trkpt lat="46.30925" lon="-0.33382">
        <ele>54.6282</ele>
        <time>2010-12-26T09:26:49Z</time>
      </trkpt>
      <trkpt lat="46.30925" lon="-0.3338">
        <ele>54.569</ele>
        <time>2010-12-26T09:26:50Z</time>
      </trkpt>
      <trkpt lat="46.30925" lon="-0.3338">
        <ele>54.5116</ele>
        <time>2010-12-26T09:26:51Z</time>
      </trkpt>
      <trkpt lat="46.30924" lon="-0.33378">
        <ele>54.454</ele>
        <time>2010-12-26T09:26:52Z</time>
      </trkpt>
      <trkpt lat="46.30924" lon="-0.33376">
        <ele>54.3963</ele>
        <time>2010-12-26T09:26:53Z</time>
      </trkpt>
      <trkpt lat="46.30924" lon="-0.33374">
        <ele>54.3368</ele>
        <time>2010-12-26T09:26:54Z</time>
      </trkpt>
      <trkpt lat="46.30924" lon="-0.33372">
        <ele>54.2768</ele>
        <time>2010-12-26T09:26:55Z</time>
      </trkpt>
      <trkpt lat="46.30923" lon="-0.3337">
        <ele>54.2177</ele>
        <time>2010-12-26T09:26:56Z</time>
      </trkpt>
      <trkpt lat="46.30922" lon="-0.33368">
        <ele>54.1584</ele>
        <time>2010-12-26T09:26:57Z</time>
      </trkpt>
      <trkpt lat="46.30922" lon="-0.33366">
        <ele>54.0986</ele>
        <time>2010-12-26T09:26:58Z</time>
      </trkpt>
      <trkpt lat="46.30922" lon="-0.33365">
        <ele>54.0359</ele>
        <time>2010-12-26T09:26:59Z</time>
      </trkpt>
      <trkpt lat="46.30921" lon="-0.33363">
        <ele>53.9747</ele>
        <time>2010-12-26T09:27:00Z</time>
      </trkpt>
      <trkpt lat="46.3092" lon="-0.33362">
        <ele>53.9086</ele>
        <time>2010-12-26T09:27:01Z</time>
      </trkpt>
      <trkpt lat="46.3092" lon="-0.3336">
        <ele>53.8465</ele>
        <time>2010-12-26T09:27:02Z</time>
      </trkpt>
      <trkpt lat="46.3092" lon="-0.33358">
        <ele>53.7857</ele>
        <time>2010-12-26T09:27:03Z</time>
      </trkpt>
      <trkpt lat="46.30919" lon="-0.33357">
        <ele>53.7197</ele>
        <time>2010-12-26T09:27:04Z</time>
      </trkpt>
      <trkpt lat="46.30918" lon="-0.33355">
        <ele>53.6465</ele>
        <time>2010-12-26T09:27:05Z</time>
      </trkpt>
      <trkpt lat="46.30917" lon="-0.33354">
        <ele>53.5688</ele>
        <time>2010-12-26T09:27:06Z</time>
      </trkpt>
      <trkpt lat="46.30917" lon="-0.33352">
        <ele>53.4941</ele>
        <time>2010-12-26T09:27:07Z</time>
      </trkpt>
      <trkpt lat="46.30916" lon="-0.33351">
        <ele>53.4163</ele>
        <time>2010-12-26T09:27:08Z</time>
      </trkpt>
      <trkpt lat="46.30915" lon="-0.33349">
        <ele>53.3369</ele>
        <time>2010-12-26T09:27:09Z</time>
      </trkpt>
      <trkpt lat="46.30915" lon="-0.33347">
        <ele>53.2581</ele>
        <time>2010-12-26T09:27:10Z</time>
      </trkpt>
      <trkpt lat="46.30914" lon="-0.33345">
        <ele>53.1781</ele>
        <time>2010-12-26T09:27:11Z</time>
      </trkpt>
      <trkpt lat="46.30914" lon="-0.33343">
        <ele>53.0925</ele>
        <time>2010-12-26T09:27:12Z</time>
      </trkpt>
      <trkpt lat="46.30913" lon="-0.33341">
        <ele>53.0046</ele>
        <time>2010-12-26T09:27:13Z</time>
      </trkpt>
      <trkpt lat="46.30912" lon="-0.33339">
        <ele>52.9181</ele>
        <time>2010-12-26T09:27:14Z</time>
      </trkpt>
      <trkpt lat="46.30912" lon="-0.33338">
        <ele>52.8353</ele>
        <time>2010-12-26T09:27:15Z</time>
      </trkpt>
      <trkpt lat="46.30912" lon="-0.33336">
        <ele>52.7539</ele>
        <time>2010-12-26T09:27:16Z</time>
      </trkpt>
      <trkpt lat="46.30911" lon="-0.33335">
        <ele>52.6739</ele>
        <time>2010-12-26T09:27:17Z</time>
      </trkpt>
      <trkpt lat="46.30911" lon="-0.33333">
        <ele>52.5974</ele>
        <time>2010-12-26T09:27:18Z</time>
      </trkpt>
      <trkpt lat="46.30911" lon="-0.33332">
        <ele>52.5243</ele>
        <time>2010-12-26T09:27:19Z</time>
      </trkpt>
      <trkpt lat="46.3091" lon="-0.3333">
        <ele>52.4533</ele>
        <time>2010-12-26T09:27:20Z</time>
      </trkpt>
      <trkpt lat="46.30909" lon="-0.33328">
        <ele>52.3872</ele>
        <time>2010-12-26T09:27:21Z</time>
      </trkpt>
      <trkpt lat="46.30909" lon="-0.33326">
        <ele>52.3264</ele>
        <time>2010-12-26T09:27:22Z</time>
      </trkpt>
      <trkpt lat="46.30909" lon="-0.33324">
        <ele>52.2705</ele>
        <time>2010-12-26T09:27:23Z</time>
      </trkpt>
      <trkpt lat="46.30909" lon="-0.33322">
        <ele>52.22</ele>
        <time>2010-12-26T09:27:24Z</time>
      </trkpt>
      <trkpt lat="46.30908" lon="-0.33319">
        <ele>52.1688</ele>
        <time>2010-12-26T09:27:25Z</time>
      </trkpt>
      <trkpt lat="46.30908" lon="-0.33317">
        <ele>52.113</ele>
        <time>2010-12-26T09:27:26Z</time>
      </trkpt>
      <trkpt lat="46.30907" lon="-0.33314">
        <ele>52.0526</ele>
        <time>2010-12-26T09:27:27Z</time>
      </trkpt>
      <trkpt lat="46.30907" lon="-0.33311">
        <ele>52.0061</ele>
        <time>2010-12-26T09:27:28Z</time>
      </trkpt>
      <trkpt lat="46.30906" lon="-0.33308">
        <ele>51.963</ele>
        <time>2010-12-26T09:27:29Z</time>
      </trkpt>
      <trkpt lat="46.30906" lon="-0.33305">
        <ele>51.9389</ele>
        <time>2010-12-26T09:27:30Z</time>
      </trkpt>
      <trkpt lat="46.30905" lon="-0.33302">
        <ele>51.9315</ele>
        <time>2010-12-26T09:27:31Z</time>
      </trkpt>
      <trkpt lat="46.30904" lon="-0.33298">
        <ele>51.945</ele>
        <time>2010-12-26T09:27:32Z</time>
      </trkpt>
      <trkpt lat="46.30903" lon="-0.33295">
        <ele>51.9409</ele>
        <time>2010-12-26T09:27:33Z</time>
      </trkpt>
      <trkpt lat="46.30902" lon="-0.33292">
        <ele>51.9209</ele>
        <time>2010-12-26T09:27:34Z</time>
      </trkpt>
      <trkpt lat="46.30901" lon="-0.33288">
        <ele>51.9142</ele>
        <time>2010-12-26T09:27:35Z</time>
      </trkpt>
      <trkpt lat="46.30901" lon="-0.33285">
        <ele>51.9237</ele>
        <time>2010-12-26T09:27:36Z</time>
      </trkpt>
      <trkpt lat="46.309" lon="-0.33282">
        <ele>51.9458</ele>
        <time>2010-12-26T09:27:37Z</time>
      </trkpt>
      <trkpt lat="46.30899" lon="-0.33279">
        <ele>51.9668</ele>
        <time>2010-12-26T09:27:38Z</time>
      </trkpt>
      <trkpt lat="46.30898" lon="-0.33276">
        <ele>51.9876</ele>
        <time>2010-12-26T09:27:39Z</time>
      </trkpt>
      <trkpt lat="46.30897" lon="-0.33274">
        <ele>52.0107</ele>
        <time>2010-12-26T09:27:40Z</time>
      </trkpt>
      <trkpt lat="46.30896" lon="-0.33272">
        <ele>52.0337</ele>
        <time>2010-12-26T09:27:41Z</time>
      </trkpt>
      <trkpt lat="46.30896" lon="-0.33271">
        <ele>52.0565</ele>
        <time>2010-12-26T09:27:42Z</time>
      </trkpt>
      <trkpt lat="46.30895" lon="-0.33269">
        <ele>52.0797</ele>
        <time>2010-12-26T09:27:43Z</time>
      </trkpt>
      <trkpt lat="46.30894" lon="-0.33268">
        <ele>52.1026</ele>
        <time>2010-12-26T09:27:44Z</time>
      </trkpt>
      <trkpt lat="46.30893" lon="-0.33266">
        <ele>52.1202</ele>
        <time>2010-12-26T09:27:45Z</time>
      </trkpt>
      <trkpt lat="46.30892" lon="-0.33265">
        <ele>52.1387</ele>
        <time>2010-12-26T09:27:46Z</time>
      </trkpt>
      <trkpt lat="46.30892" lon="-0.33263">
        <ele>52.1563</ele>
        <time>2010-12-26T09:27:47Z</time>
      </trkpt>
      <trkpt lat="46.30891" lon="-0.33261">
        <ele>52.1775</ele>
        <time>2010-12-26T09:27:48Z</time>
      </trkpt>
      <trkpt lat="46.30891" lon="-0.33259">
        <ele>52.2018</ele>
        <time>2010-12-26T09:27:49Z</time>
      </trkpt>
      <trkpt lat="46.30891" lon="-0.33257">
        <ele>52.225</ele>
        <time>2010-12-26T09:27:50Z</time>
      </trkpt>
      <trkpt lat="46.30891" lon="-0.33254">
        <ele>52.2474</ele>
        <time>2010-12-26T09:27:51Z</time>
      </trkpt>
      <trkpt lat="46.3089" lon="-0.33252">
        <ele>52.2702</ele>
        <time>2010-12-26T09:27:52Z</time>
      </trkpt>
      <trkpt lat="46.3089" lon="-0.3325">
        <ele>52.2938</ele>
        <time>2010-12-26T09:27:53Z</time>
      </trkpt>
      <trkpt lat="46.3089" lon="-0.33247">
        <ele>52.3186</ele>
        <time>2010-12-26T09:27:55Z</time>
      </trkpt>
      <trkpt lat="46.3089" lon="-0.33245">
        <ele>52.3439</ele>
        <time>2010-12-26T09:27:55Z</time>
      </trkpt>
      <trkpt lat="46.3089" lon="-0.33242">
        <ele>52.3702</ele>
        <time>2010-12-26T09:27:56Z</time>
      </trkpt>
      <trkpt lat="46.3089" lon="-0.3324">
        <ele>52.3973</ele>
        <time>2010-12-26T09:27:57Z</time>
      </trkpt>
      <trkpt lat="46.3089" lon="-0.33237">
        <ele>52.425</ele>
        <time>2010-12-26T09:27:58Z</time>
      </trkpt>
      <trkpt lat="46.30889" lon="-0.33235">
        <ele>52.4598</ele>
        <time>2010-12-26T09:27:59Z</time>
      </trkpt>
      <trkpt lat="46.30889" lon="-0.33233">
        <ele>52.4962</ele>
        <time>2010-12-26T09:28:00Z</time>
      </trkpt>
      <trkpt lat="46.30888" lon="-0.3323">
        <ele>52.5343</ele>
        <time>2010-12-26T09:28:01Z</time>
      </trkpt>
      <trkpt lat="46.30888" lon="-0.33229">
        <ele>52.5734</ele>
        <time>2010-12-26T09:28:02Z</time>
      </trkpt>
      <trkpt lat="46.30888" lon="-0.33227">
        <ele>52.6158</ele>
        <time>2010-12-26T09:28:03Z</time>
      </trkpt>
      <trkpt lat="46.30887" lon="-0.33225">
        <ele>52.6613</ele>
        <time>2010-12-26T09:28:04Z</time>
      </trkpt>
      <trkpt lat="46.30887" lon="-0.33223">
        <ele>52.7082</ele>
        <time>2010-12-26T09:28:05Z</time>
      </trkpt>
      <trkpt lat="46.30887" lon="-0.33221">
        <ele>52.7591</ele>
        <time>2010-12-26T09:28:06Z</time>
      </trkpt>
      <trkpt lat="46.30887" lon="-0.33218">
        <ele>52.8097</ele>
        <time>2010-12-26T09:28:07Z</time>
      </trkpt>
      <trkpt lat="46.30887" lon="-0.33216">
        <ele>52.8652</ele>
        <time>2010-12-26T09:28:08Z</time>
      </trkpt>
      <trkpt lat="46.30887" lon="-0.33213">
        <ele>52.9195</ele>
        <time>2010-12-26T09:28:09Z</time>
      </trkpt>
      <trkpt lat="46.30886" lon="-0.33208">
        <ele>52.9718</ele>
        <time>2010-12-26T09:28:10Z</time>
      </trkpt>
      <trkpt lat="46.30886" lon="-0.33206">
        <ele>53.0228</ele>
        <time>2010-12-26T09:28:11Z</time>
      </trkpt>
      <trkpt lat="46.30886" lon="-0.33204">
        <ele>53.0725</ele>
        <time>2010-12-26T09:28:12Z</time>
      </trkpt>
      <trkpt lat="46.30886" lon="-0.33202">
        <ele>53.121</ele>
        <time>2010-12-26T09:28:13Z</time>
      </trkpt>
      <trkpt lat="46.30886" lon="-0.332">
        <ele>53.1672</ele>
        <time>2010-12-26T09:28:14Z</time>
      </trkpt>
      <trkpt lat="46.30886" lon="-0.33198">
        <ele>53.2109</ele>
        <time>2010-12-26T09:28:15Z</time>
      </trkpt>
      <trkpt lat="46.30887" lon="-0.33196">
        <ele>53.2506</ele>
        <time>2010-12-26T09:28:16Z</time>
      </trkpt>
      <trkpt lat="46.30887" lon="-0.33194">
        <ele>53.2883</ele>
        <time>2010-12-26T09:28:17Z</time>
      </trkpt>
      <trkpt lat="46.30887" lon="-0.33192">
        <ele>53.3259</ele>
        <time>2010-12-26T09:28:18Z</time>
      </trkpt>
      <trkpt lat="46.30887" lon="-0.3319">
        <ele>53.3624</ele>
        <time>2010-12-26T09:28:19Z</time>
      </trkpt>
      <trkpt lat="46.30887" lon="-0.33188">
        <ele>53.4007</ele>
        <time>2010-12-26T09:28:20Z</time>
      </trkpt>
      <trkpt lat="46.30888" lon="-0.33186">
        <ele>53.438</ele>
        <time>2010-12-26T09:28:21Z</time>
      </trkpt>
      <trkpt lat="46.30888" lon="-0.33184">
        <ele>53.4733</ele>
        <time>2010-12-26T09:28:22Z</time>
      </trkpt>
      <trkpt lat="46.30888" lon="-0.33182">
        <ele>53.5072</ele>
        <time>2010-12-26T09:28:23Z</time>
      </trkpt>
      <trkpt lat="46.30888" lon="-0.3318">
        <ele>53.5362</ele>
        <time>2010-12-26T09:28:24Z</time>
      </trkpt>
      <trkpt lat="46.30888" lon="-0.33178">
        <ele>53.5613</ele>
        <time>2010-12-26T09:28:25Z</time>
      </trkpt>
      <trkpt lat="46.30888" lon="-0.33176">
        <ele>53.5852</ele>
        <time>2010-12-26T09:28:26Z</time>
      </trkpt>
      <trkpt lat="46.30887" lon="-0.33174">
        <ele>53.6068</ele>
        <time>2010-12-26T09:28:27Z</time>
      </trkpt>
      <trkpt lat="46.30887" lon="-0.33172">
        <ele>53.6278</ele>
        <time>2010-12-26T09:28:28Z</time>
      </trkpt>
      <trkpt lat="46.30887" lon="-0.33171">
        <ele>53.647</ele>
        <time>2010-12-26T09:28:29Z</time>
      </trkpt>
      <trkpt lat="46.30887" lon="-0.33169">
        <ele>53.6674</ele>
        <time>2010-12-26T09:28:30Z</time>
      </trkpt>
      <trkpt lat="46.30887" lon="-0.33167">
        <ele>53.6886</ele>
        <time>2010-12-26T09:28:31Z</time>
      </trkpt>
      <trkpt lat="46.30887" lon="-0.33165">
        <ele>53.7097</ele>
        <time>2010-12-26T09:28:32Z</time>
      </trkpt>
      <trkpt lat="46.30886" lon="-0.33163">
        <ele>53.7301</ele>
        <time>2010-12-26T09:28:33Z</time>
      </trkpt>
      <trkpt lat="46.30886" lon="-0.33161">
        <ele>53.7532</ele>
        <time>2010-12-26T09:28:34Z</time>
      </trkpt>
      <trkpt lat="46.30886" lon="-0.33159">
        <ele>53.7732</ele>
        <time>2010-12-26T09:28:35Z</time>
      </trkpt>
      <trkpt lat="46.30885" lon="-0.33157">
        <ele>53.7933</ele>
        <time>2010-12-26T09:28:37Z</time>
      </trkpt>
      <trkpt lat="46.30885" lon="-0.33154">
        <ele>53.8103</ele>
        <time>2010-12-26T09:28:37Z</time>
      </trkpt>
      <trkpt lat="46.30885" lon="-0.33152">
        <ele>53.8282</ele>
        <time>2010-12-26T09:28:38Z</time>
      </trkpt>
      <trkpt lat="46.30885" lon="-0.3315">
        <ele>53.8453</ele>
        <time>2010-12-26T09:28:39Z</time>
      </trkpt>
      <trkpt lat="46.30885" lon="-0.33148">
        <ele>53.8614</ele>
        <time>2010-12-26T09:28:40Z</time>
      </trkpt>
      <trkpt lat="46.30885" lon="-0.33147">
        <ele>53.8775</ele>
        <time>2010-12-26T09:28:41Z</time>
      </trkpt>
      <trkpt lat="46.30885" lon="-0.33145">
        <ele>53.8896</ele>
        <time>2010-12-26T09:28:42Z</time>
      </trkpt>
      <trkpt lat="46.30885" lon="-0.33143">
        <ele>53.9029</ele>
        <time>2010-12-26T09:28:43Z</time>
      </trkpt>
      <trkpt lat="46.30884" lon="-0.33141">
        <ele>53.911</ele>
        <time>2010-12-26T09:28:44Z</time>
      </trkpt>
      <trkpt lat="46.30884" lon="-0.33139">
        <ele>53.9158</ele>
        <time>2010-12-26T09:28:45Z</time>
      </trkpt>
      <trkpt lat="46.30884" lon="-0.33136">
        <ele>53.9062</ele>
        <time>2010-12-26T09:28:46Z</time>
      </trkpt>
      <trkpt lat="46.30883" lon="-0.33134">
        <ele>53.8963</ele>
        <time>2010-12-26T09:28:47Z</time>
      </trkpt>
      <trkpt lat="46.30883" lon="-0.33131">
        <ele>53.8757</ele>
        <time>2010-12-26T09:28:48Z</time>
      </trkpt>
      <trkpt lat="46.30883" lon="-0.33129">
        <ele>53.8508</ele>
        <time>2010-12-26T09:28:49Z</time>
      </trkpt>
      <trkpt lat="46.30883" lon="-0.33127">
        <ele>53.8234</ele>
        <time>2010-12-26T09:28:50Z</time>
      </trkpt>
      <trkpt lat="46.30882" lon="-0.33125">
        <ele>53.7972</ele>
        <time>2010-12-26T09:28:51Z</time>
      </trkpt>
      <trkpt lat="46.30882" lon="-0.33122">
        <ele>53.7714</ele>
        <time>2010-12-26T09:28:52Z</time>
      </trkpt>
      <trkpt lat="46.30882" lon="-0.3312">
        <ele>53.749</ele>
        <time>2010-12-26T09:28:53Z</time>
      </trkpt>
      <trkpt lat="46.30882" lon="-0.33117">
        <ele>53.7441</ele>
        <time>2010-12-26T09:28:54Z</time>
      </trkpt>
      <trkpt lat="46.30881" lon="-0.33114">
        <ele>53.7536</ele>
        <time>2010-12-26T09:28:55Z</time>
      </trkpt>
      <trkpt lat="46.3088" lon="-0.33111">
        <ele>53.7818</ele>
        <time>2010-12-26T09:28:56Z</time>
      </trkpt>
      <trkpt lat="46.3088" lon="-0.33108">
        <ele>53.8215</ele>
        <time>2010-12-26T09:28:57Z</time>
      </trkpt>
      <trkpt lat="46.3088" lon="-0.33106">
        <ele>53.8646</ele>
        <time>2010-12-26T09:28:58Z</time>
      </trkpt>
      <trkpt lat="46.3088" lon="-0.33103">
        <ele>53.9203</ele>
        <time>2010-12-26T09:28:59Z</time>
      </trkpt>
      <trkpt lat="46.3088" lon="-0.331">
        <ele>53.984</ele>
        <time>2010-12-26T09:29:00Z</time>
      </trkpt>
      <trkpt lat="46.30879" lon="-0.33098">
        <ele>54.0546</ele>
        <time>2010-12-26T09:29:01Z</time>
      </trkpt>
      <trkpt lat="46.30878" lon="-0.33095">
        <ele>54.1311</ele>
        <time>2010-12-26T09:29:02Z</time>
      </trkpt>
      <trkpt lat="46.30878" lon="-0.33093">
        <ele>54.2137</ele>
        <time>2010-12-26T09:29:03Z</time>
      </trkpt>
      <trkpt lat="46.30878" lon="-0.33091">
        <ele>54.3008</ele>
        <time>2010-12-26T09:29:04Z</time>
      </trkpt>
      <trkpt lat="46.30877" lon="-0.33089">
        <ele>54.3912</ele>
        <time>2010-12-26T09:29:05Z</time>
      </trkpt>
      <trkpt lat="46.30877" lon="-0.33087">
        <ele>54.4866</ele>
        <time>2010-12-26T09:29:06Z</time>
      </trkpt>
      <trkpt lat="46.30877" lon="-0.33085">
        <ele>54.5835</ele>
        <time>2010-12-26T09:29:07Z</time>
      </trkpt>
      <trkpt lat="46.30877" lon="-0.33083">
        <ele>54.6845</ele>
        <time>2010-12-26T09:29:08Z</time>
      </trkpt>
      <trkpt lat="46.30877" lon="-0.33081">
        <ele>54.7881</ele>
        <time>2010-12-26T09:29:09Z</time>
      </trkpt>
      <trkpt lat="46.30878" lon="-0.33079">
        <ele>54.8923</ele>
        <time>2010-12-26T09:29:10Z</time>
      </trkpt>
      <trkpt lat="46.30878" lon="-0.33077">
        <ele>54.9956</ele>
        <time>2010-12-26T09:29:11Z</time>
      </trkpt>
      <trkpt lat="46.30878" lon="-0.33075">
        <ele>55.097</ele>
        <time>2010-12-26T09:29:12Z</time>
      </trkpt>
      <trkpt lat="46.30879" lon="-0.33073">
        <ele>55.1969</ele>
        <time>2010-12-26T09:29:13Z</time>
      </trkpt>
      <trkpt lat="46.3088" lon="-0.33071">
        <ele>55.2951</ele>
        <time>2010-12-26T09:29:14Z</time>
      </trkpt>
      <trkpt lat="46.3088" lon="-0.33069">
        <ele>55.3913</ele>
        <time>2010-12-26T09:29:15Z</time>
      </trkpt>
      <trkpt lat="46.3088" lon="-0.33066">
        <ele>55.4855</ele>
        <time>2010-12-26T09:29:16Z</time>
      </trkpt>
      <trkpt lat="46.3088" lon="-0.33064">
        <ele>55.5778</ele>
        <time>2010-12-26T09:29:17Z</time>
      </trkpt>
      <trkpt lat="46.30881" lon="-0.33063">
        <ele>55.6683</ele>
        <time>2010-12-26T09:29:18Z</time>
      </trkpt>
      <trkpt lat="46.30881" lon="-0.33061">
        <ele>55.7566</ele>
        <time>2010-12-26T09:29:19Z</time>
      </trkpt>
      <trkpt lat="46.30881" lon="-0.33059">
        <ele>55.8425</ele>
        <time>2010-12-26T09:29:20Z</time>
      </trkpt>
      <trkpt lat="46.30881" lon="-0.33057">
        <ele>55.9265</ele>
        <time>2010-12-26T09:29:21Z</time>
      </trkpt>
      <trkpt lat="46.30881" lon="-0.33056">
        <ele>56.0082</ele>
        <time>2010-12-26T09:29:22Z</time>
      </trkpt>
      <trkpt lat="46.30882" lon="-0.33054">
        <ele>56.0874</ele>
        <time>2010-12-26T09:29:23Z</time>
      </trkpt>
      <trkpt lat="46.30882" lon="-0.33052">
        <ele>56.1622</ele>
        <time>2010-12-26T09:29:24Z</time>
      </trkpt>
      <trkpt lat="46.30882" lon="-0.33049">
        <ele>56.2327</ele>
        <time>2010-12-26T09:29:25Z</time>
      </trkpt>
      <trkpt lat="46.30882" lon="-0.33047">
        <ele>56.3017</ele>
        <time>2010-12-26T09:29:26Z</time>
      </trkpt>
      <trkpt lat="46.30882" lon="-0.33045">
        <ele>56.3652</ele>
        <time>2010-12-26T09:29:27Z</time>
      </trkpt>
      <trkpt lat="46.30882" lon="-0.33043">
        <ele>56.4266</ele>
        <time>2010-12-26T09:29:28Z</time>
      </trkpt>
      <trkpt lat="46.30883" lon="-0.33041">
        <ele>56.4879</ele>
        <time>2010-12-26T09:29:29Z</time>
      </trkpt>
      <trkpt lat="46.30883" lon="-0.3304">
        <ele>56.5495</ele>
        <time>2010-12-26T09:29:30Z</time>
      </trkpt>
      <trkpt lat="46.30883" lon="-0.33038">
        <ele>56.6063</ele>
        <time>2010-12-26T09:29:31Z</time>
      </trkpt>
      <trkpt lat="46.30883" lon="-0.33036">
        <ele>56.6626</ele>
        <time>2010-12-26T09:29:32Z</time>
      </trkpt>
      <trkpt lat="46.30883" lon="-0.33034">
        <ele>56.7179</ele>
        <time>2010-12-26T09:29:33Z</time>
      </trkpt>
      <trkpt lat="46.30883" lon="-0.33033">
        <ele>56.7718</ele>
        <time>2010-12-26T09:29:34Z</time>
      </trkpt>
      <trkpt lat="46.30883" lon="-0.33031">
        <ele>56.8243</ele>
        <time>2010-12-26T09:29:35Z</time>
      </trkpt>
      <trkpt lat="46.30883" lon="-0.33029">
        <ele>56.8755</ele>
        <time>2010-12-26T09:29:36Z</time>
      </trkpt>
      <trkpt lat="46.30883" lon="-0.33027">
        <ele>56.9229</ele>
        <time>2010-12-26T09:29:37Z</time>
      </trkpt>
      <trkpt lat="46.30883" lon="-0.33025">
        <ele>56.9624</ele>
        <time>2010-12-26T09:29:38Z</time>
      </trkpt>
      <trkpt lat="46.30883" lon="-0.33023">
        <ele>57.0017</ele>
        <time>2010-12-26T09:29:39Z</time>
      </trkpt>
      <trkpt lat="46.30883" lon="-0.33021">
        <ele>57.038</ele>
        <time>2010-12-26T09:29:40Z</time>
      </trkpt>
      <trkpt lat="46.30883" lon="-0.33019">
        <ele>57.0699</ele>
        <time>2010-12-26T09:29:41Z</time>
      </trkpt>
      <trkpt lat="46.30883" lon="-0.33016">
        <ele>57.0981</ele>
        <time>2010-12-26T09:29:42Z</time>
      </trkpt>
      <trkpt lat="46.30883" lon="-0.33014">
        <ele>57.1231</ele>
        <time>2010-12-26T09:29:43Z</time>
      </trkpt>
      <trkpt lat="46.30883" lon="-0.33012">
        <ele>57.144</ele>
        <time>2010-12-26T09:29:44Z</time>
      </trkpt>
      <trkpt lat="46.30883" lon="-0.3301">
        <ele>57.1652</ele>
        <time>2010-12-26T09:29:45Z</time>
      </trkpt>
      <trkpt lat="46.30883" lon="-0.33008">
        <ele>57.1859</ele>
        <time>2010-12-26T09:29:46Z</time>
      </trkpt>
      <trkpt lat="46.30883" lon="-0.33006">
        <ele>57.2044</ele>
        <time>2010-12-26T09:29:47Z</time>
      </trkpt>
      <trkpt lat="46.30883" lon="-0.33004">
        <ele>57.2228</ele>
        <time>2010-12-26T09:29:48Z</time>
      </trkpt>
      <trkpt lat="46.30883" lon="-0.33002">
        <ele>57.2412</ele>
        <time>2010-12-26T09:29:49Z</time>
      </trkpt>
      <trkpt lat="46.30883" lon="-0.33">
        <ele>57.2594</ele>
        <time>2010-12-26T09:29:50Z</time>
      </trkpt>
      <trkpt lat="46.30883" lon="-0.32998">
        <ele>57.2741</ele>
        <time>2010-12-26T09:29:51Z</time>
      </trkpt>
      <trkpt lat="46.30883" lon="-0.32996">
        <ele>57.2843</ele>
        <time>2010-12-26T09:29:52Z</time>
      </trkpt>
      <trkpt lat="46.30883" lon="-0.32995">
        <ele>57.2927</ele>
        <time>2010-12-26T09:29:53Z</time>
      </trkpt>
      <trkpt lat="46.30884" lon="-0.32993">
        <ele>57.2924</ele>
        <time>2010-12-26T09:29:54Z</time>
      </trkpt>
      <trkpt lat="46.30883" lon="-0.3299">
        <ele>57.2766</ele>
        <time>2010-12-26T09:29:55Z</time>
      </trkpt>
      <trkpt lat="46.30883" lon="-0.32988">
        <ele>57.2549</ele>
        <time>2010-12-26T09:29:56Z</time>
      </trkpt>
      <trkpt lat="46.30883" lon="-0.32986">
        <ele>57.2352</ele>
        <time>2010-12-26T09:29:57Z</time>
      </trkpt>
      <trkpt lat="46.30883" lon="-0.32984">
        <ele>57.211</ele>
        <time>2010-12-26T09:29:58Z</time>
      </trkpt>
      <trkpt lat="46.30882" lon="-0.32981">
        <ele>57.1812</ele>
        <time>2010-12-26T09:29:59Z</time>
      </trkpt>
      <trkpt lat="46.30882" lon="-0.32979">
        <ele>57.1489</ele>
        <time>2010-12-26T09:30:00Z</time>
      </trkpt>
      <trkpt lat="46.30882" lon="-0.32976">
        <ele>57.1145</ele>
        <time>2010-12-26T09:30:01Z</time>
      </trkpt>
      <trkpt lat="46.30882" lon="-0.32974">
        <ele>57.0826</ele>
        <time>2010-12-26T09:30:02Z</time>
      </trkpt>
      <trkpt lat="46.30883" lon="-0.32972">
        <ele>57.0536</ele>
        <time>2010-12-26T09:30:03Z</time>
      </trkpt>
      <trkpt lat="46.30883" lon="-0.3297">
        <ele>57.0169</ele>
        <time>2010-12-26T09:30:04Z</time>
      </trkpt>
      <trkpt lat="46.30882" lon="-0.32968">
        <ele>56.9795</ele>
        <time>2010-12-26T09:30:05Z</time>
      </trkpt>
      <trkpt lat="46.30883" lon="-0.32966">
        <ele>56.9405</ele>
        <time>2010-12-26T09:30:06Z</time>
      </trkpt>
      <trkpt lat="46.30883" lon="-0.32964">
        <ele>56.9027</ele>
        <time>2010-12-26T09:30:07Z</time>
      </trkpt>
      <trkpt lat="46.30883" lon="-0.32963">
        <ele>56.866</ele>
        <time>2010-12-26T09:30:08Z</time>
      </trkpt>
      <trkpt lat="46.30883" lon="-0.32961">
        <ele>56.8298</ele>
        <time>2010-12-26T09:30:09Z</time>
      </trkpt>
      <trkpt lat="46.30883" lon="-0.32959">
        <ele>56.7831</ele>
        <time>2010-12-26T09:30:10Z</time>
      </trkpt>
      <trkpt lat="46.30882" lon="-0.32957">
        <ele>56.7279</ele>
        <time>2010-12-26T09:30:11Z</time>
      </trkpt>
      <trkpt lat="46.30882" lon="-0.32955">
        <ele>56.663</ele>
        <time>2010-12-26T09:30:12Z</time>
      </trkpt>
      <trkpt lat="46.30882" lon="-0.32953">
        <ele>56.5997</ele>
        <time>2010-12-26T09:30:13Z</time>
      </trkpt>
      <trkpt lat="46.30882" lon="-0.32951">
        <ele>56.5273</ele>
        <time>2010-12-26T09:30:14Z</time>
      </trkpt>
      <trkpt lat="46.30881" lon="-0.32949">
        <ele>56.4561</ele>
        <time>2010-12-26T09:30:15Z</time>
      </trkpt>
      <trkpt lat="46.30881" lon="-0.32947">
        <ele>56.381</ele>
        <time>2010-12-26T09:30:16Z</time>
      </trkpt>
      <trkpt lat="46.30881" lon="-0.32945">
        <ele>56.3019</ele>
        <time>2010-12-26T09:30:17Z</time>
      </trkpt>
      <trkpt lat="46.30881" lon="-0.32943">
        <ele>56.2263</ele>
        <time>2010-12-26T09:30:18Z</time>
      </trkpt>
      <trkpt lat="46.30881" lon="-0.32941">
        <ele>56.1517</ele>
        <time>2010-12-26T09:30:19Z</time>
      </trkpt>
      <trkpt lat="46.30881" lon="-0.32939">
        <ele>56.0784</ele>
        <time>2010-12-26T09:30:20Z</time>
      </trkpt>
      <trkpt lat="46.30881" lon="-0.32938">
        <ele>56.0069</ele>
        <time>2010-12-26T09:30:21Z</time>
      </trkpt>
      <trkpt lat="46.3088" lon="-0.32936">
        <ele>55.938</ele>
        <time>2010-12-26T09:30:22Z</time>
      </trkpt>
      <trkpt lat="46.3088" lon="-0.32934">
        <ele>55.8719</ele>
        <time>2010-12-26T09:30:23Z</time>
      </trkpt>
      <trkpt lat="46.3088" lon="-0.32932">
        <ele>55.8068</ele>
        <time>2010-12-26T09:30:24Z</time>
      </trkpt>
      <trkpt lat="46.30879" lon="-0.3293">
        <ele>55.7441</ele>
        <time>2010-12-26T09:30:25Z</time>
      </trkpt>
      <trkpt lat="46.30879" lon="-0.32928">
        <ele>55.6849</ele>
        <time>2010-12-26T09:30:26Z</time>
      </trkpt>
      <trkpt lat="46.30878" lon="-0.32926">
        <ele>55.6246</ele>
        <time>2010-12-26T09:30:27Z</time>
      </trkpt>
      <trkpt lat="46.30878" lon="-0.32924">
        <ele>55.5654</ele>
        <time>2010-12-26T09:30:28Z</time>
      </trkpt>
      <trkpt lat="46.30877" lon="-0.32922">
        <ele>55.5038</ele>
        <time>2010-12-26T09:30:29Z</time>
      </trkpt>
      <trkpt lat="46.30877" lon="-0.32919">
        <ele>55.4442</ele>
        <time>2010-12-26T09:30:30Z</time>
      </trkpt>
      <trkpt lat="46.30877" lon="-0.32917">
        <ele>55.3865</ele>
        <time>2010-12-26T09:30:31Z</time>
      </trkpt>
      <trkpt lat="46.30876" lon="-0.32915">
        <ele>55.3243</ele>
        <time>2010-12-26T09:30:32Z</time>
      </trkpt>
      <trkpt lat="46.30876" lon="-0.32914">
        <ele>55.2559</ele>
        <time>2010-12-26T09:30:33Z</time>
      </trkpt>
      <trkpt lat="46.30876" lon="-0.32913">
        <ele>55.1894</ele>
        <time>2010-12-26T09:30:34Z</time>
      </trkpt>
      <trkpt lat="46.30876" lon="-0.32911">
        <ele>55.1126</ele>
        <time>2010-12-26T09:30:35Z</time>
      </trkpt>
      <trkpt lat="46.30875" lon="-0.32908">
        <ele>55.0305</ele>
        <time>2010-12-26T09:30:36Z</time>
      </trkpt>
      <trkpt lat="46.30875" lon="-0.32906">
        <ele>54.9449</ele>
        <time>2010-12-26T09:30:37Z</time>
      </trkpt>
      <trkpt lat="46.30874" lon="-0.32904">
        <ele>54.8601</ele>
        <time>2010-12-26T09:30:38Z</time>
      </trkpt>
      <trkpt lat="46.30874" lon="-0.32901">
        <ele>54.7845</ele>
        <time>2010-12-26T09:30:39Z</time>
      </trkpt>
      <trkpt lat="46.30874" lon="-0.32899">
        <ele>54.7148</ele>
        <time>2010-12-26T09:30:40Z</time>
      </trkpt>
      <trkpt lat="46.30873" lon="-0.32897">
        <ele>54.6478</ele>
        <time>2010-12-26T09:30:41Z</time>
      </trkpt>
      <trkpt lat="46.30872" lon="-0.32894">
        <ele>54.5973</ele>
        <time>2010-12-26T09:30:42Z</time>
      </trkpt>
      <trkpt lat="46.30871" lon="-0.32891">
        <ele>54.5613</ele>
        <time>2010-12-26T09:30:43Z</time>
      </trkpt>
      <trkpt lat="46.3087" lon="-0.32888">
        <ele>54.5276</ele>
        <time>2010-12-26T09:30:44Z</time>
      </trkpt>
      <trkpt lat="46.3087" lon="-0.32886">
        <ele>54.4967</ele>
        <time>2010-12-26T09:30:45Z</time>
      </trkpt>
      <trkpt lat="46.30869" lon="-0.32883">
        <ele>54.4689</ele>
        <time>2010-12-26T09:30:46Z</time>
      </trkpt>
      <trkpt lat="46.30868" lon="-0.32881">
        <ele>54.4354</ele>
        <time>2010-12-26T09:30:47Z</time>
      </trkpt>
      <trkpt lat="46.30867" lon="-0.32879">
        <ele>54.3784</ele>
        <time>2010-12-26T09:30:48Z</time>
      </trkpt>
      <trkpt lat="46.30867" lon="-0.32877">
        <ele>54.3109</ele>
        <time>2010-12-26T09:30:49Z</time>
      </trkpt>
      <trkpt lat="46.30866" lon="-0.32874">
        <ele>54.2462</ele>
        <time>2010-12-26T09:30:50Z</time>
      </trkpt>
      <trkpt lat="46.30866" lon="-0.32872">
        <ele>54.1864</ele>
        <time>2010-12-26T09:30:51Z</time>
      </trkpt>
      <trkpt lat="46.30866" lon="-0.3287">
        <ele>54.1282</ele>
        <time>2010-12-26T09:30:52Z</time>
      </trkpt>
      <trkpt lat="46.30866" lon="-0.32868">
        <ele>54.0714</ele>
        <time>2010-12-26T09:30:53Z</time>
      </trkpt>
      <trkpt lat="46.30865" lon="-0.32866">
        <ele>54.0136</ele>
        <time>2010-12-26T09:30:54Z</time>
      </trkpt>
      <trkpt lat="46.30865" lon="-0.32863">
        <ele>53.9565</ele>
        <time>2010-12-26T09:30:55Z</time>
      </trkpt>
      <trkpt lat="46.30864" lon="-0.32861">
        <ele>53.8966</ele>
        <time>2010-12-26T09:30:56Z</time>
      </trkpt>
      <trkpt lat="46.30864" lon="-0.3286">
        <ele>53.8333</ele>
        <time>2010-12-26T09:30:57Z</time>
      </trkpt>
      <trkpt lat="46.30863" lon="-0.32858">
        <ele>53.7648</ele>
        <time>2010-12-26T09:30:58Z</time>
      </trkpt>
      <trkpt lat="46.30863" lon="-0.32856">
        <ele>53.6948</ele>
        <time>2010-12-26T09:30:59Z</time>
      </trkpt>
      <trkpt lat="46.30863" lon="-0.32854">
        <ele>53.6277</ele>
        <time>2010-12-26T09:31:00Z</time>
      </trkpt>
      <trkpt lat="46.30862" lon="-0.32852">
        <ele>53.5629</ele>
        <time>2010-12-26T09:31:01Z</time>
      </trkpt>
      <trkpt lat="46.30862" lon="-0.3285">
        <ele>53.5014</ele>
        <time>2010-12-26T09:31:02Z</time>
      </trkpt>
      <trkpt lat="46.30862" lon="-0.32848">
        <ele>53.4462</ele>
        <time>2010-12-26T09:31:03Z</time>
      </trkpt>
      <trkpt lat="46.30862" lon="-0.32846">
        <ele>53.3991</ele>
        <time>2010-12-26T09:31:04Z</time>
      </trkpt>
      <trkpt lat="46.30862" lon="-0.32844">
        <ele>53.3623</ele>
        <time>2010-12-26T09:31:05Z</time>
      </trkpt>
      <trkpt lat="46.30861" lon="-0.32841">
        <ele>53.328</ele>
        <time>2010-12-26T09:31:06Z</time>
      </trkpt>
      <trkpt lat="46.30861" lon="-0.32839">
        <ele>53.2946</ele>
        <time>2010-12-26T09:31:07Z</time>
      </trkpt>
      <trkpt lat="46.3086" lon="-0.32836">
        <ele>53.259</ele>
        <time>2010-12-26T09:31:08Z</time>
      </trkpt>
      <trkpt lat="46.30859" lon="-0.32834">
        <ele>53.2215</ele>
        <time>2010-12-26T09:31:09Z</time>
      </trkpt>
      <trkpt lat="46.30859" lon="-0.32832">
        <ele>53.1817</ele>
        <time>2010-12-26T09:31:10Z</time>
      </trkpt>
      <trkpt lat="46.30859" lon="-0.3283">
        <ele>53.145</ele>
        <time>2010-12-26T09:31:11Z</time>
      </trkpt>
      <trkpt lat="46.30858" lon="-0.32828">
        <ele>53.1134</ele>
        <time>2010-12-26T09:31:12Z</time>
      </trkpt>
      <trkpt lat="46.30858" lon="-0.32826">
        <ele>53.0859</ele>
        <time>2010-12-26T09:31:13Z</time>
      </trkpt>
      <trkpt lat="46.30858" lon="-0.32824">
        <ele>53.0629</ele>
        <time>2010-12-26T09:31:14Z</time>
      </trkpt>
      <trkpt lat="46.30857" lon="-0.32822">
        <ele>53.0457</ele>
        <time>2010-12-26T09:31:15Z</time>
      </trkpt>
      <trkpt lat="46.30857" lon="-0.32821">
        <ele>53.0346</ele>
        <time>2010-12-26T09:31:16Z</time>
      </trkpt>
      <trkpt lat="46.30857" lon="-0.32819">
        <ele>53.0292</ele>
        <time>2010-12-26T09:31:17Z</time>
      </trkpt>
      <trkpt lat="46.30857" lon="-0.32817">
        <ele>53.0175</ele>
        <time>2010-12-26T09:31:18Z</time>
      </trkpt>
      <trkpt lat="46.30857" lon="-0.32815">
        <ele>53.0107</ele>
        <time>2010-12-26T09:31:19Z</time>
      </trkpt>
      <trkpt lat="46.30857" lon="-0.32812">
        <ele>52.9956</ele>
        <time>2010-12-26T09:31:20Z</time>
      </trkpt>
      <trkpt lat="46.30857" lon="-0.3281">
        <ele>52.9885</ele>
        <time>2010-12-26T09:31:21Z</time>
      </trkpt>
      <trkpt lat="46.30857" lon="-0.32806">
        <ele>52.9851</ele>
        <time>2010-12-26T09:31:22Z</time>
      </trkpt>
      <trkpt lat="46.30857" lon="-0.32804">
        <ele>52.9876</ele>
        <time>2010-12-26T09:31:23Z</time>
      </trkpt>
      <trkpt lat="46.30857" lon="-0.32802">
        <ele>52.999</ele>
        <time>2010-12-26T09:31:24Z</time>
      </trkpt>
      <trkpt lat="46.30857" lon="-0.328">
        <ele>53.0209</ele>
        <time>2010-12-26T09:31:25Z</time>
      </trkpt>
      <trkpt lat="46.30857" lon="-0.32798">
        <ele>53.0436</ele>
        <time>2010-12-26T09:31:26Z</time>
      </trkpt>
      <trkpt lat="46.30857" lon="-0.32795">
        <ele>53.064</ele>
        <time>2010-12-26T09:31:27Z</time>
      </trkpt>
      <trkpt lat="46.30857" lon="-0.32793">
        <ele>53.087</ele>
        <time>2010-12-26T09:31:28Z</time>
      </trkpt>
      <trkpt lat="46.30857" lon="-0.3279">
        <ele>53.1126</ele>
        <time>2010-12-26T09:31:29Z</time>
      </trkpt>
      <trkpt lat="46.30857" lon="-0.32788">
        <ele>53.1401</ele>
        <time>2010-12-26T09:31:30Z</time>
      </trkpt>
      <trkpt lat="46.30858" lon="-0.32785">
        <ele>53.1695</ele>
        <time>2010-12-26T09:31:31Z</time>
      </trkpt>
      <trkpt lat="46.30858" lon="-0.32783">
        <ele>53.2015</ele>
        <time>2010-12-26T09:31:32Z</time>
      </trkpt>
      <trkpt lat="46.30858" lon="-0.32781">
        <ele>53.2368</ele>
        <time>2010-12-26T09:31:33Z</time>
      </trkpt>
      <trkpt lat="46.30858" lon="-0.32778">
        <ele>53.2738</ele>
        <time>2010-12-26T09:31:34Z</time>
      </trkpt>
      <trkpt lat="46.30859" lon="-0.32776">
        <ele>53.3105</ele>
        <time>2010-12-26T09:31:35Z</time>
      </trkpt>
      <trkpt lat="46.30859" lon="-0.32774">
        <ele>53.3473</ele>
        <time>2010-12-26T09:31:36Z</time>
      </trkpt>
      <trkpt lat="46.30859" lon="-0.32771">
        <ele>53.3853</ele>
        <time>2010-12-26T09:31:37Z</time>
      </trkpt>
      <trkpt lat="46.30859" lon="-0.32769">
        <ele>53.4243</ele>
        <time>2010-12-26T09:31:38Z</time>
      </trkpt>
      <trkpt lat="46.30859" lon="-0.32767">
        <ele>53.4609</ele>
        <time>2010-12-26T09:31:39Z</time>
      </trkpt>
      <trkpt lat="46.30859" lon="-0.32765">
        <ele>53.4993</ele>
        <time>2010-12-26T09:31:40Z</time>
      </trkpt>
      <trkpt lat="46.30859" lon="-0.32763">
        <ele>53.5375</ele>
        <time>2010-12-26T09:31:41Z</time>
      </trkpt>
      <trkpt lat="46.30859" lon="-0.32761">
        <ele>53.5733</ele>
        <time>2010-12-26T09:31:42Z</time>
      </trkpt>
      <trkpt lat="46.30859" lon="-0.32759">
        <ele>53.611</ele>
        <time>2010-12-26T09:31:43Z</time>
      </trkpt>
      <trkpt lat="46.30859" lon="-0.32757">
        <ele>53.6453</ele>
        <time>2010-12-26T09:31:44Z</time>
      </trkpt>
      <trkpt lat="46.30859" lon="-0.32755">
        <ele>53.6795</ele>
        <time>2010-12-26T09:31:45Z</time>
      </trkpt>
      <trkpt lat="46.30859" lon="-0.32753">
        <ele>53.7135</ele>
        <time>2010-12-26T09:31:46Z</time>
      </trkpt>
      <trkpt lat="46.30859" lon="-0.32751">
        <ele>53.739</ele>
        <time>2010-12-26T09:31:47Z</time>
      </trkpt>
      <trkpt lat="46.30859" lon="-0.32749">
        <ele>53.7645</ele>
        <time>2010-12-26T09:31:48Z</time>
      </trkpt>
      <trkpt lat="46.30859" lon="-0.32746">
        <ele>53.7899</ele>
        <time>2010-12-26T09:31:49Z</time>
      </trkpt>
      <trkpt lat="46.30859" lon="-0.32744">
        <ele>53.8078</ele>
        <time>2010-12-26T09:31:50Z</time>
      </trkpt>
      <trkpt lat="46.30859" lon="-0.32742">
        <ele>53.8199</ele>
        <time>2010-12-26T09:31:51Z</time>
      </trkpt>
      <trkpt lat="46.30859" lon="-0.32739">
        <ele>53.8265</ele>
        <time>2010-12-26T09:31:52Z</time>
      </trkpt>
      <trkpt lat="46.30859" lon="-0.32737">
        <ele>53.8306</ele>
        <time>2010-12-26T09:31:53Z</time>
      </trkpt>
      <trkpt lat="46.30859" lon="-0.32734">
        <ele>53.8371</ele>
        <time>2010-12-26T09:31:54Z</time>
      </trkpt>
      <trkpt lat="46.30859" lon="-0.32732">
        <ele>53.8485</ele>
        <time>2010-12-26T09:31:55Z</time>
      </trkpt>
      <trkpt lat="46.30859" lon="-0.3273">
        <ele>53.8573</ele>
        <time>2010-12-26T09:31:56Z</time>
      </trkpt>
      <trkpt lat="46.30859" lon="-0.32727">
        <ele>53.8645</ele>
        <time>2010-12-26T09:31:57Z</time>
      </trkpt>
      <trkpt lat="46.3086" lon="-0.32725">
        <ele>53.8734</ele>
        <time>2010-12-26T09:31:58Z</time>
      </trkpt>
      <trkpt lat="46.3086" lon="-0.32723">
        <ele>53.8841</ele>
        <time>2010-12-26T09:31:59Z</time>
      </trkpt>
      <trkpt lat="46.3086" lon="-0.32721">
        <ele>53.8999</ele>
        <time>2010-12-26T09:32:00Z</time>
      </trkpt>
      <trkpt lat="46.3086" lon="-0.32719">
        <ele>53.9206</ele>
        <time>2010-12-26T09:32:01Z</time>
      </trkpt>
      <trkpt lat="46.3086" lon="-0.32716">
        <ele>53.9499</ele>
        <time>2010-12-26T09:32:02Z</time>
      </trkpt>
      <trkpt lat="46.30859" lon="-0.32714">
        <ele>53.9922</ele>
        <time>2010-12-26T09:32:03Z</time>
      </trkpt>
      <trkpt lat="46.30859" lon="-0.32712">
        <ele>54.0338</ele>
        <time>2010-12-26T09:32:04Z</time>
      </trkpt>
      <trkpt lat="46.30858" lon="-0.32709">
        <ele>54.0907</ele>
        <time>2010-12-26T09:32:05Z</time>
      </trkpt>
      <trkpt lat="46.30858" lon="-0.32706">
        <ele>54.1607</ele>
        <time>2010-12-26T09:32:06Z</time>
      </trkpt>
      <trkpt lat="46.30858" lon="-0.32703">
        <ele>54.2451</ele>
        <time>2010-12-26T09:32:07Z</time>
      </trkpt>
      <trkpt lat="46.30858" lon="-0.32701">
        <ele>54.3391</ele>
        <time>2010-12-26T09:32:08Z</time>
      </trkpt>
      <trkpt lat="46.30858" lon="-0.32698">
        <ele>54.4379</ele>
        <time>2010-12-26T09:32:09Z</time>
      </trkpt>
      <trkpt lat="46.30858" lon="-0.32696">
        <ele>54.5481</ele>
        <time>2010-12-26T09:32:10Z</time>
      </trkpt>
      <trkpt lat="46.30859" lon="-0.32694">
        <ele>54.6615</ele>
        <time>2010-12-26T09:32:11Z</time>
      </trkpt>
      <trkpt lat="46.30859" lon="-0.32692">
        <ele>54.7757</ele>
        <time>2010-12-26T09:32:12Z</time>
      </trkpt>
      <trkpt lat="46.30859" lon="-0.3269">
        <ele>54.899</ele>
        <time>2010-12-26T09:32:13Z</time>
      </trkpt>
      <trkpt lat="46.3086" lon="-0.32688">
        <ele>55.0282</ele>
        <time>2010-12-26T09:32:14Z</time>
      </trkpt>
      <trkpt lat="46.3086" lon="-0.32685">
        <ele>55.1611</ele>
        <time>2010-12-26T09:32:15Z</time>
      </trkpt>
      <trkpt lat="46.30861" lon="-0.32683">
        <ele>55.2974</ele>
        <time>2010-12-26T09:32:16Z</time>
      </trkpt>
      <trkpt lat="46.30861" lon="-0.32681">
        <ele>55.4333</ele>
        <time>2010-12-26T09:32:17Z</time>
      </trkpt>
      <trkpt lat="46.30862" lon="-0.32679">
        <ele>55.5707</ele>
        <time>2010-12-26T09:32:18Z</time>
      </trkpt>
      <trkpt lat="46.30862" lon="-0.32677">
        <ele>55.7068</ele>
        <time>2010-12-26T09:32:19Z</time>
      </trkpt>
      <trkpt lat="46.30863" lon="-0.32675">
        <ele>55.8394</ele>
        <time>2010-12-26T09:32:20Z</time>
      </trkpt>
      <trkpt lat="46.30864" lon="-0.32674">
        <ele>55.9702</ele>
        <time>2010-12-26T09:32:21Z</time>
      </trkpt>
      <trkpt lat="46.30864" lon="-0.32672">
        <ele>56.1002</ele>
        <time>2010-12-26T09:32:22Z</time>
      </trkpt>
      <trkpt lat="46.30864" lon="-0.32669">
        <ele>56.2274</ele>
        <time>2010-12-26T09:32:23Z</time>
      </trkpt>
      <trkpt lat="46.30864" lon="-0.32667">
        <ele>56.354</ele>
        <time>2010-12-26T09:32:24Z</time>
      </trkpt>
      <trkpt lat="46.30864" lon="-0.32665">
        <ele>56.4802</ele>
        <time>2010-12-26T09:32:25Z</time>
      </trkpt>
      <trkpt lat="46.30864" lon="-0.32663">
        <ele>56.6067</ele>
        <time>2010-12-26T09:32:26Z</time>
      </trkpt>
      <trkpt lat="46.30864" lon="-0.3266">
        <ele>56.733</ele>
        <time>2010-12-26T09:32:27Z</time>
      </trkpt>
      <trkpt lat="46.30864" lon="-0.32658">
        <ele>56.861</ele>
        <time>2010-12-26T09:32:28Z</time>
      </trkpt>
      <trkpt lat="46.30864" lon="-0.32656">
        <ele>56.9869</ele>
        <time>2010-12-26T09:32:29Z</time>
      </trkpt>
      <trkpt lat="46.30865" lon="-0.32654">
        <ele>57.1114</ele>
        <time>2010-12-26T09:32:30Z</time>
      </trkpt>
      <trkpt lat="46.30865" lon="-0.32652">
        <ele>57.2329</ele>
        <time>2010-12-26T09:32:31Z</time>
      </trkpt>
      <trkpt lat="46.30865" lon="-0.32649">
        <ele>57.3524</ele>
        <time>2010-12-26T09:32:32Z</time>
      </trkpt>
      <trkpt lat="46.30865" lon="-0.32647">
        <ele>57.469</ele>
        <time>2010-12-26T09:32:33Z</time>
      </trkpt>
      <trkpt lat="46.30865" lon="-0.32645">
        <ele>57.5821</ele>
        <time>2010-12-26T09:32:34Z</time>
      </trkpt>
      <trkpt lat="46.30866" lon="-0.32644">
        <ele>57.6946</ele>
        <time>2010-12-26T09:32:35Z</time>
      </trkpt>
      <trkpt lat="46.30866" lon="-0.32642">
        <ele>57.8059</ele>
        <time>2010-12-26T09:32:36Z</time>
      </trkpt>
      <trkpt lat="46.30866" lon="-0.3264">
        <ele>57.9157</ele>
        <time>2010-12-26T09:32:37Z</time>
      </trkpt>
      <trkpt lat="46.30866" lon="-0.32638">
        <ele>58.023</ele>
        <time>2010-12-26T09:32:38Z</time>
      </trkpt>
      <trkpt lat="46.30866" lon="-0.32635">
        <ele>58.1275</ele>
        <time>2010-12-26T09:32:39Z</time>
      </trkpt>
      <trkpt lat="46.30866" lon="-0.32633">
        <ele>58.2293</ele>
        <time>2010-12-26T09:32:40Z</time>
      </trkpt>
      <trkpt lat="46.30865" lon="-0.32631">
        <ele>58.3298</ele>
        <time>2010-12-26T09:32:41Z</time>
      </trkpt>
      <trkpt lat="46.30865" lon="-0.32629">
        <ele>58.4288</ele>
        <time>2010-12-26T09:32:42Z</time>
      </trkpt>
      <trkpt lat="46.30865" lon="-0.32626">
        <ele>58.5257</ele>
        <time>2010-12-26T09:32:43Z</time>
      </trkpt>
      <trkpt lat="46.30865" lon="-0.32624">
        <ele>58.6214</ele>
        <time>2010-12-26T09:32:44Z</time>
      </trkpt>
      <trkpt lat="46.30865" lon="-0.32622">
        <ele>58.7131</ele>
        <time>2010-12-26T09:32:45Z</time>
      </trkpt>
      <trkpt lat="46.30865" lon="-0.3262">
        <ele>58.8037</ele>
        <time>2010-12-26T09:32:46Z</time>
      </trkpt>
      <trkpt lat="46.30866" lon="-0.32618">
        <ele>58.8928</ele>
        <time>2010-12-26T09:32:47Z</time>
      </trkpt>
      <trkpt lat="46.30866" lon="-0.32616">
        <ele>58.9781</ele>
        <time>2010-12-26T09:32:48Z</time>
      </trkpt>
      <trkpt lat="46.30866" lon="-0.32614">
        <ele>59.0628</ele>
        <time>2010-12-26T09:32:49Z</time>
      </trkpt>
      <trkpt lat="46.30866" lon="-0.32612">
        <ele>59.1463</ele>
        <time>2010-12-26T09:32:50Z</time>
      </trkpt>
      <trkpt lat="46.30866" lon="-0.32609">
        <ele>59.2289</ele>
        <time>2010-12-26T09:32:51Z</time>
      </trkpt>
      <trkpt lat="46.30866" lon="-0.32607">
        <ele>59.3098</ele>
        <time>2010-12-26T09:32:52Z</time>
      </trkpt>
      <trkpt lat="46.30866" lon="-0.32605">
        <ele>59.3895</ele>
        <time>2010-12-26T09:32:53Z</time>
      </trkpt>
      <trkpt lat="46.30866" lon="-0.32603">
        <ele>59.4678</ele>
        <time>2010-12-26T09:32:54Z</time>
      </trkpt>
      <trkpt lat="46.30866" lon="-0.32601">
        <ele>59.5444</ele>
        <time>2010-12-26T09:32:55Z</time>
      </trkpt>
      <trkpt lat="46.30866" lon="-0.32599">
        <ele>59.6192</ele>
        <time>2010-12-26T09:32:56Z</time>
      </trkpt>
      <trkpt lat="46.30866" lon="-0.32597">
        <ele>59.6934</ele>
        <time>2010-12-26T09:32:57Z</time>
      </trkpt>
      <trkpt lat="46.30866" lon="-0.32595">
        <ele>59.7666</ele>
        <time>2010-12-26T09:32:58Z</time>
      </trkpt>
      <trkpt lat="46.30866" lon="-0.32594">
        <ele>59.8398</ele>
        <time>2010-12-26T09:32:59Z</time>
      </trkpt>
      <trkpt lat="46.30866" lon="-0.32591">
        <ele>59.9119</ele>
        <time>2010-12-26T09:33:00Z</time>
      </trkpt>
      <trkpt lat="46.30866" lon="-0.32589">
        <ele>59.9847</ele>
        <time>2010-12-26T09:33:01Z</time>
      </trkpt>
      <trkpt lat="46.30866" lon="-0.32588">
        <ele>60.059</ele>
        <time>2010-12-26T09:33:02Z</time>
      </trkpt>
      <trkpt lat="46.30867" lon="-0.32586">
        <ele>60.1342</ele>
        <time>2010-12-26T09:33:03Z</time>
      </trkpt>
      <trkpt lat="46.30867" lon="-0.32584">
        <ele>60.21</ele>
        <time>2010-12-26T09:33:04Z</time>
      </trkpt>
      <trkpt lat="46.30867" lon="-0.32582">
        <ele>60.2842</ele>
        <time>2010-12-26T09:33:05Z</time>
      </trkpt>
      <trkpt lat="46.30867" lon="-0.3258">
        <ele>60.3557</ele>
        <time>2010-12-26T09:33:06Z</time>
      </trkpt>
      <trkpt lat="46.30867" lon="-0.32578">
        <ele>60.4258</ele>
        <time>2010-12-26T09:33:07Z</time>
      </trkpt>
      <trkpt lat="46.30867" lon="-0.32576">
        <ele>60.4948</ele>
        <time>2010-12-26T09:33:08Z</time>
      </trkpt>
      <trkpt lat="46.30867" lon="-0.32574">
        <ele>60.5628</ele>
        <time>2010-12-26T09:33:09Z</time>
      </trkpt>
      <trkpt lat="46.30867" lon="-0.32572">
        <ele>60.6296</ele>
        <time>2010-12-26T09:33:10Z</time>
      </trkpt>
      <trkpt lat="46.30867" lon="-0.3257">
        <ele>60.6954</ele>
        <time>2010-12-26T09:33:11Z</time>
      </trkpt>
      <trkpt lat="46.30867" lon="-0.32568">
        <ele>60.76</ele>
        <time>2010-12-26T09:33:12Z</time>
      </trkpt>
      <trkpt lat="46.30867" lon="-0.32567">
        <ele>60.8233</ele>
        <time>2010-12-26T09:33:13Z</time>
      </trkpt>
      <trkpt lat="46.30867" lon="-0.32565">
        <ele>60.8856</ele>
        <time>2010-12-26T09:33:14Z</time>
      </trkpt>
      <trkpt lat="46.30867" lon="-0.32563">
        <ele>60.9467</ele>
        <time>2010-12-26T09:33:15Z</time>
      </trkpt>
      <trkpt lat="46.30867" lon="-0.32561">
        <ele>61.0069</ele>
        <time>2010-12-26T09:33:16Z</time>
      </trkpt>
      <trkpt lat="46.30867" lon="-0.32559">
        <ele>61.0624</ele>
        <time>2010-12-26T09:33:17Z</time>
      </trkpt>
      <trkpt lat="46.30867" lon="-0.32557">
        <ele>61.1144</ele>
        <time>2010-12-26T09:33:18Z</time>
      </trkpt>
      <trkpt lat="46.30867" lon="-0.32555">
        <ele>61.1634</ele>
        <time>2010-12-26T09:33:19Z</time>
      </trkpt>
      <trkpt lat="46.30867" lon="-0.32553">
        <ele>61.2096</ele>
        <time>2010-12-26T09:33:20Z</time>
      </trkpt>
      <trkpt lat="46.30867" lon="-0.32551">
        <ele>61.2554</ele>
        <time>2010-12-26T09:33:21Z</time>
      </trkpt>
      <trkpt lat="46.30867" lon="-0.32549">
        <ele>61.3015</ele>
        <time>2010-12-26T09:33:22Z</time>
      </trkpt>
      <trkpt lat="46.30866" lon="-0.32547">
        <ele>61.3468</ele>
        <time>2010-12-26T09:33:23Z</time>
      </trkpt>
      <trkpt lat="46.30866" lon="-0.32545">
        <ele>61.3913</ele>
        <time>2010-12-26T09:33:24Z</time>
      </trkpt>
      <trkpt lat="46.30866" lon="-0.32543">
        <ele>61.4296</ele>
        <time>2010-12-26T09:33:25Z</time>
      </trkpt>
      <trkpt lat="46.30865" lon="-0.32541">
        <ele>61.4649</ele>
        <time>2010-12-26T09:33:26Z</time>
      </trkpt>
      <trkpt lat="46.30865" lon="-0.32539">
        <ele>61.5007</ele>
        <time>2010-12-26T09:33:27Z</time>
      </trkpt>
      <trkpt lat="46.30864" lon="-0.32537">
        <ele>61.5356</ele>
        <time>2010-12-26T09:33:28Z</time>
      </trkpt>
      <trkpt lat="46.30864" lon="-0.32535">
        <ele>61.5698</ele>
        <time>2010-12-26T09:33:29Z</time>
      </trkpt>
      <trkpt lat="46.30864" lon="-0.32533">
        <ele>61.6024</ele>
        <time>2010-12-26T09:33:30Z</time>
      </trkpt>
      <trkpt lat="46.30863" lon="-0.32531">
        <ele>61.6346</ele>
        <time>2010-12-26T09:33:31Z</time>
      </trkpt>
      <trkpt lat="46.30863" lon="-0.32529">
        <ele>61.6682</ele>
        <time>2010-12-26T09:33:32Z</time>
      </trkpt>
      <trkpt lat="46.30863" lon="-0.32528">
        <ele>61.7005</ele>
        <time>2010-12-26T09:33:33Z</time>
      </trkpt>
      <trkpt lat="46.30862" lon="-0.32526">
        <ele>61.7305</ele>
        <time>2010-12-26T09:33:34Z</time>
      </trkpt>
      <trkpt lat="46.30862" lon="-0.32524">
        <ele>61.7567</ele>
        <time>2010-12-26T09:33:35Z</time>
      </trkpt>
      <trkpt lat="46.30862" lon="-0.32522">
        <ele>61.7825</ele>
        <time>2010-12-26T09:33:36Z</time>
      </trkpt>
      <trkpt lat="46.30862" lon="-0.3252">
        <ele>61.8079</ele>
        <time>2010-12-26T09:33:37Z</time>
      </trkpt>
      <trkpt lat="46.30861" lon="-0.32518">
        <ele>61.8331</ele>
        <time>2010-12-26T09:33:38Z</time>
      </trkpt>
      <trkpt lat="46.30861" lon="-0.32516">
        <ele>61.8584</ele>
        <time>2010-12-26T09:33:39Z</time>
      </trkpt>
      <trkpt lat="46.30861" lon="-0.32514">
        <ele>61.8829</ele>
        <time>2010-12-26T09:33:40Z</time>
      </trkpt>
      <trkpt lat="46.30861" lon="-0.32512">
        <ele>61.9079</ele>
        <time>2010-12-26T09:33:41Z</time>
      </trkpt>
      <trkpt lat="46.30861" lon="-0.3251">
        <ele>61.9286</ele>
        <time>2010-12-26T09:33:42Z</time>
      </trkpt>
      <trkpt lat="46.30862" lon="-0.32508">
        <ele>61.9453</ele>
        <time>2010-12-26T09:33:43Z</time>
      </trkpt>
      <trkpt lat="46.30861" lon="-0.32506">
        <ele>61.9618</ele>
        <time>2010-12-26T09:33:44Z</time>
      </trkpt>
      <trkpt lat="46.30861" lon="-0.32503">
        <ele>61.9775</ele>
        <time>2010-12-26T09:33:45Z</time>
      </trkpt>
      <trkpt lat="46.30861" lon="-0.32501">
        <ele>61.9962</ele>
        <time>2010-12-26T09:33:46Z</time>
      </trkpt>
      <trkpt lat="46.30862" lon="-0.32499">
        <ele>62.017</ele>
        <time>2010-12-26T09:33:47Z</time>
      </trkpt>
      <trkpt lat="46.30862" lon="-0.32497">
        <ele>62.0381</ele>
        <time>2010-12-26T09:33:48Z</time>
      </trkpt>
      <trkpt lat="46.30862" lon="-0.32495">
        <ele>62.0592</ele>
        <time>2010-12-26T09:33:49Z</time>
      </trkpt>
      <trkpt lat="46.30862" lon="-0.32493">
        <ele>62.08</ele>
        <time>2010-12-26T09:33:50Z</time>
      </trkpt>
      <trkpt lat="46.30862" lon="-0.32491">
        <ele>62.0937</ele>
        <time>2010-12-26T09:33:51Z</time>
      </trkpt>
      <trkpt lat="46.30861" lon="-0.32489">
        <ele>62.1056</ele>
        <time>2010-12-26T09:33:52Z</time>
      </trkpt>
      <trkpt lat="46.30861" lon="-0.32487">
        <ele>62.1184</ele>
        <time>2010-12-26T09:33:53Z</time>
      </trkpt>
      <trkpt lat="46.30861" lon="-0.32485">
        <ele>62.1327</ele>
        <time>2010-12-26T09:33:54Z</time>
      </trkpt>
      <trkpt lat="46.30861" lon="-0.32482">
        <ele>62.1436</ele>
        <time>2010-12-26T09:33:55Z</time>
      </trkpt>
      <trkpt lat="46.30861" lon="-0.3248">
        <ele>62.1544</ele>
        <time>2010-12-26T09:33:56Z</time>
      </trkpt>
      <trkpt lat="46.3086" lon="-0.32478">
        <ele>62.1636</ele>
        <time>2010-12-26T09:33:57Z</time>
      </trkpt>
      <trkpt lat="46.3086" lon="-0.32476">
        <ele>62.1635</ele>
        <time>2010-12-26T09:33:58Z</time>
      </trkpt>
      <trkpt lat="46.30859" lon="-0.32474">
        <ele>62.1592</ele>
        <time>2010-12-26T09:33:59Z</time>
      </trkpt>
      <trkpt lat="46.30858" lon="-0.32472">
        <ele>62.1532</ele>
        <time>2010-12-26T09:34:00Z</time>
      </trkpt>
      <trkpt lat="46.30858" lon="-0.32469">
        <ele>62.1497</ele>
        <time>2010-12-26T09:34:01Z</time>
      </trkpt>
      <trkpt lat="46.30858" lon="-0.32467">
        <ele>62.1472</ele>
        <time>2010-12-26T09:34:02Z</time>
      </trkpt>
      <trkpt lat="46.30857" lon="-0.32465">
        <ele>62.1445</ele>
        <time>2010-12-26T09:34:03Z</time>
      </trkpt>
      <trkpt lat="46.30857" lon="-0.32463">
        <ele>62.1426</ele>
        <time>2010-12-26T09:34:04Z</time>
      </trkpt>
      <trkpt lat="46.30856" lon="-0.32461">
        <ele>62.1418</ele>
        <time>2010-12-26T09:34:05Z</time>
      </trkpt>
      <trkpt lat="46.30856" lon="-0.32459">
        <ele>62.1425</ele>
        <time>2010-12-26T09:34:06Z</time>
      </trkpt>
      <trkpt lat="46.30856" lon="-0.32457">
        <ele>62.1447</ele>
        <time>2010-12-26T09:34:07Z</time>
      </trkpt>
      <trkpt lat="46.30855" lon="-0.32456">
        <ele>62.1487</ele>
        <time>2010-12-26T09:34:08Z</time>
      </trkpt>
      <trkpt lat="46.30854" lon="-0.32454">
        <ele>62.1554</ele>
        <time>2010-12-26T09:34:09Z</time>
      </trkpt>
      <trkpt lat="46.30854" lon="-0.32452">
        <ele>62.1653</ele>
        <time>2010-12-26T09:34:10Z</time>
      </trkpt>
      <trkpt lat="46.30853" lon="-0.3245">
        <ele>62.18</ele>
        <time>2010-12-26T09:34:11Z</time>
      </trkpt>
      <trkpt lat="46.30853" lon="-0.32448">
        <ele>62.1983</ele>
        <time>2010-12-26T09:34:12Z</time>
      </trkpt>
      <trkpt lat="46.30852" lon="-0.32445">
        <ele>62.2186</ele>
        <time>2010-12-26T09:34:13Z</time>
      </trkpt>
      <trkpt lat="46.30851" lon="-0.32443">
        <ele>62.2417</ele>
        <time>2010-12-26T09:34:14Z</time>
      </trkpt>
      <trkpt lat="46.30851" lon="-0.32441">
        <ele>62.2672</ele>
        <time>2010-12-26T09:34:15Z</time>
      </trkpt>
      <trkpt lat="46.3085" lon="-0.32439">
        <ele>62.2924</ele>
        <time>2010-12-26T09:34:16Z</time>
      </trkpt>
      <trkpt lat="46.3085" lon="-0.32436">
        <ele>62.3182</ele>
        <time>2010-12-26T09:34:17Z</time>
      </trkpt>
      <trkpt lat="46.30849" lon="-0.32434">
        <ele>62.3452</ele>
        <time>2010-12-26T09:34:18Z</time>
      </trkpt>
      <trkpt lat="46.30849" lon="-0.32432">
        <ele>62.3704</ele>
        <time>2010-12-26T09:34:19Z</time>
      </trkpt>
      <trkpt lat="46.30848" lon="-0.3243">
        <ele>62.3984</ele>
        <time>2010-12-26T09:34:20Z</time>
      </trkpt>
      <trkpt lat="46.30848" lon="-0.32428">
        <ele>62.4278</ele>
        <time>2010-12-26T09:34:21Z</time>
      </trkpt>
      <trkpt lat="46.30848" lon="-0.32426">
        <ele>62.4507</ele>
        <time>2010-12-26T09:34:22Z</time>
      </trkpt>
      <trkpt lat="46.30848" lon="-0.32423">
        <ele>62.4738</ele>
        <time>2010-12-26T09:34:23Z</time>
      </trkpt>
      <trkpt lat="46.30848" lon="-0.32421">
        <ele>62.497</ele>
        <time>2010-12-26T09:34:24Z</time>
      </trkpt>
      <trkpt lat="46.30848" lon="-0.32419">
        <ele>62.5211</ele>
        <time>2010-12-26T09:34:25Z</time>
      </trkpt>
      <trkpt lat="46.30848" lon="-0.32417">
        <ele>62.5458</ele>
        <time>2010-12-26T09:34:26Z</time>
      </trkpt>
      <trkpt lat="46.30848" lon="-0.32415">
        <ele>62.5643</ele>
        <time>2010-12-26T09:34:27Z</time>
      </trkpt>
      <trkpt lat="46.30847" lon="-0.32412">
        <ele>62.5779</ele>
        <time>2010-12-26T09:34:28Z</time>
      </trkpt>
      <trkpt lat="46.30847" lon="-0.3241">
        <ele>62.5946</ele>
        <time>2010-12-26T09:34:29Z</time>
      </trkpt>
      <trkpt lat="46.30847" lon="-0.32408">
        <ele>62.6062</ele>
        <time>2010-12-26T09:34:30Z</time>
      </trkpt>
      <trkpt lat="46.30846" lon="-0.32406">
        <ele>62.6187</ele>
        <time>2010-12-26T09:34:31Z</time>
      </trkpt>
      <trkpt lat="46.30846" lon="-0.32403">
        <ele>62.6322</ele>
        <time>2010-12-26T09:34:32Z</time>
      </trkpt>
      <trkpt lat="46.30846" lon="-0.32401">
        <ele>62.6451</ele>
        <time>2010-12-26T09:34:33Z</time>
      </trkpt>
      <trkpt lat="46.30845" lon="-0.32399">
        <ele>62.6587</ele>
        <time>2010-12-26T09:34:34Z</time>
      </trkpt>
      <trkpt lat="46.30845" lon="-0.32398">
        <ele>62.6745</ele>
        <time>2010-12-26T09:34:35Z</time>
      </trkpt>
      <trkpt lat="46.30844" lon="-0.32396">
        <ele>62.6874</ele>
        <time>2010-12-26T09:34:36Z</time>
      </trkpt>
      <trkpt lat="46.30843" lon="-0.32394">
        <ele>62.7031</ele>
        <time>2010-12-26T09:34:37Z</time>
      </trkpt>
      <trkpt lat="46.30843" lon="-0.32393">
        <ele>62.7206</ele>
        <time>2010-12-26T09:34:38Z</time>
      </trkpt>
      <trkpt lat="46.30842" lon="-0.32391">
        <ele>62.7362</ele>
        <time>2010-12-26T09:34:39Z</time>
      </trkpt>
      <trkpt lat="46.30841" lon="-0.32388">
        <ele>62.7519</ele>
        <time>2010-12-26T09:34:40Z</time>
      </trkpt>
      <trkpt lat="46.30841" lon="-0.32386">
        <ele>62.7679</ele>
        <time>2010-12-26T09:34:41Z</time>
      </trkpt>
      <trkpt lat="46.30841" lon="-0.32384">
        <ele>62.7822</ele>
        <time>2010-12-26T09:34:42Z</time>
      </trkpt>
      <trkpt lat="46.3084" lon="-0.32382">
        <ele>62.7966</ele>
        <time>2010-12-26T09:34:43Z</time>
      </trkpt>
      <trkpt lat="46.3084" lon="-0.3238">
        <ele>62.8101</ele>
        <time>2010-12-26T09:34:44Z</time>
      </trkpt>
      <trkpt lat="46.30839" lon="-0.32378">
        <ele>62.8243</ele>
        <time>2010-12-26T09:34:45Z</time>
      </trkpt>
      <trkpt lat="46.30839" lon="-0.32376">
        <ele>62.8383</ele>
        <time>2010-12-26T09:34:46Z</time>
      </trkpt>
      <trkpt lat="46.30839" lon="-0.32374">
        <ele>62.8532</ele>
        <time>2010-12-26T09:34:47Z</time>
      </trkpt>
      <trkpt lat="46.30838" lon="-0.32372">
        <ele>62.8673</ele>
        <time>2010-12-26T09:34:48Z</time>
      </trkpt>
      <trkpt lat="46.30838" lon="-0.3237">
        <ele>62.88</ele>
        <time>2010-12-26T09:34:49Z</time>
      </trkpt>
      <trkpt lat="46.30838" lon="-0.32368">
        <ele>62.8924</ele>
        <time>2010-12-26T09:34:50Z</time>
      </trkpt>
      <trkpt lat="46.30838" lon="-0.32366">
        <ele>62.9054</ele>
        <time>2010-12-26T09:34:51Z</time>
      </trkpt>
      <trkpt lat="46.30838" lon="-0.32364">
        <ele>62.9184</ele>
        <time>2010-12-26T09:34:52Z</time>
      </trkpt>
      <trkpt lat="46.30837" lon="-0.32362">
        <ele>62.932</ele>
        <time>2010-12-26T09:34:53Z</time>
      </trkpt>
      <trkpt lat="46.30837" lon="-0.3236">
        <ele>62.9461</ele>
        <time>2010-12-26T09:34:54Z</time>
      </trkpt>
      <trkpt lat="46.30836" lon="-0.32358">
        <ele>62.9612</ele>
        <time>2010-12-26T09:34:55Z</time>
      </trkpt>
      <trkpt lat="46.30835" lon="-0.32356">
        <ele>62.9761</ele>
        <time>2010-12-26T09:34:56Z</time>
      </trkpt>
      <trkpt lat="46.30835" lon="-0.32355">
        <ele>62.9931</ele>
        <time>2010-12-26T09:34:57Z</time>
      </trkpt>
      <trkpt lat="46.30835" lon="-0.32353">
        <ele>63.0125</ele>
        <time>2010-12-26T09:34:58Z</time>
      </trkpt>
      <trkpt lat="46.30835" lon="-0.32351">
        <ele>63.0314</ele>
        <time>2010-12-26T09:34:59Z</time>
      </trkpt>
      <trkpt lat="46.30834" lon="-0.32349">
        <ele>63.0508</ele>
        <time>2010-12-26T09:35:00Z</time>
      </trkpt>
      <trkpt lat="46.30834" lon="-0.32347">
        <ele>63.0707</ele>
        <time>2010-12-26T09:35:01Z</time>
      </trkpt>
      <trkpt lat="46.30834" lon="-0.32345">
        <ele>63.0916</ele>
        <time>2010-12-26T09:35:02Z</time>
      </trkpt>
      <trkpt lat="46.30833" lon="-0.32343">
        <ele>63.1134</ele>
        <time>2010-12-26T09:35:03Z</time>
      </trkpt>
      <trkpt lat="46.30833" lon="-0.32341">
        <ele>63.1359</ele>
        <time>2010-12-26T09:35:04Z</time>
      </trkpt>
      <trkpt lat="46.30833" lon="-0.32339">
        <ele>63.1565</ele>
        <time>2010-12-26T09:35:05Z</time>
      </trkpt>
      <trkpt lat="46.30832" lon="-0.32337">
        <ele>63.178</ele>
        <time>2010-12-26T09:35:06Z</time>
      </trkpt>
      <trkpt lat="46.30832" lon="-0.32336">
        <ele>63.2011</ele>
        <time>2010-12-26T09:35:07Z</time>
      </trkpt>
      <trkpt lat="46.30832" lon="-0.32334">
        <ele>63.2247</ele>
        <time>2010-12-26T09:35:08Z</time>
      </trkpt>
      <trkpt lat="46.30832" lon="-0.32332">
        <ele>63.2506</ele>
        <time>2010-12-26T09:35:09Z</time>
      </trkpt>
      <trkpt lat="46.30831" lon="-0.3233">
        <ele>63.2788</ele>
        <time>2010-12-26T09:35:10Z</time>
      </trkpt>
      <trkpt lat="46.30831" lon="-0.32327">
        <ele>63.3076</ele>
        <time>2010-12-26T09:35:11Z</time>
      </trkpt>
      <trkpt lat="46.3083" lon="-0.32325">
        <ele>63.3383</ele>
        <time>2010-12-26T09:35:12Z</time>
      </trkpt>
      <trkpt lat="46.3083" lon="-0.32323">
        <ele>63.3696</ele>
        <time>2010-12-26T09:35:13Z</time>
      </trkpt>
      <trkpt lat="46.30829" lon="-0.32321">
        <ele>63.4032</ele>
        <time>2010-12-26T09:35:14Z</time>
      </trkpt>
      <trkpt lat="46.30829" lon="-0.32319">
        <ele>63.438</ele>
        <time>2010-12-26T09:35:15Z</time>
      </trkpt>
      <trkpt lat="46.30828" lon="-0.32317">
        <ele>63.4748</ele>
        <time>2010-12-26T09:35:16Z</time>
      </trkpt>
      <trkpt lat="46.30827" lon="-0.32315">
        <ele>63.5149</ele>
        <time>2010-12-26T09:35:17Z</time>
      </trkpt>
      <trkpt lat="46.30827" lon="-0.32313">
        <ele>63.5542</ele>
        <time>2010-12-26T09:35:18Z</time>
      </trkpt>
      <trkpt lat="46.30827" lon="-0.32311">
        <ele>63.5989</ele>
        <time>2010-12-26T09:35:19Z</time>
      </trkpt>
      <trkpt lat="46.30826" lon="-0.32309">
        <ele>63.6447</ele>
        <time>2010-12-26T09:35:20Z</time>
      </trkpt>
      <trkpt lat="46.30826" lon="-0.32307">
        <ele>63.6917</ele>
        <time>2010-12-26T09:35:21Z</time>
      </trkpt>
      <trkpt lat="46.30825" lon="-0.32305">
        <ele>63.7388</ele>
        <time>2010-12-26T09:35:22Z</time>
      </trkpt>
      <trkpt lat="46.30825" lon="-0.32303">
        <ele>63.7874</ele>
        <time>2010-12-26T09:35:23Z</time>
      </trkpt>
      <trkpt lat="46.30825" lon="-0.32301">
        <ele>63.8358</ele>
        <time>2010-12-26T09:35:24Z</time>
      </trkpt>
      <trkpt lat="46.30824" lon="-0.32299">
        <ele>63.8844</ele>
        <time>2010-12-26T09:35:25Z</time>
      </trkpt>
      <trkpt lat="46.30824" lon="-0.32297">
        <ele>63.9347</ele>
        <time>2010-12-26T09:35:26Z</time>
      </trkpt>
      <trkpt lat="46.30824" lon="-0.32295">
        <ele>63.9868</ele>
        <time>2010-12-26T09:35:27Z</time>
      </trkpt>
      <trkpt lat="46.30823" lon="-0.32293">
        <ele>64.0407</ele>
        <time>2010-12-26T09:35:28Z</time>
      </trkpt>
      <trkpt lat="46.30822" lon="-0.32291">
        <ele>64.0929</ele>
        <time>2010-12-26T09:35:29Z</time>
      </trkpt>
      <trkpt lat="46.30822" lon="-0.32289">
        <ele>64.1434</ele>
        <time>2010-12-26T09:35:30Z</time>
      </trkpt>
      <trkpt lat="46.30821" lon="-0.32287">
        <ele>64.1932</ele>
        <time>2010-12-26T09:35:31Z</time>
      </trkpt>
      <trkpt lat="46.30821" lon="-0.32285">
        <ele>64.2435</ele>
        <time>2010-12-26T09:35:32Z</time>
      </trkpt>
      <trkpt lat="46.3082" lon="-0.32283">
        <ele>64.2958</ele>
        <time>2010-12-26T09:35:33Z</time>
      </trkpt>
      <trkpt lat="46.30819" lon="-0.32281">
        <ele>64.3485</ele>
        <time>2010-12-26T09:35:34Z</time>
      </trkpt>
      <trkpt lat="46.30819" lon="-0.32279">
        <ele>64.4017</ele>
        <time>2010-12-26T09:35:35Z</time>
      </trkpt>
      <trkpt lat="46.30819" lon="-0.32276">
        <ele>64.4553</ele>
        <time>2010-12-26T09:35:36Z</time>
      </trkpt>
      <trkpt lat="46.30819" lon="-0.32274">
        <ele>64.5096</ele>
        <time>2010-12-26T09:35:37Z</time>
      </trkpt>
      <trkpt lat="46.30818" lon="-0.32272">
        <ele>64.5637</ele>
        <time>2010-12-26T09:35:38Z</time>
      </trkpt>
      <trkpt lat="46.30818" lon="-0.3227">
        <ele>64.6172</ele>
        <time>2010-12-26T09:35:39Z</time>
      </trkpt>
      <trkpt lat="46.30817" lon="-0.32268">
        <ele>64.6695</ele>
        <time>2010-12-26T09:35:40Z</time>
      </trkpt>
      <trkpt lat="46.30817" lon="-0.32267">
        <ele>64.7219</ele>
        <time>2010-12-26T09:35:41Z</time>
      </trkpt>
      <trkpt lat="46.30816" lon="-0.32265">
        <ele>64.7745</ele>
        <time>2010-12-26T09:35:42Z</time>
      </trkpt>
      <trkpt lat="46.30816" lon="-0.32263">
        <ele>64.8268</ele>
        <time>2010-12-26T09:35:43Z</time>
      </trkpt>
      <trkpt lat="46.30815" lon="-0.32261">
        <ele>64.8822</ele>
        <time>2010-12-26T09:35:44Z</time>
      </trkpt>
      <trkpt lat="46.30814" lon="-0.3226">
        <ele>64.9398</ele>
        <time>2010-12-26T09:35:45Z</time>
      </trkpt>
      <trkpt lat="46.30814" lon="-0.32258">
        <ele>64.9992</ele>
        <time>2010-12-26T09:35:46Z</time>
      </trkpt>
      <trkpt lat="46.30813" lon="-0.32256">
        <ele>65.0604</ele>
        <time>2010-12-26T09:35:47Z</time>
      </trkpt>
      <trkpt lat="46.30813" lon="-0.32254">
        <ele>65.1237</ele>
        <time>2010-12-26T09:35:48Z</time>
      </trkpt>
      <trkpt lat="46.30812" lon="-0.32252">
        <ele>65.1894</ele>
        <time>2010-12-26T09:35:49Z</time>
      </trkpt>
      <trkpt lat="46.30811" lon="-0.3225">
        <ele>65.2549</ele>
        <time>2010-12-26T09:35:50Z</time>
      </trkpt>
      <trkpt lat="46.3081" lon="-0.32248">
        <ele>65.3211</ele>
        <time>2010-12-26T09:35:51Z</time>
      </trkpt>
      <trkpt lat="46.3081" lon="-0.32246">
        <ele>65.3878</ele>
        <time>2010-12-26T09:35:52Z</time>
      </trkpt>
      <trkpt lat="46.30809" lon="-0.32244">
        <ele>65.455</ele>
        <time>2010-12-26T09:35:53Z</time>
      </trkpt>
      <trkpt lat="46.30809" lon="-0.32242">
        <ele>65.5249</ele>
        <time>2010-12-26T09:35:54Z</time>
      </trkpt>
      <trkpt lat="46.30808" lon="-0.3224">
        <ele>65.5978</ele>
        <time>2010-12-26T09:35:55Z</time>
      </trkpt>
      <trkpt lat="46.30808" lon="-0.32238">
        <ele>65.6728</ele>
        <time>2010-12-26T09:35:57Z</time>
      </trkpt>
      <trkpt lat="46.30808" lon="-0.32236">
        <ele>65.7503</ele>
        <time>2010-12-26T09:35:57Z</time>
      </trkpt>
      <trkpt lat="46.30808" lon="-0.32234">
        <ele>65.8291</ele>
        <time>2010-12-26T09:35:58Z</time>
      </trkpt>
      <trkpt lat="46.30808" lon="-0.32232">
        <ele>65.9071</ele>
        <time>2010-12-26T09:35:59Z</time>
      </trkpt>
      <trkpt lat="46.30807" lon="-0.3223">
        <ele>65.9832</ele>
        <time>2010-12-26T09:36:00Z</time>
      </trkpt>
      <trkpt lat="46.30806" lon="-0.32228">
        <ele>66.0583</ele>
        <time>2010-12-26T09:36:01Z</time>
      </trkpt>
      <trkpt lat="46.30806" lon="-0.32226">
        <ele>66.1316</ele>
        <time>2010-12-26T09:36:02Z</time>
      </trkpt>
      <trkpt lat="46.30805" lon="-0.32224">
        <ele>66.2074</ele>
        <time>2010-12-26T09:36:03Z</time>
      </trkpt>
      <trkpt lat="46.30805" lon="-0.32222">
        <ele>66.2832</ele>
        <time>2010-12-26T09:36:04Z</time>
      </trkpt>
      <trkpt lat="46.30804" lon="-0.3222">
        <ele>66.3595</ele>
        <time>2010-12-26T09:36:05Z</time>
      </trkpt>
      <trkpt lat="46.30804" lon="-0.32218">
        <ele>66.4393</ele>
        <time>2010-12-26T09:36:06Z</time>
      </trkpt>
      <trkpt lat="46.30803" lon="-0.32216">
        <ele>66.5222</ele>
        <time>2010-12-26T09:36:07Z</time>
      </trkpt>
      <trkpt lat="46.30803" lon="-0.32214">
        <ele>66.6021</ele>
        <time>2010-12-26T09:36:08Z</time>
      </trkpt>
      <trkpt lat="46.30802" lon="-0.32212">
        <ele>66.6804</ele>
        <time>2010-12-26T09:36:09Z</time>
      </trkpt>
      <trkpt lat="46.30801" lon="-0.3221">
        <ele>66.7574</ele>
        <time>2010-12-26T09:36:10Z</time>
      </trkpt>
      <trkpt lat="46.30801" lon="-0.32207">
        <ele>66.834</ele>
        <time>2010-12-26T09:36:11Z</time>
      </trkpt>
      <trkpt lat="46.308" lon="-0.32205">
        <ele>66.9075</ele>
        <time>2010-12-26T09:36:12Z</time>
      </trkpt>
      <trkpt lat="46.308" lon="-0.32203">
        <ele>66.9787</ele>
        <time>2010-12-26T09:36:13Z</time>
      </trkpt>
      <trkpt lat="46.308" lon="-0.32201">
        <ele>67.046</ele>
        <time>2010-12-26T09:36:14Z</time>
      </trkpt>
      <trkpt lat="46.30799" lon="-0.32199">
        <ele>67.111</ele>
        <time>2010-12-26T09:36:15Z</time>
      </trkpt>
      <trkpt lat="46.30799" lon="-0.32197">
        <ele>67.1751</ele>
        <time>2010-12-26T09:36:16Z</time>
      </trkpt>
      <trkpt lat="46.30798" lon="-0.32195">
        <ele>67.2388</ele>
        <time>2010-12-26T09:36:17Z</time>
      </trkpt>
      <trkpt lat="46.30798" lon="-0.32193">
        <ele>67.3055</ele>
        <time>2010-12-26T09:36:18Z</time>
      </trkpt>
      <trkpt lat="46.30798" lon="-0.32192">
        <ele>67.3706</ele>
        <time>2010-12-26T09:36:19Z</time>
      </trkpt>
      <trkpt lat="46.30798" lon="-0.3219">
        <ele>67.4341</ele>
        <time>2010-12-26T09:36:20Z</time>
      </trkpt>
      <trkpt lat="46.30797" lon="-0.32188">
        <ele>67.4957</ele>
        <time>2010-12-26T09:36:21Z</time>
      </trkpt>
      <trkpt lat="46.30796" lon="-0.32186">
        <ele>67.5544</ele>
        <time>2010-12-26T09:36:22Z</time>
      </trkpt>
      <trkpt lat="46.30796" lon="-0.32184">
        <ele>67.6128</ele>
        <time>2010-12-26T09:36:23Z</time>
      </trkpt>
      <trkpt lat="46.30795" lon="-0.32182">
        <ele>67.6726</ele>
        <time>2010-12-26T09:36:24Z</time>
      </trkpt>
      <trkpt lat="46.30795" lon="-0.3218">
        <ele>67.7327</ele>
        <time>2010-12-26T09:36:25Z</time>
      </trkpt>
      <trkpt lat="46.30794" lon="-0.32179">
        <ele>67.7947</ele>
        <time>2010-12-26T09:36:26Z</time>
      </trkpt>
      <trkpt lat="46.30793" lon="-0.32177">
        <ele>67.8561</ele>
        <time>2010-12-26T09:36:27Z</time>
      </trkpt>
      <trkpt lat="46.30793" lon="-0.32175">
        <ele>67.917</ele>
        <time>2010-12-26T09:36:28Z</time>
      </trkpt>
      <trkpt lat="46.30792" lon="-0.32173">
        <ele>67.9786</ele>
        <time>2010-12-26T09:36:29Z</time>
      </trkpt>
      <trkpt lat="46.30792" lon="-0.32171">
        <ele>68.0412</ele>
        <time>2010-12-26T09:36:30Z</time>
      </trkpt>
      <trkpt lat="46.30791" lon="-0.32169">
        <ele>68.1036</ele>
        <time>2010-12-26T09:36:31Z</time>
      </trkpt>
      <trkpt lat="46.3079" lon="-0.32167">
        <ele>68.1668</ele>
        <time>2010-12-26T09:36:32Z</time>
      </trkpt>
      <trkpt lat="46.3079" lon="-0.32165">
        <ele>68.2278</ele>
        <time>2010-12-26T09:36:33Z</time>
      </trkpt>
      <trkpt lat="46.30789" lon="-0.32164">
        <ele>68.2866</ele>
        <time>2010-12-26T09:36:34Z</time>
      </trkpt>
      <trkpt lat="46.30788" lon="-0.32162">
        <ele>68.3449</ele>
        <time>2010-12-26T09:36:35Z</time>
      </trkpt>
      <trkpt lat="46.30788" lon="-0.3216">
        <ele>68.4024</ele>
        <time>2010-12-26T09:36:36Z</time>
      </trkpt>
      <trkpt lat="46.30787" lon="-0.32158">
        <ele>68.4617</ele>
        <time>2010-12-26T09:36:37Z</time>
      </trkpt>
      <trkpt lat="46.30787" lon="-0.32156">
        <ele>68.5212</ele>
        <time>2010-12-26T09:36:38Z</time>
      </trkpt>
      <trkpt lat="46.30787" lon="-0.32154">
        <ele>68.5817</ele>
        <time>2010-12-26T09:36:39Z</time>
      </trkpt>
      <trkpt lat="46.30787" lon="-0.32152">
        <ele>68.6428</ele>
        <time>2010-12-26T09:36:40Z</time>
      </trkpt>
      <trkpt lat="46.30786" lon="-0.3215">
        <ele>68.7036</ele>
        <time>2010-12-26T09:36:41Z</time>
      </trkpt>
      <trkpt lat="46.30786" lon="-0.32148">
        <ele>68.7628</ele>
        <time>2010-12-26T09:36:42Z</time>
      </trkpt>
      <trkpt lat="46.30785" lon="-0.32146">
        <ele>68.8204</ele>
        <time>2010-12-26T09:36:43Z</time>
      </trkpt>
      <trkpt lat="46.30785" lon="-0.32144">
        <ele>68.8776</ele>
        <time>2010-12-26T09:36:44Z</time>
      </trkpt>
      <trkpt lat="46.30784" lon="-0.32142">
        <ele>68.9339</ele>
        <time>2010-12-26T09:36:45Z</time>
      </trkpt>
      <trkpt lat="46.30784" lon="-0.3214">
        <ele>68.99</ele>
        <time>2010-12-26T09:36:46Z</time>
      </trkpt>
      <trkpt lat="46.30783" lon="-0.32138">
        <ele>69.047</ele>
        <time>2010-12-26T09:36:47Z</time>
      </trkpt>
      <trkpt lat="46.30783" lon="-0.32136">
        <ele>69.1041</ele>
        <time>2010-12-26T09:36:48Z</time>
      </trkpt>
      <trkpt lat="46.30783" lon="-0.32134">
        <ele>69.1604</ele>
        <time>2010-12-26T09:36:49Z</time>
      </trkpt>
      <trkpt lat="46.30782" lon="-0.32132">
        <ele>69.2069</ele>
        <time>2010-12-26T09:36:50Z</time>
      </trkpt>
      <trkpt lat="46.30782" lon="-0.32129">
        <ele>69.2586</ele>
        <time>2010-12-26T09:36:51Z</time>
      </trkpt>
      <trkpt lat="46.30782" lon="-0.32127">
        <ele>69.3022</ele>
        <time>2010-12-26T09:36:52Z</time>
      </trkpt>
      <trkpt lat="46.30782" lon="-0.32125">
        <ele>69.3428</ele>
        <time>2010-12-26T09:36:53Z</time>
      </trkpt>
      <trkpt lat="46.30782" lon="-0.32123">
        <ele>69.3774</ele>
        <time>2010-12-26T09:36:54Z</time>
      </trkpt>
      <trkpt lat="46.30782" lon="-0.32121">
        <ele>69.4003</ele>
        <time>2010-12-26T09:36:55Z</time>
      </trkpt>
      <trkpt lat="46.30781" lon="-0.3212">
        <ele>69.4057</ele>
        <time>2010-12-26T09:36:56Z</time>
      </trkpt>
      <trkpt lat="46.30781" lon="-0.32118">
        <ele>69.4011</ele>
        <time>2010-12-26T09:36:57Z</time>
      </trkpt>
      <trkpt lat="46.30781" lon="-0.32116">
        <ele>69.3898</ele>
        <time>2010-12-26T09:36:58Z</time>
      </trkpt>
      <trkpt lat="46.3078" lon="-0.32114">
        <ele>69.3775</ele>
        <time>2010-12-26T09:36:59Z</time>
      </trkpt>
      <trkpt lat="46.3078" lon="-0.32112">
        <ele>69.3815</ele>
        <time>2010-12-26T09:37:00Z</time>
      </trkpt>
      <trkpt lat="46.3078" lon="-0.32109">
        <ele>69.3981</ele>
        <time>2010-12-26T09:37:01Z</time>
      </trkpt>
      <trkpt lat="46.3078" lon="-0.32107">
        <ele>69.4169</ele>
        <time>2010-12-26T09:37:02Z</time>
      </trkpt>
      <trkpt lat="46.30779" lon="-0.32105">
        <ele>69.4388</ele>
        <time>2010-12-26T09:37:04Z</time>
      </trkpt>
      <trkpt lat="46.30779" lon="-0.32103">
        <ele>69.4666</ele>
        <time>2010-12-26T09:37:04Z</time>
      </trkpt>
      <trkpt lat="46.30779" lon="-0.32101">
        <ele>69.494</ele>
        <time>2010-12-26T09:37:05Z</time>
      </trkpt>
      <trkpt lat="46.30779" lon="-0.32099">
        <ele>69.5214</ele>
        <time>2010-12-26T09:37:06Z</time>
      </trkpt>
      <trkpt lat="46.30779" lon="-0.32097">
        <ele>69.5533</ele>
        <time>2010-12-26T09:37:07Z</time>
      </trkpt>
      <trkpt lat="46.30779" lon="-0.32095">
        <ele>69.5837</ele>
        <time>2010-12-26T09:37:08Z</time>
      </trkpt>
      <trkpt lat="46.30779" lon="-0.32093">
        <ele>69.616</ele>
        <time>2010-12-26T09:37:09Z</time>
      </trkpt>
      <trkpt lat="46.30779" lon="-0.32091">
        <ele>69.646</ele>
        <time>2010-12-26T09:37:10Z</time>
      </trkpt>
      <trkpt lat="46.30779" lon="-0.32089">
        <ele>69.6759</ele>
        <time>2010-12-26T09:37:11Z</time>
      </trkpt>
      <trkpt lat="46.30779" lon="-0.32087">
        <ele>69.7033</ele>
        <time>2010-12-26T09:37:12Z</time>
      </trkpt>
      <trkpt lat="46.30778" lon="-0.32085">
        <ele>69.7302</ele>
        <time>2010-12-26T09:37:13Z</time>
      </trkpt>
      <trkpt lat="46.30779" lon="-0.32083">
        <ele>69.7569</ele>
        <time>2010-12-26T09:37:14Z</time>
      </trkpt>
      <trkpt lat="46.30779" lon="-0.3208">
        <ele>69.7826</ele>
        <time>2010-12-26T09:37:15Z</time>
      </trkpt>
      <trkpt lat="46.30779" lon="-0.32078">
        <ele>69.8077</ele>
        <time>2010-12-26T09:37:16Z</time>
      </trkpt>
      <trkpt lat="46.30779" lon="-0.32076">
        <ele>69.8319</ele>
        <time>2010-12-26T09:37:17Z</time>
      </trkpt>
      <trkpt lat="46.30779" lon="-0.32074">
        <ele>69.8625</ele>
        <time>2010-12-26T09:37:18Z</time>
      </trkpt>
      <trkpt lat="46.30779" lon="-0.32072">
        <ele>69.8943</ele>
        <time>2010-12-26T09:37:19Z</time>
      </trkpt>
      <trkpt lat="46.30779" lon="-0.3207">
        <ele>69.9252</ele>
        <time>2010-12-26T09:37:20Z</time>
      </trkpt>
      <trkpt lat="46.30779" lon="-0.32068">
        <ele>69.9604</ele>
        <time>2010-12-26T09:37:21Z</time>
      </trkpt>
      <trkpt lat="46.30779" lon="-0.32066">
        <ele>69.9978</ele>
        <time>2010-12-26T09:37:22Z</time>
      </trkpt>
      <trkpt lat="46.30779" lon="-0.32064">
        <ele>70.0358</ele>
        <time>2010-12-26T09:37:23Z</time>
      </trkpt>
      <trkpt lat="46.30779" lon="-0.32061">
        <ele>70.0748</ele>
        <time>2010-12-26T09:37:24Z</time>
      </trkpt>
      <trkpt lat="46.30779" lon="-0.32059">
        <ele>70.1143</ele>
        <time>2010-12-26T09:37:25Z</time>
      </trkpt>
      <trkpt lat="46.30778" lon="-0.32057">
        <ele>70.1533</ele>
        <time>2010-12-26T09:37:26Z</time>
      </trkpt>
      <trkpt lat="46.30778" lon="-0.32055">
        <ele>70.1919</ele>
        <time>2010-12-26T09:37:27Z</time>
      </trkpt>
      <trkpt lat="46.30778" lon="-0.32053">
        <ele>70.2295</ele>
        <time>2010-12-26T09:37:28Z</time>
      </trkpt>
      <trkpt lat="46.30779" lon="-0.32051">
        <ele>70.2676</ele>
        <time>2010-12-26T09:37:29Z</time>
      </trkpt>
      <trkpt lat="46.30778" lon="-0.32049">
        <ele>70.3061</ele>
        <time>2010-12-26T09:37:30Z</time>
      </trkpt>
      <trkpt lat="46.30779" lon="-0.32047">
        <ele>70.3435</ele>
        <time>2010-12-26T09:37:31Z</time>
      </trkpt>
      <trkpt lat="46.30779" lon="-0.32045">
        <ele>70.38</ele>
        <time>2010-12-26T09:37:32Z</time>
      </trkpt>
      <trkpt lat="46.30779" lon="-0.32043">
        <ele>70.4159</ele>
        <time>2010-12-26T09:37:33Z</time>
      </trkpt>
      <trkpt lat="46.30779" lon="-0.32041">
        <ele>70.4396</ele>
        <time>2010-12-26T09:37:34Z</time>
      </trkpt>
      <trkpt lat="46.30779" lon="-0.3204">
        <ele>70.4564</ele>
        <time>2010-12-26T09:37:35Z</time>
      </trkpt>
      <trkpt lat="46.30779" lon="-0.32038">
        <ele>70.472</ele>
        <time>2010-12-26T09:37:36Z</time>
      </trkpt>
      <trkpt lat="46.30779" lon="-0.32036">
        <ele>70.4827</ele>
        <time>2010-12-26T09:37:37Z</time>
      </trkpt>
      <trkpt lat="46.30779" lon="-0.32034">
        <ele>70.4974</ele>
        <time>2010-12-26T09:37:38Z</time>
      </trkpt>
      <trkpt lat="46.30779" lon="-0.32032">
        <ele>70.5046</ele>
        <time>2010-12-26T09:37:39Z</time>
      </trkpt>
      <trkpt lat="46.3078" lon="-0.3203">
        <ele>70.5061</ele>
        <time>2010-12-26T09:37:40Z</time>
      </trkpt>
      <trkpt lat="46.3078" lon="-0.32028">
        <ele>70.5011</ele>
        <time>2010-12-26T09:37:41Z</time>
      </trkpt>
      <trkpt lat="46.3078" lon="-0.32026">
        <ele>70.5109</ele>
        <time>2010-12-26T09:37:42Z</time>
      </trkpt>
      <trkpt lat="46.3078" lon="-0.32023">
        <ele>70.5305</ele>
        <time>2010-12-26T09:37:43Z</time>
      </trkpt>
      <trkpt lat="46.30781" lon="-0.32021">
        <ele>70.5519</ele>
        <time>2010-12-26T09:37:44Z</time>
      </trkpt>
      <trkpt lat="46.30782" lon="-0.32019">
        <ele>70.5749</ele>
        <time>2010-12-26T09:37:45Z</time>
      </trkpt>
      <trkpt lat="46.30782" lon="-0.32017">
        <ele>70.6042</ele>
        <time>2010-12-26T09:37:46Z</time>
      </trkpt>
      <trkpt lat="46.30782" lon="-0.32014">
        <ele>70.632</ele>
        <time>2010-12-26T09:37:47Z</time>
      </trkpt>
      <trkpt lat="46.30783" lon="-0.32012">
        <ele>70.6609</ele>
        <time>2010-12-26T09:37:48Z</time>
      </trkpt>
      <trkpt lat="46.30783" lon="-0.3201">
        <ele>70.6903</ele>
        <time>2010-12-26T09:37:49Z</time>
      </trkpt>
      <trkpt lat="46.30784" lon="-0.32008">
        <ele>70.721</ele>
        <time>2010-12-26T09:37:50Z</time>
      </trkpt>
      <trkpt lat="46.30784" lon="-0.32006">
        <ele>70.7518</ele>
        <time>2010-12-26T09:37:51Z</time>
      </trkpt>
      <trkpt lat="46.30785" lon="-0.32005">
        <ele>70.7839</ele>
        <time>2010-12-26T09:37:52Z</time>
      </trkpt>
      <trkpt lat="46.30785" lon="-0.32003">
        <ele>70.813</ele>
        <time>2010-12-26T09:37:53Z</time>
      </trkpt>
      <trkpt lat="46.30785" lon="-0.32001">
        <ele>70.832</ele>
        <time>2010-12-26T09:37:54Z</time>
      </trkpt>
      <trkpt lat="46.30785" lon="-0.31999">
        <ele>70.8403</ele>
        <time>2010-12-26T09:37:55Z</time>
      </trkpt>
      <trkpt lat="46.30786" lon="-0.31997">
        <ele>70.8364</ele>
        <time>2010-12-26T09:37:56Z</time>
      </trkpt>
      <trkpt lat="46.30786" lon="-0.31995">
        <ele>70.8231</ele>
        <time>2010-12-26T09:37:57Z</time>
      </trkpt>
      <trkpt lat="46.30786" lon="-0.31994">
        <ele>70.8055</ele>
        <time>2010-12-26T09:37:58Z</time>
      </trkpt>
      <trkpt lat="46.30787" lon="-0.31992">
        <ele>70.7875</ele>
        <time>2010-12-26T09:37:59Z</time>
      </trkpt>
      <trkpt lat="46.30788" lon="-0.3199">
        <ele>70.7731</ele>
        <time>2010-12-26T09:38:00Z</time>
      </trkpt>
      <trkpt lat="46.30788" lon="-0.31988">
        <ele>70.7672</ele>
        <time>2010-12-26T09:38:01Z</time>
      </trkpt>
      <trkpt lat="46.3079" lon="-0.31986">
        <ele>70.7603</ele>
        <time>2010-12-26T09:38:02Z</time>
      </trkpt>
      <trkpt lat="46.3079" lon="-0.31984">
        <ele>70.7542</ele>
        <time>2010-12-26T09:38:03Z</time>
      </trkpt>
      <trkpt lat="46.30791" lon="-0.31982">
        <ele>70.7557</ele>
        <time>2010-12-26T09:38:04Z</time>
      </trkpt>
      <trkpt lat="46.30792" lon="-0.3198">
        <ele>70.7552</ele>
        <time>2010-12-26T09:38:05Z</time>
      </trkpt>
      <trkpt lat="46.30793" lon="-0.31978">
        <ele>70.7527</ele>
        <time>2010-12-26T09:38:06Z</time>
      </trkpt>
      <trkpt lat="46.30793" lon="-0.31976">
        <ele>70.7552</ele>
        <time>2010-12-26T09:38:07Z</time>
      </trkpt>
      <trkpt lat="46.30794" lon="-0.31974">
        <ele>70.7699</ele>
        <time>2010-12-26T09:38:08Z</time>
      </trkpt>
      <trkpt lat="46.30795" lon="-0.31972">
        <ele>70.7973</ele>
        <time>2010-12-26T09:38:09Z</time>
      </trkpt>
      <trkpt lat="46.30796" lon="-0.3197">
        <ele>70.828</ele>
        <time>2010-12-26T09:38:10Z</time>
      </trkpt>
      <trkpt lat="46.30796" lon="-0.31968">
        <ele>70.868</ele>
        <time>2010-12-26T09:38:11Z</time>
      </trkpt>
      <trkpt lat="46.30797" lon="-0.31966">
        <ele>70.9159</ele>
        <time>2010-12-26T09:38:12Z</time>
      </trkpt>
      <trkpt lat="46.30797" lon="-0.31964">
        <ele>70.9717</ele>
        <time>2010-12-26T09:38:13Z</time>
      </trkpt>
      <trkpt lat="46.30798" lon="-0.31962">
        <ele>71.0287</ele>
        <time>2010-12-26T09:38:14Z</time>
      </trkpt>
      <trkpt lat="46.30798" lon="-0.3196">
        <ele>71.0869</ele>
        <time>2010-12-26T09:38:15Z</time>
      </trkpt>
      <trkpt lat="46.30799" lon="-0.31958">
        <ele>71.1486</ele>
        <time>2010-12-26T09:38:16Z</time>
      </trkpt>
      <trkpt lat="46.30799" lon="-0.31956">
        <ele>71.2151</ele>
        <time>2010-12-26T09:38:17Z</time>
      </trkpt>
      <trkpt lat="46.308" lon="-0.31954">
        <ele>71.2847</ele>
        <time>2010-12-26T09:38:18Z</time>
      </trkpt>
      <trkpt lat="46.308" lon="-0.31952">
        <ele>71.3585</ele>
        <time>2010-12-26T09:38:19Z</time>
      </trkpt>
      <trkpt lat="46.308" lon="-0.3195">
        <ele>71.4358</ele>
        <time>2010-12-26T09:38:20Z</time>
      </trkpt>
      <trkpt lat="46.30801" lon="-0.31948">
        <ele>71.514</ele>
        <time>2010-12-26T09:38:21Z</time>
      </trkpt>
      <trkpt lat="46.30801" lon="-0.31946">
        <ele>71.5925</ele>
        <time>2010-12-26T09:38:22Z</time>
      </trkpt>
      <trkpt lat="46.30802" lon="-0.31945">
        <ele>71.6717</ele>
        <time>2010-12-26T09:38:23Z</time>
      </trkpt>
      <trkpt lat="46.30803" lon="-0.31943">
        <ele>71.7535</ele>
        <time>2010-12-26T09:38:24Z</time>
      </trkpt>
      <trkpt lat="46.30803" lon="-0.31941">
        <ele>71.8368</ele>
        <time>2010-12-26T09:38:25Z</time>
      </trkpt>
      <trkpt lat="46.30804" lon="-0.31939">
        <ele>71.918</ele>
        <time>2010-12-26T09:38:26Z</time>
      </trkpt>
      <trkpt lat="46.30805" lon="-0.31937">
        <ele>72.0005</ele>
        <time>2010-12-26T09:38:27Z</time>
      </trkpt>
      <trkpt lat="46.30806" lon="-0.31935">
        <ele>72.0839</ele>
        <time>2010-12-26T09:38:28Z</time>
      </trkpt>
      <trkpt lat="46.30806" lon="-0.31933">
        <ele>72.1668</ele>
        <time>2010-12-26T09:38:29Z</time>
      </trkpt>
      <trkpt lat="46.30807" lon="-0.31931">
        <ele>72.242</ele>
        <time>2010-12-26T09:38:30Z</time>
      </trkpt>
      <trkpt lat="46.30807" lon="-0.31929">
        <ele>72.3097</ele>
        <time>2010-12-26T09:38:31Z</time>
      </trkpt>
      <trkpt lat="46.30808" lon="-0.31928">
        <ele>72.3758</ele>
        <time>2010-12-26T09:38:32Z</time>
      </trkpt>
      <trkpt lat="46.30808" lon="-0.31926">
        <ele>72.441</ele>
        <time>2010-12-26T09:38:33Z</time>
      </trkpt>
      <trkpt lat="46.30808" lon="-0.31924">
        <ele>72.5058</ele>
        <time>2010-12-26T09:38:34Z</time>
      </trkpt>
      <trkpt lat="46.30808" lon="-0.31922">
        <ele>72.5682</ele>
        <time>2010-12-26T09:38:35Z</time>
      </trkpt>
      <trkpt lat="46.30808" lon="-0.3192">
        <ele>72.6303</ele>
        <time>2010-12-26T09:38:36Z</time>
      </trkpt>
      <trkpt lat="46.30809" lon="-0.31918">
        <ele>72.6952</ele>
        <time>2010-12-26T09:38:37Z</time>
      </trkpt>
      <trkpt lat="46.30809" lon="-0.31916">
        <ele>72.7606</ele>
        <time>2010-12-26T09:38:38Z</time>
      </trkpt>
      <trkpt lat="46.30809" lon="-0.31914">
        <ele>72.8259</ele>
        <time>2010-12-26T09:38:39Z</time>
      </trkpt>
      <trkpt lat="46.30809" lon="-0.31912">
        <ele>72.8894</ele>
        <time>2010-12-26T09:38:40Z</time>
      </trkpt>
      <trkpt lat="46.30809" lon="-0.3191">
        <ele>72.9515</ele>
        <time>2010-12-26T09:38:41Z</time>
      </trkpt>
      <trkpt lat="46.3081" lon="-0.31908">
        <ele>73.0091</ele>
        <time>2010-12-26T09:38:42Z</time>
      </trkpt>
      <trkpt lat="46.3081" lon="-0.31906">
        <ele>73.067</ele>
        <time>2010-12-26T09:38:43Z</time>
      </trkpt>
      <trkpt lat="46.3081" lon="-0.31904">
        <ele>73.1242</ele>
        <time>2010-12-26T09:38:44Z</time>
      </trkpt>
      <trkpt lat="46.3081" lon="-0.31902">
        <ele>73.1746</ele>
        <time>2010-12-26T09:38:45Z</time>
      </trkpt>
      <trkpt lat="46.3081" lon="-0.319">
        <ele>73.2224</ele>
        <time>2010-12-26T09:38:46Z</time>
      </trkpt>
      <trkpt lat="46.3081" lon="-0.31897">
        <ele>73.265</ele>
        <time>2010-12-26T09:38:47Z</time>
      </trkpt>
      <trkpt lat="46.3081" lon="-0.31895">
        <ele>73.3032</ele>
        <time>2010-12-26T09:38:48Z</time>
      </trkpt>
      <trkpt lat="46.3081" lon="-0.31893">
        <ele>73.3369</ele>
        <time>2010-12-26T09:38:49Z</time>
      </trkpt>
      <trkpt lat="46.3081" lon="-0.31891">
        <ele>73.3673</ele>
        <time>2010-12-26T09:38:50Z</time>
      </trkpt>
      <trkpt lat="46.3081" lon="-0.31889">
        <ele>73.3944</ele>
        <time>2010-12-26T09:38:51Z</time>
      </trkpt>
      <trkpt lat="46.3081" lon="-0.31886">
        <ele>73.4141</ele>
        <time>2010-12-26T09:38:52Z</time>
      </trkpt>
      <trkpt lat="46.3081" lon="-0.31884">
        <ele>73.4345</ele>
        <time>2010-12-26T09:38:53Z</time>
      </trkpt>
      <trkpt lat="46.3081" lon="-0.31882">
        <ele>73.4537</ele>
        <time>2010-12-26T09:38:54Z</time>
      </trkpt>
      <trkpt lat="46.3081" lon="-0.3188">
        <ele>73.4704</ele>
        <time>2010-12-26T09:38:55Z</time>
      </trkpt>
      <trkpt lat="46.3081" lon="-0.31878">
        <ele>73.4871</ele>
        <time>2010-12-26T09:38:56Z</time>
      </trkpt>
      <trkpt lat="46.3081" lon="-0.31876">
        <ele>73.501</ele>
        <time>2010-12-26T09:38:57Z</time>
      </trkpt>
      <trkpt lat="46.3081" lon="-0.31874">
        <ele>73.5109</ele>
        <time>2010-12-26T09:38:58Z</time>
      </trkpt>
      <trkpt lat="46.3081" lon="-0.31872">
        <ele>73.5204</ele>
        <time>2010-12-26T09:38:59Z</time>
      </trkpt>
      <trkpt lat="46.3081" lon="-0.31871">
        <ele>73.5255</ele>
        <time>2010-12-26T09:39:00Z</time>
      </trkpt>
      <trkpt lat="46.3081" lon="-0.31869">
        <ele>73.5304</ele>
        <time>2010-12-26T09:39:01Z</time>
      </trkpt>
      <trkpt lat="46.3081" lon="-0.31867">
        <ele>73.5382</ele>
        <time>2010-12-26T09:39:03Z</time>
      </trkpt>
      <trkpt lat="46.3081" lon="-0.31865">
        <ele>73.5472</ele>
        <time>2010-12-26T09:39:03Z</time>
      </trkpt>
      <trkpt lat="46.3081" lon="-0.31863">
        <ele>73.5565</ele>
        <time>2010-12-26T09:39:04Z</time>
      </trkpt>
      <trkpt lat="46.3081" lon="-0.31861">
        <ele>73.5691</ele>
        <time>2010-12-26T09:39:05Z</time>
      </trkpt>
      <trkpt lat="46.3081" lon="-0.31859">
        <ele>73.5819</ele>
        <time>2010-12-26T09:39:06Z</time>
      </trkpt>
      <trkpt lat="46.3081" lon="-0.31859">
        <ele>73.5952</ele>
        <time>2010-12-26T09:39:07Z</time>
      </trkpt>
      <trkpt lat="46.30811" lon="-0.31859">
        <ele>73.6151</ele>
        <time>2010-12-26T09:39:16Z</time>
      </trkpt>
      <trkpt lat="46.30811" lon="-0.31858">
        <ele>73.625</ele>
        <time>2010-12-26T09:39:17Z</time>
      </trkpt>
      <trkpt lat="46.3081" lon="-0.31856">
        <ele>73.6362</ele>
        <time>2010-12-26T09:39:18Z</time>
      </trkpt>
      <trkpt lat="46.3081" lon="-0.31854">
        <ele>73.6478</ele>
        <time>2010-12-26T09:39:19Z</time>
      </trkpt>
      <trkpt lat="46.30809" lon="-0.31852">
        <ele>73.658</ele>
        <time>2010-12-26T09:39:20Z</time>
      </trkpt>
      <trkpt lat="46.30809" lon="-0.3185">
        <ele>73.6672</ele>
        <time>2010-12-26T09:39:21Z</time>
      </trkpt>
      <trkpt lat="46.30809" lon="-0.31848">
        <ele>73.6743</ele>
        <time>2010-12-26T09:39:22Z</time>
      </trkpt>
      <trkpt lat="46.30808" lon="-0.31846">
        <ele>73.6802</ele>
        <time>2010-12-26T09:39:23Z</time>
      </trkpt>
      <trkpt lat="46.30808" lon="-0.31844">
        <ele>73.6819</ele>
        <time>2010-12-26T09:39:25Z</time>
      </trkpt>
      <trkpt lat="46.30808" lon="-0.31842">
        <ele>73.6804</ele>
        <time>2010-12-26T09:39:25Z</time>
      </trkpt>
      <trkpt lat="46.30807" lon="-0.31839">
        <ele>73.6731</ele>
        <time>2010-12-26T09:39:26Z</time>
      </trkpt>
      <trkpt lat="46.30807" lon="-0.31837">
        <ele>73.6646</ele>
        <time>2010-12-26T09:39:27Z</time>
      </trkpt>
      <trkpt lat="46.30807" lon="-0.31835">
        <ele>73.6589</ele>
        <time>2010-12-26T09:39:28Z</time>
      </trkpt>
      <trkpt lat="46.30806" lon="-0.31834">
        <ele>73.6547</ele>
        <time>2010-12-26T09:39:29Z</time>
      </trkpt>
      <trkpt lat="46.30806" lon="-0.31832">
        <ele>73.6528</ele>
        <time>2010-12-26T09:39:30Z</time>
      </trkpt>
      <trkpt lat="46.30806" lon="-0.3183">
        <ele>73.6519</ele>
        <time>2010-12-26T09:39:31Z</time>
      </trkpt>
      <trkpt lat="46.30806" lon="-0.31828">
        <ele>73.6454</ele>
        <time>2010-12-26T09:39:32Z</time>
      </trkpt>
      <trkpt lat="46.30806" lon="-0.31825">
        <ele>73.6336</ele>
        <time>2010-12-26T09:39:33Z</time>
      </trkpt>
      <trkpt lat="46.30805" lon="-0.31823">
        <ele>73.6233</ele>
        <time>2010-12-26T09:39:34Z</time>
      </trkpt>
      <trkpt lat="46.30804" lon="-0.3182">
        <ele>73.6093</ele>
        <time>2010-12-26T09:39:35Z</time>
      </trkpt>
      <trkpt lat="46.30804" lon="-0.31818">
        <ele>73.5958</ele>
        <time>2010-12-26T09:39:36Z</time>
      </trkpt>
      <trkpt lat="46.30804" lon="-0.31816">
        <ele>73.578</ele>
        <time>2010-12-26T09:39:37Z</time>
      </trkpt>
      <trkpt lat="46.30804" lon="-0.31814">
        <ele>73.5612</ele>
        <time>2010-12-26T09:39:38Z</time>
      </trkpt>
      <trkpt lat="46.30803" lon="-0.31812">
        <ele>73.5449</ele>
        <time>2010-12-26T09:39:39Z</time>
      </trkpt>
      <trkpt lat="46.30802" lon="-0.31809">
        <ele>73.5276</ele>
        <time>2010-12-26T09:39:40Z</time>
      </trkpt>
      <trkpt lat="46.30802" lon="-0.31807">
        <ele>73.5094</ele>
        <time>2010-12-26T09:39:41Z</time>
      </trkpt>
      <trkpt lat="46.30802" lon="-0.31805">
        <ele>73.4926</ele>
        <time>2010-12-26T09:39:42Z</time>
      </trkpt>
      <trkpt lat="46.30801" lon="-0.31803">
        <ele>73.4768</ele>
        <time>2010-12-26T09:39:43Z</time>
      </trkpt>
      <trkpt lat="46.30801" lon="-0.31801">
        <ele>73.4615</ele>
        <time>2010-12-26T09:39:44Z</time>
      </trkpt>
      <trkpt lat="46.30801" lon="-0.31799">
        <ele>73.4459</ele>
        <time>2010-12-26T09:39:45Z</time>
      </trkpt>
      <trkpt lat="46.30801" lon="-0.31797">
        <ele>73.4288</ele>
        <time>2010-12-26T09:39:47Z</time>
      </trkpt>
      <trkpt lat="46.308" lon="-0.31795">
        <ele>73.409</ele>
        <time>2010-12-26T09:39:47Z</time>
      </trkpt>
      <trkpt lat="46.308" lon="-0.31793">
        <ele>73.3859</ele>
        <time>2010-12-26T09:39:48Z</time>
      </trkpt>
      <trkpt lat="46.308" lon="-0.31791">
        <ele>73.3633</ele>
        <time>2010-12-26T09:39:49Z</time>
      </trkpt>
      <trkpt lat="46.30799" lon="-0.31789">
        <ele>73.345</ele>
        <time>2010-12-26T09:39:50Z</time>
      </trkpt>
      <trkpt lat="46.30798" lon="-0.31787">
        <ele>73.33</ele>
        <time>2010-12-26T09:39:52Z</time>
      </trkpt>
      <trkpt lat="46.30798" lon="-0.31785">
        <ele>73.3141</ele>
        <time>2010-12-26T09:39:52Z</time>
      </trkpt>
      <trkpt lat="46.30797" lon="-0.31783">
        <ele>73.2951</ele>
        <time>2010-12-26T09:39:53Z</time>
      </trkpt>
      <trkpt lat="46.30797" lon="-0.31781">
        <ele>73.2742</ele>
        <time>2010-12-26T09:39:54Z</time>
      </trkpt>
      <trkpt lat="46.30796" lon="-0.31779">
        <ele>73.2539</ele>
        <time>2010-12-26T09:39:55Z</time>
      </trkpt>
      <trkpt lat="46.30796" lon="-0.31777">
        <ele>73.2322</ele>
        <time>2010-12-26T09:39:57Z</time>
      </trkpt>
      <trkpt lat="46.30795" lon="-0.31774">
        <ele>73.2116</ele>
        <time>2010-12-26T09:39:57Z</time>
      </trkpt>
      <trkpt lat="46.30795" lon="-0.31772">
        <ele>73.1901</ele>
        <time>2010-12-26T09:39:58Z</time>
      </trkpt>
      <trkpt lat="46.30794" lon="-0.3177">
        <ele>73.1688</ele>
        <time>2010-12-26T09:39:59Z</time>
      </trkpt>
      <trkpt lat="46.30794" lon="-0.31768">
        <ele>73.1487</ele>
        <time>2010-12-26T09:40:00Z</time>
      </trkpt>
      <trkpt lat="46.30793" lon="-0.31766">
        <ele>73.1302</ele>
        <time>2010-12-26T09:40:01Z</time>
      </trkpt>
      <trkpt lat="46.30792" lon="-0.31764">
        <ele>73.111</ele>
        <time>2010-12-26T09:40:03Z</time>
      </trkpt>
      <trkpt lat="46.30792" lon="-0.31763">
        <ele>73.0922</ele>
        <time>2010-12-26T09:40:03Z</time>
      </trkpt>
      <trkpt lat="46.30791" lon="-0.31761">
        <ele>73.0748</ele>
        <time>2010-12-26T09:40:04Z</time>
      </trkpt>
      <trkpt lat="46.3079" lon="-0.31759">
        <ele>73.0564</ele>
        <time>2010-12-26T09:40:05Z</time>
      </trkpt>
      <trkpt lat="46.3079" lon="-0.31758">
        <ele>73.0381</ele>
        <time>2010-12-26T09:40:07Z</time>
      </trkpt>
      <trkpt lat="46.30789" lon="-0.31756">
        <ele>73.0184</ele>
        <time>2010-12-26T09:40:07Z</time>
      </trkpt>
      <trkpt lat="46.30788" lon="-0.31754">
        <ele>72.9999</ele>
        <time>2010-12-26T09:40:09Z</time>
      </trkpt>
      <trkpt lat="46.30788" lon="-0.31753">
        <ele>72.9839</ele>
        <time>2010-12-26T09:40:09Z</time>
      </trkpt>
      <trkpt lat="46.30787" lon="-0.31751">
        <ele>72.9699</ele>
        <time>2010-12-26T09:40:11Z</time>
      </trkpt>
      <trkpt lat="46.30786" lon="-0.31749">
        <ele>72.9586</ele>
        <time>2010-12-26T09:40:12Z</time>
      </trkpt>
      <trkpt lat="46.30786" lon="-0.31747">
        <ele>72.9496</ele>
        <time>2010-12-26T09:40:12Z</time>
      </trkpt>
      <trkpt lat="46.30785" lon="-0.31745">
        <ele>72.9435</ele>
        <time>2010-12-26T09:40:13Z</time>
      </trkpt>
      <trkpt lat="46.30785" lon="-0.31743">
        <ele>72.9397</ele>
        <time>2010-12-26T09:40:15Z</time>
      </trkpt>
      <trkpt lat="46.30784" lon="-0.31742">
        <ele>72.939</ele>
        <time>2010-12-26T09:40:15Z</time>
      </trkpt>
      <trkpt lat="46.30784" lon="-0.3174">
        <ele>72.9412</ele>
        <time>2010-12-26T09:40:16Z</time>
      </trkpt>
      <trkpt lat="46.30783" lon="-0.31738">
        <ele>72.9437</ele>
        <time>2010-12-26T09:40:17Z</time>
      </trkpt>
      <trkpt lat="46.30782" lon="-0.31737">
        <ele>72.9468</ele>
        <time>2010-12-26T09:40:18Z</time>
      </trkpt>
      <trkpt lat="46.30782" lon="-0.31735">
        <ele>72.9523</ele>
        <time>2010-12-26T09:40:19Z</time>
      </trkpt>
      <trkpt lat="46.30781" lon="-0.31733">
        <ele>72.9592</ele>
        <time>2010-12-26T09:40:20Z</time>
      </trkpt>
      <trkpt lat="46.3078" lon="-0.31732">
        <ele>72.9682</ele>
        <time>2010-12-26T09:40:21Z</time>
      </trkpt>
      <trkpt lat="46.3078" lon="-0.3173">
        <ele>72.9788</ele>
        <time>2010-12-26T09:40:22Z</time>
      </trkpt>
      <trkpt lat="46.30779" lon="-0.31727">
        <ele>72.9846</ele>
        <time>2010-12-26T09:40:23Z</time>
      </trkpt>
      <trkpt lat="46.30779" lon="-0.31726">
        <ele>72.9926</ele>
        <time>2010-12-26T09:40:24Z</time>
      </trkpt>
      <trkpt lat="46.30777" lon="-0.31724">
        <ele>72.9954</ele>
        <time>2010-12-26T09:40:25Z</time>
      </trkpt>
      <trkpt lat="46.30777" lon="-0.31722">
        <ele>72.9984</ele>
        <time>2010-12-26T09:40:27Z</time>
      </trkpt>
      <trkpt lat="46.30776" lon="-0.3172">
        <ele>73.0027</ele>
        <time>2010-12-26T09:40:27Z</time>
      </trkpt>
      <trkpt lat="46.30775" lon="-0.31718">
        <ele>73.0056</ele>
        <time>2010-12-26T09:40:28Z</time>
      </trkpt>
      <trkpt lat="46.30774" lon="-0.31717">
        <ele>73.0061</ele>
        <time>2010-12-26T09:40:29Z</time>
      </trkpt>
      <trkpt lat="46.30774" lon="-0.31715">
        <ele>73.0083</ele>
        <time>2010-12-26T09:40:30Z</time>
      </trkpt>
      <trkpt lat="46.30773" lon="-0.31714">
        <ele>73.0071</ele>
        <time>2010-12-26T09:40:31Z</time>
      </trkpt>
      <trkpt lat="46.30772" lon="-0.31712">
        <ele>73.0011</ele>
        <time>2010-12-26T09:40:32Z</time>
      </trkpt>
      <trkpt lat="46.30771" lon="-0.3171">
        <ele>72.9915</ele>
        <time>2010-12-26T09:40:33Z</time>
      </trkpt>
      <trkpt lat="46.3077" lon="-0.31708">
        <ele>72.9829</ele>
        <time>2010-12-26T09:40:34Z</time>
      </trkpt>
      <trkpt lat="46.30769" lon="-0.31706">
        <ele>72.9764</ele>
        <time>2010-12-26T09:40:35Z</time>
      </trkpt>
      <trkpt lat="46.30769" lon="-0.31703">
        <ele>72.968</ele>
        <time>2010-12-26T09:40:36Z</time>
      </trkpt>
      <trkpt lat="46.30768" lon="-0.31701">
        <ele>72.9619</ele>
        <time>2010-12-26T09:40:37Z</time>
      </trkpt>
      <trkpt lat="46.30767" lon="-0.31699">
        <ele>72.9526</ele>
        <time>2010-12-26T09:40:38Z</time>
      </trkpt>
      <trkpt lat="46.30766" lon="-0.31698">
        <ele>72.9455</ele>
        <time>2010-12-26T09:40:40Z</time>
      </trkpt>
      <trkpt lat="46.30766" lon="-0.31696">
        <ele>72.9404</ele>
        <time>2010-12-26T09:40:40Z</time>
      </trkpt>
      <trkpt lat="46.30765" lon="-0.31694">
        <ele>72.9366</ele>
        <time>2010-12-26T09:40:41Z</time>
      </trkpt>
      <trkpt lat="46.30764" lon="-0.31692">
        <ele>72.9332</ele>
        <time>2010-12-26T09:40:42Z</time>
      </trkpt>
      <trkpt lat="46.30764" lon="-0.3169">
        <ele>72.9305</ele>
        <time>2010-12-26T09:40:44Z</time>
      </trkpt>
      <trkpt lat="46.30763" lon="-0.31688">
        <ele>72.9269</ele>
        <time>2010-12-26T09:40:44Z</time>
      </trkpt>
      <trkpt lat="46.30763" lon="-0.31686">
        <ele>72.9202</ele>
        <time>2010-12-26T09:40:45Z</time>
      </trkpt>
      <trkpt lat="46.30762" lon="-0.31684">
        <ele>72.9101</ele>
        <time>2010-12-26T09:40:46Z</time>
      </trkpt>
      <trkpt lat="46.30761" lon="-0.31682">
        <ele>72.9013</ele>
        <time>2010-12-26T09:40:47Z</time>
      </trkpt>
      <trkpt lat="46.3076" lon="-0.3168">
        <ele>72.8929</ele>
        <time>2010-12-26T09:40:48Z</time>
      </trkpt>
      <trkpt lat="46.30759" lon="-0.31678">
        <ele>72.8852</ele>
        <time>2010-12-26T09:40:49Z</time>
      </trkpt>
      <trkpt lat="46.30758" lon="-0.31677">
        <ele>72.8764</ele>
        <time>2010-12-26T09:40:50Z</time>
      </trkpt>
      <trkpt lat="46.30758" lon="-0.31675">
        <ele>72.8679</ele>
        <time>2010-12-26T09:40:51Z</time>
      </trkpt>
      <trkpt lat="46.30757" lon="-0.31673">
        <ele>72.8595</ele>
        <time>2010-12-26T09:40:52Z</time>
      </trkpt>
      <trkpt lat="46.30756" lon="-0.31671">
        <ele>72.8508</ele>
        <time>2010-12-26T09:40:53Z</time>
      </trkpt>
      <trkpt lat="46.30755" lon="-0.3167">
        <ele>72.8421</ele>
        <time>2010-12-26T09:40:54Z</time>
      </trkpt>
      <trkpt lat="46.30754" lon="-0.31668">
        <ele>72.834</ele>
        <time>2010-12-26T09:40:55Z</time>
      </trkpt>
      <trkpt lat="46.30753" lon="-0.31667">
        <ele>72.8264</ele>
        <time>2010-12-26T09:40:56Z</time>
      </trkpt>
      <trkpt lat="46.30751" lon="-0.31666">
        <ele>72.8186</ele>
        <time>2010-12-26T09:40:58Z</time>
      </trkpt>
      <trkpt lat="46.30751" lon="-0.31664">
        <ele>72.8085</ele>
        <time>2010-12-26T09:40:58Z</time>
      </trkpt>
      <trkpt lat="46.3075" lon="-0.31662">
        <ele>72.7964</ele>
        <time>2010-12-26T09:40:59Z</time>
      </trkpt>
      <trkpt lat="46.30749" lon="-0.3166">
        <ele>72.7824</ele>
        <time>2010-12-26T09:41:00Z</time>
      </trkpt>
      <trkpt lat="46.30748" lon="-0.31659">
        <ele>72.7683</ele>
        <time>2010-12-26T09:41:01Z</time>
      </trkpt>
      <trkpt lat="46.30748" lon="-0.31657">
        <ele>72.7518</ele>
        <time>2010-12-26T09:41:02Z</time>
      </trkpt>
      <trkpt lat="46.30747" lon="-0.31655">
        <ele>72.7356</ele>
        <time>2010-12-26T09:41:03Z</time>
      </trkpt>
      <trkpt lat="46.30746" lon="-0.31654">
        <ele>72.7205</ele>
        <time>2010-12-26T09:41:04Z</time>
      </trkpt>
      <trkpt lat="46.30745" lon="-0.31652">
        <ele>72.7062</ele>
        <time>2010-12-26T09:41:05Z</time>
      </trkpt>
      <trkpt lat="46.30744" lon="-0.3165">
        <ele>72.6908</ele>
        <time>2010-12-26T09:41:06Z</time>
      </trkpt>
      <trkpt lat="46.30743" lon="-0.31649">
        <ele>72.6754</ele>
        <time>2010-12-26T09:41:07Z</time>
      </trkpt>
      <trkpt lat="46.30742" lon="-0.31647">
        <ele>72.6597</ele>
        <time>2010-12-26T09:41:08Z</time>
      </trkpt>
      <trkpt lat="46.30741" lon="-0.31645">
        <ele>72.6444</ele>
        <time>2010-12-26T09:41:09Z</time>
      </trkpt>
      <trkpt lat="46.3074" lon="-0.31644">
        <ele>72.6315</ele>
        <time>2010-12-26T09:41:10Z</time>
      </trkpt>
      <trkpt lat="46.3074" lon="-0.31642">
        <ele>72.6192</ele>
        <time>2010-12-26T09:41:12Z</time>
      </trkpt>
      <trkpt lat="46.30739" lon="-0.3164">
        <ele>72.6069</ele>
        <time>2010-12-26T09:41:12Z</time>
      </trkpt>
      <trkpt lat="46.30738" lon="-0.31639">
        <ele>72.5954</ele>
        <time>2010-12-26T09:41:13Z</time>
      </trkpt>
      <trkpt lat="46.30737" lon="-0.31637">
        <ele>72.5832</ele>
        <time>2010-12-26T09:41:14Z</time>
      </trkpt>
      <trkpt lat="46.30737" lon="-0.31635">
        <ele>72.569</ele>
        <time>2010-12-26T09:41:15Z</time>
      </trkpt>
      <trkpt lat="46.30736" lon="-0.31633">
        <ele>72.5522</ele>
        <time>2010-12-26T09:41:16Z</time>
      </trkpt>
      <trkpt lat="46.30735" lon="-0.31631">
        <ele>72.5349</ele>
        <time>2010-12-26T09:41:17Z</time>
      </trkpt>
      <trkpt lat="46.30734" lon="-0.31629">
        <ele>72.5175</ele>
        <time>2010-12-26T09:41:19Z</time>
      </trkpt>
      <trkpt lat="46.30734" lon="-0.31627">
        <ele>72.4991</ele>
        <time>2010-12-26T09:41:20Z</time>
      </trkpt>
      <trkpt lat="46.30733" lon="-0.31625">
        <ele>72.4809</ele>
        <time>2010-12-26T09:41:20Z</time>
      </trkpt>
      <trkpt lat="46.30732" lon="-0.31624">
        <ele>72.4626</ele>
        <time>2010-12-26T09:41:21Z</time>
      </trkpt>
      <trkpt lat="46.30731" lon="-0.31622">
        <ele>72.4457</ele>
        <time>2010-12-26T09:41:22Z</time>
      </trkpt>
      <trkpt lat="46.3073" lon="-0.31621">
        <ele>72.4296</ele>
        <time>2010-12-26T09:41:24Z</time>
      </trkpt>
      <trkpt lat="46.3073" lon="-0.31619">
        <ele>72.4126</ele>
        <time>2010-12-26T09:41:25Z</time>
      </trkpt>
      <trkpt lat="46.30729" lon="-0.31618">
        <ele>72.3966</ele>
        <time>2010-12-26T09:41:25Z</time>
      </trkpt>
      <trkpt lat="46.30728" lon="-0.31616">
        <ele>72.3829</ele>
        <time>2010-12-26T09:41:26Z</time>
      </trkpt>
      <trkpt lat="46.30727" lon="-0.31614">
        <ele>72.3719</ele>
        <time>2010-12-26T09:41:28Z</time>
      </trkpt>
      <trkpt lat="46.30726" lon="-0.31613">
        <ele>72.3616</ele>
        <time>2010-12-26T09:41:28Z</time>
      </trkpt>
      <trkpt lat="46.30725" lon="-0.31611">
        <ele>72.3526</ele>
        <time>2010-12-26T09:41:29Z</time>
      </trkpt>
      <trkpt lat="46.30724" lon="-0.3161">
        <ele>72.3449</ele>
        <time>2010-12-26T09:41:30Z</time>
      </trkpt>
      <trkpt lat="46.30723" lon="-0.31608">
        <ele>72.338</ele>
        <time>2010-12-26T09:41:31Z</time>
      </trkpt>
      <trkpt lat="46.30722" lon="-0.31607">
        <ele>72.3313</ele>
        <time>2010-12-26T09:41:32Z</time>
      </trkpt>
      <trkpt lat="46.30721" lon="-0.31605">
        <ele>72.3248</ele>
        <time>2010-12-26T09:41:33Z</time>
      </trkpt>
      <trkpt lat="46.3072" lon="-0.31604">
        <ele>72.3175</ele>
        <time>2010-12-26T09:41:34Z</time>
      </trkpt>
      <trkpt lat="46.30719" lon="-0.31602">
        <ele>72.3095</ele>
        <time>2010-12-26T09:41:35Z</time>
      </trkpt>
      <trkpt lat="46.30718" lon="-0.316">
        <ele>72.302</ele>
        <time>2010-12-26T09:41:36Z</time>
      </trkpt>
      <trkpt lat="46.30718" lon="-0.31599">
        <ele>72.2921</ele>
        <time>2010-12-26T09:41:38Z</time>
      </trkpt>
      <trkpt lat="46.30717" lon="-0.31597">
        <ele>72.2838</ele>
        <time>2010-12-26T09:41:38Z</time>
      </trkpt>
      <trkpt lat="46.30716" lon="-0.31596">
        <ele>72.2779</ele>
        <time>2010-12-26T09:41:39Z</time>
      </trkpt>
      <trkpt lat="46.30715" lon="-0.31594">
        <ele>72.2699</ele>
        <time>2010-12-26T09:41:40Z</time>
      </trkpt>
      <trkpt lat="46.30714" lon="-0.31593">
        <ele>72.2594</ele>
        <time>2010-12-26T09:41:41Z</time>
      </trkpt>
      <trkpt lat="46.30714" lon="-0.31591">
        <ele>72.2504</ele>
        <time>2010-12-26T09:41:42Z</time>
      </trkpt>
      <trkpt lat="46.30713" lon="-0.31589">
        <ele>72.24</ele>
        <time>2010-12-26T09:41:44Z</time>
      </trkpt>
      <trkpt lat="46.30713" lon="-0.31587">
        <ele>72.2305</ele>
        <time>2010-12-26T09:41:45Z</time>
      </trkpt>
      <trkpt lat="46.30712" lon="-0.31585">
        <ele>72.222</ele>
        <time>2010-12-26T09:41:46Z</time>
      </trkpt>
      <trkpt lat="46.30711" lon="-0.31583">
        <ele>72.2121</ele>
        <time>2010-12-26T09:41:46Z</time>
      </trkpt>
      <trkpt lat="46.3071" lon="-0.31582">
        <ele>72.2029</ele>
        <time>2010-12-26T09:41:48Z</time>
      </trkpt>
      <trkpt lat="46.30709" lon="-0.3158">
        <ele>72.1922</ele>
        <time>2010-12-26T09:41:48Z</time>
      </trkpt>
      <trkpt lat="46.30708" lon="-0.31578">
        <ele>72.1816</ele>
        <time>2010-12-26T09:41:50Z</time>
      </trkpt>
      <trkpt lat="46.30707" lon="-0.31577">
        <ele>72.1706</ele>
        <time>2010-12-26T09:41:51Z</time>
      </trkpt>
      <trkpt lat="46.30706" lon="-0.31575">
        <ele>72.1592</ele>
        <time>2010-12-26T09:41:51Z</time>
      </trkpt>
      <trkpt lat="46.30706" lon="-0.31573">
        <ele>72.1471</ele>
        <time>2010-12-26T09:41:53Z</time>
      </trkpt>
      <trkpt lat="46.30705" lon="-0.31571">
        <ele>72.1364</ele>
        <time>2010-12-26T09:41:54Z</time>
      </trkpt>
      <trkpt lat="46.30704" lon="-0.31569">
        <ele>72.1251</ele>
        <time>2010-12-26T09:41:54Z</time>
      </trkpt>
      <trkpt lat="46.30703" lon="-0.31567">
        <ele>72.1136</ele>
        <time>2010-12-26T09:41:56Z</time>
      </trkpt>
      <trkpt lat="46.30703" lon="-0.31565">
        <ele>72.1012</ele>
        <time>2010-12-26T09:41:56Z</time>
      </trkpt>
      <trkpt lat="46.30702" lon="-0.31563">
        <ele>72.0873</ele>
        <time>2010-12-26T09:41:57Z</time>
      </trkpt>
      <trkpt lat="46.30701" lon="-0.31561">
        <ele>72.07</ele>
        <time>2010-12-26T09:41:58Z</time>
      </trkpt>
      <trkpt lat="46.30701" lon="-0.31559">
        <ele>72.0531</ele>
        <time>2010-12-26T09:41:59Z</time>
      </trkpt>
      <trkpt lat="46.307" lon="-0.31557">
        <ele>72.0344</ele>
        <time>2010-12-26T09:42:00Z</time>
      </trkpt>
      <trkpt lat="46.30699" lon="-0.31555">
        <ele>72.0183</ele>
        <time>2010-12-26T09:42:01Z</time>
      </trkpt>
      <trkpt lat="46.30698" lon="-0.31553">
        <ele>72.0034</ele>
        <time>2010-12-26T09:42:02Z</time>
      </trkpt>
      <trkpt lat="46.30698" lon="-0.31551">
        <ele>71.989</ele>
        <time>2010-12-26T09:42:03Z</time>
      </trkpt>
      <trkpt lat="46.30697" lon="-0.31549">
        <ele>71.9751</ele>
        <time>2010-12-26T09:42:04Z</time>
      </trkpt>
      <trkpt lat="46.30697" lon="-0.31547">
        <ele>71.965</ele>
        <time>2010-12-26T09:42:05Z</time>
      </trkpt>
      <trkpt lat="46.30697" lon="-0.31546">
        <ele>71.9587</ele>
        <time>2010-12-26T09:42:06Z</time>
      </trkpt>
      <trkpt lat="46.30696" lon="-0.31544">
        <ele>71.9547</ele>
        <time>2010-12-26T09:42:07Z</time>
      </trkpt>
      <trkpt lat="46.30695" lon="-0.31542">
        <ele>71.9549</ele>
        <time>2010-12-26T09:42:08Z</time>
      </trkpt>
      <trkpt lat="46.30695" lon="-0.3154">
        <ele>71.9568</ele>
        <time>2010-12-26T09:42:09Z</time>
      </trkpt>
      <trkpt lat="46.30695" lon="-0.31538">
        <ele>71.9618</ele>
        <time>2010-12-26T09:42:10Z</time>
      </trkpt>
      <trkpt lat="46.30694" lon="-0.31537">
        <ele>71.97</ele>
        <time>2010-12-26T09:42:11Z</time>
      </trkpt>
      <trkpt lat="46.30693" lon="-0.31535">
        <ele>71.9782</ele>
        <time>2010-12-26T09:42:12Z</time>
      </trkpt>
      <trkpt lat="46.30693" lon="-0.31533">
        <ele>71.9881</ele>
        <time>2010-12-26T09:42:13Z</time>
      </trkpt>
      <trkpt lat="46.30692" lon="-0.31531">
        <ele>72.0004</ele>
        <time>2010-12-26T09:42:14Z</time>
      </trkpt>
      <trkpt lat="46.30692" lon="-0.31529">
        <ele>72.0123</ele>
        <time>2010-12-26T09:42:15Z</time>
      </trkpt>
      <trkpt lat="46.30691" lon="-0.31527">
        <ele>72.0263</ele>
        <time>2010-12-26T09:42:16Z</time>
      </trkpt>
      <trkpt lat="46.30691" lon="-0.31525">
        <ele>72.0415</ele>
        <time>2010-12-26T09:42:17Z</time>
      </trkpt>
      <trkpt lat="46.3069" lon="-0.31524">
        <ele>72.0579</ele>
        <time>2010-12-26T09:42:18Z</time>
      </trkpt>
      <trkpt lat="46.3069" lon="-0.31522">
        <ele>72.0726</ele>
        <time>2010-12-26T09:42:19Z</time>
      </trkpt>
      <trkpt lat="46.3069" lon="-0.3152">
        <ele>72.0871</ele>
        <time>2010-12-26T09:42:20Z</time>
      </trkpt>
      <trkpt lat="46.3069" lon="-0.31519">
        <ele>72.1031</ele>
        <time>2010-12-26T09:42:21Z</time>
      </trkpt>
      <trkpt lat="46.30689" lon="-0.31517">
        <ele>72.1185</ele>
        <time>2010-12-26T09:42:22Z</time>
      </trkpt>
      <trkpt lat="46.30689" lon="-0.31516">
        <ele>72.1334</ele>
        <time>2010-12-26T09:42:23Z</time>
      </trkpt>
      <trkpt lat="46.30689" lon="-0.31514">
        <ele>72.1467</ele>
        <time>2010-12-26T09:42:24Z</time>
      </trkpt>
      <trkpt lat="46.30688" lon="-0.31512">
        <ele>72.1473</ele>
        <time>2010-12-26T09:42:25Z</time>
      </trkpt>
      <trkpt lat="46.30687" lon="-0.31511">
        <ele>72.1384</ele>
        <time>2010-12-26T09:42:26Z</time>
      </trkpt>
      <trkpt lat="46.30687" lon="-0.31508">
        <ele>72.1134</ele>
        <time>2010-12-26T09:42:27Z</time>
      </trkpt>
      <trkpt lat="46.30687" lon="-0.31506">
        <ele>72.0654</ele>
        <time>2010-12-26T09:42:28Z</time>
      </trkpt>
      <trkpt lat="46.30687" lon="-0.31505">
        <ele>72.0149</ele>
        <time>2010-12-26T09:42:30Z</time>
      </trkpt>
      <trkpt lat="46.30687" lon="-0.31503">
        <ele>71.9647</ele>
        <time>2010-12-26T09:42:30Z</time>
      </trkpt>
      <trkpt lat="46.30687" lon="-0.31501">
        <ele>71.9156</ele>
        <time>2010-12-26T09:42:31Z</time>
      </trkpt>
      <trkpt lat="46.30687" lon="-0.31499">
        <ele>71.8703</ele>
        <time>2010-12-26T09:42:32Z</time>
      </trkpt>
      <trkpt lat="46.30686" lon="-0.31497">
        <ele>71.8295</ele>
        <time>2010-12-26T09:42:33Z</time>
      </trkpt>
      <trkpt lat="46.30685" lon="-0.31495">
        <ele>71.7946</ele>
        <time>2010-12-26T09:42:34Z</time>
      </trkpt>
      <trkpt lat="46.30685" lon="-0.31493">
        <ele>71.7704</ele>
        <time>2010-12-26T09:42:36Z</time>
      </trkpt>
      <trkpt lat="46.30684" lon="-0.31491">
        <ele>71.7531</ele>
        <time>2010-12-26T09:42:37Z</time>
      </trkpt>
      <trkpt lat="46.30684" lon="-0.31488">
        <ele>71.7429</ele>
        <time>2010-12-26T09:42:38Z</time>
      </trkpt>
      <trkpt lat="46.30683" lon="-0.31486">
        <ele>71.7481</ele>
        <time>2010-12-26T09:42:39Z</time>
      </trkpt>
      <trkpt lat="46.30682" lon="-0.31484">
        <ele>71.7588</ele>
        <time>2010-12-26T09:42:40Z</time>
      </trkpt>
      <trkpt lat="46.30682" lon="-0.31482">
        <ele>71.768</ele>
        <time>2010-12-26T09:42:41Z</time>
      </trkpt>
      <trkpt lat="46.30682" lon="-0.3148">
        <ele>71.7766</ele>
        <time>2010-12-26T09:42:42Z</time>
      </trkpt>
      <trkpt lat="46.30681" lon="-0.31478">
        <ele>71.7855</ele>
        <time>2010-12-26T09:42:43Z</time>
      </trkpt>
      <trkpt lat="46.30681" lon="-0.31476">
        <ele>71.7967</ele>
        <time>2010-12-26T09:42:43Z</time>
      </trkpt>
      <trkpt lat="46.30681" lon="-0.31475">
        <ele>71.8064</ele>
        <time>2010-12-26T09:42:44Z</time>
      </trkpt>
      <trkpt lat="46.3068" lon="-0.31473">
        <ele>71.8163</ele>
        <time>2010-12-26T09:42:46Z</time>
      </trkpt>
      <trkpt lat="46.3068" lon="-0.31472">
        <ele>71.83</ele>
        <time>2010-12-26T09:42:46Z</time>
      </trkpt>
      <trkpt lat="46.3068" lon="-0.3147">
        <ele>71.8466</ele>
        <time>2010-12-26T09:42:47Z</time>
      </trkpt>
      <trkpt lat="46.30679" lon="-0.31468">
        <ele>71.8688</ele>
        <time>2010-12-26T09:42:48Z</time>
      </trkpt>
      <trkpt lat="46.30679" lon="-0.31466">
        <ele>71.8966</ele>
        <time>2010-12-26T09:42:49Z</time>
      </trkpt>
      <trkpt lat="46.30678" lon="-0.31464">
        <ele>71.9277</ele>
        <time>2010-12-26T09:42:50Z</time>
      </trkpt>
      <trkpt lat="46.30677" lon="-0.31462">
        <ele>71.9623</ele>
        <time>2010-12-26T09:42:51Z</time>
      </trkpt>
      <trkpt lat="46.30676" lon="-0.3146">
        <ele>71.9972</ele>
        <time>2010-12-26T09:42:53Z</time>
      </trkpt>
      <trkpt lat="46.30676" lon="-0.31458">
        <ele>72.0321</ele>
        <time>2010-12-26T09:42:53Z</time>
      </trkpt>
      <trkpt lat="46.30675" lon="-0.31456">
        <ele>72.067</ele>
        <time>2010-12-26T09:42:54Z</time>
      </trkpt>
      <trkpt lat="46.30675" lon="-0.31453">
        <ele>72.1003</ele>
        <time>2010-12-26T09:42:55Z</time>
      </trkpt>
      <trkpt lat="46.30674" lon="-0.31451">
        <ele>72.1308</ele>
        <time>2010-12-26T09:42:57Z</time>
      </trkpt>
      <trkpt lat="46.30674" lon="-0.31449">
        <ele>72.1635</ele>
        <time>2010-12-26T09:42:58Z</time>
      </trkpt>
      <trkpt lat="46.30673" lon="-0.31446">
        <ele>72.2004</ele>
        <time>2010-12-26T09:42:59Z</time>
      </trkpt>
      <trkpt lat="46.30673" lon="-0.31444">
        <ele>72.2415</ele>
        <time>2010-12-26T09:43:00Z</time>
      </trkpt>
      <trkpt lat="46.30673" lon="-0.31442">
        <ele>72.2866</ele>
        <time>2010-12-26T09:43:00Z</time>
      </trkpt>
      <trkpt lat="46.30672" lon="-0.3144">
        <ele>72.335</ele>
        <time>2010-12-26T09:43:01Z</time>
      </trkpt>
      <trkpt lat="46.30672" lon="-0.31438">
        <ele>72.3832</ele>
        <time>2010-12-26T09:43:03Z</time>
      </trkpt>
      <trkpt lat="46.30671" lon="-0.31436">
        <ele>72.4317</ele>
        <time>2010-12-26T09:43:04Z</time>
      </trkpt>
      <trkpt lat="46.30671" lon="-0.31434">
        <ele>72.4811</ele>
        <time>2010-12-26T09:43:05Z</time>
      </trkpt>
      <trkpt lat="46.3067" lon="-0.31432">
        <ele>72.535</ele>
        <time>2010-12-26T09:43:05Z</time>
      </trkpt>
      <trkpt lat="46.3067" lon="-0.3143">
        <ele>72.5918</ele>
        <time>2010-12-26T09:43:06Z</time>
      </trkpt>
      <trkpt lat="46.30669" lon="-0.31428">
        <ele>72.6503</ele>
        <time>2010-12-26T09:43:08Z</time>
      </trkpt>
      <trkpt lat="46.30669" lon="-0.31426">
        <ele>72.7113</ele>
        <time>2010-12-26T09:43:09Z</time>
      </trkpt>
      <trkpt lat="46.30669" lon="-0.31424">
        <ele>72.7724</ele>
        <time>2010-12-26T09:43:10Z</time>
      </trkpt>
      <trkpt lat="46.30668" lon="-0.31423">
        <ele>72.8331</ele>
        <time>2010-12-26T09:43:10Z</time>
      </trkpt>
      <trkpt lat="46.30668" lon="-0.31421">
        <ele>72.8927</ele>
        <time>2010-12-26T09:43:11Z</time>
      </trkpt>
      <trkpt lat="46.30668" lon="-0.31419">
        <ele>72.9512</ele>
        <time>2010-12-26T09:43:13Z</time>
      </trkpt>
      <trkpt lat="46.30667" lon="-0.31417">
        <ele>73.0095</ele>
        <time>2010-12-26T09:43:13Z</time>
      </trkpt>
      <trkpt lat="46.30666" lon="-0.31416">
        <ele>73.0665</ele>
        <time>2010-12-26T09:43:15Z</time>
      </trkpt>
      <trkpt lat="46.30666" lon="-0.31414">
        <ele>73.1238</ele>
        <time>2010-12-26T09:43:15Z</time>
      </trkpt>
      <trkpt lat="46.30665" lon="-0.31412">
        <ele>73.1812</ele>
        <time>2010-12-26T09:43:17Z</time>
      </trkpt>
      <trkpt lat="46.30665" lon="-0.3141">
        <ele>73.2377</ele>
        <time>2010-12-26T09:43:18Z</time>
      </trkpt>
      <trkpt lat="46.30664" lon="-0.31409">
        <ele>73.293</ele>
        <time>2010-12-26T09:43:18Z</time>
      </trkpt>
      <trkpt lat="46.30664" lon="-0.31407">
        <ele>73.3488</ele>
        <time>2010-12-26T09:43:20Z</time>
      </trkpt>
      <trkpt lat="46.30663" lon="-0.31405">
        <ele>73.3988</ele>
        <time>2010-12-26T09:43:20Z</time>
      </trkpt>
      <trkpt lat="46.30663" lon="-0.31403">
        <ele>73.4499</ele>
        <time>2010-12-26T09:43:22Z</time>
      </trkpt>
      <trkpt lat="46.30663" lon="-0.31401">
        <ele>73.5021</ele>
        <time>2010-12-26T09:43:22Z</time>
      </trkpt>
      <trkpt lat="46.30662" lon="-0.31399">
        <ele>73.5559</ele>
        <time>2010-12-26T09:43:24Z</time>
      </trkpt>
      <trkpt lat="46.30662" lon="-0.31397">
        <ele>73.6105</ele>
        <time>2010-12-26T09:43:25Z</time>
      </trkpt>
      <trkpt lat="46.30661" lon="-0.31395">
        <ele>73.6637</ele>
        <time>2010-12-26T09:43:25Z</time>
      </trkpt>
      <trkpt lat="46.30661" lon="-0.31393">
        <ele>73.7159</ele>
        <time>2010-12-26T09:43:26Z</time>
      </trkpt>
      <trkpt lat="46.3066" lon="-0.31391">
        <ele>73.7677</ele>
        <time>2010-12-26T09:43:27Z</time>
      </trkpt>
      <trkpt lat="46.3066" lon="-0.31389">
        <ele>73.8177</ele>
        <time>2010-12-26T09:43:28Z</time>
      </trkpt>
      <trkpt lat="46.30659" lon="-0.31387">
        <ele>73.8695</ele>
        <time>2010-12-26T09:43:29Z</time>
      </trkpt>
      <trkpt lat="46.30658" lon="-0.31385">
        <ele>73.922</ele>
        <time>2010-12-26T09:43:30Z</time>
      </trkpt>
      <trkpt lat="46.30658" lon="-0.31384">
        <ele>73.975</ele>
        <time>2010-12-26T09:43:32Z</time>
      </trkpt>
      <trkpt lat="46.30658" lon="-0.31382">
        <ele>74.0287</ele>
        <time>2010-12-26T09:43:33Z</time>
      </trkpt>
      <trkpt lat="46.30657" lon="-0.3138">
        <ele>74.08</ele>
        <time>2010-12-26T09:43:34Z</time>
      </trkpt>
      <trkpt lat="46.30657" lon="-0.31378">
        <ele>74.1266</ele>
        <time>2010-12-26T09:43:34Z</time>
      </trkpt>
      <trkpt lat="46.30656" lon="-0.31376">
        <ele>74.1702</ele>
        <time>2010-12-26T09:43:35Z</time>
      </trkpt>
      <trkpt lat="46.30656" lon="-0.31374">
        <ele>74.2095</ele>
        <time>2010-12-26T09:43:36Z</time>
      </trkpt>
      <trkpt lat="46.30656" lon="-0.31372">
        <ele>74.2434</ele>
        <time>2010-12-26T09:43:37Z</time>
      </trkpt>
      <trkpt lat="46.30655" lon="-0.3137">
        <ele>74.2728</ele>
        <time>2010-12-26T09:43:38Z</time>
      </trkpt>
      <trkpt lat="46.30655" lon="-0.31368">
        <ele>74.298</ele>
        <time>2010-12-26T09:43:39Z</time>
      </trkpt>
      <trkpt lat="46.30654" lon="-0.31366">
        <ele>74.3237</ele>
        <time>2010-12-26T09:43:40Z</time>
      </trkpt>
      <trkpt lat="46.30653" lon="-0.31364">
        <ele>74.3495</ele>
        <time>2010-12-26T09:43:41Z</time>
      </trkpt>
      <trkpt lat="46.30653" lon="-0.31362">
        <ele>74.3749</ele>
        <time>2010-12-26T09:43:42Z</time>
      </trkpt>
      <trkpt lat="46.30652" lon="-0.3136">
        <ele>74.4004</ele>
        <time>2010-12-26T09:43:44Z</time>
      </trkpt>
      <trkpt lat="46.30652" lon="-0.31359">
        <ele>74.4254</ele>
        <time>2010-12-26T09:43:44Z</time>
      </trkpt>
      <trkpt lat="46.30651" lon="-0.31357">
        <ele>74.4496</ele>
        <time>2010-12-26T09:43:46Z</time>
      </trkpt>
      <trkpt lat="46.30651" lon="-0.31355">
        <ele>74.4728</ele>
        <time>2010-12-26T09:43:47Z</time>
      </trkpt>
      <trkpt lat="46.3065" lon="-0.31353">
        <ele>74.4945</ele>
        <time>2010-12-26T09:43:47Z</time>
      </trkpt>
      <trkpt lat="46.30649" lon="-0.31352">
        <ele>74.5149</ele>
        <time>2010-12-26T09:43:49Z</time>
      </trkpt>
      <trkpt lat="46.30648" lon="-0.3135">
        <ele>74.5324</ele>
        <time>2010-12-26T09:43:49Z</time>
      </trkpt>
      <trkpt lat="46.30648" lon="-0.31348">
        <ele>74.5468</ele>
        <time>2010-12-26T09:43:50Z</time>
      </trkpt>
      <trkpt lat="46.30647" lon="-0.31346">
        <ele>74.5621</ele>
        <time>2010-12-26T09:43:52Z</time>
      </trkpt>
      <trkpt lat="46.30647" lon="-0.31345">
        <ele>74.5789</ele>
        <time>2010-12-26T09:43:53Z</time>
      </trkpt>
      <trkpt lat="46.30646" lon="-0.31343">
        <ele>74.5968</ele>
        <time>2010-12-26T09:43:54Z</time>
      </trkpt>
      <trkpt lat="46.30645" lon="-0.31341">
        <ele>74.6147</ele>
        <time>2010-12-26T09:43:55Z</time>
      </trkpt>
      <trkpt lat="46.30645" lon="-0.31339">
        <ele>74.6321</ele>
        <time>2010-12-26T09:43:55Z</time>
      </trkpt>
      <trkpt lat="46.30644" lon="-0.31338">
        <ele>74.649</ele>
        <time>2010-12-26T09:43:56Z</time>
      </trkpt>
      <trkpt lat="46.30644" lon="-0.31336">
        <ele>74.6659</ele>
        <time>2010-12-26T09:43:58Z</time>
      </trkpt>
      <trkpt lat="46.30643" lon="-0.31334">
        <ele>74.6815</ele>
        <time>2010-12-26T09:43:58Z</time>
      </trkpt>
      <trkpt lat="46.30642" lon="-0.31333">
        <ele>74.6977</ele>
        <time>2010-12-26T09:44:00Z</time>
      </trkpt>
      <trkpt lat="46.30641" lon="-0.31331">
        <ele>74.7139</ele>
        <time>2010-12-26T09:44:00Z</time>
      </trkpt>
      <trkpt lat="46.3064" lon="-0.31329">
        <ele>74.7253</ele>
        <time>2010-12-26T09:44:02Z</time>
      </trkpt>
      <trkpt lat="46.30639" lon="-0.31328">
        <ele>74.7369</ele>
        <time>2010-12-26T09:44:03Z</time>
      </trkpt>
      <trkpt lat="46.30637" lon="-0.31326">
        <ele>74.7449</ele>
        <time>2010-12-26T09:44:04Z</time>
      </trkpt>
      <trkpt lat="46.30637" lon="-0.31324">
        <ele>74.7501</ele>
        <time>2010-12-26T09:44:05Z</time>
      </trkpt>
      <trkpt lat="46.30636" lon="-0.31323">
        <ele>74.7566</ele>
        <time>2010-12-26T09:44:06Z</time>
      </trkpt>
      <trkpt lat="46.30635" lon="-0.31321">
        <ele>74.7577</ele>
        <time>2010-12-26T09:44:06Z</time>
      </trkpt>
      <trkpt lat="46.30634" lon="-0.31319">
        <ele>74.753</ele>
        <time>2010-12-26T09:44:07Z</time>
      </trkpt>
      <trkpt lat="46.30634" lon="-0.31316">
        <ele>74.7433</ele>
        <time>2010-12-26T09:44:09Z</time>
      </trkpt>
      <trkpt lat="46.30633" lon="-0.31314">
        <ele>74.729</ele>
        <time>2010-12-26T09:44:10Z</time>
      </trkpt>
      <trkpt lat="46.30633" lon="-0.31311">
        <ele>74.7101</ele>
        <time>2010-12-26T09:44:11Z</time>
      </trkpt>
      <trkpt lat="46.30632" lon="-0.31309">
        <ele>74.6852</ele>
        <time>2010-12-26T09:44:12Z</time>
      </trkpt>
      <trkpt lat="46.30631" lon="-0.31307">
        <ele>74.6511</ele>
        <time>2010-12-26T09:44:12Z</time>
      </trkpt>
      <trkpt lat="46.3063" lon="-0.31306">
        <ele>74.6101</ele>
        <time>2010-12-26T09:44:14Z</time>
      </trkpt>
      <trkpt lat="46.30629" lon="-0.31303">
        <ele>74.5662</ele>
        <time>2010-12-26T09:44:14Z</time>
      </trkpt>
      <trkpt lat="46.30628" lon="-0.31302">
        <ele>74.523</ele>
        <time>2010-12-26T09:44:15Z</time>
      </trkpt>
      <trkpt lat="46.30627" lon="-0.313">
        <ele>74.481</ele>
        <time>2010-12-26T09:44:16Z</time>
      </trkpt>
      <trkpt lat="46.30627" lon="-0.31298">
        <ele>74.4396</ele>
        <time>2010-12-26T09:44:17Z</time>
      </trkpt>
      <trkpt lat="46.30626" lon="-0.31296">
        <ele>74.3999</ele>
        <time>2010-12-26T09:44:18Z</time>
      </trkpt>
      <trkpt lat="46.30626" lon="-0.31293">
        <ele>74.362</ele>
        <time>2010-12-26T09:44:19Z</time>
      </trkpt>
      <trkpt lat="46.30625" lon="-0.31292">
        <ele>74.326</ele>
        <time>2010-12-26T09:44:20Z</time>
      </trkpt>
      <trkpt lat="46.30625" lon="-0.3129">
        <ele>74.2886</ele>
        <time>2010-12-26T09:44:21Z</time>
      </trkpt>
      <trkpt lat="46.30624" lon="-0.31288">
        <ele>74.2488</ele>
        <time>2010-12-26T09:44:22Z</time>
      </trkpt>
      <trkpt lat="46.30624" lon="-0.31286">
        <ele>74.2072</ele>
        <time>2010-12-26T09:44:24Z</time>
      </trkpt>
      <trkpt lat="46.30623" lon="-0.31284">
        <ele>74.1627</ele>
        <time>2010-12-26T09:44:24Z</time>
      </trkpt>
      <trkpt lat="46.30623" lon="-0.31281">
        <ele>74.1149</ele>
        <time>2010-12-26T09:44:25Z</time>
      </trkpt>
      <trkpt lat="46.30622" lon="-0.31279">
        <ele>74.0694</ele>
        <time>2010-12-26T09:44:27Z</time>
      </trkpt>
      <trkpt lat="46.30622" lon="-0.31277">
        <ele>74.0242</ele>
        <time>2010-12-26T09:44:28Z</time>
      </trkpt>
      <trkpt lat="46.30621" lon="-0.31275">
        <ele>73.9811</ele>
        <time>2010-12-26T09:44:29Z</time>
      </trkpt>
      <trkpt lat="46.3062" lon="-0.31272">
        <ele>73.9393</ele>
        <time>2010-12-26T09:44:29Z</time>
      </trkpt>
      <trkpt lat="46.30619" lon="-0.31269">
        <ele>73.8992</ele>
        <time>2010-12-26T09:44:30Z</time>
      </trkpt>
      <trkpt lat="46.30619" lon="-0.31267">
        <ele>73.8609</ele>
        <time>2010-12-26T09:44:32Z</time>
      </trkpt>
      <trkpt lat="46.30618" lon="-0.31264">
        <ele>73.8252</ele>
        <time>2010-12-26T09:44:32Z</time>
      </trkpt>
      <trkpt lat="46.30617" lon="-0.31261">
        <ele>73.792</ele>
        <time>2010-12-26T09:44:34Z</time>
      </trkpt>
      <trkpt lat="46.30617" lon="-0.31259">
        <ele>73.7597</ele>
        <time>2010-12-26T09:44:34Z</time>
      </trkpt>
      <trkpt lat="46.30616" lon="-0.31256">
        <ele>73.7284</ele>
        <time>2010-12-26T09:44:35Z</time>
      </trkpt>
      <trkpt lat="46.30615" lon="-0.31253">
        <ele>73.6978</ele>
        <time>2010-12-26T09:44:36Z</time>
      </trkpt>
      <trkpt lat="46.30615" lon="-0.31251">
        <ele>73.6694</ele>
        <time>2010-12-26T09:44:38Z</time>
      </trkpt>
      <trkpt lat="46.30614" lon="-0.31248">
        <ele>73.6414</ele>
        <time>2010-12-26T09:44:38Z</time>
      </trkpt>
      <trkpt lat="46.30614" lon="-0.31246">
        <ele>73.6131</ele>
        <time>2010-12-26T09:44:39Z</time>
      </trkpt>
      <trkpt lat="46.30614" lon="-0.31244">
        <ele>73.5831</ele>
        <time>2010-12-26T09:44:40Z</time>
      </trkpt>
      <trkpt lat="46.30615" lon="-0.31242">
        <ele>73.5518</ele>
        <time>2010-12-26T09:44:41Z</time>
      </trkpt>
      <trkpt lat="46.30614" lon="-0.31239">
        <ele>73.5234</ele>
        <time>2010-12-26T09:44:42Z</time>
      </trkpt>
      <trkpt lat="46.30613" lon="-0.31236">
        <ele>73.4852</ele>
        <time>2010-12-26T09:44:43Z</time>
      </trkpt>
      <trkpt lat="46.30613" lon="-0.31234">
        <ele>73.4416</ele>
        <time>2010-12-26T09:44:44Z</time>
      </trkpt>
      <trkpt lat="46.30612" lon="-0.31231">
        <ele>73.3884</ele>
        <time>2010-12-26T09:44:45Z</time>
      </trkpt>
      <trkpt lat="46.30611" lon="-0.31228">
        <ele>73.3311</ele>
        <time>2010-12-26T09:44:47Z</time>
      </trkpt>
      <trkpt lat="46.3061" lon="-0.31226">
        <ele>73.279</ele>
        <time>2010-12-26T09:44:48Z</time>
      </trkpt>
      <trkpt lat="46.30609" lon="-0.31223">
        <ele>73.2346</ele>
        <time>2010-12-26T09:44:48Z</time>
      </trkpt>
      <trkpt lat="46.30608" lon="-0.31221">
        <ele>73.1973</ele>
        <time>2010-12-26T09:44:50Z</time>
      </trkpt>
      <trkpt lat="46.30608" lon="-0.31218">
        <ele>73.1311</ele>
        <time>2010-12-26T09:44:50Z</time>
      </trkpt>
      <trkpt lat="46.30607" lon="-0.31216">
        <ele>73.0561</ele>
        <time>2010-12-26T09:44:52Z</time>
      </trkpt>
      <trkpt lat="46.30605" lon="-0.31213">
        <ele>72.9772</ele>
        <time>2010-12-26T09:44:52Z</time>
      </trkpt>
      <trkpt lat="46.30604" lon="-0.3121">
        <ele>72.9045</ele>
        <time>2010-12-26T09:44:54Z</time>
      </trkpt>
      <trkpt lat="46.30603" lon="-0.31207">
        <ele>72.8412</ele>
        <time>2010-12-26T09:44:55Z</time>
      </trkpt>
      <trkpt lat="46.30602" lon="-0.31204">
        <ele>72.7768</ele>
        <time>2010-12-26T09:44:55Z</time>
      </trkpt>
      <trkpt lat="46.30601" lon="-0.31202">
        <ele>72.7208</ele>
        <time>2010-12-26T09:44:56Z</time>
      </trkpt>
      <trkpt lat="46.306" lon="-0.31199">
        <ele>72.6557</ele>
        <time>2010-12-26T09:44:58Z</time>
      </trkpt>
      <trkpt lat="46.30598" lon="-0.31196">
        <ele>72.5944</ele>
        <time>2010-12-26T09:44:58Z</time>
      </trkpt>
      <trkpt lat="46.30598" lon="-0.31193">
        <ele>72.5359</ele>
        <time>2010-12-26T09:44:59Z</time>
      </trkpt>
      <trkpt lat="46.30597" lon="-0.3119">
        <ele>72.4821</ele>
        <time>2010-12-26T09:45:00Z</time>
      </trkpt>
      <trkpt lat="46.30596" lon="-0.31187">
        <ele>72.4313</ele>
        <time>2010-12-26T09:45:01Z</time>
      </trkpt>
      <trkpt lat="46.30595" lon="-0.31184">
        <ele>72.3811</ele>
        <time>2010-12-26T09:45:03Z</time>
      </trkpt>
      <trkpt lat="46.30594" lon="-0.31182">
        <ele>72.3366</ele>
        <time>2010-12-26T09:45:03Z</time>
      </trkpt>
      <trkpt lat="46.30593" lon="-0.31179">
        <ele>72.297</ele>
        <time>2010-12-26T09:45:04Z</time>
      </trkpt>
      <trkpt lat="46.30592" lon="-0.31176">
        <ele>72.2631</ele>
        <time>2010-12-26T09:45:06Z</time>
      </trkpt>
      <trkpt lat="46.30592" lon="-0.31174">
        <ele>72.2326</ele>
        <time>2010-12-26T09:45:07Z</time>
      </trkpt>
      <trkpt lat="46.30591" lon="-0.31172">
        <ele>72.2055</ele>
        <time>2010-12-26T09:45:07Z</time>
      </trkpt>
      <trkpt lat="46.3059" lon="-0.3117">
        <ele>72.1838</ele>
        <time>2010-12-26T09:45:08Z</time>
      </trkpt>
      <trkpt lat="46.3059" lon="-0.31168">
        <ele>72.1619</ele>
        <time>2010-12-26T09:45:09Z</time>
      </trkpt>
      <trkpt lat="46.3059" lon="-0.31166">
        <ele>72.1467</ele>
        <time>2010-12-26T09:45:10Z</time>
      </trkpt>
      <trkpt lat="46.30589" lon="-0.31164">
        <ele>72.1296</ele>
        <time>2010-12-26T09:45:11Z</time>
      </trkpt>
      <trkpt lat="46.30589" lon="-0.31162">
        <ele>72.1123</ele>
        <time>2010-12-26T09:45:12Z</time>
      </trkpt>
      <trkpt lat="46.30588" lon="-0.31161">
        <ele>72.0953</ele>
        <time>2010-12-26T09:45:13Z</time>
      </trkpt>
      <trkpt lat="46.30587" lon="-0.31159">
        <ele>72.0805</ele>
        <time>2010-12-26T09:45:14Z</time>
      </trkpt>
      <trkpt lat="46.30587" lon="-0.31157">
        <ele>72.0663</ele>
        <time>2010-12-26T09:45:15Z</time>
      </trkpt>
      <trkpt lat="46.30586" lon="-0.31155">
        <ele>72.0502</ele>
        <time>2010-12-26T09:45:16Z</time>
      </trkpt>
      <trkpt lat="46.30586" lon="-0.31153">
        <ele>72.0329</ele>
        <time>2010-12-26T09:45:17Z</time>
      </trkpt>
      <trkpt lat="46.30586" lon="-0.31151">
        <ele>72.0081</ele>
        <time>2010-12-26T09:45:18Z</time>
      </trkpt>
      <trkpt lat="46.30585" lon="-0.31148">
        <ele>71.9933</ele>
        <time>2010-12-26T09:45:19Z</time>
      </trkpt>
      <trkpt lat="46.30584" lon="-0.31146">
        <ele>71.9812</ele>
        <time>2010-12-26T09:45:20Z</time>
      </trkpt>
      <trkpt lat="46.30584" lon="-0.31143">
        <ele>71.9661</ele>
        <time>2010-12-26T09:45:22Z</time>
      </trkpt>
      <trkpt lat="46.30583" lon="-0.31141">
        <ele>71.9556</ele>
        <time>2010-12-26T09:45:22Z</time>
      </trkpt>
      <trkpt lat="46.30583" lon="-0.31139">
        <ele>71.9464</ele>
        <time>2010-12-26T09:45:23Z</time>
      </trkpt>
      <trkpt lat="46.30582" lon="-0.31136">
        <ele>71.937</ele>
        <time>2010-12-26T09:45:24Z</time>
      </trkpt>
      <trkpt lat="46.30581" lon="-0.31134">
        <ele>71.9286</ele>
        <time>2010-12-26T09:45:25Z</time>
      </trkpt>
      <trkpt lat="46.30581" lon="-0.31131">
        <ele>71.9236</ele>
        <time>2010-12-26T09:45:27Z</time>
      </trkpt>
      <trkpt lat="46.3058" lon="-0.31129">
        <ele>71.9211</ele>
        <time>2010-12-26T09:45:28Z</time>
      </trkpt>
      <trkpt lat="46.30579" lon="-0.31127">
        <ele>71.9229</ele>
        <time>2010-12-26T09:45:28Z</time>
      </trkpt>
      <trkpt lat="46.30579" lon="-0.31125">
        <ele>71.9273</ele>
        <time>2010-12-26T09:45:29Z</time>
      </trkpt>
      <trkpt lat="46.30578" lon="-0.31123">
        <ele>71.932</ele>
        <time>2010-12-26T09:45:30Z</time>
      </trkpt>
      <trkpt lat="46.30578" lon="-0.31121">
        <ele>71.9392</ele>
        <time>2010-12-26T09:45:32Z</time>
      </trkpt>
      <trkpt lat="46.30577" lon="-0.31119">
        <ele>71.9502</ele>
        <time>2010-12-26T09:45:32Z</time>
      </trkpt>
      <trkpt lat="46.30576" lon="-0.31117">
        <ele>71.963</ele>
        <time>2010-12-26T09:45:33Z</time>
      </trkpt>
      <trkpt lat="46.30575" lon="-0.31114">
        <ele>71.982</ele>
        <time>2010-12-26T09:45:35Z</time>
      </trkpt>
      <trkpt lat="46.30574" lon="-0.31112">
        <ele>72.0063</ele>
        <time>2010-12-26T09:45:36Z</time>
      </trkpt>
      <trkpt lat="46.30574" lon="-0.3111">
        <ele>72.0312</ele>
        <time>2010-12-26T09:45:36Z</time>
      </trkpt>
      <trkpt lat="46.30573" lon="-0.31108">
        <ele>72.057</ele>
        <time>2010-12-26T09:45:37Z</time>
      </trkpt>
      <trkpt lat="46.30573" lon="-0.31106">
        <ele>72.0826</ele>
        <time>2010-12-26T09:45:39Z</time>
      </trkpt>
      <trkpt lat="46.30572" lon="-0.31103">
        <ele>72.1074</ele>
        <time>2010-12-26T09:45:39Z</time>
      </trkpt>
      <trkpt lat="46.30572" lon="-0.31101">
        <ele>72.1344</ele>
        <time>2010-12-26T09:45:40Z</time>
      </trkpt>
      <trkpt lat="46.30571" lon="-0.31098">
        <ele>72.1593</ele>
        <time>2010-12-26T09:45:42Z</time>
      </trkpt>
      <trkpt lat="46.30571" lon="-0.31096">
        <ele>72.1831</ele>
        <time>2010-12-26T09:45:43Z</time>
      </trkpt>
      <trkpt lat="46.3057" lon="-0.31094">
        <ele>72.2073</ele>
        <time>2010-12-26T09:45:43Z</time>
      </trkpt>
      <trkpt lat="46.3057" lon="-0.31092">
        <ele>72.2302</ele>
        <time>2010-12-26T09:45:44Z</time>
      </trkpt>
      <trkpt lat="46.3057" lon="-0.3109">
        <ele>72.2533</ele>
        <time>2010-12-26T09:45:46Z</time>
      </trkpt>
      <trkpt lat="46.30569" lon="-0.31088">
        <ele>72.277</ele>
        <time>2010-12-26T09:45:47Z</time>
      </trkpt>
      <trkpt lat="46.30568" lon="-0.31086">
        <ele>72.3007</ele>
        <time>2010-12-26T09:45:47Z</time>
      </trkpt>
      <trkpt lat="46.30568" lon="-0.31084">
        <ele>72.3237</ele>
        <time>2010-12-26T09:45:49Z</time>
      </trkpt>
      <trkpt lat="46.30568" lon="-0.31082">
        <ele>72.3453</ele>
        <time>2010-12-26T09:45:50Z</time>
      </trkpt>
      <trkpt lat="46.30567" lon="-0.3108">
        <ele>72.3663</ele>
        <time>2010-12-26T09:45:51Z</time>
      </trkpt>
      <trkpt lat="46.30566" lon="-0.31078">
        <ele>72.3876</ele>
        <time>2010-12-26T09:45:51Z</time>
      </trkpt>
      <trkpt lat="46.30566" lon="-0.31076">
        <ele>72.4095</ele>
        <time>2010-12-26T09:45:52Z</time>
      </trkpt>
      <trkpt lat="46.30565" lon="-0.31074">
        <ele>72.4308</ele>
        <time>2010-12-26T09:45:54Z</time>
      </trkpt>
      <trkpt lat="46.30565" lon="-0.31073">
        <ele>72.4504</ele>
        <time>2010-12-26T09:45:54Z</time>
      </trkpt>
      <trkpt lat="46.30564" lon="-0.31071">
        <ele>72.472</ele>
        <time>2010-12-26T09:45:55Z</time>
      </trkpt>
      <trkpt lat="46.30563" lon="-0.31069">
        <ele>72.4915</ele>
        <time>2010-12-26T09:45:56Z</time>
      </trkpt>
      <trkpt lat="46.30563" lon="-0.31067">
        <ele>72.509</ele>
        <time>2010-12-26T09:45:57Z</time>
      </trkpt>
      <trkpt lat="46.30562" lon="-0.31065">
        <ele>72.525</ele>
        <time>2010-12-26T09:45:58Z</time>
      </trkpt>
      <trkpt lat="46.30562" lon="-0.31064">
        <ele>72.5396</ele>
        <time>2010-12-26T09:45:59Z</time>
      </trkpt>
      <trkpt lat="46.30561" lon="-0.31062">
        <ele>72.5552</ele>
        <time>2010-12-26T09:46:00Z</time>
      </trkpt>
      <trkpt lat="46.30561" lon="-0.31061">
        <ele>72.5657</ele>
        <time>2010-12-26T09:46:01Z</time>
      </trkpt>
      <trkpt lat="46.3056" lon="-0.31059">
        <ele>72.5726</ele>
        <time>2010-12-26T09:46:02Z</time>
      </trkpt>
      <trkpt lat="46.3056" lon="-0.31057">
        <ele>72.5743</ele>
        <time>2010-12-26T09:46:03Z</time>
      </trkpt>
      <trkpt lat="46.30559" lon="-0.31054">
        <ele>72.5767</ele>
        <time>2010-12-26T09:46:04Z</time>
      </trkpt>
      <trkpt lat="46.30558" lon="-0.31052">
        <ele>72.5767</ele>
        <time>2010-12-26T09:46:05Z</time>
      </trkpt>
      <trkpt lat="46.30558" lon="-0.31049">
        <ele>72.5781</ele>
        <time>2010-12-26T09:46:06Z</time>
      </trkpt>
      <trkpt lat="46.30557" lon="-0.31047">
        <ele>72.579</ele>
        <time>2010-12-26T09:46:07Z</time>
      </trkpt>
      <trkpt lat="46.30557" lon="-0.31045">
        <ele>72.5782</ele>
        <time>2010-12-26T09:46:08Z</time>
      </trkpt>
      <trkpt lat="46.30556" lon="-0.31043">
        <ele>72.5768</ele>
        <time>2010-12-26T09:46:09Z</time>
      </trkpt>
      <trkpt lat="46.30555" lon="-0.31042">
        <ele>72.576</ele>
        <time>2010-12-26T09:46:10Z</time>
      </trkpt>
      <trkpt lat="46.30555" lon="-0.3104">
        <ele>72.5758</ele>
        <time>2010-12-26T09:46:11Z</time>
      </trkpt>
      <trkpt lat="46.30554" lon="-0.31038">
        <ele>72.5772</ele>
        <time>2010-12-26T09:46:12Z</time>
      </trkpt>
      <trkpt lat="46.30553" lon="-0.31037">
        <ele>72.58</ele>
        <time>2010-12-26T09:46:13Z</time>
      </trkpt>
      <trkpt lat="46.30553" lon="-0.31035">
        <ele>72.5867</ele>
        <time>2010-12-26T09:46:14Z</time>
      </trkpt>
      <trkpt lat="46.30553" lon="-0.31033">
        <ele>72.5964</ele>
        <time>2010-12-26T09:46:15Z</time>
      </trkpt>
      <trkpt lat="46.30552" lon="-0.31031">
        <ele>72.6083</ele>
        <time>2010-12-26T09:46:16Z</time>
      </trkpt>
      <trkpt lat="46.30552" lon="-0.31029">
        <ele>72.6194</ele>
        <time>2010-12-26T09:46:17Z</time>
      </trkpt>
      <trkpt lat="46.30551" lon="-0.31027">
        <ele>72.6296</ele>
        <time>2010-12-26T09:46:18Z</time>
      </trkpt>
      <trkpt lat="46.30551" lon="-0.31025">
        <ele>72.6389</ele>
        <time>2010-12-26T09:46:19Z</time>
      </trkpt>
      <trkpt lat="46.3055" lon="-0.31024">
        <ele>72.648</ele>
        <time>2010-12-26T09:46:20Z</time>
      </trkpt>
      <trkpt lat="46.3055" lon="-0.31022">
        <ele>72.6569</ele>
        <time>2010-12-26T09:46:21Z</time>
      </trkpt>
      <trkpt lat="46.30549" lon="-0.3102">
        <ele>72.6652</ele>
        <time>2010-12-26T09:46:22Z</time>
      </trkpt>
      <trkpt lat="46.30548" lon="-0.31018">
        <ele>72.6723</ele>
        <time>2010-12-26T09:46:23Z</time>
      </trkpt>
      <trkpt lat="46.30547" lon="-0.31016">
        <ele>72.6787</ele>
        <time>2010-12-26T09:46:24Z</time>
      </trkpt>
      <trkpt lat="46.30545" lon="-0.31014">
        <ele>72.6845</ele>
        <time>2010-12-26T09:46:26Z</time>
      </trkpt>
      <trkpt lat="46.30544" lon="-0.31012">
        <ele>72.6878</ele>
        <time>2010-12-26T09:46:26Z</time>
      </trkpt>
      <trkpt lat="46.30543" lon="-0.31009">
        <ele>72.6902</ele>
        <time>2010-12-26T09:46:28Z</time>
      </trkpt>
      <trkpt lat="46.30542" lon="-0.31006">
        <ele>72.6868</ele>
        <time>2010-12-26T09:46:28Z</time>
      </trkpt>
      <trkpt lat="46.30542" lon="-0.31003">
        <ele>72.6836</ele>
        <time>2010-12-26T09:46:29Z</time>
      </trkpt>
      <trkpt lat="46.30541" lon="-0.31">
        <ele>72.6739</ele>
        <time>2010-12-26T09:46:31Z</time>
      </trkpt>
      <trkpt lat="46.3054" lon="-0.30997">
        <ele>72.6581</ele>
        <time>2010-12-26T09:46:31Z</time>
      </trkpt>
      <trkpt lat="46.30539" lon="-0.30994">
        <ele>72.6423</ele>
        <time>2010-12-26T09:46:32Z</time>
      </trkpt>
      <trkpt lat="46.30538" lon="-0.30991">
        <ele>72.6269</ele>
        <time>2010-12-26T09:46:33Z</time>
      </trkpt>
      <trkpt lat="46.30537" lon="-0.30988">
        <ele>72.6119</ele>
        <time>2010-12-26T09:46:34Z</time>
      </trkpt>
      <trkpt lat="46.30536" lon="-0.30984">
        <ele>72.5965</ele>
        <time>2010-12-26T09:46:35Z</time>
      </trkpt>
      <trkpt lat="46.30535" lon="-0.30982">
        <ele>72.5779</ele>
        <time>2010-12-26T09:46:36Z</time>
      </trkpt>
      <trkpt lat="46.30535" lon="-0.30981">
        <ele>72.5593</ele>
        <time>2010-12-26T09:46:37Z</time>
      </trkpt>
      <trkpt lat="46.30534" lon="-0.30979">
        <ele>72.5408</ele>
        <time>2010-12-26T09:46:38Z</time>
      </trkpt>
      <trkpt lat="46.30534" lon="-0.30977">
        <ele>72.5222</ele>
        <time>2010-12-26T09:46:39Z</time>
      </trkpt>
      <trkpt lat="46.30533" lon="-0.30975">
        <ele>72.5033</ele>
        <time>2010-12-26T09:46:40Z</time>
      </trkpt>
      <trkpt lat="46.30532" lon="-0.30974">
        <ele>72.4795</ele>
        <time>2010-12-26T09:46:41Z</time>
      </trkpt>
      <trkpt lat="46.30531" lon="-0.30972">
        <ele>72.4492</ele>
        <time>2010-12-26T09:46:42Z</time>
      </trkpt>
      <trkpt lat="46.30531" lon="-0.3097">
        <ele>72.4156</ele>
        <time>2010-12-26T09:46:43Z</time>
      </trkpt>
      <trkpt lat="46.3053" lon="-0.30968">
        <ele>72.3757</ele>
        <time>2010-12-26T09:46:44Z</time>
      </trkpt>
      <trkpt lat="46.30529" lon="-0.30965">
        <ele>72.3314</ele>
        <time>2010-12-26T09:46:45Z</time>
      </trkpt>
      <trkpt lat="46.30529" lon="-0.30963">
        <ele>72.2844</ele>
        <time>2010-12-26T09:46:46Z</time>
      </trkpt>
      <trkpt lat="46.30528" lon="-0.30961">
        <ele>72.2395</ele>
        <time>2010-12-26T09:46:47Z</time>
      </trkpt>
      <trkpt lat="46.30528" lon="-0.3096">
        <ele>72.195</ele>
        <time>2010-12-26T09:46:48Z</time>
      </trkpt>
      <trkpt lat="46.30527" lon="-0.30958">
        <ele>72.1462</ele>
        <time>2010-12-26T09:46:49Z</time>
      </trkpt>
      <trkpt lat="46.30527" lon="-0.30956">
        <ele>72.0948</ele>
        <time>2010-12-26T09:46:50Z</time>
      </trkpt>
      <trkpt lat="46.30526" lon="-0.30954">
        <ele>72.0432</ele>
        <time>2010-12-26T09:46:51Z</time>
      </trkpt>
      <trkpt lat="46.30525" lon="-0.30952">
        <ele>71.9872</ele>
        <time>2010-12-26T09:46:52Z</time>
      </trkpt>
      <trkpt lat="46.30524" lon="-0.3095">
        <ele>71.9279</ele>
        <time>2010-12-26T09:46:54Z</time>
      </trkpt>
      <trkpt lat="46.30524" lon="-0.30948">
        <ele>71.8697</ele>
        <time>2010-12-26T09:46:54Z</time>
      </trkpt>
      <trkpt lat="46.30523" lon="-0.30946">
        <ele>71.8135</ele>
        <time>2010-12-26T09:46:55Z</time>
      </trkpt>
      <trkpt lat="46.30522" lon="-0.30944">
        <ele>71.7568</ele>
        <time>2010-12-26T09:46:56Z</time>
      </trkpt>
      <trkpt lat="46.30521" lon="-0.30943">
        <ele>71.7005</ele>
        <time>2010-12-26T09:46:57Z</time>
      </trkpt>
      <trkpt lat="46.30521" lon="-0.30941">
        <ele>71.6424</ele>
        <time>2010-12-26T09:46:58Z</time>
      </trkpt>
      <trkpt lat="46.3052" lon="-0.30939">
        <ele>71.5839</ele>
        <time>2010-12-26T09:46:59Z</time>
      </trkpt>
      <trkpt lat="46.3052" lon="-0.30937">
        <ele>71.525</ele>
        <time>2010-12-26T09:47:00Z</time>
      </trkpt>
      <trkpt lat="46.30519" lon="-0.30935">
        <ele>71.4664</ele>
        <time>2010-12-26T09:47:01Z</time>
      </trkpt>
      <trkpt lat="46.30519" lon="-0.30933">
        <ele>71.4068</ele>
        <time>2010-12-26T09:47:02Z</time>
      </trkpt>
      <trkpt lat="46.30518" lon="-0.30931">
        <ele>71.3482</ele>
        <time>2010-12-26T09:47:03Z</time>
      </trkpt>
      <trkpt lat="46.30518" lon="-0.3093">
        <ele>71.2901</ele>
        <time>2010-12-26T09:47:04Z</time>
      </trkpt>
      <trkpt lat="46.30518" lon="-0.30928">
        <ele>71.233</ele>
        <time>2010-12-26T09:47:05Z</time>
      </trkpt>
      <trkpt lat="46.30518" lon="-0.30926">
        <ele>71.1768</ele>
        <time>2010-12-26T09:47:06Z</time>
      </trkpt>
      <trkpt lat="46.30517" lon="-0.30924">
        <ele>71.122</ele>
        <time>2010-12-26T09:47:07Z</time>
      </trkpt>
      <trkpt lat="46.30517" lon="-0.30922">
        <ele>71.0653</ele>
        <time>2010-12-26T09:47:08Z</time>
      </trkpt>
      <trkpt lat="46.30516" lon="-0.30921">
        <ele>71.0061</ele>
        <time>2010-12-26T09:47:09Z</time>
      </trkpt>
      <trkpt lat="46.30516" lon="-0.30919">
        <ele>70.9468</ele>
        <time>2010-12-26T09:47:10Z</time>
      </trkpt>
      <trkpt lat="46.30515" lon="-0.30917">
        <ele>70.8878</ele>
        <time>2010-12-26T09:47:11Z</time>
      </trkpt>
      <trkpt lat="46.30515" lon="-0.30915">
        <ele>70.8289</ele>
        <time>2010-12-26T09:47:12Z</time>
      </trkpt>
      <trkpt lat="46.30514" lon="-0.30914">
        <ele>70.7694</ele>
        <time>2010-12-26T09:47:13Z</time>
      </trkpt>
      <trkpt lat="46.30513" lon="-0.30912">
        <ele>70.7096</ele>
        <time>2010-12-26T09:47:14Z</time>
      </trkpt>
      <trkpt lat="46.30513" lon="-0.3091">
        <ele>70.6495</ele>
        <time>2010-12-26T09:47:15Z</time>
      </trkpt>
      <trkpt lat="46.30512" lon="-0.30909">
        <ele>70.5894</ele>
        <time>2010-12-26T09:47:16Z</time>
      </trkpt>
      <trkpt lat="46.30512" lon="-0.30907">
        <ele>70.5288</ele>
        <time>2010-12-26T09:47:17Z</time>
      </trkpt>
      <trkpt lat="46.30511" lon="-0.30905">
        <ele>70.4657</ele>
        <time>2010-12-26T09:47:18Z</time>
      </trkpt>
      <trkpt lat="46.3051" lon="-0.30903">
        <ele>70.4054</ele>
        <time>2010-12-26T09:47:19Z</time>
      </trkpt>
      <trkpt lat="46.3051" lon="-0.30901">
        <ele>70.3478</ele>
        <time>2010-12-26T09:47:20Z</time>
      </trkpt>
      <trkpt lat="46.3051" lon="-0.30899">
        <ele>70.293</ele>
        <time>2010-12-26T09:47:21Z</time>
      </trkpt>
      <trkpt lat="46.3051" lon="-0.30897">
        <ele>70.2406</ele>
        <time>2010-12-26T09:47:22Z</time>
      </trkpt>
      <trkpt lat="46.3051" lon="-0.30896">
        <ele>70.1902</ele>
        <time>2010-12-26T09:47:23Z</time>
      </trkpt>
      <trkpt lat="46.30509" lon="-0.30894">
        <ele>70.1381</ele>
        <time>2010-12-26T09:47:24Z</time>
      </trkpt>
      <trkpt lat="46.30509" lon="-0.30893">
        <ele>70.082</ele>
        <time>2010-12-26T09:47:25Z</time>
      </trkpt>
      <trkpt lat="46.30508" lon="-0.30891">
        <ele>70.0285</ele>
        <time>2010-12-26T09:47:26Z</time>
      </trkpt>
      <trkpt lat="46.30508" lon="-0.30889">
        <ele>69.9764</ele>
        <time>2010-12-26T09:47:27Z</time>
      </trkpt>
      <trkpt lat="46.30508" lon="-0.30887">
        <ele>69.9237</ele>
        <time>2010-12-26T09:47:28Z</time>
      </trkpt>
      <trkpt lat="46.30508" lon="-0.30885">
        <ele>69.8703</ele>
        <time>2010-12-26T09:47:29Z</time>
      </trkpt>
      <trkpt lat="46.30507" lon="-0.30883">
        <ele>69.8099</ele>
        <time>2010-12-26T09:47:30Z</time>
      </trkpt>
      <trkpt lat="46.30506" lon="-0.3088">
        <ele>69.7391</ele>
        <time>2010-12-26T09:47:31Z</time>
      </trkpt>
      <trkpt lat="46.30505" lon="-0.30878">
        <ele>69.6669</ele>
        <time>2010-12-26T09:47:32Z</time>
      </trkpt>
      <trkpt lat="46.30505" lon="-0.30876">
        <ele>69.5947</ele>
        <time>2010-12-26T09:47:33Z</time>
      </trkpt>
      <trkpt lat="46.30504" lon="-0.30873">
        <ele>69.5187</ele>
        <time>2010-12-26T09:47:34Z</time>
      </trkpt>
      <trkpt lat="46.30504" lon="-0.30871">
        <ele>69.4404</ele>
        <time>2010-12-26T09:47:35Z</time>
      </trkpt>
      <trkpt lat="46.30502" lon="-0.30868">
        <ele>69.3601</ele>
        <time>2010-12-26T09:47:36Z</time>
      </trkpt>
      <trkpt lat="46.30502" lon="-0.30866">
        <ele>69.2844</ele>
        <time>2010-12-26T09:47:37Z</time>
      </trkpt>
      <trkpt lat="46.30501" lon="-0.30864">
        <ele>69.212</ele>
        <time>2010-12-26T09:47:38Z</time>
      </trkpt>
      <trkpt lat="46.305" lon="-0.30863">
        <ele>69.143</ele>
        <time>2010-12-26T09:47:39Z</time>
      </trkpt>
      <trkpt lat="46.305" lon="-0.30861">
        <ele>69.0771</ele>
        <time>2010-12-26T09:47:40Z</time>
      </trkpt>
      <trkpt lat="46.30499" lon="-0.30859">
        <ele>69.0138</ele>
        <time>2010-12-26T09:47:41Z</time>
      </trkpt>
      <trkpt lat="46.30499" lon="-0.30858">
        <ele>68.9554</ele>
        <time>2010-12-26T09:47:42Z</time>
      </trkpt>
      <trkpt lat="46.30498" lon="-0.30856">
        <ele>68.8999</ele>
        <time>2010-12-26T09:47:43Z</time>
      </trkpt>
      <trkpt lat="46.30497" lon="-0.30854">
        <ele>68.8467</ele>
        <time>2010-12-26T09:47:44Z</time>
      </trkpt>
      <trkpt lat="46.30497" lon="-0.30853">
        <ele>68.7967</ele>
        <time>2010-12-26T09:47:45Z</time>
      </trkpt>
      <trkpt lat="46.30496" lon="-0.30851">
        <ele>68.7466</ele>
        <time>2010-12-26T09:47:46Z</time>
      </trkpt>
      <trkpt lat="46.30495" lon="-0.30849">
        <ele>68.6989</ele>
        <time>2010-12-26T09:47:47Z</time>
      </trkpt>
      <trkpt lat="46.30495" lon="-0.30848">
        <ele>68.6502</ele>
        <time>2010-12-26T09:47:48Z</time>
      </trkpt>
      <trkpt lat="46.30494" lon="-0.30846">
        <ele>68.6057</ele>
        <time>2010-12-26T09:47:49Z</time>
      </trkpt>
      <trkpt lat="46.30494" lon="-0.30844">
        <ele>68.5648</ele>
        <time>2010-12-26T09:47:50Z</time>
      </trkpt>
      <trkpt lat="46.30494" lon="-0.30843">
        <ele>68.5279</ele>
        <time>2010-12-26T09:47:51Z</time>
      </trkpt>
      <trkpt lat="46.30493" lon="-0.30841">
        <ele>68.4948</ele>
        <time>2010-12-26T09:47:52Z</time>
      </trkpt>
      <trkpt lat="46.30492" lon="-0.3084">
        <ele>68.4664</ele>
        <time>2010-12-26T09:47:53Z</time>
      </trkpt>
      <trkpt lat="46.30492" lon="-0.30839">
        <ele>68.4416</ele>
        <time>2010-12-26T09:47:54Z</time>
      </trkpt>
      <trkpt lat="46.30492" lon="-0.30837">
        <ele>68.4168</ele>
        <time>2010-12-26T09:47:55Z</time>
      </trkpt>
      <trkpt lat="46.30491" lon="-0.30835">
        <ele>68.3934</ele>
        <time>2010-12-26T09:47:56Z</time>
      </trkpt>
      <trkpt lat="46.30491" lon="-0.30834">
        <ele>68.3704</ele>
        <time>2010-12-26T09:47:57Z</time>
      </trkpt>
      <trkpt lat="46.3049" lon="-0.30832">
        <ele>68.3505</ele>
        <time>2010-12-26T09:47:58Z</time>
      </trkpt>
      <trkpt lat="46.3049" lon="-0.30829">
        <ele>68.3321</ele>
        <time>2010-12-26T09:47:59Z</time>
      </trkpt>
      <trkpt lat="46.30489" lon="-0.30828">
        <ele>68.3147</ele>
        <time>2010-12-26T09:48:00Z</time>
      </trkpt>
      <trkpt lat="46.30489" lon="-0.30825">
        <ele>68.297</ele>
        <time>2010-12-26T09:48:01Z</time>
      </trkpt>
      <trkpt lat="46.30488" lon="-0.30823">
        <ele>68.2758</ele>
        <time>2010-12-26T09:48:02Z</time>
      </trkpt>
      <trkpt lat="46.30487" lon="-0.30822">
        <ele>68.2535</ele>
        <time>2010-12-26T09:48:03Z</time>
      </trkpt>
      <trkpt lat="46.30487" lon="-0.3082">
        <ele>68.2304</ele>
        <time>2010-12-26T09:48:04Z</time>
      </trkpt>
      <trkpt lat="46.30487" lon="-0.30818">
        <ele>68.2082</ele>
        <time>2010-12-26T09:48:05Z</time>
      </trkpt>
      <trkpt lat="46.30486" lon="-0.30816">
        <ele>68.1857</ele>
        <time>2010-12-26T09:48:06Z</time>
      </trkpt>
      <trkpt lat="46.30486" lon="-0.30814">
        <ele>68.1598</ele>
        <time>2010-12-26T09:48:07Z</time>
      </trkpt>
      <trkpt lat="46.30485" lon="-0.30811">
        <ele>68.1299</ele>
        <time>2010-12-26T09:48:08Z</time>
      </trkpt>
      <trkpt lat="46.30485" lon="-0.30809">
        <ele>68.0979</ele>
        <time>2010-12-26T09:48:10Z</time>
      </trkpt>
      <trkpt lat="46.30484" lon="-0.30807">
        <ele>68.0628</ele>
        <time>2010-12-26T09:48:10Z</time>
      </trkpt>
      <trkpt lat="46.30484" lon="-0.30805">
        <ele>68.028</ele>
        <time>2010-12-26T09:48:11Z</time>
      </trkpt>
      <trkpt lat="46.30483" lon="-0.30803">
        <ele>67.9905</ele>
        <time>2010-12-26T09:48:13Z</time>
      </trkpt>
      <trkpt lat="46.30482" lon="-0.30801">
        <ele>67.9543</ele>
        <time>2010-12-26T09:48:13Z</time>
      </trkpt>
      <trkpt lat="46.30481" lon="-0.30799">
        <ele>67.9181</ele>
        <time>2010-12-26T09:48:14Z</time>
      </trkpt>
      <trkpt lat="46.3048" lon="-0.30797">
        <ele>67.8834</ele>
        <time>2010-12-26T09:48:15Z</time>
      </trkpt>
      <trkpt lat="46.30479" lon="-0.30795">
        <ele>67.8483</ele>
        <time>2010-12-26T09:48:16Z</time>
      </trkpt>
      <trkpt lat="46.30479" lon="-0.30793">
        <ele>67.8129</ele>
        <time>2010-12-26T09:48:17Z</time>
      </trkpt>
      <trkpt lat="46.30478" lon="-0.30791">
        <ele>67.7775</ele>
        <time>2010-12-26T09:48:18Z</time>
      </trkpt>
      <trkpt lat="46.30477" lon="-0.30789">
        <ele>67.7413</ele>
        <time>2010-12-26T09:48:19Z</time>
      </trkpt>
      <trkpt lat="46.30476" lon="-0.30787">
        <ele>67.7026</ele>
        <time>2010-12-26T09:48:20Z</time>
      </trkpt>
      <trkpt lat="46.30475" lon="-0.30785">
        <ele>67.6632</ele>
        <time>2010-12-26T09:48:21Z</time>
      </trkpt>
      <trkpt lat="46.30475" lon="-0.30783">
        <ele>67.6221</ele>
        <time>2010-12-26T09:48:22Z</time>
      </trkpt>
      <trkpt lat="46.30474" lon="-0.30782">
        <ele>67.5849</ele>
        <time>2010-12-26T09:48:23Z</time>
      </trkpt>
      <trkpt lat="46.30474" lon="-0.30781">
        <ele>67.5526</ele>
        <time>2010-12-26T09:48:24Z</time>
      </trkpt>
      <trkpt lat="46.30473" lon="-0.30779">
        <ele>67.5241</ele>
        <time>2010-12-26T09:48:25Z</time>
      </trkpt>
      <trkpt lat="46.30473" lon="-0.30777">
        <ele>67.4978</ele>
        <time>2010-12-26T09:48:26Z</time>
      </trkpt>
      <trkpt lat="46.30472" lon="-0.30776">
        <ele>67.4737</ele>
        <time>2010-12-26T09:48:27Z</time>
      </trkpt>
      <trkpt lat="46.30471" lon="-0.30774">
        <ele>67.45</ele>
        <time>2010-12-26T09:48:28Z</time>
      </trkpt>
      <trkpt lat="46.30471" lon="-0.30772">
        <ele>67.4294</ele>
        <time>2010-12-26T09:48:29Z</time>
      </trkpt>
      <trkpt lat="46.3047" lon="-0.3077">
        <ele>67.4102</ele>
        <time>2010-12-26T09:48:30Z</time>
      </trkpt>
      <trkpt lat="46.3047" lon="-0.30768">
        <ele>67.396</ele>
        <time>2010-12-26T09:48:31Z</time>
      </trkpt>
      <trkpt lat="46.30469" lon="-0.30766">
        <ele>67.3865</ele>
        <time>2010-12-26T09:48:32Z</time>
      </trkpt>
      <trkpt lat="46.30468" lon="-0.30764">
        <ele>67.3796</ele>
        <time>2010-12-26T09:48:33Z</time>
      </trkpt>
      <trkpt lat="46.30468" lon="-0.30762">
        <ele>67.378</ele>
        <time>2010-12-26T09:48:34Z</time>
      </trkpt>
      <trkpt lat="46.30467" lon="-0.30761">
        <ele>67.3823</ele>
        <time>2010-12-26T09:48:35Z</time>
      </trkpt>
      <trkpt lat="46.30467" lon="-0.30759">
        <ele>67.3893</ele>
        <time>2010-12-26T09:48:36Z</time>
      </trkpt>
      <trkpt lat="46.30466" lon="-0.30756">
        <ele>67.3982</ele>
        <time>2010-12-26T09:48:37Z</time>
      </trkpt>
      <trkpt lat="46.30465" lon="-0.30754">
        <ele>67.4086</ele>
        <time>2010-12-26T09:48:38Z</time>
      </trkpt>
      <trkpt lat="46.30464" lon="-0.30752">
        <ele>67.4183</ele>
        <time>2010-12-26T09:48:39Z</time>
      </trkpt>
      <trkpt lat="46.30463" lon="-0.3075">
        <ele>67.4274</ele>
        <time>2010-12-26T09:48:40Z</time>
      </trkpt>
      <trkpt lat="46.30462" lon="-0.30748">
        <ele>67.4383</ele>
        <time>2010-12-26T09:48:41Z</time>
      </trkpt>
      <trkpt lat="46.30462" lon="-0.30746">
        <ele>67.4478</ele>
        <time>2010-12-26T09:48:42Z</time>
      </trkpt>
      <trkpt lat="46.30461" lon="-0.30744">
        <ele>67.4566</ele>
        <time>2010-12-26T09:48:43Z</time>
      </trkpt>
      <trkpt lat="46.3046" lon="-0.30743">
        <ele>67.465</ele>
        <time>2010-12-26T09:48:44Z</time>
      </trkpt>
      <trkpt lat="46.3046" lon="-0.30741">
        <ele>67.476</ele>
        <time>2010-12-26T09:48:45Z</time>
      </trkpt>
      <trkpt lat="46.30459" lon="-0.30739">
        <ele>67.4883</ele>
        <time>2010-12-26T09:48:46Z</time>
      </trkpt>
      <trkpt lat="46.30459" lon="-0.30737">
        <ele>67.5019</ele>
        <time>2010-12-26T09:48:47Z</time>
      </trkpt>
      <trkpt lat="46.30458" lon="-0.30735">
        <ele>67.5187</ele>
        <time>2010-12-26T09:48:48Z</time>
      </trkpt>
      <trkpt lat="46.30458" lon="-0.30733">
        <ele>67.5395</ele>
        <time>2010-12-26T09:48:49Z</time>
      </trkpt>
      <trkpt lat="46.30457" lon="-0.30731">
        <ele>67.5605</ele>
        <time>2010-12-26T09:48:50Z</time>
      </trkpt>
      <trkpt lat="46.30457" lon="-0.30729">
        <ele>67.581</ele>
        <time>2010-12-26T09:48:51Z</time>
      </trkpt>
      <trkpt lat="46.30456" lon="-0.30727">
        <ele>67.6021</ele>
        <time>2010-12-26T09:48:52Z</time>
      </trkpt>
      <trkpt lat="46.30455" lon="-0.30726">
        <ele>67.6245</ele>
        <time>2010-12-26T09:48:53Z</time>
      </trkpt>
      <trkpt lat="46.30454" lon="-0.30724">
        <ele>67.649</ele>
        <time>2010-12-26T09:48:54Z</time>
      </trkpt>
      <trkpt lat="46.30454" lon="-0.30723">
        <ele>67.6744</ele>
        <time>2010-12-26T09:48:55Z</time>
      </trkpt>
      <trkpt lat="46.30452" lon="-0.30719">
        <ele>67.6974</ele>
        <time>2010-12-26T09:48:56Z</time>
      </trkpt>
      <trkpt lat="46.30451" lon="-0.30717">
        <ele>67.7226</ele>
        <time>2010-12-26T09:48:57Z</time>
      </trkpt>
      <trkpt lat="46.3045" lon="-0.30715">
        <ele>67.7499</ele>
        <time>2010-12-26T09:48:58Z</time>
      </trkpt>
      <trkpt lat="46.30449" lon="-0.30713">
        <ele>67.7795</ele>
        <time>2010-12-26T09:48:59Z</time>
      </trkpt>
      <trkpt lat="46.30449" lon="-0.30711">
        <ele>67.8103</ele>
        <time>2010-12-26T09:49:00Z</time>
      </trkpt>
      <trkpt lat="46.30448" lon="-0.30709">
        <ele>67.8442</ele>
        <time>2010-12-26T09:49:01Z</time>
      </trkpt>
      <trkpt lat="46.30447" lon="-0.30707">
        <ele>67.8794</ele>
        <time>2010-12-26T09:49:02Z</time>
      </trkpt>
      <trkpt lat="46.30447" lon="-0.30705">
        <ele>67.9146</ele>
        <time>2010-12-26T09:49:03Z</time>
      </trkpt>
      <trkpt lat="46.30446" lon="-0.30702">
        <ele>67.9517</ele>
        <time>2010-12-26T09:49:04Z</time>
      </trkpt>
      <trkpt lat="46.30445" lon="-0.307">
        <ele>67.9918</ele>
        <time>2010-12-26T09:49:05Z</time>
      </trkpt>
      <trkpt lat="46.30444" lon="-0.30699">
        <ele>68.0343</ele>
        <time>2010-12-26T09:49:06Z</time>
      </trkpt>
      <trkpt lat="46.30444" lon="-0.30697">
        <ele>68.0787</ele>
        <time>2010-12-26T09:49:07Z</time>
      </trkpt>
      <trkpt lat="46.30443" lon="-0.30695">
        <ele>68.1249</ele>
        <time>2010-12-26T09:49:09Z</time>
      </trkpt>
      <trkpt lat="46.30443" lon="-0.30693">
        <ele>68.1696</ele>
        <time>2010-12-26T09:49:09Z</time>
      </trkpt>
      <trkpt lat="46.30442" lon="-0.30691">
        <ele>68.216</ele>
        <time>2010-12-26T09:49:10Z</time>
      </trkpt>
      <trkpt lat="46.30442" lon="-0.3069">
        <ele>68.265</ele>
        <time>2010-12-26T09:49:11Z</time>
      </trkpt>
      <trkpt lat="46.30441" lon="-0.30688">
        <ele>68.3116</ele>
        <time>2010-12-26T09:49:12Z</time>
      </trkpt>
      <trkpt lat="46.3044" lon="-0.30686">
        <ele>68.3586</ele>
        <time>2010-12-26T09:49:13Z</time>
      </trkpt>
      <trkpt lat="46.30439" lon="-0.30685">
        <ele>68.4024</ele>
        <time>2010-12-26T09:49:14Z</time>
      </trkpt>
      <trkpt lat="46.30439" lon="-0.30683">
        <ele>68.4502</ele>
        <time>2010-12-26T09:49:15Z</time>
      </trkpt>
      <trkpt lat="46.30438" lon="-0.30681">
        <ele>68.4979</ele>
        <time>2010-12-26T09:49:16Z</time>
      </trkpt>
      <trkpt lat="46.30437" lon="-0.3068">
        <ele>68.5435</ele>
        <time>2010-12-26T09:49:18Z</time>
      </trkpt>
      <trkpt lat="46.30436" lon="-0.30678">
        <ele>68.5897</ele>
        <time>2010-12-26T09:49:18Z</time>
      </trkpt>
      <trkpt lat="46.30436" lon="-0.30676">
        <ele>68.6386</ele>
        <time>2010-12-26T09:49:19Z</time>
      </trkpt>
      <trkpt lat="46.30435" lon="-0.30674">
        <ele>68.6945</ele>
        <time>2010-12-26T09:49:21Z</time>
      </trkpt>
      <trkpt lat="46.30434" lon="-0.30673">
        <ele>68.7522</ele>
        <time>2010-12-26T09:49:21Z</time>
      </trkpt>
      <trkpt lat="46.30434" lon="-0.30672">
        <ele>68.8101</ele>
        <time>2010-12-26T09:49:22Z</time>
      </trkpt>
      <trkpt lat="46.30433" lon="-0.30671">
        <ele>68.8667</ele>
        <time>2010-12-26T09:49:23Z</time>
      </trkpt>
      <trkpt lat="46.30433" lon="-0.30669">
        <ele>68.9248</ele>
        <time>2010-12-26T09:49:24Z</time>
      </trkpt>
      <trkpt lat="46.30432" lon="-0.30668">
        <ele>68.9892</ele>
        <time>2010-12-26T09:49:25Z</time>
      </trkpt>
      <trkpt lat="46.30431" lon="-0.30666">
        <ele>69.057</ele>
        <time>2010-12-26T09:49:26Z</time>
      </trkpt>
      <trkpt lat="46.30431" lon="-0.30664">
        <ele>69.1264</ele>
        <time>2010-12-26T09:49:28Z</time>
      </trkpt>
      <trkpt lat="46.30431" lon="-0.30662">
        <ele>69.1967</ele>
        <time>2010-12-26T09:49:28Z</time>
      </trkpt>
      <trkpt lat="46.3043" lon="-0.3066">
        <ele>69.2626</ele>
        <time>2010-12-26T09:49:29Z</time>
      </trkpt>
      <trkpt lat="46.3043" lon="-0.30657">
        <ele>69.3271</ele>
        <time>2010-12-26T09:49:30Z</time>
      </trkpt>
      <trkpt lat="46.30429" lon="-0.30654">
        <ele>69.3897</ele>
        <time>2010-12-26T09:49:31Z</time>
      </trkpt>
      <trkpt lat="46.30428" lon="-0.30652">
        <ele>69.4536</ele>
        <time>2010-12-26T09:49:32Z</time>
      </trkpt>
      <trkpt lat="46.30428" lon="-0.3065">
        <ele>69.5185</ele>
        <time>2010-12-26T09:49:33Z</time>
      </trkpt>
      <trkpt lat="46.30427" lon="-0.30648">
        <ele>69.5842</ele>
        <time>2010-12-26T09:49:35Z</time>
      </trkpt>
      <trkpt lat="46.30426" lon="-0.30646">
        <ele>69.6508</ele>
        <time>2010-12-26T09:49:35Z</time>
      </trkpt>
      <trkpt lat="46.30425" lon="-0.30645">
        <ele>69.7203</ele>
        <time>2010-12-26T09:49:36Z</time>
      </trkpt>
      <trkpt lat="46.30425" lon="-0.30643">
        <ele>69.7911</ele>
        <time>2010-12-26T09:49:37Z</time>
      </trkpt>
      <trkpt lat="46.30424" lon="-0.30642">
        <ele>69.8607</ele>
        <time>2010-12-26T09:49:38Z</time>
      </trkpt>
      <trkpt lat="46.30423" lon="-0.3064">
        <ele>69.9274</ele>
        <time>2010-12-26T09:49:39Z</time>
      </trkpt>
      <trkpt lat="46.30422" lon="-0.30638">
        <ele>69.9927</ele>
        <time>2010-12-26T09:49:40Z</time>
      </trkpt>
      <trkpt lat="46.30421" lon="-0.30636">
        <ele>70.0574</ele>
        <time>2010-12-26T09:49:41Z</time>
      </trkpt>
      <trkpt lat="46.3042" lon="-0.30634">
        <ele>70.1134</ele>
        <time>2010-12-26T09:49:42Z</time>
      </trkpt>
      <trkpt lat="46.30419" lon="-0.30632">
        <ele>70.1657</ele>
        <time>2010-12-26T09:49:43Z</time>
      </trkpt>
      <trkpt lat="46.30418" lon="-0.3063">
        <ele>70.2197</ele>
        <time>2010-12-26T09:49:44Z</time>
      </trkpt>
      <trkpt lat="46.30417" lon="-0.30628">
        <ele>70.2197</ele>
        <time>2010-12-26T09:49:45Z</time>
      </trkpt>
      <trkpt lat="46.30415" lon="-0.30626">
        <ele>70.2665</ele>
        <time>2010-12-26T09:49:46Z</time>
      </trkpt>
      <trkpt lat="46.30415" lon="-0.30625">
        <ele>70.3067</ele>
        <time>2010-12-26T09:49:47Z</time>
      </trkpt>
      <trkpt lat="46.30414" lon="-0.30623">
        <ele>70.3412</ele>
        <time>2010-12-26T09:49:49Z</time>
      </trkpt>
      <trkpt lat="46.30413" lon="-0.30621">
        <ele>70.3723</ele>
        <time>2010-12-26T09:49:49Z</time>
      </trkpt>
      <trkpt lat="46.30412" lon="-0.30619">
        <ele>70.4053</ele>
        <time>2010-12-26T09:49:50Z</time>
      </trkpt>
      <trkpt lat="46.30411" lon="-0.30617">
        <ele>70.4449</ele>
        <time>2010-12-26T09:49:51Z</time>
      </trkpt>
      <trkpt lat="46.3041" lon="-0.30615">
        <ele>70.4863</ele>
        <time>2010-12-26T09:49:52Z</time>
      </trkpt>
      <trkpt lat="46.3041" lon="-0.30613">
        <ele>70.5269</ele>
        <time>2010-12-26T09:49:53Z</time>
      </trkpt>
      <trkpt lat="46.30409" lon="-0.30611">
        <ele>70.5737</ele>
        <time>2010-12-26T09:49:54Z</time>
      </trkpt>
      <trkpt lat="46.30408" lon="-0.30609">
        <ele>70.6221</ele>
        <time>2010-12-26T09:49:55Z</time>
      </trkpt>
      <trkpt lat="46.30407" lon="-0.30607">
        <ele>70.6683</ele>
        <time>2010-12-26T09:49:57Z</time>
      </trkpt>
      <trkpt lat="46.30406" lon="-0.30605">
        <ele>70.7152</ele>
        <time>2010-12-26T09:49:58Z</time>
      </trkpt>
      <trkpt lat="46.30405" lon="-0.30603">
        <ele>70.7617</ele>
        <time>2010-12-26T09:49:58Z</time>
      </trkpt>
      <trkpt lat="46.30404" lon="-0.30602">
        <ele>70.8067</ele>
        <time>2010-12-26T09:50:00Z</time>
      </trkpt>
      <trkpt lat="46.30403" lon="-0.306">
        <ele>70.8513</ele>
        <time>2010-12-26T09:50:01Z</time>
      </trkpt>
      <trkpt lat="46.30402" lon="-0.30598">
        <ele>70.8959</ele>
        <time>2010-12-26T09:50:01Z</time>
      </trkpt>
      <trkpt lat="46.30401" lon="-0.30597">
        <ele>70.9407</ele>
        <time>2010-12-26T09:50:02Z</time>
      </trkpt>
      <trkpt lat="46.30401" lon="-0.30595">
        <ele>70.9884</ele>
        <time>2010-12-26T09:50:03Z</time>
      </trkpt>
      <trkpt lat="46.304" lon="-0.30594">
        <ele>71.0367</ele>
        <time>2010-12-26T09:50:04Z</time>
      </trkpt>
      <trkpt lat="46.30399" lon="-0.30592">
        <ele>71.0874</ele>
        <time>2010-12-26T09:50:06Z</time>
      </trkpt>
      <trkpt lat="46.30398" lon="-0.30591">
        <ele>71.1385</ele>
        <time>2010-12-26T09:50:07Z</time>
      </trkpt>
      <trkpt lat="46.30397" lon="-0.30589">
        <ele>71.1888</ele>
        <time>2010-12-26T09:50:07Z</time>
      </trkpt>
      <trkpt lat="46.30396" lon="-0.30587">
        <ele>71.24</ele>
        <time>2010-12-26T09:50:09Z</time>
      </trkpt>
      <trkpt lat="46.30395" lon="-0.30586">
        <ele>71.2932</ele>
        <time>2010-12-26T09:50:10Z</time>
      </trkpt>
      <trkpt lat="46.30394" lon="-0.30584">
        <ele>71.3472</ele>
        <time>2010-12-26T09:50:10Z</time>
      </trkpt>
      <trkpt lat="46.30393" lon="-0.30582">
        <ele>71.3989</ele>
        <time>2010-12-26T09:50:12Z</time>
      </trkpt>
      <trkpt lat="46.30392" lon="-0.30581">
        <ele>71.4521</ele>
        <time>2010-12-26T09:50:13Z</time>
      </trkpt>
      <trkpt lat="46.30391" lon="-0.30579">
        <ele>71.5047</ele>
        <time>2010-12-26T09:50:14Z</time>
      </trkpt>
      <trkpt lat="46.3039" lon="-0.30577">
        <ele>71.558</ele>
        <time>2010-12-26T09:50:15Z</time>
      </trkpt>
      <trkpt lat="46.30389" lon="-0.30575">
        <ele>71.6153</ele>
        <time>2010-12-26T09:50:16Z</time>
      </trkpt>
      <trkpt lat="46.30388" lon="-0.30574">
        <ele>71.6745</ele>
        <time>2010-12-26T09:50:17Z</time>
      </trkpt>
      <trkpt lat="46.30387" lon="-0.30572">
        <ele>71.7349</ele>
        <time>2010-12-26T09:50:18Z</time>
      </trkpt>
      <trkpt lat="46.30386" lon="-0.30571">
        <ele>71.7965</ele>
        <time>2010-12-26T09:50:18Z</time>
      </trkpt>
      <trkpt lat="46.30385" lon="-0.30569">
        <ele>71.8583</ele>
        <time>2010-12-26T09:50:20Z</time>
      </trkpt>
      <trkpt lat="46.30384" lon="-0.30568">
        <ele>71.9217</ele>
        <time>2010-12-26T09:50:21Z</time>
      </trkpt>
      <trkpt lat="46.30383" lon="-0.30566">
        <ele>71.9858</ele>
        <time>2010-12-26T09:50:22Z</time>
      </trkpt>
      <trkpt lat="46.30382" lon="-0.30564">
        <ele>72.0513</ele>
        <time>2010-12-26T09:50:23Z</time>
      </trkpt>
      <trkpt lat="46.30381" lon="-0.30562">
        <ele>72.1186</ele>
        <time>2010-12-26T09:50:24Z</time>
      </trkpt>
      <trkpt lat="46.3038" lon="-0.30561">
        <ele>72.186</ele>
        <time>2010-12-26T09:50:25Z</time>
      </trkpt>
      <trkpt lat="46.30379" lon="-0.3056">
        <ele>72.2537</ele>
        <time>2010-12-26T09:50:26Z</time>
      </trkpt>
      <trkpt lat="46.30378" lon="-0.30558">
        <ele>72.3212</ele>
        <time>2010-12-26T09:50:27Z</time>
      </trkpt>
      <trkpt lat="46.30377" lon="-0.30557">
        <ele>72.3893</ele>
        <time>2010-12-26T09:50:28Z</time>
      </trkpt>
      <trkpt lat="46.30376" lon="-0.30555">
        <ele>72.4524</ele>
        <time>2010-12-26T09:50:29Z</time>
      </trkpt>
      <trkpt lat="46.30375" lon="-0.30553">
        <ele>72.5089</ele>
        <time>2010-12-26T09:50:30Z</time>
      </trkpt>
      <trkpt lat="46.30375" lon="-0.30551">
        <ele>72.5602</ele>
        <time>2010-12-26T09:50:30Z</time>
      </trkpt>
      <trkpt lat="46.30374" lon="-0.30549">
        <ele>72.6108</ele>
        <time>2010-12-26T09:50:32Z</time>
      </trkpt>
      <trkpt lat="46.30373" lon="-0.30547">
        <ele>72.653</ele>
        <time>2010-12-26T09:50:33Z</time>
      </trkpt>
      <trkpt lat="46.30372" lon="-0.30546">
        <ele>72.6886</ele>
        <time>2010-12-26T09:50:33Z</time>
      </trkpt>
      <trkpt lat="46.3037" lon="-0.30544">
        <ele>72.7176</ele>
        <time>2010-12-26T09:50:35Z</time>
      </trkpt>
      <trkpt lat="46.30369" lon="-0.30543">
        <ele>72.7384</ele>
        <time>2010-12-26T09:50:36Z</time>
      </trkpt>
      <trkpt lat="46.30368" lon="-0.30541">
        <ele>72.7517</ele>
        <time>2010-12-26T09:50:36Z</time>
      </trkpt>
      <trkpt lat="46.30367" lon="-0.3054">
        <ele>72.7665</ele>
        <time>2010-12-26T09:50:38Z</time>
      </trkpt>
      <trkpt lat="46.30366" lon="-0.30538">
        <ele>72.7771</ele>
        <time>2010-12-26T09:50:38Z</time>
      </trkpt>
      <trkpt lat="46.30365" lon="-0.30537">
        <ele>72.7867</ele>
        <time>2010-12-26T09:50:39Z</time>
      </trkpt>
      <trkpt lat="46.30364" lon="-0.30535">
        <ele>72.7945</ele>
        <time>2010-12-26T09:50:40Z</time>
      </trkpt>
      <trkpt lat="46.30362" lon="-0.30534">
        <ele>72.8023</ele>
        <time>2010-12-26T09:50:42Z</time>
      </trkpt>
      <trkpt lat="46.30361" lon="-0.30532">
        <ele>72.816</ele>
        <time>2010-12-26T09:50:43Z</time>
      </trkpt>
      <trkpt lat="46.3036" lon="-0.30531">
        <ele>72.8364</ele>
        <time>2010-12-26T09:50:44Z</time>
      </trkpt>
      <trkpt lat="46.30358" lon="-0.3053">
        <ele>72.8616</ele>
        <time>2010-12-26T09:50:45Z</time>
      </trkpt>
      <trkpt lat="46.30357" lon="-0.30528">
        <ele>72.888</ele>
        <time>2010-12-26T09:50:46Z</time>
      </trkpt>
      <trkpt lat="46.30356" lon="-0.30527">
        <ele>72.9147</ele>
        <time>2010-12-26T09:50:47Z</time>
      </trkpt>
      <trkpt lat="46.30355" lon="-0.30525">
        <ele>72.9416</ele>
        <time>2010-12-26T09:50:48Z</time>
      </trkpt>
      <trkpt lat="46.30354" lon="-0.30524">
        <ele>72.9693</ele>
        <time>2010-12-26T09:50:49Z</time>
      </trkpt>
      <trkpt lat="46.30353" lon="-0.30522">
        <ele>72.9992</ele>
        <time>2010-12-26T09:50:50Z</time>
      </trkpt>
      <trkpt lat="46.30352" lon="-0.3052">
        <ele>73.0307</ele>
        <time>2010-12-26T09:50:51Z</time>
      </trkpt>
      <trkpt lat="46.30351" lon="-0.30519">
        <ele>73.0637</ele>
        <time>2010-12-26T09:50:51Z</time>
      </trkpt>
      <trkpt lat="46.3035" lon="-0.30518">
        <ele>73.0979</ele>
        <time>2010-12-26T09:50:52Z</time>
      </trkpt>
      <trkpt lat="46.30349" lon="-0.30516">
        <ele>73.1294</ele>
        <time>2010-12-26T09:50:54Z</time>
      </trkpt>
      <trkpt lat="46.30348" lon="-0.30515">
        <ele>73.1552</ele>
        <time>2010-12-26T09:50:55Z</time>
      </trkpt>
      <trkpt lat="46.30347" lon="-0.30513">
        <ele>73.1772</ele>
        <time>2010-12-26T09:50:56Z</time>
      </trkpt>
      <trkpt lat="46.30346" lon="-0.30512">
        <ele>73.1969</ele>
        <time>2010-12-26T09:50:56Z</time>
      </trkpt>
      <trkpt lat="46.30344" lon="-0.30511">
        <ele>73.2127</ele>
        <time>2010-12-26T09:50:57Z</time>
      </trkpt>
      <trkpt lat="46.30343" lon="-0.3051">
        <ele>73.227</ele>
        <time>2010-12-26T09:50:58Z</time>
      </trkpt>
      <trkpt lat="46.30343" lon="-0.30509">
        <ele>73.2424</ele>
        <time>2010-12-26T09:50:59Z</time>
      </trkpt>
      <trkpt lat="46.30341" lon="-0.30508">
        <ele>73.2573</ele>
        <time>2010-12-26T09:51:00Z</time>
      </trkpt>
      <trkpt lat="46.3034" lon="-0.30507">
        <ele>73.2703</ele>
        <time>2010-12-26T09:51:01Z</time>
      </trkpt>
      <trkpt lat="46.30339" lon="-0.30506">
        <ele>73.2822</ele>
        <time>2010-12-26T09:51:02Z</time>
      </trkpt>
      <trkpt lat="46.30338" lon="-0.30505">
        <ele>73.2932</ele>
        <time>2010-12-26T09:51:03Z</time>
      </trkpt>
      <trkpt lat="46.30336" lon="-0.30503">
        <ele>73.3044</ele>
        <time>2010-12-26T09:51:04Z</time>
      </trkpt>
      <trkpt lat="46.30335" lon="-0.30502">
        <ele>73.3143</ele>
        <time>2010-12-26T09:51:05Z</time>
      </trkpt>
      <trkpt lat="46.30333" lon="-0.305">
        <ele>73.3234</ele>
        <time>2010-12-26T09:51:06Z</time>
      </trkpt>
      <trkpt lat="46.30332" lon="-0.30499">
        <ele>73.3318</ele>
        <time>2010-12-26T09:51:07Z</time>
      </trkpt>
      <trkpt lat="46.30331" lon="-0.30497">
        <ele>73.3404</ele>
        <time>2010-12-26T09:51:08Z</time>
      </trkpt>
      <trkpt lat="46.3033" lon="-0.30496">
        <ele>73.3485</ele>
        <time>2010-12-26T09:51:09Z</time>
      </trkpt>
      <trkpt lat="46.30328" lon="-0.30494">
        <ele>73.3559</ele>
        <time>2010-12-26T09:51:10Z</time>
      </trkpt>
      <trkpt lat="46.30327" lon="-0.30493">
        <ele>73.3631</ele>
        <time>2010-12-26T09:51:11Z</time>
      </trkpt>
      <trkpt lat="46.30326" lon="-0.30491">
        <ele>73.3711</ele>
        <time>2010-12-26T09:51:12Z</time>
      </trkpt>
      <trkpt lat="46.30325" lon="-0.3049">
        <ele>73.3791</ele>
        <time>2010-12-26T09:51:13Z</time>
      </trkpt>
      <trkpt lat="46.30324" lon="-0.30488">
        <ele>73.3873</ele>
        <time>2010-12-26T09:51:14Z</time>
      </trkpt>
      <trkpt lat="46.30323" lon="-0.30487">
        <ele>73.3956</ele>
        <time>2010-12-26T09:51:15Z</time>
      </trkpt>
      <trkpt lat="46.30322" lon="-0.30485">
        <ele>73.4032</ele>
        <time>2010-12-26T09:51:16Z</time>
      </trkpt>
      <trkpt lat="46.30321" lon="-0.30484">
        <ele>73.4111</ele>
        <time>2010-12-26T09:51:17Z</time>
      </trkpt>
      <trkpt lat="46.3032" lon="-0.30482">
        <ele>73.4185</ele>
        <time>2010-12-26T09:51:18Z</time>
      </trkpt>
      <trkpt lat="46.30319" lon="-0.30481">
        <ele>73.4258</ele>
        <time>2010-12-26T09:51:19Z</time>
      </trkpt>
      <trkpt lat="46.30319" lon="-0.3048">
        <ele>73.4325</ele>
        <time>2010-12-26T09:51:20Z</time>
      </trkpt>
      <trkpt lat="46.30318" lon="-0.30478">
        <ele>73.4391</ele>
        <time>2010-12-26T09:51:21Z</time>
      </trkpt>
      <trkpt lat="46.30317" lon="-0.30477">
        <ele>73.4461</ele>
        <time>2010-12-26T09:51:22Z</time>
      </trkpt>
      <trkpt lat="46.30315" lon="-0.30476">
        <ele>73.4541</ele>
        <time>2010-12-26T09:51:23Z</time>
      </trkpt>
      <trkpt lat="46.30315" lon="-0.30474">
        <ele>73.4646</ele>
        <time>2010-12-26T09:51:24Z</time>
      </trkpt>
      <trkpt lat="46.30314" lon="-0.30473">
        <ele>73.4758</ele>
        <time>2010-12-26T09:51:25Z</time>
      </trkpt>
      <trkpt lat="46.30313" lon="-0.30471">
        <ele>73.487</ele>
        <time>2010-12-26T09:51:26Z</time>
      </trkpt>
      <trkpt lat="46.30312" lon="-0.3047">
        <ele>73.4982</ele>
        <time>2010-12-26T09:51:27Z</time>
      </trkpt>
      <trkpt lat="46.3031" lon="-0.30469">
        <ele>73.5097</ele>
        <time>2010-12-26T09:51:28Z</time>
      </trkpt>
      <trkpt lat="46.30309" lon="-0.30467">
        <ele>73.5213</ele>
        <time>2010-12-26T09:51:29Z</time>
      </trkpt>
      <trkpt lat="46.30308" lon="-0.30466">
        <ele>73.5336</ele>
        <time>2010-12-26T09:51:30Z</time>
      </trkpt>
      <trkpt lat="46.30307" lon="-0.30465">
        <ele>73.548</ele>
        <time>2010-12-26T09:51:31Z</time>
      </trkpt>
      <trkpt lat="46.30306" lon="-0.30464">
        <ele>73.5615</ele>
        <time>2010-12-26T09:51:32Z</time>
      </trkpt>
      <trkpt lat="46.30305" lon="-0.30462">
        <ele>73.576</ele>
        <time>2010-12-26T09:51:33Z</time>
      </trkpt>
      <trkpt lat="46.30304" lon="-0.30461">
        <ele>73.5901</ele>
        <time>2010-12-26T09:51:34Z</time>
      </trkpt>
      <trkpt lat="46.30304" lon="-0.30459">
        <ele>73.602</ele>
        <time>2010-12-26T09:51:35Z</time>
      </trkpt>
      <trkpt lat="46.30302" lon="-0.30458">
        <ele>73.6135</ele>
        <time>2010-12-26T09:51:36Z</time>
      </trkpt>
      <trkpt lat="46.30302" lon="-0.30457">
        <ele>73.6242</ele>
        <time>2010-12-26T09:51:37Z</time>
      </trkpt>
      <trkpt lat="46.30301" lon="-0.30455">
        <ele>73.6335</ele>
        <time>2010-12-26T09:51:38Z</time>
      </trkpt>
      <trkpt lat="46.303" lon="-0.30454">
        <ele>73.6437</ele>
        <time>2010-12-26T09:51:39Z</time>
      </trkpt>
      <trkpt lat="46.30299" lon="-0.30452">
        <ele>73.6543</ele>
        <time>2010-12-26T09:51:40Z</time>
      </trkpt>
      <trkpt lat="46.30298" lon="-0.30451">
        <ele>73.6658</ele>
        <time>2010-12-26T09:51:41Z</time>
      </trkpt>
      <trkpt lat="46.30297" lon="-0.3045">
        <ele>73.6771</ele>
        <time>2010-12-26T09:51:42Z</time>
      </trkpt>
      <trkpt lat="46.30296" lon="-0.30449">
        <ele>73.6885</ele>
        <time>2010-12-26T09:51:43Z</time>
      </trkpt>
      <trkpt lat="46.30295" lon="-0.30447">
        <ele>73.7</ele>
        <time>2010-12-26T09:51:44Z</time>
      </trkpt>
      <trkpt lat="46.30294" lon="-0.30446">
        <ele>73.7109</ele>
        <time>2010-12-26T09:51:45Z</time>
      </trkpt>
      <trkpt lat="46.30293" lon="-0.30445">
        <ele>73.7224</ele>
        <time>2010-12-26T09:51:46Z</time>
      </trkpt>
      <trkpt lat="46.30291" lon="-0.30444">
        <ele>73.7343</ele>
        <time>2010-12-26T09:51:47Z</time>
      </trkpt>
      <trkpt lat="46.30291" lon="-0.30442">
        <ele>73.7464</ele>
        <time>2010-12-26T09:51:48Z</time>
      </trkpt>
      <trkpt lat="46.3029" lon="-0.30441">
        <ele>73.7576</ele>
        <time>2010-12-26T09:51:49Z</time>
      </trkpt>
      <trkpt lat="46.30289" lon="-0.30439">
        <ele>73.7682</ele>
        <time>2010-12-26T09:51:50Z</time>
      </trkpt>
      <trkpt lat="46.30288" lon="-0.30438">
        <ele>73.7764</ele>
        <time>2010-12-26T09:51:51Z</time>
      </trkpt>
      <trkpt lat="46.30287" lon="-0.30436">
        <ele>73.7846</ele>
        <time>2010-12-26T09:51:52Z</time>
      </trkpt>
      <trkpt lat="46.30286" lon="-0.30434">
        <ele>73.7916</ele>
        <time>2010-12-26T09:51:53Z</time>
      </trkpt>
      <trkpt lat="46.30285" lon="-0.30433">
        <ele>73.7978</ele>
        <time>2010-12-26T09:51:54Z</time>
      </trkpt>
      <trkpt lat="46.30284" lon="-0.30431">
        <ele>73.8039</ele>
        <time>2010-12-26T09:51:55Z</time>
      </trkpt>
      <trkpt lat="46.30283" lon="-0.3043">
        <ele>73.8101</ele>
        <time>2010-12-26T09:51:56Z</time>
      </trkpt>
      <trkpt lat="46.30282" lon="-0.30428">
        <ele>73.8175</ele>
        <time>2010-12-26T09:51:57Z</time>
      </trkpt>
      <trkpt lat="46.30281" lon="-0.30427">
        <ele>73.8253</ele>
        <time>2010-12-26T09:51:58Z</time>
      </trkpt>
      <trkpt lat="46.3028" lon="-0.30425">
        <ele>73.833</ele>
        <time>2010-12-26T09:51:59Z</time>
      </trkpt>
      <trkpt lat="46.30279" lon="-0.30424">
        <ele>73.8402</ele>
        <time>2010-12-26T09:52:00Z</time>
      </trkpt>
      <trkpt lat="46.30278" lon="-0.30422">
        <ele>73.848</ele>
        <time>2010-12-26T09:52:01Z</time>
      </trkpt>
      <trkpt lat="46.30277" lon="-0.30421">
        <ele>73.8555</ele>
        <time>2010-12-26T09:52:02Z</time>
      </trkpt>
      <trkpt lat="46.30277" lon="-0.30419">
        <ele>73.8635</ele>
        <time>2010-12-26T09:52:03Z</time>
      </trkpt>
      <trkpt lat="46.30276" lon="-0.30418">
        <ele>73.8708</ele>
        <time>2010-12-26T09:52:04Z</time>
      </trkpt>
      <trkpt lat="46.30275" lon="-0.30416">
        <ele>73.8774</ele>
        <time>2010-12-26T09:52:05Z</time>
      </trkpt>
      <trkpt lat="46.30274" lon="-0.30415">
        <ele>73.8834</ele>
        <time>2010-12-26T09:52:06Z</time>
      </trkpt>
      <trkpt lat="46.30273" lon="-0.30413">
        <ele>73.8913</ele>
        <time>2010-12-26T09:52:07Z</time>
      </trkpt>
      <trkpt lat="46.30272" lon="-0.30412">
        <ele>73.8996</ele>
        <time>2010-12-26T09:52:08Z</time>
      </trkpt>
      <trkpt lat="46.30271" lon="-0.3041">
        <ele>73.9096</ele>
        <time>2010-12-26T09:52:09Z</time>
      </trkpt>
      <trkpt lat="46.3027" lon="-0.30408">
        <ele>73.9208</ele>
        <time>2010-12-26T09:52:10Z</time>
      </trkpt>
      <trkpt lat="46.30269" lon="-0.30407">
        <ele>73.9305</ele>
        <time>2010-12-26T09:52:11Z</time>
      </trkpt>
      <trkpt lat="46.30268" lon="-0.30405">
        <ele>73.9398</ele>
        <time>2010-12-26T09:52:12Z</time>
      </trkpt>
      <trkpt lat="46.30267" lon="-0.30403">
        <ele>73.9493</ele>
        <time>2010-12-26T09:52:13Z</time>
      </trkpt>
      <trkpt lat="46.30266" lon="-0.30401">
        <ele>73.9587</ele>
        <time>2010-12-26T09:52:14Z</time>
      </trkpt>
      <trkpt lat="46.30265" lon="-0.30399">
        <ele>73.9687</ele>
        <time>2010-12-26T09:52:15Z</time>
      </trkpt>
      <trkpt lat="46.30264" lon="-0.30397">
        <ele>73.9791</ele>
        <time>2010-12-26T09:52:16Z</time>
      </trkpt>
      <trkpt lat="46.30263" lon="-0.30396">
        <ele>73.9897</ele>
        <time>2010-12-26T09:52:17Z</time>
      </trkpt>
      <trkpt lat="46.30262" lon="-0.30395">
        <ele>74.0016</ele>
        <time>2010-12-26T09:52:18Z</time>
      </trkpt>
      <trkpt lat="46.30262" lon="-0.30393">
        <ele>74.0144</ele>
        <time>2010-12-26T09:52:19Z</time>
      </trkpt>
      <trkpt lat="46.30261" lon="-0.30392">
        <ele>74.0261</ele>
        <time>2010-12-26T09:52:20Z</time>
      </trkpt>
      <trkpt lat="46.3026" lon="-0.3039">
        <ele>74.0372</ele>
        <time>2010-12-26T09:52:21Z</time>
      </trkpt>
      <trkpt lat="46.30259" lon="-0.30389">
        <ele>74.0492</ele>
        <time>2010-12-26T09:52:22Z</time>
      </trkpt>
      <trkpt lat="46.30258" lon="-0.30387">
        <ele>74.062</ele>
        <time>2010-12-26T09:52:23Z</time>
      </trkpt>
      <trkpt lat="46.30257" lon="-0.30385">
        <ele>74.0755</ele>
        <time>2010-12-26T09:52:24Z</time>
      </trkpt>
      <trkpt lat="46.30256" lon="-0.30384">
        <ele>74.0887</ele>
        <time>2010-12-26T09:52:25Z</time>
      </trkpt>
      <trkpt lat="46.30256" lon="-0.30382">
        <ele>74.1014</ele>
        <time>2010-12-26T09:52:26Z</time>
      </trkpt>
      <trkpt lat="46.30254" lon="-0.3038">
        <ele>74.1128</ele>
        <time>2010-12-26T09:52:27Z</time>
      </trkpt>
      <trkpt lat="46.30254" lon="-0.30378">
        <ele>74.1235</ele>
        <time>2010-12-26T09:52:28Z</time>
      </trkpt>
      <trkpt lat="46.30253" lon="-0.30376">
        <ele>74.1318</ele>
        <time>2010-12-26T09:52:29Z</time>
      </trkpt>
      <trkpt lat="46.30252" lon="-0.30374">
        <ele>74.1398</ele>
        <time>2010-12-26T09:52:30Z</time>
      </trkpt>
      <trkpt lat="46.30251" lon="-0.30372">
        <ele>74.1472</ele>
        <time>2010-12-26T09:52:31Z</time>
      </trkpt>
      <trkpt lat="46.3025" lon="-0.3037">
        <ele>74.1519</ele>
        <time>2010-12-26T09:52:32Z</time>
      </trkpt>
      <trkpt lat="46.30249" lon="-0.30368">
        <ele>74.1546</ele>
        <time>2010-12-26T09:52:33Z</time>
      </trkpt>
      <trkpt lat="46.30248" lon="-0.30367">
        <ele>74.1573</ele>
        <time>2010-12-26T09:52:34Z</time>
      </trkpt>
      <trkpt lat="46.30247" lon="-0.30365">
        <ele>74.1583</ele>
        <time>2010-12-26T09:52:35Z</time>
      </trkpt>
      <trkpt lat="46.30246" lon="-0.30364">
        <ele>74.1587</ele>
        <time>2010-12-26T09:52:36Z</time>
      </trkpt>
      <trkpt lat="46.30245" lon="-0.30362">
        <ele>74.1589</ele>
        <time>2010-12-26T09:52:37Z</time>
      </trkpt>
      <trkpt lat="46.30244" lon="-0.3036">
        <ele>74.1569</ele>
        <time>2010-12-26T09:52:38Z</time>
      </trkpt>
      <trkpt lat="46.30243" lon="-0.30359">
        <ele>74.1531</ele>
        <time>2010-12-26T09:52:39Z</time>
      </trkpt>
      <trkpt lat="46.30243" lon="-0.30357">
        <ele>74.1496</ele>
        <time>2010-12-26T09:52:40Z</time>
      </trkpt>
      <trkpt lat="46.30242" lon="-0.30355">
        <ele>74.147</ele>
        <time>2010-12-26T09:52:41Z</time>
      </trkpt>
      <trkpt lat="46.30241" lon="-0.30353">
        <ele>74.1469</ele>
        <time>2010-12-26T09:52:42Z</time>
      </trkpt>
      <trkpt lat="46.3024" lon="-0.30352">
        <ele>74.1477</ele>
        <time>2010-12-26T09:52:43Z</time>
      </trkpt>
      <trkpt lat="46.30239" lon="-0.3035">
        <ele>74.1502</ele>
        <time>2010-12-26T09:52:44Z</time>
      </trkpt>
      <trkpt lat="46.30238" lon="-0.30348">
        <ele>74.1538</ele>
        <time>2010-12-26T09:52:45Z</time>
      </trkpt>
      <trkpt lat="46.30237" lon="-0.30347">
        <ele>74.1578</ele>
        <time>2010-12-26T09:52:46Z</time>
      </trkpt>
      <trkpt lat="46.30236" lon="-0.30345">
        <ele>74.1623</ele>
        <time>2010-12-26T09:52:47Z</time>
      </trkpt>
      <trkpt lat="46.30235" lon="-0.30343">
        <ele>74.1675</ele>
        <time>2010-12-26T09:52:48Z</time>
      </trkpt>
      <trkpt lat="46.30235" lon="-0.30342">
        <ele>74.1732</ele>
        <time>2010-12-26T09:52:49Z</time>
      </trkpt>
      <trkpt lat="46.30234" lon="-0.3034">
        <ele>74.1802</ele>
        <time>2010-12-26T09:52:50Z</time>
      </trkpt>
      <trkpt lat="46.30233" lon="-0.30339">
        <ele>74.1893</ele>
        <time>2010-12-26T09:52:51Z</time>
      </trkpt>
      <trkpt lat="46.30232" lon="-0.30337">
        <ele>74.1999</ele>
        <time>2010-12-26T09:52:52Z</time>
      </trkpt>
      <trkpt lat="46.30232" lon="-0.30336">
        <ele>74.2088</ele>
        <time>2010-12-26T09:52:53Z</time>
      </trkpt>
      <trkpt lat="46.30231" lon="-0.30334">
        <ele>74.2173</ele>
        <time>2010-12-26T09:52:54Z</time>
      </trkpt>
      <trkpt lat="46.3023" lon="-0.30332">
        <ele>74.2259</ele>
        <time>2010-12-26T09:52:55Z</time>
      </trkpt>
      <trkpt lat="46.30229" lon="-0.30331">
        <ele>74.2344</ele>
        <time>2010-12-26T09:52:56Z</time>
      </trkpt>
      <trkpt lat="46.30228" lon="-0.30329">
        <ele>74.2431</ele>
        <time>2010-12-26T09:52:57Z</time>
      </trkpt>
      <trkpt lat="46.30227" lon="-0.30327">
        <ele>74.251</ele>
        <time>2010-12-26T09:52:58Z</time>
      </trkpt>
      <trkpt lat="46.30226" lon="-0.30325">
        <ele>74.2583</ele>
        <time>2010-12-26T09:52:59Z</time>
      </trkpt>
      <trkpt lat="46.30225" lon="-0.30323">
        <ele>74.2656</ele>
        <time>2010-12-26T09:53:00Z</time>
      </trkpt>
      <trkpt lat="46.30224" lon="-0.30321">
        <ele>74.2704</ele>
        <time>2010-12-26T09:53:01Z</time>
      </trkpt>
      <trkpt lat="46.30223" lon="-0.3032">
        <ele>74.2721</ele>
        <time>2010-12-26T09:53:02Z</time>
      </trkpt>
      <trkpt lat="46.30222" lon="-0.30318">
        <ele>74.2736</ele>
        <time>2010-12-26T09:53:03Z</time>
      </trkpt>
      <trkpt lat="46.30221" lon="-0.30317">
        <ele>74.2735</ele>
        <time>2010-12-26T09:53:04Z</time>
      </trkpt>
      <trkpt lat="46.3022" lon="-0.30315">
        <ele>74.2736</ele>
        <time>2010-12-26T09:53:05Z</time>
      </trkpt>
      <trkpt lat="46.30219" lon="-0.30314">
        <ele>74.2722</ele>
        <time>2010-12-26T09:53:06Z</time>
      </trkpt>
      <trkpt lat="46.30218" lon="-0.30313">
        <ele>74.2679</ele>
        <time>2010-12-26T09:53:07Z</time>
      </trkpt>
      <trkpt lat="46.30216" lon="-0.30311">
        <ele>74.2618</ele>
        <time>2010-12-26T09:53:08Z</time>
      </trkpt>
      <trkpt lat="46.30215" lon="-0.3031">
        <ele>74.2555</ele>
        <time>2010-12-26T09:53:09Z</time>
      </trkpt>
      <trkpt lat="46.30214" lon="-0.30308">
        <ele>74.2507</ele>
        <time>2010-12-26T09:53:10Z</time>
      </trkpt>
      <trkpt lat="46.30213" lon="-0.30307">
        <ele>74.2459</ele>
        <time>2010-12-26T09:53:11Z</time>
      </trkpt>
      <trkpt lat="46.30212" lon="-0.30305">
        <ele>74.2435</ele>
        <time>2010-12-26T09:53:12Z</time>
      </trkpt>
      <trkpt lat="46.30211" lon="-0.30303">
        <ele>74.2407</ele>
        <time>2010-12-26T09:53:13Z</time>
      </trkpt>
      <trkpt lat="46.3021" lon="-0.30301">
        <ele>74.2391</ele>
        <time>2010-12-26T09:53:14Z</time>
      </trkpt>
      <trkpt lat="46.30209" lon="-0.30299">
        <ele>74.2372</ele>
        <time>2010-12-26T09:53:15Z</time>
      </trkpt>
      <trkpt lat="46.30208" lon="-0.30297">
        <ele>74.2343</ele>
        <time>2010-12-26T09:53:16Z</time>
      </trkpt>
      <trkpt lat="46.30207" lon="-0.30295">
        <ele>74.2316</ele>
        <time>2010-12-26T09:53:17Z</time>
      </trkpt>
      <trkpt lat="46.30207" lon="-0.30294">
        <ele>74.23</ele>
        <time>2010-12-26T09:53:18Z</time>
      </trkpt>
      <trkpt lat="46.30206" lon="-0.30292">
        <ele>74.2266</ele>
        <time>2010-12-26T09:53:19Z</time>
      </trkpt>
      <trkpt lat="46.30205" lon="-0.30291">
        <ele>74.2226</ele>
        <time>2010-12-26T09:53:20Z</time>
      </trkpt>
      <trkpt lat="46.30204" lon="-0.30289">
        <ele>74.2198</ele>
        <time>2010-12-26T09:53:21Z</time>
      </trkpt>
      <trkpt lat="46.30203" lon="-0.30288">
        <ele>74.2172</ele>
        <time>2010-12-26T09:53:22Z</time>
      </trkpt>
      <trkpt lat="46.30203" lon="-0.30287">
        <ele>74.2094</ele>
        <time>2010-12-26T09:53:23Z</time>
      </trkpt>
      <trkpt lat="46.30203" lon="-0.30285">
        <ele>74.2029</ele>
        <time>2010-12-26T09:53:24Z</time>
      </trkpt>
      <trkpt lat="46.30202" lon="-0.30283">
        <ele>74.1986</ele>
        <time>2010-12-26T09:53:25Z</time>
      </trkpt>
      <trkpt lat="46.30201" lon="-0.30282">
        <ele>74.194</ele>
        <time>2010-12-26T09:53:26Z</time>
      </trkpt>
      <trkpt lat="46.30201" lon="-0.3028">
        <ele>74.1913</ele>
        <time>2010-12-26T09:53:27Z</time>
      </trkpt>
      <trkpt lat="46.30201" lon="-0.30279">
        <ele>74.1903</ele>
        <time>2010-12-26T09:53:28Z</time>
      </trkpt>
      <trkpt lat="46.302" lon="-0.30277">
        <ele>74.1913</ele>
        <time>2010-12-26T09:53:29Z</time>
      </trkpt>
      <trkpt lat="46.302" lon="-0.30275">
        <ele>74.1923</ele>
        <time>2010-12-26T09:53:30Z</time>
      </trkpt>
      <trkpt lat="46.30199" lon="-0.30274">
        <ele>74.1931</ele>
        <time>2010-12-26T09:53:31Z</time>
      </trkpt>
      <trkpt lat="46.30199" lon="-0.30272">
        <ele>74.1938</ele>
        <time>2010-12-26T09:53:32Z</time>
      </trkpt>
      <trkpt lat="46.30198" lon="-0.3027">
        <ele>74.1937</ele>
        <time>2010-12-26T09:53:33Z</time>
      </trkpt>
      <trkpt lat="46.30198" lon="-0.30268">
        <ele>74.1904</ele>
        <time>2010-12-26T09:53:34Z</time>
      </trkpt>
      <trkpt lat="46.30197" lon="-0.30266">
        <ele>74.1844</ele>
        <time>2010-12-26T09:53:35Z</time>
      </trkpt>
      <trkpt lat="46.30196" lon="-0.30264">
        <ele>74.1779</ele>
        <time>2010-12-26T09:53:36Z</time>
      </trkpt>
      <trkpt lat="46.30196" lon="-0.30262">
        <ele>74.1712</ele>
        <time>2010-12-26T09:53:37Z</time>
      </trkpt>
      <trkpt lat="46.30195" lon="-0.3026">
        <ele>74.164</ele>
        <time>2010-12-26T09:53:38Z</time>
      </trkpt>
      <trkpt lat="46.30195" lon="-0.30259">
        <ele>74.1576</ele>
        <time>2010-12-26T09:53:39Z</time>
      </trkpt>
      <trkpt lat="46.30194" lon="-0.30258">
        <ele>74.1502</ele>
        <time>2010-12-26T09:53:40Z</time>
      </trkpt>
      <trkpt lat="46.30193" lon="-0.30257">
        <ele>74.1417</ele>
        <time>2010-12-26T09:53:41Z</time>
      </trkpt>
      <trkpt lat="46.30192" lon="-0.30256">
        <ele>74.131</ele>
        <time>2010-12-26T09:53:42Z</time>
      </trkpt>
      <trkpt lat="46.3019" lon="-0.30255">
        <ele>74.1171</ele>
        <time>2010-12-26T09:53:43Z</time>
      </trkpt>
      <trkpt lat="46.30189" lon="-0.30253">
        <ele>74.1007</ele>
        <time>2010-12-26T09:53:44Z</time>
      </trkpt>
      <trkpt lat="46.30188" lon="-0.30252">
        <ele>74.0861</ele>
        <time>2010-12-26T09:53:45Z</time>
      </trkpt>
      <trkpt lat="46.30187" lon="-0.3025">
        <ele>74.0701</ele>
        <time>2010-12-26T09:53:46Z</time>
      </trkpt>
      <trkpt lat="46.30186" lon="-0.30248">
        <ele>74.0578</ele>
        <time>2010-12-26T09:53:47Z</time>
      </trkpt>
      <trkpt lat="46.30185" lon="-0.30247">
        <ele>74.0466</ele>
        <time>2010-12-26T09:53:48Z</time>
      </trkpt>
      <trkpt lat="46.30185" lon="-0.30244">
        <ele>74.0336</ele>
        <time>2010-12-26T09:53:49Z</time>
      </trkpt>
      <trkpt lat="46.30184" lon="-0.30242">
        <ele>74.0233</ele>
        <time>2010-12-26T09:53:50Z</time>
      </trkpt>
      <trkpt lat="46.30183" lon="-0.3024">
        <ele>74.015</ele>
        <time>2010-12-26T09:53:51Z</time>
      </trkpt>
      <trkpt lat="46.30183" lon="-0.30238">
        <ele>74.0078</ele>
        <time>2010-12-26T09:53:52Z</time>
      </trkpt>
      <trkpt lat="46.30182" lon="-0.30237">
        <ele>73.9997</ele>
        <time>2010-12-26T09:53:53Z</time>
      </trkpt>
      <trkpt lat="46.30182" lon="-0.30235">
        <ele>73.9932</ele>
        <time>2010-12-26T09:53:54Z</time>
      </trkpt>
      <trkpt lat="46.30181" lon="-0.30233">
        <ele>73.9858</ele>
        <time>2010-12-26T09:53:55Z</time>
      </trkpt>
      <trkpt lat="46.30181" lon="-0.30232">
        <ele>73.978</ele>
        <time>2010-12-26T09:53:56Z</time>
      </trkpt>
      <trkpt lat="46.3018" lon="-0.3023">
        <ele>73.963</ele>
        <time>2010-12-26T09:53:57Z</time>
      </trkpt>
      <trkpt lat="46.30179" lon="-0.30229">
        <ele>73.9488</ele>
        <time>2010-12-26T09:53:58Z</time>
      </trkpt>
      <trkpt lat="46.30177" lon="-0.30227">
        <ele>73.9327</ele>
        <time>2010-12-26T09:53:59Z</time>
      </trkpt>
      <trkpt lat="46.30176" lon="-0.30226">
        <ele>73.9181</ele>
        <time>2010-12-26T09:54:00Z</time>
      </trkpt>
      <trkpt lat="46.30175" lon="-0.30224">
        <ele>73.9032</ele>
        <time>2010-12-26T09:54:01Z</time>
      </trkpt>
      <trkpt lat="46.30174" lon="-0.30222">
        <ele>73.8855</ele>
        <time>2010-12-26T09:54:02Z</time>
      </trkpt>
      <trkpt lat="46.30173" lon="-0.3022">
        <ele>73.8719</ele>
        <time>2010-12-26T09:54:03Z</time>
      </trkpt>
      <trkpt lat="46.30172" lon="-0.30219">
        <ele>73.862</ele>
        <time>2010-12-26T09:54:04Z</time>
      </trkpt>
      <trkpt lat="46.30171" lon="-0.30217">
        <ele>73.856</ele>
        <time>2010-12-26T09:54:05Z</time>
      </trkpt>
      <trkpt lat="46.3017" lon="-0.30215">
        <ele>73.8522</ele>
        <time>2010-12-26T09:54:06Z</time>
      </trkpt>
      <trkpt lat="46.3017" lon="-0.30213">
        <ele>73.8462</ele>
        <time>2010-12-26T09:54:07Z</time>
      </trkpt>
      <trkpt lat="46.3017" lon="-0.30211">
        <ele>73.8401</ele>
        <time>2010-12-26T09:54:08Z</time>
      </trkpt>
      <trkpt lat="46.30169" lon="-0.30209">
        <ele>73.8347</ele>
        <time>2010-12-26T09:54:09Z</time>
      </trkpt>
      <trkpt lat="46.30168" lon="-0.30207">
        <ele>73.8298</ele>
        <time>2010-12-26T09:54:10Z</time>
      </trkpt>
      <trkpt lat="46.30167" lon="-0.30205">
        <ele>73.8212</ele>
        <time>2010-12-26T09:54:11Z</time>
      </trkpt>
      <trkpt lat="46.30166" lon="-0.30203">
        <ele>73.8125</ele>
        <time>2010-12-26T09:54:12Z</time>
      </trkpt>
      <trkpt lat="46.30165" lon="-0.302">
        <ele>73.8059</ele>
        <time>2010-12-26T09:54:13Z</time>
      </trkpt>
      <trkpt lat="46.30164" lon="-0.30198">
        <ele>73.8029</ele>
        <time>2010-12-26T09:54:14Z</time>
      </trkpt>
      <trkpt lat="46.30164" lon="-0.30196">
        <ele>73.8039</ele>
        <time>2010-12-26T09:54:15Z</time>
      </trkpt>
      <trkpt lat="46.30163" lon="-0.30194">
        <ele>73.8105</ele>
        <time>2010-12-26T09:54:16Z</time>
      </trkpt>
      <trkpt lat="46.30162" lon="-0.30192">
        <ele>73.8176</ele>
        <time>2010-12-26T09:54:17Z</time>
      </trkpt>
      <trkpt lat="46.30162" lon="-0.30191">
        <ele>73.8306</ele>
        <time>2010-12-26T09:54:18Z</time>
      </trkpt>
      <trkpt lat="46.30161" lon="-0.30189">
        <ele>73.8478</ele>
        <time>2010-12-26T09:54:19Z</time>
      </trkpt>
      <trkpt lat="46.30161" lon="-0.30187">
        <ele>73.8693</ele>
        <time>2010-12-26T09:54:20Z</time>
      </trkpt>
      <trkpt lat="46.3016" lon="-0.30186">
        <ele>73.8952</ele>
        <time>2010-12-26T09:54:21Z</time>
      </trkpt>
      <trkpt lat="46.30159" lon="-0.30184">
        <ele>73.9253</ele>
        <time>2010-12-26T09:54:22Z</time>
      </trkpt>
      <trkpt lat="46.30159" lon="-0.30183">
        <ele>73.9606</ele>
        <time>2010-12-26T09:54:23Z</time>
      </trkpt>
      <trkpt lat="46.30158" lon="-0.30181">
        <ele>73.9947</ele>
        <time>2010-12-26T09:54:25Z</time>
      </trkpt>
      <trkpt lat="46.30157" lon="-0.3018">
        <ele>74.0313</ele>
        <time>2010-12-26T09:54:25Z</time>
      </trkpt>
      <trkpt lat="46.30156" lon="-0.30178">
        <ele>74.0681</ele>
        <time>2010-12-26T09:54:27Z</time>
      </trkpt>
      <trkpt lat="46.30155" lon="-0.30176">
        <ele>74.1059</ele>
        <time>2010-12-26T09:54:27Z</time>
      </trkpt>
      <trkpt lat="46.30154" lon="-0.30174">
        <ele>74.1437</ele>
        <time>2010-12-26T09:54:28Z</time>
      </trkpt>
      <trkpt lat="46.30154" lon="-0.30172">
        <ele>74.1825</ele>
        <time>2010-12-26T09:54:30Z</time>
      </trkpt>
      <trkpt lat="46.30153" lon="-0.3017">
        <ele>74.2218</ele>
        <time>2010-12-26T09:54:30Z</time>
      </trkpt>
      <trkpt lat="46.30152" lon="-0.30168">
        <ele>74.26</ele>
        <time>2010-12-26T09:54:32Z</time>
      </trkpt>
      <trkpt lat="46.30152" lon="-0.30166">
        <ele>74.297</ele>
        <time>2010-12-26T09:54:33Z</time>
      </trkpt>
      <trkpt lat="46.30151" lon="-0.30164">
        <ele>74.3354</ele>
        <time>2010-12-26T09:54:34Z</time>
      </trkpt>
      <trkpt lat="46.30151" lon="-0.30162">
        <ele>74.3755</ele>
        <time>2010-12-26T09:54:35Z</time>
      </trkpt>
      <trkpt lat="46.3015" lon="-0.30161">
        <ele>74.4167</ele>
        <time>2010-12-26T09:54:35Z</time>
      </trkpt>
      <trkpt lat="46.30149" lon="-0.30159">
        <ele>74.4592</ele>
        <time>2010-12-26T09:54:37Z</time>
      </trkpt>
      <trkpt lat="46.30148" lon="-0.30157">
        <ele>74.5034</ele>
        <time>2010-12-26T09:54:37Z</time>
      </trkpt>
      <trkpt lat="46.30148" lon="-0.30156">
        <ele>74.5501</ele>
        <time>2010-12-26T09:54:38Z</time>
      </trkpt>
      <trkpt lat="46.30147" lon="-0.30154">
        <ele>74.5965</ele>
        <time>2010-12-26T09:54:39Z</time>
      </trkpt>
      <trkpt lat="46.30146" lon="-0.30152">
        <ele>74.6422</ele>
        <time>2010-12-26T09:54:41Z</time>
      </trkpt>
      <trkpt lat="46.30146" lon="-0.3015">
        <ele>74.6889</ele>
        <time>2010-12-26T09:54:42Z</time>
      </trkpt>
      <trkpt lat="46.30145" lon="-0.30148">
        <ele>74.7361</ele>
        <time>2010-12-26T09:54:42Z</time>
      </trkpt>
      <trkpt lat="46.30143" lon="-0.30146">
        <ele>74.7827</ele>
        <time>2010-12-26T09:54:43Z</time>
      </trkpt>
      <trkpt lat="46.30143" lon="-0.30144">
        <ele>74.833</ele>
        <time>2010-12-26T09:54:44Z</time>
      </trkpt>
      <trkpt lat="46.30142" lon="-0.30143">
        <ele>74.8863</ele>
        <time>2010-12-26T09:54:45Z</time>
      </trkpt>
      <trkpt lat="46.30142" lon="-0.30141">
        <ele>74.9404</ele>
        <time>2010-12-26T09:54:47Z</time>
      </trkpt>
      <trkpt lat="46.30141" lon="-0.30139">
        <ele>74.9959</ele>
        <time>2010-12-26T09:54:48Z</time>
      </trkpt>
      <trkpt lat="46.3014" lon="-0.30137">
        <ele>75.0492</ele>
        <time>2010-12-26T09:54:48Z</time>
      </trkpt>
      <trkpt lat="46.3014" lon="-0.30135">
        <ele>75.0996</ele>
        <time>2010-12-26T09:54:50Z</time>
      </trkpt>
      <trkpt lat="46.30139" lon="-0.30133">
        <ele>75.1504</ele>
        <time>2010-12-26T09:54:50Z</time>
      </trkpt>
      <trkpt lat="46.30138" lon="-0.30132">
        <ele>75.2016</ele>
        <time>2010-12-26T09:54:52Z</time>
      </trkpt>
      <trkpt lat="46.30137" lon="-0.3013">
        <ele>75.2479</ele>
        <time>2010-12-26T09:54:53Z</time>
      </trkpt>
      <trkpt lat="46.30136" lon="-0.30128">
        <ele>75.2954</ele>
        <time>2010-12-26T09:54:53Z</time>
      </trkpt>
      <trkpt lat="46.30135" lon="-0.30126">
        <ele>75.343</ele>
        <time>2010-12-26T09:54:55Z</time>
      </trkpt>
      <trkpt lat="46.30135" lon="-0.30124">
        <ele>75.3905</ele>
        <time>2010-12-26T09:54:55Z</time>
      </trkpt>
      <trkpt lat="46.30134" lon="-0.30122">
        <ele>75.437</ele>
        <time>2010-12-26T09:54:56Z</time>
      </trkpt>
      <trkpt lat="46.30133" lon="-0.30121">
        <ele>75.4832</ele>
        <time>2010-12-26T09:54:58Z</time>
      </trkpt>
      <trkpt lat="46.30132" lon="-0.30119">
        <ele>75.529</ele>
        <time>2010-12-26T09:54:59Z</time>
      </trkpt>
      <trkpt lat="46.30132" lon="-0.30117">
        <ele>75.5748</ele>
        <time>2010-12-26T09:54:59Z</time>
      </trkpt>
      <trkpt lat="46.3013" lon="-0.30115">
        <ele>75.6185</ele>
        <time>2010-12-26T09:55:00Z</time>
      </trkpt>
      <trkpt lat="46.3013" lon="-0.30114">
        <ele>75.6614</ele>
        <time>2010-12-26T09:55:02Z</time>
      </trkpt>
      <trkpt lat="46.30129" lon="-0.30112">
        <ele>75.7027</ele>
        <time>2010-12-26T09:55:02Z</time>
      </trkpt>
      <trkpt lat="46.30128" lon="-0.3011">
        <ele>75.7434</ele>
        <time>2010-12-26T09:55:03Z</time>
      </trkpt>
      <trkpt lat="46.30127" lon="-0.30108">
        <ele>75.7837</ele>
        <time>2010-12-26T09:55:04Z</time>
      </trkpt>
      <trkpt lat="46.30126" lon="-0.30107">
        <ele>75.8229</ele>
        <time>2010-12-26T09:55:06Z</time>
      </trkpt>
      <trkpt lat="46.30125" lon="-0.30105">
        <ele>75.8603</ele>
        <time>2010-12-26T09:55:06Z</time>
      </trkpt>
      <trkpt lat="46.30124" lon="-0.30103">
        <ele>75.8959</ele>
        <time>2010-12-26T09:55:08Z</time>
      </trkpt>
      <trkpt lat="46.30123" lon="-0.30102">
        <ele>75.9307</ele>
        <time>2010-12-26T09:55:09Z</time>
      </trkpt>
      <trkpt lat="46.30122" lon="-0.301">
        <ele>75.9655</ele>
        <time>2010-12-26T09:55:10Z</time>
      </trkpt>
      <trkpt lat="46.30121" lon="-0.30098">
        <ele>75.9997</ele>
        <time>2010-12-26T09:55:11Z</time>
      </trkpt>
      <trkpt lat="46.30121" lon="-0.30097">
        <ele>76.0331</ele>
        <time>2010-12-26T09:55:12Z</time>
      </trkpt>
      <trkpt lat="46.30119" lon="-0.30095">
        <ele>76.066</ele>
        <time>2010-12-26T09:55:13Z</time>
      </trkpt>
      <trkpt lat="46.30119" lon="-0.30093">
        <ele>76.0979</ele>
        <time>2010-12-26T09:55:14Z</time>
      </trkpt>
      <trkpt lat="46.30117" lon="-0.30092">
        <ele>76.1285</ele>
        <time>2010-12-26T09:55:15Z</time>
      </trkpt>
      <trkpt lat="46.30116" lon="-0.30091">
        <ele>76.1585</ele>
        <time>2010-12-26T09:55:15Z</time>
      </trkpt>
      <trkpt lat="46.30116" lon="-0.30089">
        <ele>76.1876</ele>
        <time>2010-12-26T09:55:17Z</time>
      </trkpt>
      <trkpt lat="46.30115" lon="-0.30087">
        <ele>76.2149</ele>
        <time>2010-12-26T09:55:18Z</time>
      </trkpt>
      <trkpt lat="46.30114" lon="-0.30086">
        <ele>76.2415</ele>
        <time>2010-12-26T09:55:19Z</time>
      </trkpt>
      <trkpt lat="46.30113" lon="-0.30085">
        <ele>76.2689</ele>
        <time>2010-12-26T09:55:20Z</time>
      </trkpt>
      <trkpt lat="46.30113" lon="-0.30083">
        <ele>76.2955</ele>
        <time>2010-12-26T09:55:20Z</time>
      </trkpt>
      <trkpt lat="46.30112" lon="-0.30082">
        <ele>76.3214</ele>
        <time>2010-12-26T09:55:22Z</time>
      </trkpt>
      <trkpt lat="46.30111" lon="-0.3008">
        <ele>76.348</ele>
        <time>2010-12-26T09:55:23Z</time>
      </trkpt>
      <trkpt lat="46.3011" lon="-0.30079">
        <ele>76.3755</ele>
        <time>2010-12-26T09:55:24Z</time>
      </trkpt>
      <trkpt lat="46.30109" lon="-0.30077">
        <ele>76.401</ele>
        <time>2010-12-26T09:55:25Z</time>
      </trkpt>
      <trkpt lat="46.30108" lon="-0.30075">
        <ele>76.4254</ele>
        <time>2010-12-26T09:55:25Z</time>
      </trkpt>
      <trkpt lat="46.30108" lon="-0.30073">
        <ele>76.4498</ele>
        <time>2010-12-26T09:55:27Z</time>
      </trkpt>
      <trkpt lat="46.30107" lon="-0.30072">
        <ele>76.4744</ele>
        <time>2010-12-26T09:55:28Z</time>
      </trkpt>
      <trkpt lat="46.30106" lon="-0.3007">
        <ele>76.499</ele>
        <time>2010-12-26T09:55:29Z</time>
      </trkpt>
      <trkpt lat="46.30106" lon="-0.30068">
        <ele>76.5236</ele>
        <time>2010-12-26T09:55:29Z</time>
      </trkpt>
      <trkpt lat="46.30105" lon="-0.30066">
        <ele>76.5484</ele>
        <time>2010-12-26T09:55:30Z</time>
      </trkpt>
      <trkpt lat="46.30104" lon="-0.30064">
        <ele>76.5731</ele>
        <time>2010-12-26T09:55:32Z</time>
      </trkpt>
      <trkpt lat="46.30103" lon="-0.30062">
        <ele>76.5987</ele>
        <time>2010-12-26T09:55:33Z</time>
      </trkpt>
      <trkpt lat="46.30103" lon="-0.3006">
        <ele>76.6244</ele>
        <time>2010-12-26T09:55:34Z</time>
      </trkpt>
      <trkpt lat="46.30102" lon="-0.30059">
        <ele>76.6499</ele>
        <time>2010-12-26T09:55:35Z</time>
      </trkpt>
      <trkpt lat="46.30101" lon="-0.30057">
        <ele>76.6754</ele>
        <time>2010-12-26T09:55:36Z</time>
      </trkpt>
      <trkpt lat="46.301" lon="-0.30055">
        <ele>76.7004</ele>
        <time>2010-12-26T09:55:37Z</time>
      </trkpt>
      <trkpt lat="46.30099" lon="-0.30054">
        <ele>76.7244</ele>
        <time>2010-12-26T09:55:38Z</time>
      </trkpt>
      <trkpt lat="46.30098" lon="-0.30052">
        <ele>76.7485</ele>
        <time>2010-12-26T09:55:39Z</time>
      </trkpt>
      <trkpt lat="46.30098" lon="-0.3005">
        <ele>76.7735</ele>
        <time>2010-12-26T09:55:39Z</time>
      </trkpt>
      <trkpt lat="46.30096" lon="-0.30049">
        <ele>76.7976</ele>
        <time>2010-12-26T09:55:41Z</time>
      </trkpt>
      <trkpt lat="46.30096" lon="-0.30047">
        <ele>76.8215</ele>
        <time>2010-12-26T09:55:42Z</time>
      </trkpt>
      <trkpt lat="46.30095" lon="-0.30046">
        <ele>76.8447</ele>
        <time>2010-12-26T09:55:42Z</time>
      </trkpt>
      <trkpt lat="46.30094" lon="-0.30044">
        <ele>76.8665</ele>
        <time>2010-12-26T09:55:44Z</time>
      </trkpt>
      <trkpt lat="46.30093" lon="-0.30042">
        <ele>76.8893</ele>
        <time>2010-12-26T09:55:45Z</time>
      </trkpt>
      <trkpt lat="46.30093" lon="-0.30041">
        <ele>76.9121</ele>
        <time>2010-12-26T09:55:45Z</time>
      </trkpt>
      <trkpt lat="46.30092" lon="-0.30039">
        <ele>76.9345</ele>
        <time>2010-12-26T09:55:47Z</time>
      </trkpt>
      <trkpt lat="46.30092" lon="-0.30037">
        <ele>76.9576</ele>
        <time>2010-12-26T09:55:48Z</time>
      </trkpt>
      <trkpt lat="46.30091" lon="-0.30035">
        <ele>76.9811</ele>
        <time>2010-12-26T09:55:49Z</time>
      </trkpt>
      <trkpt lat="46.3009" lon="-0.30033">
        <ele>77.0041</ele>
        <time>2010-12-26T09:55:49Z</time>
      </trkpt>
      <trkpt lat="46.30089" lon="-0.30031">
        <ele>77.0249</ele>
        <time>2010-12-26T09:55:50Z</time>
      </trkpt>
      <trkpt lat="46.30088" lon="-0.30029">
        <ele>77.0442</ele>
        <time>2010-12-26T09:55:51Z</time>
      </trkpt>
      <trkpt lat="46.30088" lon="-0.30027">
        <ele>77.0621</ele>
        <time>2010-12-26T09:55:52Z</time>
      </trkpt>
      <trkpt lat="46.30087" lon="-0.30026">
        <ele>77.0797</ele>
        <time>2010-12-26T09:55:53Z</time>
      </trkpt>
      <trkpt lat="46.30087" lon="-0.30024">
        <ele>77.0969</ele>
        <time>2010-12-26T09:55:55Z</time>
      </trkpt>
      <trkpt lat="46.30086" lon="-0.30022">
        <ele>77.1122</ele>
        <time>2010-12-26T09:55:56Z</time>
      </trkpt>
      <trkpt lat="46.30086" lon="-0.3002">
        <ele>77.1265</ele>
        <time>2010-12-26T09:55:56Z</time>
      </trkpt>
      <trkpt lat="46.30085" lon="-0.30018">
        <ele>77.1398</ele>
        <time>2010-12-26T09:55:58Z</time>
      </trkpt>
      <trkpt lat="46.30085" lon="-0.30016">
        <ele>77.1536</ele>
        <time>2010-12-26T09:55:58Z</time>
      </trkpt>
      <trkpt lat="46.30084" lon="-0.30015">
        <ele>77.165</ele>
        <time>2010-12-26T09:56:00Z</time>
      </trkpt>
      <trkpt lat="46.30083" lon="-0.30013">
        <ele>77.1724</ele>
        <time>2010-12-26T09:56:01Z</time>
      </trkpt>
      <trkpt lat="46.30082" lon="-0.30011">
        <ele>77.1782</ele>
        <time>2010-12-26T09:56:02Z</time>
      </trkpt>
      <trkpt lat="46.30082" lon="-0.30009">
        <ele>77.1823</ele>
        <time>2010-12-26T09:56:02Z</time>
      </trkpt>
      <trkpt lat="46.30081" lon="-0.30008">
        <ele>77.185</ele>
        <time>2010-12-26T09:56:04Z</time>
      </trkpt>
      <trkpt lat="46.3008" lon="-0.30006">
        <ele>77.1871</ele>
        <time>2010-12-26T09:56:05Z</time>
      </trkpt>
      <trkpt lat="46.3008" lon="-0.30004">
        <ele>77.1871</ele>
        <time>2010-12-26T09:56:06Z</time>
      </trkpt>
      <trkpt lat="46.3008" lon="-0.30002">
        <ele>77.1873</ele>
        <time>2010-12-26T09:56:07Z</time>
      </trkpt>
      <trkpt lat="46.30079" lon="-0.3">
        <ele>77.1844</ele>
        <time>2010-12-26T09:56:08Z</time>
      </trkpt>
      <trkpt lat="46.30079" lon="-0.29999">
        <ele>77.1818</ele>
        <time>2010-12-26T09:56:09Z</time>
      </trkpt>
      <trkpt lat="46.30078" lon="-0.29997">
        <ele>77.1795</ele>
        <time>2010-12-26T09:56:10Z</time>
      </trkpt>
      <trkpt lat="46.30077" lon="-0.29995">
        <ele>77.1761</ele>
        <time>2010-12-26T09:56:11Z</time>
      </trkpt>
      <trkpt lat="46.30077" lon="-0.29993">
        <ele>77.1718</ele>
        <time>2010-12-26T09:56:11Z</time>
      </trkpt>
      <trkpt lat="46.30076" lon="-0.29991">
        <ele>77.1663</ele>
        <time>2010-12-26T09:56:12Z</time>
      </trkpt>
      <trkpt lat="46.30075" lon="-0.29989">
        <ele>77.1606</ele>
        <time>2010-12-26T09:56:14Z</time>
      </trkpt>
      <trkpt lat="46.30074" lon="-0.29987">
        <ele>77.1527</ele>
        <time>2010-12-26T09:56:15Z</time>
      </trkpt>
      <trkpt lat="46.30074" lon="-0.29985">
        <ele>77.1421</ele>
        <time>2010-12-26T09:56:15Z</time>
      </trkpt>
      <trkpt lat="46.30073" lon="-0.29983">
        <ele>77.1303</ele>
        <time>2010-12-26T09:56:16Z</time>
      </trkpt>
      <trkpt lat="46.30072" lon="-0.29981">
        <ele>77.1195</ele>
        <time>2010-12-26T09:56:18Z</time>
      </trkpt>
      <trkpt lat="46.30072" lon="-0.2998">
        <ele>77.1074</ele>
        <time>2010-12-26T09:56:19Z</time>
      </trkpt>
      <trkpt lat="46.30071" lon="-0.29978">
        <ele>77.0941</ele>
        <time>2010-12-26T09:56:20Z</time>
      </trkpt>
      <trkpt lat="46.3007" lon="-0.29976">
        <ele>77.0791</ele>
        <time>2010-12-26T09:56:21Z</time>
      </trkpt>
      <trkpt lat="46.30069" lon="-0.29974">
        <ele>77.0624</ele>
        <time>2010-12-26T09:56:22Z</time>
      </trkpt>
      <trkpt lat="46.30069" lon="-0.29972">
        <ele>77.0444</ele>
        <time>2010-12-26T09:56:23Z</time>
      </trkpt>
      <trkpt lat="46.30068" lon="-0.2997">
        <ele>77.0237</ele>
        <time>2010-12-26T09:56:24Z</time>
      </trkpt>
      <trkpt lat="46.30067" lon="-0.29969">
        <ele>77.0011</ele>
        <time>2010-12-26T09:56:25Z</time>
      </trkpt>
      <trkpt lat="46.30067" lon="-0.29967">
        <ele>76.9756</ele>
        <time>2010-12-26T09:56:26Z</time>
      </trkpt>
      <trkpt lat="46.30066" lon="-0.29964">
        <ele>76.9501</ele>
        <time>2010-12-26T09:56:26Z</time>
      </trkpt>
      <trkpt lat="46.30066" lon="-0.29962">
        <ele>76.9257</ele>
        <time>2010-12-26T09:56:28Z</time>
      </trkpt>
      <trkpt lat="46.30065" lon="-0.2996">
        <ele>76.8994</ele>
        <time>2010-12-26T09:56:28Z</time>
      </trkpt>
      <trkpt lat="46.30064" lon="-0.29959">
        <ele>76.8757</ele>
        <time>2010-12-26T09:56:30Z</time>
      </trkpt>
      <trkpt lat="46.30064" lon="-0.29957">
        <ele>76.8538</ele>
        <time>2010-12-26T09:56:30Z</time>
      </trkpt>
      <trkpt lat="46.30063" lon="-0.29955">
        <ele>76.8317</ele>
        <time>2010-12-26T09:56:32Z</time>
      </trkpt>
      <trkpt lat="46.30063" lon="-0.29953">
        <ele>76.8106</ele>
        <time>2010-12-26T09:56:33Z</time>
      </trkpt>
      <trkpt lat="46.30062" lon="-0.29951">
        <ele>76.7866</ele>
        <time>2010-12-26T09:56:34Z</time>
      </trkpt>
      <trkpt lat="46.30061" lon="-0.29948">
        <ele>76.7619</ele>
        <time>2010-12-26T09:56:35Z</time>
      </trkpt>
      <trkpt lat="46.30061" lon="-0.29946">
        <ele>76.7385</ele>
        <time>2010-12-26T09:56:35Z</time>
      </trkpt>
      <trkpt lat="46.30061" lon="-0.29945">
        <ele>76.7118</ele>
        <time>2010-12-26T09:56:37Z</time>
      </trkpt>
      <trkpt lat="46.3006" lon="-0.29943">
        <ele>76.6837</ele>
        <time>2010-12-26T09:56:38Z</time>
      </trkpt>
      <trkpt lat="46.30059" lon="-0.29941">
        <ele>76.6542</ele>
        <time>2010-12-26T09:56:39Z</time>
      </trkpt>
      <trkpt lat="46.30058" lon="-0.29939">
        <ele>76.6249</ele>
        <time>2010-12-26T09:56:40Z</time>
      </trkpt>
      <trkpt lat="46.30057" lon="-0.29938">
        <ele>76.5943</ele>
        <time>2010-12-26T09:56:40Z</time>
      </trkpt>
      <trkpt lat="46.30056" lon="-0.29936">
        <ele>76.5629</ele>
        <time>2010-12-26T09:56:42Z</time>
      </trkpt>
      <trkpt lat="46.30056" lon="-0.29935">
        <ele>76.533</ele>
        <time>2010-12-26T09:56:42Z</time>
      </trkpt>
      <trkpt lat="46.30055" lon="-0.29933">
        <ele>76.5007</ele>
        <time>2010-12-26T09:56:44Z</time>
      </trkpt>
      <trkpt lat="46.30054" lon="-0.29931">
        <ele>76.4709</ele>
        <time>2010-12-26T09:56:45Z</time>
      </trkpt>
      <trkpt lat="46.30053" lon="-0.2993">
        <ele>76.4421</ele>
        <time>2010-12-26T09:56:46Z</time>
      </trkpt>
      <trkpt lat="46.30053" lon="-0.29928">
        <ele>76.4113</ele>
        <time>2010-12-26T09:56:47Z</time>
      </trkpt>
      <trkpt lat="46.30053" lon="-0.29926">
        <ele>76.3788</ele>
        <time>2010-12-26T09:56:48Z</time>
      </trkpt>
      <trkpt lat="46.30052" lon="-0.29925">
        <ele>76.3451</ele>
        <time>2010-12-26T09:56:49Z</time>
      </trkpt>
      <trkpt lat="46.30051" lon="-0.29923">
        <ele>76.3097</ele>
        <time>2010-12-26T09:56:50Z</time>
      </trkpt>
      <trkpt lat="46.30051" lon="-0.29921">
        <ele>76.273</ele>
        <time>2010-12-26T09:56:51Z</time>
      </trkpt>
      <trkpt lat="46.3005" lon="-0.29919">
        <ele>76.2368</ele>
        <time>2010-12-26T09:56:51Z</time>
      </trkpt>
      <trkpt lat="46.30048" lon="-0.29918">
        <ele>76.2023</ele>
        <time>2010-12-26T09:56:53Z</time>
      </trkpt>
      <trkpt lat="46.30047" lon="-0.29917">
        <ele>76.1703</ele>
        <time>2010-12-26T09:56:54Z</time>
      </trkpt>
      <trkpt lat="46.30046" lon="-0.29915">
        <ele>76.1396</ele>
        <time>2010-12-26T09:56:54Z</time>
      </trkpt>
      <trkpt lat="46.30044" lon="-0.29915">
        <ele>76.1099</ele>
        <time>2010-12-26T09:56:56Z</time>
      </trkpt>
      <trkpt lat="46.30043" lon="-0.29914">
        <ele>76.0782</ele>
        <time>2010-12-26T09:56:56Z</time>
      </trkpt>
      <trkpt lat="46.30042" lon="-0.29914">
        <ele>76.0451</ele>
        <time>2010-12-26T09:56:58Z</time>
      </trkpt>
      <trkpt lat="46.3004" lon="-0.29914">
        <ele>76.0117</ele>
        <time>2010-12-26T09:56:59Z</time>
      </trkpt>
      <trkpt lat="46.30039" lon="-0.29914">
        <ele>75.9779</ele>
        <time>2010-12-26T09:57:00Z</time>
      </trkpt>
      <trkpt lat="46.30037" lon="-0.29914">
        <ele>75.9435</ele>
        <time>2010-12-26T09:57:00Z</time>
      </trkpt>
      <trkpt lat="46.30036" lon="-0.29914">
        <ele>75.9093</ele>
        <time>2010-12-26T09:57:01Z</time>
      </trkpt>
      <trkpt lat="46.30034" lon="-0.29915">
        <ele>75.8757</ele>
        <time>2010-12-26T09:57:03Z</time>
      </trkpt>
      <trkpt lat="46.30033" lon="-0.29916">
        <ele>75.8454</ele>
        <time>2010-12-26T09:57:04Z</time>
      </trkpt>
      <trkpt lat="46.30032" lon="-0.29917">
        <ele>75.8174</ele>
        <time>2010-12-26T09:57:04Z</time>
      </trkpt>
      <trkpt lat="46.3003" lon="-0.29918">
        <ele>75.7908</ele>
        <time>2010-12-26T09:57:05Z</time>
      </trkpt>
      <trkpt lat="46.30029" lon="-0.29918">
        <ele>75.7652</ele>
        <time>2010-12-26T09:57:06Z</time>
      </trkpt>
      <trkpt lat="46.30027" lon="-0.29919">
        <ele>75.7414</ele>
        <time>2010-12-26T09:57:07Z</time>
      </trkpt>
      <trkpt lat="46.30026" lon="-0.2992">
        <ele>75.7201</ele>
        <time>2010-12-26T09:57:08Z</time>
      </trkpt>
      <trkpt lat="46.30025" lon="-0.2992">
        <ele>75.7012</ele>
        <time>2010-12-26T09:57:09Z</time>
      </trkpt>
      <trkpt lat="46.30024" lon="-0.29921">
        <ele>75.6848</ele>
        <time>2010-12-26T09:57:10Z</time>
      </trkpt>
      <trkpt lat="46.30022" lon="-0.29921">
        <ele>75.672</ele>
        <time>2010-12-26T09:57:11Z</time>
      </trkpt>
      <trkpt lat="46.30021" lon="-0.29922">
        <ele>75.6625</ele>
        <time>2010-12-26T09:57:12Z</time>
      </trkpt>
      <trkpt lat="46.3002" lon="-0.29923">
        <ele>75.6538</ele>
        <time>2010-12-26T09:57:13Z</time>
      </trkpt>
      <trkpt lat="46.30019" lon="-0.29924">
        <ele>75.648</ele>
        <time>2010-12-26T09:57:14Z</time>
      </trkpt>
      <trkpt lat="46.30018" lon="-0.29925">
        <ele>75.6431</ele>
        <time>2010-12-26T09:57:15Z</time>
      </trkpt>
      <trkpt lat="46.30016" lon="-0.29926">
        <ele>75.639</ele>
        <time>2010-12-26T09:57:16Z</time>
      </trkpt>
      <trkpt lat="46.30015" lon="-0.29927">
        <ele>75.6382</ele>
        <time>2010-12-26T09:57:17Z</time>
      </trkpt>
      <trkpt lat="46.30014" lon="-0.29927">
        <ele>75.6383</ele>
        <time>2010-12-26T09:57:18Z</time>
      </trkpt>
      <trkpt lat="46.30013" lon="-0.29928">
        <ele>75.64</ele>
        <time>2010-12-26T09:57:19Z</time>
      </trkpt>
      <trkpt lat="46.30011" lon="-0.29929">
        <ele>75.6435</ele>
        <time>2010-12-26T09:57:20Z</time>
      </trkpt>
      <trkpt lat="46.3001" lon="-0.2993">
        <ele>75.6476</ele>
        <time>2010-12-26T09:57:21Z</time>
      </trkpt>
      <trkpt lat="46.30009" lon="-0.2993">
        <ele>75.6509</ele>
        <time>2010-12-26T09:57:22Z</time>
      </trkpt>
      <trkpt lat="46.30007" lon="-0.29931">
        <ele>75.6537</ele>
        <time>2010-12-26T09:57:23Z</time>
      </trkpt>
      <trkpt lat="46.30006" lon="-0.29932">
        <ele>75.6563</ele>
        <time>2010-12-26T09:57:24Z</time>
      </trkpt>
      <trkpt lat="46.30004" lon="-0.29933">
        <ele>75.6585</ele>
        <time>2010-12-26T09:57:25Z</time>
      </trkpt>
      <trkpt lat="46.30003" lon="-0.29933">
        <ele>75.6598</ele>
        <time>2010-12-26T09:57:26Z</time>
      </trkpt>
      <trkpt lat="46.30001" lon="-0.29934">
        <ele>75.6598</ele>
        <time>2010-12-26T09:57:27Z</time>
      </trkpt>
      <trkpt lat="46.3" lon="-0.29935">
        <ele>75.6606</ele>
        <time>2010-12-26T09:57:28Z</time>
      </trkpt>
      <trkpt lat="46.29998" lon="-0.29936">
        <ele>75.6597</ele>
        <time>2010-12-26T09:57:29Z</time>
      </trkpt>
      <trkpt lat="46.29997" lon="-0.29937">
        <ele>75.6599</ele>
        <time>2010-12-26T09:57:30Z</time>
      </trkpt>
      <trkpt lat="46.29995" lon="-0.29937">
        <ele>75.6609</ele>
        <time>2010-12-26T09:57:31Z</time>
      </trkpt>
      <trkpt lat="46.29993" lon="-0.29938">
        <ele>75.6634</ele>
        <time>2010-12-26T09:57:32Z</time>
      </trkpt>
      <trkpt lat="46.29992" lon="-0.29939">
        <ele>75.6666</ele>
        <time>2010-12-26T09:57:33Z</time>
      </trkpt>
      <trkpt lat="46.29991" lon="-0.2994">
        <ele>75.6733</ele>
        <time>2010-12-26T09:57:34Z</time>
      </trkpt>
      <trkpt lat="46.2999" lon="-0.29941">
        <ele>75.6855</ele>
        <time>2010-12-26T09:57:35Z</time>
      </trkpt>
      <trkpt lat="46.29989" lon="-0.29943">
        <ele>75.7007</ele>
        <time>2010-12-26T09:57:36Z</time>
      </trkpt>
      <trkpt lat="46.29988" lon="-0.29944">
        <ele>75.7175</ele>
        <time>2010-12-26T09:57:37Z</time>
      </trkpt>
      <trkpt lat="46.29986" lon="-0.29945">
        <ele>75.7369</ele>
        <time>2010-12-26T09:57:38Z</time>
      </trkpt>
      <trkpt lat="46.29985" lon="-0.29946">
        <ele>75.756</ele>
        <time>2010-12-26T09:57:39Z</time>
      </trkpt>
      <trkpt lat="46.29984" lon="-0.29947">
        <ele>75.7752</ele>
        <time>2010-12-26T09:57:40Z</time>
      </trkpt>
      <trkpt lat="46.29983" lon="-0.29948">
        <ele>75.7932</ele>
        <time>2010-12-26T09:57:41Z</time>
      </trkpt>
      <trkpt lat="46.29982" lon="-0.29949">
        <ele>75.8114</ele>
        <time>2010-12-26T09:57:42Z</time>
      </trkpt>
      <trkpt lat="46.29981" lon="-0.2995">
        <ele>75.8333</ele>
        <time>2010-12-26T09:57:43Z</time>
      </trkpt>
      <trkpt lat="46.2998" lon="-0.29951">
        <ele>75.8584</ele>
        <time>2010-12-26T09:57:44Z</time>
      </trkpt>
      <trkpt lat="46.29979" lon="-0.29952">
        <ele>75.885</ele>
        <time>2010-12-26T09:57:45Z</time>
      </trkpt>
      <trkpt lat="46.29977" lon="-0.29953">
        <ele>75.9108</ele>
        <time>2010-12-26T09:57:46Z</time>
      </trkpt>
      <trkpt lat="46.29976" lon="-0.29954">
        <ele>75.9365</ele>
        <time>2010-12-26T09:57:47Z</time>
      </trkpt>
      <trkpt lat="46.29975" lon="-0.29955">
        <ele>75.961</ele>
        <time>2010-12-26T09:57:48Z</time>
      </trkpt>
      <trkpt lat="46.29974" lon="-0.29956">
        <ele>75.9856</ele>
        <time>2010-12-26T09:57:49Z</time>
      </trkpt>
      <trkpt lat="46.29973" lon="-0.29957">
        <ele>76.0092</ele>
        <time>2010-12-26T09:57:50Z</time>
      </trkpt>
      <trkpt lat="46.29971" lon="-0.29958">
        <ele>76.0336</ele>
        <time>2010-12-26T09:57:51Z</time>
      </trkpt>
      <trkpt lat="46.2997" lon="-0.29959">
        <ele>76.0578</ele>
        <time>2010-12-26T09:57:52Z</time>
      </trkpt>
      <trkpt lat="46.29969" lon="-0.2996">
        <ele>76.0814</ele>
        <time>2010-12-26T09:57:53Z</time>
      </trkpt>
      <trkpt lat="46.29968" lon="-0.29961">
        <ele>76.1054</ele>
        <time>2010-12-26T09:57:54Z</time>
      </trkpt>
      <trkpt lat="46.29966" lon="-0.29961">
        <ele>76.1274</ele>
        <time>2010-12-26T09:57:55Z</time>
      </trkpt>
      <trkpt lat="46.29965" lon="-0.29962">
        <ele>76.1481</ele>
        <time>2010-12-26T09:57:56Z</time>
      </trkpt>
      <trkpt lat="46.29963" lon="-0.29963">
        <ele>76.1698</ele>
        <time>2010-12-26T09:57:57Z</time>
      </trkpt>
      <trkpt lat="46.29962" lon="-0.29964">
        <ele>76.1918</ele>
        <time>2010-12-26T09:57:58Z</time>
      </trkpt>
      <trkpt lat="46.2996" lon="-0.29966">
        <ele>76.2163</ele>
        <time>2010-12-26T09:57:59Z</time>
      </trkpt>
      <trkpt lat="46.29959" lon="-0.29967">
        <ele>76.2399</ele>
        <time>2010-12-26T09:58:00Z</time>
      </trkpt>
      <trkpt lat="46.29958" lon="-0.29968">
        <ele>76.2616</ele>
        <time>2010-12-26T09:58:01Z</time>
      </trkpt>
      <trkpt lat="46.29957" lon="-0.29969">
        <ele>76.2821</ele>
        <time>2010-12-26T09:58:02Z</time>
      </trkpt>
      <trkpt lat="46.29956" lon="-0.29969">
        <ele>76.3051</ele>
        <time>2010-12-26T09:58:03Z</time>
      </trkpt>
      <trkpt lat="46.29955" lon="-0.2997">
        <ele>76.3292</ele>
        <time>2010-12-26T09:58:05Z</time>
      </trkpt>
      <trkpt lat="46.29953" lon="-0.29971">
        <ele>76.3513</ele>
        <time>2010-12-26T09:58:05Z</time>
      </trkpt>
      <trkpt lat="46.29952" lon="-0.29973">
        <ele>76.3736</ele>
        <time>2010-12-26T09:58:06Z</time>
      </trkpt>
      <trkpt lat="46.29951" lon="-0.29974">
        <ele>76.3956</ele>
        <time>2010-12-26T09:58:07Z</time>
      </trkpt>
      <trkpt lat="46.2995" lon="-0.29976">
        <ele>76.4175</ele>
        <time>2010-12-26T09:58:08Z</time>
      </trkpt>
      <trkpt lat="46.2995" lon="-0.29978">
        <ele>76.4349</ele>
        <time>2010-12-26T09:58:09Z</time>
      </trkpt>
      <trkpt lat="46.29949" lon="-0.2998">
        <ele>76.451</ele>
        <time>2010-12-26T09:58:10Z</time>
      </trkpt>
      <trkpt lat="46.29948" lon="-0.29983">
        <ele>76.4684</ele>
        <time>2010-12-26T09:58:11Z</time>
      </trkpt>
      <trkpt lat="46.29948" lon="-0.29985">
        <ele>76.4858</ele>
        <time>2010-12-26T09:58:12Z</time>
      </trkpt>
      <trkpt lat="46.29949" lon="-0.29987">
        <ele>76.5038</ele>
        <time>2010-12-26T09:58:13Z</time>
      </trkpt>
      <trkpt lat="46.29949" lon="-0.29989">
        <ele>76.5261</ele>
        <time>2010-12-26T09:58:14Z</time>
      </trkpt>
      <trkpt lat="46.2995" lon="-0.29991">
        <ele>76.552</ele>
        <time>2010-12-26T09:58:15Z</time>
      </trkpt>
      <trkpt lat="46.2995" lon="-0.29993">
        <ele>76.5786</ele>
        <time>2010-12-26T09:58:16Z</time>
      </trkpt>
      <trkpt lat="46.29951" lon="-0.29995">
        <ele>76.6032</ele>
        <time>2010-12-26T09:58:17Z</time>
      </trkpt>
      <trkpt lat="46.29952" lon="-0.29996">
        <ele>76.6304</ele>
        <time>2010-12-26T09:58:18Z</time>
      </trkpt>
      <trkpt lat="46.29952" lon="-0.29997">
        <ele>76.6588</ele>
        <time>2010-12-26T09:58:19Z</time>
      </trkpt>
      <trkpt lat="46.29953" lon="-0.29999">
        <ele>76.6866</ele>
        <time>2010-12-26T09:58:20Z</time>
      </trkpt>
      <trkpt lat="46.29953" lon="-0.3">
        <ele>76.7137</ele>
        <time>2010-12-26T09:58:21Z</time>
      </trkpt>
      <trkpt lat="46.29954" lon="-0.30002">
        <ele>76.7393</ele>
        <time>2010-12-26T09:58:22Z</time>
      </trkpt>
      <trkpt lat="46.29955" lon="-0.30004">
        <ele>76.765</ele>
        <time>2010-12-26T09:58:23Z</time>
      </trkpt>
      <trkpt lat="46.29955" lon="-0.30005">
        <ele>76.7904</ele>
        <time>2010-12-26T09:58:24Z</time>
      </trkpt>
      <trkpt lat="46.29956" lon="-0.30007">
        <ele>76.816</ele>
        <time>2010-12-26T09:58:25Z</time>
      </trkpt>
      <trkpt lat="46.29956" lon="-0.30009">
        <ele>76.8404</ele>
        <time>2010-12-26T09:58:26Z</time>
      </trkpt>
      <trkpt lat="46.29957" lon="-0.30011">
        <ele>76.8672</ele>
        <time>2010-12-26T09:58:27Z</time>
      </trkpt>
      <trkpt lat="46.29958" lon="-0.30013">
        <ele>76.8913</ele>
        <time>2010-12-26T09:58:28Z</time>
      </trkpt>
      <trkpt lat="46.29958" lon="-0.30014">
        <ele>76.9163</ele>
        <time>2010-12-26T09:58:29Z</time>
      </trkpt>
      <trkpt lat="46.29959" lon="-0.30016">
        <ele>76.941</ele>
        <time>2010-12-26T09:58:30Z</time>
      </trkpt>
      <trkpt lat="46.29959" lon="-0.30018">
        <ele>76.9673</ele>
        <time>2010-12-26T09:58:31Z</time>
      </trkpt>
      <trkpt lat="46.29959" lon="-0.3002">
        <ele>76.9935</ele>
        <time>2010-12-26T09:58:32Z</time>
      </trkpt>
      <trkpt lat="46.29959" lon="-0.30022">
        <ele>77.0195</ele>
        <time>2010-12-26T09:58:33Z</time>
      </trkpt>
      <trkpt lat="46.29958" lon="-0.30024">
        <ele>77.0451</ele>
        <time>2010-12-26T09:58:34Z</time>
      </trkpt>
      <trkpt lat="46.29959" lon="-0.30026">
        <ele>77.0718</ele>
        <time>2010-12-26T09:58:35Z</time>
      </trkpt>
      <trkpt lat="46.29959" lon="-0.30028">
        <ele>77.0992</ele>
        <time>2010-12-26T09:58:36Z</time>
      </trkpt>
      <trkpt lat="46.29959" lon="-0.3003">
        <ele>77.127</ele>
        <time>2010-12-26T09:58:37Z</time>
      </trkpt>
      <trkpt lat="46.29959" lon="-0.30032">
        <ele>77.1553</ele>
        <time>2010-12-26T09:58:38Z</time>
      </trkpt>
      <trkpt lat="46.2996" lon="-0.30035">
        <ele>77.1823</ele>
        <time>2010-12-26T09:58:39Z</time>
      </trkpt>
      <trkpt lat="46.2996" lon="-0.30037">
        <ele>77.2089</ele>
        <time>2010-12-26T09:58:40Z</time>
      </trkpt>
      <trkpt lat="46.2996" lon="-0.30039">
        <ele>77.2348</ele>
        <time>2010-12-26T09:58:41Z</time>
      </trkpt>
      <trkpt lat="46.29961" lon="-0.30041">
        <ele>77.261</ele>
        <time>2010-12-26T09:58:42Z</time>
      </trkpt>
      <trkpt lat="46.29961" lon="-0.30043">
        <ele>77.2857</ele>
        <time>2010-12-26T09:58:43Z</time>
      </trkpt>
      <trkpt lat="46.29961" lon="-0.30045">
        <ele>77.3096</ele>
        <time>2010-12-26T09:58:44Z</time>
      </trkpt>
      <trkpt lat="46.29962" lon="-0.30047">
        <ele>77.3352</ele>
        <time>2010-12-26T09:58:45Z</time>
      </trkpt>
      <trkpt lat="46.29962" lon="-0.30049">
        <ele>77.3576</ele>
        <time>2010-12-26T09:58:46Z</time>
      </trkpt>
      <trkpt lat="46.29963" lon="-0.30051">
        <ele>77.3768</ele>
        <time>2010-12-26T09:58:47Z</time>
      </trkpt>
      <trkpt lat="46.29963" lon="-0.30054">
        <ele>77.3942</ele>
        <time>2010-12-26T09:58:48Z</time>
      </trkpt>
      <trkpt lat="46.29963" lon="-0.30056">
        <ele>77.4105</ele>
        <time>2010-12-26T09:58:49Z</time>
      </trkpt>
      <trkpt lat="46.29964" lon="-0.30058">
        <ele>77.4268</ele>
        <time>2010-12-26T09:58:50Z</time>
      </trkpt>
      <trkpt lat="46.29964" lon="-0.3006">
        <ele>77.4468</ele>
        <time>2010-12-26T09:58:51Z</time>
      </trkpt>
      <trkpt lat="46.29965" lon="-0.30062">
        <ele>77.4678</ele>
        <time>2010-12-26T09:58:52Z</time>
      </trkpt>
      <trkpt lat="46.29965" lon="-0.30064">
        <ele>77.4899</ele>
        <time>2010-12-26T09:58:53Z</time>
      </trkpt>
      <trkpt lat="46.29966" lon="-0.30066">
        <ele>77.5118</ele>
        <time>2010-12-26T09:58:54Z</time>
      </trkpt>
      <trkpt lat="46.29966" lon="-0.30068">
        <ele>77.5326</ele>
        <time>2010-12-26T09:58:55Z</time>
      </trkpt>
      <trkpt lat="46.29966" lon="-0.3007">
        <ele>77.5545</ele>
        <time>2010-12-26T09:58:56Z</time>
      </trkpt>
      <trkpt lat="46.29967" lon="-0.30072">
        <ele>77.5764</ele>
        <time>2010-12-26T09:58:57Z</time>
      </trkpt>
      <trkpt lat="46.29967" lon="-0.30074">
        <ele>77.5982</ele>
        <time>2010-12-26T09:58:58Z</time>
      </trkpt>
      <trkpt lat="46.29968" lon="-0.30076">
        <ele>77.6197</ele>
        <time>2010-12-26T09:58:59Z</time>
      </trkpt>
      <trkpt lat="46.29968" lon="-0.30078">
        <ele>77.6405</ele>
        <time>2010-12-26T09:59:00Z</time>
      </trkpt>
      <trkpt lat="46.29968" lon="-0.3008">
        <ele>77.661</ele>
        <time>2010-12-26T09:59:01Z</time>
      </trkpt>
      <trkpt lat="46.29969" lon="-0.30082">
        <ele>77.6809</ele>
        <time>2010-12-26T09:59:02Z</time>
      </trkpt>
      <trkpt lat="46.29969" lon="-0.30084">
        <ele>77.7009</ele>
        <time>2010-12-26T09:59:03Z</time>
      </trkpt>
      <trkpt lat="46.29969" lon="-0.30086">
        <ele>77.7206</ele>
        <time>2010-12-26T09:59:05Z</time>
      </trkpt>
      <trkpt lat="46.29969" lon="-0.30088">
        <ele>77.7411</ele>
        <time>2010-12-26T09:59:05Z</time>
      </trkpt>
      <trkpt lat="46.2997" lon="-0.3009">
        <ele>77.761</ele>
        <time>2010-12-26T09:59:06Z</time>
      </trkpt>
      <trkpt lat="46.2997" lon="-0.30092">
        <ele>77.7812</ele>
        <time>2010-12-26T09:59:07Z</time>
      </trkpt>
      <trkpt lat="46.29971" lon="-0.30094">
        <ele>77.8009</ele>
        <time>2010-12-26T09:59:08Z</time>
      </trkpt>
      <trkpt lat="46.29971" lon="-0.30096">
        <ele>77.8211</ele>
        <time>2010-12-26T09:59:09Z</time>
      </trkpt>
      <trkpt lat="46.29971" lon="-0.30098">
        <ele>77.8406</ele>
        <time>2010-12-26T09:59:10Z</time>
      </trkpt>
      <trkpt lat="46.29972" lon="-0.301">
        <ele>77.8593</ele>
        <time>2010-12-26T09:59:11Z</time>
      </trkpt>
      <trkpt lat="46.29973" lon="-0.30102">
        <ele>77.8783</ele>
        <time>2010-12-26T09:59:12Z</time>
      </trkpt>
      <trkpt lat="46.29973" lon="-0.30104">
        <ele>77.8974</ele>
        <time>2010-12-26T09:59:13Z</time>
      </trkpt>
      <trkpt lat="46.29973" lon="-0.30106">
        <ele>77.9162</ele>
        <time>2010-12-26T09:59:14Z</time>
      </trkpt>
      <trkpt lat="46.29974" lon="-0.30108">
        <ele>77.9369</ele>
        <time>2010-12-26T09:59:15Z</time>
      </trkpt>
      <trkpt lat="46.29974" lon="-0.3011">
        <ele>77.9575</ele>
        <time>2010-12-26T09:59:16Z</time>
      </trkpt>
      <trkpt lat="46.29974" lon="-0.30112">
        <ele>77.9771</ele>
        <time>2010-12-26T09:59:17Z</time>
      </trkpt>
      <trkpt lat="46.29974" lon="-0.30114">
        <ele>77.9969</ele>
        <time>2010-12-26T09:59:18Z</time>
      </trkpt>
      <trkpt lat="46.29975" lon="-0.30116">
        <ele>78.0156</ele>
        <time>2010-12-26T09:59:19Z</time>
      </trkpt>
      <trkpt lat="46.29976" lon="-0.30118">
        <ele>78.0318</ele>
        <time>2010-12-26T09:59:21Z</time>
      </trkpt>
      <trkpt lat="46.29976" lon="-0.3012">
        <ele>78.0468</ele>
        <time>2010-12-26T09:59:21Z</time>
      </trkpt>
      <trkpt lat="46.29976" lon="-0.30122">
        <ele>78.0604</ele>
        <time>2010-12-26T09:59:22Z</time>
      </trkpt>
      <trkpt lat="46.29977" lon="-0.30124">
        <ele>78.0735</ele>
        <time>2010-12-26T09:59:23Z</time>
      </trkpt>
      <trkpt lat="46.29977" lon="-0.30126">
        <ele>78.0861</ele>
        <time>2010-12-26T09:59:24Z</time>
      </trkpt>
      <trkpt lat="46.29977" lon="-0.30129">
        <ele>78.0934</ele>
        <time>2010-12-26T09:59:25Z</time>
      </trkpt>
      <trkpt lat="46.29977" lon="-0.30131">
        <ele>78.0993</ele>
        <time>2010-12-26T09:59:26Z</time>
      </trkpt>
      <trkpt lat="46.29978" lon="-0.30133">
        <ele>78.1035</ele>
        <time>2010-12-26T09:59:27Z</time>
      </trkpt>
      <trkpt lat="46.29978" lon="-0.30135">
        <ele>78.1071</ele>
        <time>2010-12-26T09:59:28Z</time>
      </trkpt>
      <trkpt lat="46.29978" lon="-0.30137">
        <ele>78.1096</ele>
        <time>2010-12-26T09:59:29Z</time>
      </trkpt>
      <trkpt lat="46.29979" lon="-0.30139">
        <ele>78.1123</ele>
        <time>2010-12-26T09:59:30Z</time>
      </trkpt>
      <trkpt lat="46.29979" lon="-0.30141">
        <ele>78.1161</ele>
        <time>2010-12-26T09:59:31Z</time>
      </trkpt>
      <trkpt lat="46.29979" lon="-0.30143">
        <ele>78.1176</ele>
        <time>2010-12-26T09:59:32Z</time>
      </trkpt>
      <trkpt lat="46.2998" lon="-0.30144">
        <ele>78.1177</ele>
        <time>2010-12-26T09:59:33Z</time>
      </trkpt>
      <trkpt lat="46.2998" lon="-0.30146">
        <ele>78.1183</ele>
        <time>2010-12-26T09:59:34Z</time>
      </trkpt>
      <trkpt lat="46.29981" lon="-0.30148">
        <ele>78.1171</ele>
        <time>2010-12-26T09:59:35Z</time>
      </trkpt>
      <trkpt lat="46.29981" lon="-0.3015">
        <ele>78.1155</ele>
        <time>2010-12-26T09:59:36Z</time>
      </trkpt>
      <trkpt lat="46.29981" lon="-0.30152">
        <ele>78.114</ele>
        <time>2010-12-26T09:59:37Z</time>
      </trkpt>
      <trkpt lat="46.29982" lon="-0.30153">
        <ele>78.11</ele>
        <time>2010-12-26T09:59:39Z</time>
      </trkpt>
      <trkpt lat="46.29982" lon="-0.30155">
        <ele>78.105</ele>
        <time>2010-12-26T09:59:39Z</time>
      </trkpt>
      <trkpt lat="46.29983" lon="-0.30157">
        <ele>78.0982</ele>
        <time>2010-12-26T09:59:40Z</time>
      </trkpt>
      <trkpt lat="46.29983" lon="-0.30159">
        <ele>78.0871</ele>
        <time>2010-12-26T09:59:41Z</time>
      </trkpt>
      <trkpt lat="46.29983" lon="-0.3016">
        <ele>78.0761</ele>
        <time>2010-12-26T09:59:42Z</time>
      </trkpt>
      <trkpt lat="46.29981" lon="-0.30164">
        <ele>77.9443</ele>
        <time>2010-12-26T10:00:18Z</time>
      </trkpt>
      <trkpt lat="46.29981" lon="-0.30166">
        <ele>77.9496</ele>
        <time>2010-12-26T10:00:19Z</time>
      </trkpt>
      <trkpt lat="46.29982" lon="-0.30168">
        <ele>77.9543</ele>
        <time>2010-12-26T10:00:20Z</time>
      </trkpt>
      <trkpt lat="46.29982" lon="-0.3017">
        <ele>77.9604</ele>
        <time>2010-12-26T10:00:21Z</time>
      </trkpt>
      <trkpt lat="46.29983" lon="-0.30172">
        <ele>77.9687</ele>
        <time>2010-12-26T10:00:22Z</time>
      </trkpt>
      <trkpt lat="46.29983" lon="-0.30174">
        <ele>77.9721</ele>
        <time>2010-12-26T10:00:23Z</time>
      </trkpt>
      <trkpt lat="46.29984" lon="-0.30176">
        <ele>77.9708</ele>
        <time>2010-12-26T10:00:25Z</time>
      </trkpt>
      <trkpt lat="46.29984" lon="-0.30178">
        <ele>77.9643</ele>
        <time>2010-12-26T10:00:26Z</time>
      </trkpt>
      <trkpt lat="46.29984" lon="-0.30181">
        <ele>77.9587</ele>
        <time>2010-12-26T10:00:26Z</time>
      </trkpt>
      <trkpt lat="46.29985" lon="-0.30183">
        <ele>77.9567</ele>
        <time>2010-12-26T10:00:27Z</time>
      </trkpt>
      <trkpt lat="46.29985" lon="-0.30185">
        <ele>77.9539</ele>
        <time>2010-12-26T10:00:29Z</time>
      </trkpt>
      <trkpt lat="46.29986" lon="-0.30187">
        <ele>77.9527</ele>
        <time>2010-12-26T10:00:30Z</time>
      </trkpt>
      <trkpt lat="46.29986" lon="-0.30189">
        <ele>77.9555</ele>
        <time>2010-12-26T10:00:30Z</time>
      </trkpt>
      <trkpt lat="46.29987" lon="-0.30191">
        <ele>77.9584</ele>
        <time>2010-12-26T10:00:32Z</time>
      </trkpt>
      <trkpt lat="46.29987" lon="-0.30193">
        <ele>77.9619</ele>
        <time>2010-12-26T10:00:33Z</time>
      </trkpt>
      <trkpt lat="46.29987" lon="-0.30194">
        <ele>77.9666</ele>
        <time>2010-12-26T10:00:34Z</time>
      </trkpt>
      <trkpt lat="46.29987" lon="-0.30195">
        <ele>77.9697</ele>
        <time>2010-12-26T10:00:34Z</time>
      </trkpt>
      <trkpt lat="46.29987" lon="-0.30196">
        <ele>77.9741</ele>
        <time>2010-12-26T10:00:36Z</time>
      </trkpt>
      <trkpt lat="46.29987" lon="-0.30197">
        <ele>77.9811</ele>
        <time>2010-12-26T10:00:37Z</time>
      </trkpt>
      <trkpt lat="46.29987" lon="-0.30197">
        <ele>77.9898</ele>
        <time>2010-12-26T10:00:38Z</time>
      </trkpt>
      <trkpt lat="46.29987" lon="-0.30198">
        <ele>77.9979</ele>
        <time>2010-12-26T10:00:39Z</time>
      </trkpt>
      <trkpt lat="46.29987" lon="-0.302">
        <ele>78.0035</ele>
        <time>2010-12-26T10:00:43Z</time>
      </trkpt>
      <trkpt lat="46.29988" lon="-0.30203">
        <ele>78.0027</ele>
        <time>2010-12-26T10:00:44Z</time>
      </trkpt>
      <trkpt lat="46.29988" lon="-0.30205">
        <ele>77.9844</ele>
        <time>2010-12-26T10:00:45Z</time>
      </trkpt>
      <trkpt lat="46.29989" lon="-0.30207">
        <ele>77.9546</ele>
        <time>2010-12-26T10:00:46Z</time>
      </trkpt>
      <trkpt lat="46.29989" lon="-0.30208">
        <ele>77.9241</ele>
        <time>2010-12-26T10:00:47Z</time>
      </trkpt>
      <trkpt lat="46.29989" lon="-0.3021">
        <ele>77.9001</ele>
        <time>2010-12-26T10:00:48Z</time>
      </trkpt>
      <trkpt lat="46.29989" lon="-0.30211">
        <ele>77.8796</ele>
        <time>2010-12-26T10:00:49Z</time>
      </trkpt>
      <trkpt lat="46.2999" lon="-0.30213">
        <ele>77.8607</ele>
        <time>2010-12-26T10:00:50Z</time>
      </trkpt>
      <trkpt lat="46.2999" lon="-0.30214">
        <ele>77.8437</ele>
        <time>2010-12-26T10:00:52Z</time>
      </trkpt>
      <trkpt lat="46.29991" lon="-0.30215">
        <ele>77.8336</ele>
        <time>2010-12-26T10:00:53Z</time>
      </trkpt>
      <trkpt lat="46.29992" lon="-0.30217">
        <ele>77.8278</ele>
        <time>2010-12-26T10:00:54Z</time>
      </trkpt>
      <trkpt lat="46.29992" lon="-0.30218">
        <ele>77.829</ele>
        <time>2010-12-26T10:00:54Z</time>
      </trkpt>
      <trkpt lat="46.29993" lon="-0.3022">
        <ele>77.8331</ele>
        <time>2010-12-26T10:00:56Z</time>
      </trkpt>
      <trkpt lat="46.29993" lon="-0.30221">
        <ele>77.8384</ele>
        <time>2010-12-26T10:00:57Z</time>
      </trkpt>
      <trkpt lat="46.29994" lon="-0.30223">
        <ele>77.845</ele>
        <time>2010-12-26T10:00:58Z</time>
      </trkpt>
      <trkpt lat="46.29994" lon="-0.30225">
        <ele>77.8511</ele>
        <time>2010-12-26T10:00:59Z</time>
      </trkpt>
      <trkpt lat="46.29995" lon="-0.30227">
        <ele>77.8597</ele>
        <time>2010-12-26T10:01:00Z</time>
      </trkpt>
      <trkpt lat="46.29995" lon="-0.30229">
        <ele>77.8695</ele>
        <time>2010-12-26T10:01:01Z</time>
      </trkpt>
      <trkpt lat="46.29995" lon="-0.30231">
        <ele>77.8809</ele>
        <time>2010-12-26T10:01:02Z</time>
      </trkpt>
      <trkpt lat="46.29996" lon="-0.30233">
        <ele>77.8938</ele>
        <time>2010-12-26T10:01:03Z</time>
      </trkpt>
      <trkpt lat="46.29996" lon="-0.30235">
        <ele>77.9079</ele>
        <time>2010-12-26T10:01:04Z</time>
      </trkpt>
      <trkpt lat="46.29997" lon="-0.30237">
        <ele>77.9231</ele>
        <time>2010-12-26T10:01:05Z</time>
      </trkpt>
      <trkpt lat="46.29997" lon="-0.30239">
        <ele>77.9385</ele>
        <time>2010-12-26T10:01:05Z</time>
      </trkpt>
      <trkpt lat="46.29997" lon="-0.30241">
        <ele>77.9527</ele>
        <time>2010-12-26T10:01:07Z</time>
      </trkpt>
      <trkpt lat="46.29998" lon="-0.30244">
        <ele>77.9654</ele>
        <time>2010-12-26T10:01:08Z</time>
      </trkpt>
      <trkpt lat="46.29998" lon="-0.30246">
        <ele>77.9773</ele>
        <time>2010-12-26T10:01:09Z</time>
      </trkpt>
      <trkpt lat="46.29998" lon="-0.30248">
        <ele>77.9891</ele>
        <time>2010-12-26T10:01:10Z</time>
      </trkpt>
      <trkpt lat="46.29998" lon="-0.3025">
        <ele>78.0016</ele>
        <time>2010-12-26T10:01:11Z</time>
      </trkpt>
      <trkpt lat="46.29999" lon="-0.30252">
        <ele>78.0127</ele>
        <time>2010-12-26T10:01:12Z</time>
      </trkpt>
      <trkpt lat="46.29999" lon="-0.30254">
        <ele>78.0232</ele>
        <time>2010-12-26T10:01:13Z</time>
      </trkpt>
      <trkpt lat="46.3" lon="-0.30256">
        <ele>78.0321</ele>
        <time>2010-12-26T10:01:14Z</time>
      </trkpt>
      <trkpt lat="46.3" lon="-0.30258">
        <ele>78.0397</ele>
        <time>2010-12-26T10:01:15Z</time>
      </trkpt>
      <trkpt lat="46.3" lon="-0.3026">
        <ele>78.0464</ele>
        <time>2010-12-26T10:01:15Z</time>
      </trkpt>
      <trkpt lat="46.30001" lon="-0.30262">
        <ele>78.0499</ele>
        <time>2010-12-26T10:01:17Z</time>
      </trkpt>
      <trkpt lat="46.30001" lon="-0.30264">
        <ele>78.052</ele>
        <time>2010-12-26T10:01:18Z</time>
      </trkpt>
      <trkpt lat="46.30001" lon="-0.30266">
        <ele>78.0512</ele>
        <time>2010-12-26T10:01:19Z</time>
      </trkpt>
      <trkpt lat="46.30001" lon="-0.30268">
        <ele>78.0484</ele>
        <time>2010-12-26T10:01:20Z</time>
      </trkpt>
      <trkpt lat="46.30002" lon="-0.30271">
        <ele>78.0446</ele>
        <time>2010-12-26T10:01:21Z</time>
      </trkpt>
      <trkpt lat="46.30002" lon="-0.30273">
        <ele>78.0391</ele>
        <time>2010-12-26T10:01:22Z</time>
      </trkpt>
      <trkpt lat="46.30002" lon="-0.30275">
        <ele>78.0335</ele>
        <time>2010-12-26T10:01:23Z</time>
      </trkpt>
      <trkpt lat="46.30003" lon="-0.30278">
        <ele>78.0284</ele>
        <time>2010-12-26T10:01:24Z</time>
      </trkpt>
      <trkpt lat="46.30003" lon="-0.3028">
        <ele>78.0247</ele>
        <time>2010-12-26T10:01:25Z</time>
      </trkpt>
      <trkpt lat="46.30004" lon="-0.30282">
        <ele>78.0213</ele>
        <time>2010-12-26T10:01:26Z</time>
      </trkpt>
      <trkpt lat="46.30004" lon="-0.30284">
        <ele>78.0176</ele>
        <time>2010-12-26T10:01:27Z</time>
      </trkpt>
      <trkpt lat="46.30005" lon="-0.30286">
        <ele>78.0137</ele>
        <time>2010-12-26T10:01:28Z</time>
      </trkpt>
      <trkpt lat="46.30005" lon="-0.30288">
        <ele>78.0105</ele>
        <time>2010-12-26T10:01:29Z</time>
      </trkpt>
      <trkpt lat="46.30005" lon="-0.3029">
        <ele>78.008</ele>
        <time>2010-12-26T10:01:30Z</time>
      </trkpt>
      <trkpt lat="46.30005" lon="-0.30292">
        <ele>78.0044</ele>
        <time>2010-12-26T10:01:31Z</time>
      </trkpt>
      <trkpt lat="46.30006" lon="-0.30294">
        <ele>78.0021</ele>
        <time>2010-12-26T10:01:32Z</time>
      </trkpt>
      <trkpt lat="46.30006" lon="-0.30296">
        <ele>78</ele>
        <time>2010-12-26T10:01:33Z</time>
      </trkpt>
      <trkpt lat="46.30007" lon="-0.30297">
        <ele>77.9986</ele>
        <time>2010-12-26T10:01:34Z</time>
      </trkpt>
      <trkpt lat="46.30007" lon="-0.30299">
        <ele>77.9971</ele>
        <time>2010-12-26T10:01:35Z</time>
      </trkpt>
      <trkpt lat="46.30008" lon="-0.30301">
        <ele>77.9956</ele>
        <time>2010-12-26T10:01:36Z</time>
      </trkpt>
      <trkpt lat="46.30008" lon="-0.30303">
        <ele>77.9952</ele>
        <time>2010-12-26T10:01:37Z</time>
      </trkpt>
      <trkpt lat="46.30009" lon="-0.30305">
        <ele>77.994</ele>
        <time>2010-12-26T10:01:38Z</time>
      </trkpt>
      <trkpt lat="46.30009" lon="-0.30307">
        <ele>77.992</ele>
        <time>2010-12-26T10:01:39Z</time>
      </trkpt>
      <trkpt lat="46.3001" lon="-0.30309">
        <ele>77.9864</ele>
        <time>2010-12-26T10:01:40Z</time>
      </trkpt>
      <trkpt lat="46.3001" lon="-0.30311">
        <ele>77.9808</ele>
        <time>2010-12-26T10:01:40Z</time>
      </trkpt>
      <trkpt lat="46.30011" lon="-0.30312">
        <ele>77.9744</ele>
        <time>2010-12-26T10:01:42Z</time>
      </trkpt>
      <trkpt lat="46.30011" lon="-0.30314">
        <ele>77.965</ele>
        <time>2010-12-26T10:01:43Z</time>
      </trkpt>
      <trkpt lat="46.30011" lon="-0.30316">
        <ele>77.9556</ele>
        <time>2010-12-26T10:01:44Z</time>
      </trkpt>
      <trkpt lat="46.30012" lon="-0.30318">
        <ele>77.9474</ele>
        <time>2010-12-26T10:01:45Z</time>
      </trkpt>
      <trkpt lat="46.30013" lon="-0.3032">
        <ele>77.9406</ele>
        <time>2010-12-26T10:01:46Z</time>
      </trkpt>
      <trkpt lat="46.30013" lon="-0.30322">
        <ele>77.9351</ele>
        <time>2010-12-26T10:01:47Z</time>
      </trkpt>
      <trkpt lat="46.30013" lon="-0.30323">
        <ele>77.9321</ele>
        <time>2010-12-26T10:01:48Z</time>
      </trkpt>
      <trkpt lat="46.30014" lon="-0.30325">
        <ele>77.9304</ele>
        <time>2010-12-26T10:01:49Z</time>
      </trkpt>
      <trkpt lat="46.30014" lon="-0.30327">
        <ele>77.9288</ele>
        <time>2010-12-26T10:01:50Z</time>
      </trkpt>
      <trkpt lat="46.30015" lon="-0.30329">
        <ele>77.9274</ele>
        <time>2010-12-26T10:01:51Z</time>
      </trkpt>
      <trkpt lat="46.30015" lon="-0.30331">
        <ele>77.9266</ele>
        <time>2010-12-26T10:01:52Z</time>
      </trkpt>
      <trkpt lat="46.30016" lon="-0.30333">
        <ele>77.9266</ele>
        <time>2010-12-26T10:01:53Z</time>
      </trkpt>
      <trkpt lat="46.30016" lon="-0.30335">
        <ele>77.9268</ele>
        <time>2010-12-26T10:01:54Z</time>
      </trkpt>
      <trkpt lat="46.30017" lon="-0.30337">
        <ele>77.928</ele>
        <time>2010-12-26T10:01:55Z</time>
      </trkpt>
      <trkpt lat="46.30017" lon="-0.30339">
        <ele>77.9282</ele>
        <time>2010-12-26T10:01:56Z</time>
      </trkpt>
      <trkpt lat="46.30017" lon="-0.30342">
        <ele>77.9276</ele>
        <time>2010-12-26T10:01:57Z</time>
      </trkpt>
      <trkpt lat="46.30018" lon="-0.30343">
        <ele>77.9274</ele>
        <time>2010-12-26T10:01:58Z</time>
      </trkpt>
      <trkpt lat="46.30018" lon="-0.30346">
        <ele>77.9253</ele>
        <time>2010-12-26T10:01:59Z</time>
      </trkpt>
      <trkpt lat="46.30018" lon="-0.30348">
        <ele>77.9231</ele>
        <time>2010-12-26T10:02:00Z</time>
      </trkpt>
      <trkpt lat="46.30018" lon="-0.3035">
        <ele>77.9218</ele>
        <time>2010-12-26T10:02:00Z</time>
      </trkpt>
      <trkpt lat="46.30019" lon="-0.30352">
        <ele>77.92</ele>
        <time>2010-12-26T10:02:02Z</time>
      </trkpt>
      <trkpt lat="46.30019" lon="-0.30354">
        <ele>77.9169</ele>
        <time>2010-12-26T10:02:03Z</time>
      </trkpt>
      <trkpt lat="46.30019" lon="-0.30356">
        <ele>77.9123</ele>
        <time>2010-12-26T10:02:04Z</time>
      </trkpt>
      <trkpt lat="46.30019" lon="-0.30358">
        <ele>77.9076</ele>
        <time>2010-12-26T10:02:05Z</time>
      </trkpt>
      <trkpt lat="46.30019" lon="-0.3036">
        <ele>77.9041</ele>
        <time>2010-12-26T10:02:06Z</time>
      </trkpt>
      <trkpt lat="46.3002" lon="-0.30362">
        <ele>77.9001</ele>
        <time>2010-12-26T10:02:07Z</time>
      </trkpt>
      <trkpt lat="46.3002" lon="-0.30364">
        <ele>77.8958</ele>
        <time>2010-12-26T10:02:07Z</time>
      </trkpt>
      <trkpt lat="46.3002" lon="-0.30366">
        <ele>77.8913</ele>
        <time>2010-12-26T10:02:09Z</time>
      </trkpt>
      <trkpt lat="46.30021" lon="-0.30368">
        <ele>77.888</ele>
        <time>2010-12-26T10:02:10Z</time>
      </trkpt>
      <trkpt lat="46.30021" lon="-0.3037">
        <ele>77.8854</ele>
        <time>2010-12-26T10:02:11Z</time>
      </trkpt>
      <trkpt lat="46.30021" lon="-0.30372">
        <ele>77.8848</ele>
        <time>2010-12-26T10:02:12Z</time>
      </trkpt>
      <trkpt lat="46.30022" lon="-0.30374">
        <ele>77.884</ele>
        <time>2010-12-26T10:02:13Z</time>
      </trkpt>
      <trkpt lat="46.30022" lon="-0.30376">
        <ele>77.8844</ele>
        <time>2010-12-26T10:02:14Z</time>
      </trkpt>
      <trkpt lat="46.30022" lon="-0.30378">
        <ele>77.886</ele>
        <time>2010-12-26T10:02:15Z</time>
      </trkpt>
      <trkpt lat="46.30023" lon="-0.3038">
        <ele>77.8873</ele>
        <time>2010-12-26T10:02:16Z</time>
      </trkpt>
      <trkpt lat="46.30023" lon="-0.30382">
        <ele>77.8883</ele>
        <time>2010-12-26T10:02:17Z</time>
      </trkpt>
      <trkpt lat="46.30024" lon="-0.30384">
        <ele>77.8896</ele>
        <time>2010-12-26T10:02:18Z</time>
      </trkpt>
      <trkpt lat="46.30024" lon="-0.30386">
        <ele>77.8895</ele>
        <time>2010-12-26T10:02:19Z</time>
      </trkpt>
      <trkpt lat="46.30024" lon="-0.30387">
        <ele>77.8894</ele>
        <time>2010-12-26T10:02:20Z</time>
      </trkpt>
      <trkpt lat="46.30024" lon="-0.30389">
        <ele>77.8897</ele>
        <time>2010-12-26T10:02:21Z</time>
      </trkpt>
      <trkpt lat="46.30025" lon="-0.30391">
        <ele>77.8905</ele>
        <time>2010-12-26T10:02:22Z</time>
      </trkpt>
      <trkpt lat="46.30025" lon="-0.30393">
        <ele>77.8905</ele>
        <time>2010-12-26T10:02:23Z</time>
      </trkpt>
      <trkpt lat="46.30026" lon="-0.30395">
        <ele>77.8948</ele>
        <time>2010-12-26T10:02:24Z</time>
      </trkpt>
      <trkpt lat="46.30026" lon="-0.30396">
        <ele>77.8986</ele>
        <time>2010-12-26T10:02:25Z</time>
      </trkpt>
      <trkpt lat="46.30027" lon="-0.30398">
        <ele>77.9013</ele>
        <time>2010-12-26T10:02:25Z</time>
      </trkpt>
      <trkpt lat="46.30027" lon="-0.30401">
        <ele>77.9039</ele>
        <time>2010-12-26T10:02:27Z</time>
      </trkpt>
      <trkpt lat="46.30027" lon="-0.30403">
        <ele>77.9072</ele>
        <time>2010-12-26T10:02:27Z</time>
      </trkpt>
      <trkpt lat="46.30028" lon="-0.30405">
        <ele>77.9113</ele>
        <time>2010-12-26T10:02:29Z</time>
      </trkpt>
      <trkpt lat="46.30028" lon="-0.30406">
        <ele>77.917</ele>
        <time>2010-12-26T10:02:30Z</time>
      </trkpt>
      <trkpt lat="46.30029" lon="-0.30408">
        <ele>77.923</ele>
        <time>2010-12-26T10:02:31Z</time>
      </trkpt>
      <trkpt lat="46.30029" lon="-0.3041">
        <ele>77.9284</ele>
        <time>2010-12-26T10:02:32Z</time>
      </trkpt>
      <trkpt lat="46.30029" lon="-0.30412">
        <ele>77.934</ele>
        <time>2010-12-26T10:02:33Z</time>
      </trkpt>
      <trkpt lat="46.30029" lon="-0.30414">
        <ele>77.938</ele>
        <time>2010-12-26T10:02:34Z</time>
      </trkpt>
      <trkpt lat="46.3003" lon="-0.30416">
        <ele>77.941</ele>
        <time>2010-12-26T10:02:34Z</time>
      </trkpt>
      <trkpt lat="46.3003" lon="-0.30418">
        <ele>77.9426</ele>
        <time>2010-12-26T10:02:35Z</time>
      </trkpt>
      <trkpt lat="46.3003" lon="-0.30421">
        <ele>77.9436</ele>
        <time>2010-12-26T10:02:37Z</time>
      </trkpt>
      <trkpt lat="46.3003" lon="-0.30423">
        <ele>77.9437</ele>
        <time>2010-12-26T10:02:38Z</time>
      </trkpt>
      <trkpt lat="46.30031" lon="-0.30425">
        <ele>77.9436</ele>
        <time>2010-12-26T10:02:39Z</time>
      </trkpt>
      <trkpt lat="46.30031" lon="-0.30427">
        <ele>77.943</ele>
        <time>2010-12-26T10:02:40Z</time>
      </trkpt>
      <trkpt lat="46.30032" lon="-0.30429">
        <ele>77.942</ele>
        <time>2010-12-26T10:02:41Z</time>
      </trkpt>
      <trkpt lat="46.30032" lon="-0.30431">
        <ele>77.9401</ele>
        <time>2010-12-26T10:02:42Z</time>
      </trkpt>
      <trkpt lat="46.30032" lon="-0.30433">
        <ele>77.9385</ele>
        <time>2010-12-26T10:02:43Z</time>
      </trkpt>
      <trkpt lat="46.30033" lon="-0.30435">
        <ele>77.9362</ele>
        <time>2010-12-26T10:02:44Z</time>
      </trkpt>
      <trkpt lat="46.30033" lon="-0.30437">
        <ele>77.9332</ele>
        <time>2010-12-26T10:02:45Z</time>
      </trkpt>
      <trkpt lat="46.30034" lon="-0.30438">
        <ele>77.9299</ele>
        <time>2010-12-26T10:02:46Z</time>
      </trkpt>
      <trkpt lat="46.30034" lon="-0.3044">
        <ele>77.9263</ele>
        <time>2010-12-26T10:02:47Z</time>
      </trkpt>
      <trkpt lat="46.30035" lon="-0.30442">
        <ele>77.9227</ele>
        <time>2010-12-26T10:02:48Z</time>
      </trkpt>
      <trkpt lat="46.30035" lon="-0.30444">
        <ele>77.919</ele>
        <time>2010-12-26T10:02:49Z</time>
      </trkpt>
      <trkpt lat="46.30035" lon="-0.30446">
        <ele>77.9153</ele>
        <time>2010-12-26T10:02:50Z</time>
      </trkpt>
      <trkpt lat="46.30036" lon="-0.30448">
        <ele>77.9114</ele>
        <time>2010-12-26T10:02:51Z</time>
      </trkpt>
      <trkpt lat="46.30036" lon="-0.30449">
        <ele>77.9075</ele>
        <time>2010-12-26T10:02:52Z</time>
      </trkpt>
      <trkpt lat="46.30037" lon="-0.30451">
        <ele>77.903</ele>
        <time>2010-12-26T10:02:53Z</time>
      </trkpt>
      <trkpt lat="46.30037" lon="-0.30453">
        <ele>77.8978</ele>
        <time>2010-12-26T10:02:54Z</time>
      </trkpt>
      <trkpt lat="46.30038" lon="-0.30455">
        <ele>77.8919</ele>
        <time>2010-12-26T10:02:55Z</time>
      </trkpt>
      <trkpt lat="46.30038" lon="-0.30457">
        <ele>77.8851</ele>
        <time>2010-12-26T10:02:56Z</time>
      </trkpt>
      <trkpt lat="46.30039" lon="-0.30459">
        <ele>77.8771</ele>
        <time>2010-12-26T10:02:57Z</time>
      </trkpt>
      <trkpt lat="46.30039" lon="-0.30461">
        <ele>77.869</ele>
        <time>2010-12-26T10:02:58Z</time>
      </trkpt>
      <trkpt lat="46.30039" lon="-0.30463">
        <ele>77.8606</ele>
        <time>2010-12-26T10:02:59Z</time>
      </trkpt>
      <trkpt lat="46.3004" lon="-0.30465">
        <ele>77.8516</ele>
        <time>2010-12-26T10:03:00Z</time>
      </trkpt>
      <trkpt lat="46.3004" lon="-0.30467">
        <ele>77.8323</ele>
        <time>2010-12-26T10:03:01Z</time>
      </trkpt>
      <trkpt lat="46.3004" lon="-0.30469">
        <ele>77.8136</ele>
        <time>2010-12-26T10:03:02Z</time>
      </trkpt>
      <trkpt lat="46.30041" lon="-0.30471">
        <ele>77.7949</ele>
        <time>2010-12-26T10:03:03Z</time>
      </trkpt>
      <trkpt lat="46.30041" lon="-0.30473">
        <ele>77.7766</ele>
        <time>2010-12-26T10:03:04Z</time>
      </trkpt>
      <trkpt lat="46.30042" lon="-0.30475">
        <ele>77.7608</ele>
        <time>2010-12-26T10:03:05Z</time>
      </trkpt>
      <trkpt lat="46.30042" lon="-0.30477">
        <ele>77.7458</ele>
        <time>2010-12-26T10:03:06Z</time>
      </trkpt>
      <trkpt lat="46.30043" lon="-0.30479">
        <ele>77.7315</ele>
        <time>2010-12-26T10:03:07Z</time>
      </trkpt>
      <trkpt lat="46.30043" lon="-0.30481">
        <ele>77.7112</ele>
        <time>2010-12-26T10:03:08Z</time>
      </trkpt>
      <trkpt lat="46.30043" lon="-0.30483">
        <ele>77.6907</ele>
        <time>2010-12-26T10:03:09Z</time>
      </trkpt>
      <trkpt lat="46.30044" lon="-0.30485">
        <ele>77.6703</ele>
        <time>2010-12-26T10:03:10Z</time>
      </trkpt>
      <trkpt lat="46.30044" lon="-0.30487">
        <ele>77.6469</ele>
        <time>2010-12-26T10:03:11Z</time>
      </trkpt>
      <trkpt lat="46.30045" lon="-0.30489">
        <ele>77.6228</ele>
        <time>2010-12-26T10:03:12Z</time>
      </trkpt>
      <trkpt lat="46.30045" lon="-0.30491">
        <ele>77.5981</ele>
        <time>2010-12-26T10:03:13Z</time>
      </trkpt>
      <trkpt lat="46.30045" lon="-0.30493">
        <ele>77.5715</ele>
        <time>2010-12-26T10:03:14Z</time>
      </trkpt>
      <trkpt lat="46.30046" lon="-0.30495">
        <ele>77.5412</ele>
        <time>2010-12-26T10:03:15Z</time>
      </trkpt>
      <trkpt lat="46.30046" lon="-0.30497">
        <ele>77.5129</ele>
        <time>2010-12-26T10:03:16Z</time>
      </trkpt>
      <trkpt lat="46.30047" lon="-0.30499">
        <ele>77.4855</ele>
        <time>2010-12-26T10:03:17Z</time>
      </trkpt>
      <trkpt lat="46.30047" lon="-0.30502">
        <ele>77.4585</ele>
        <time>2010-12-26T10:03:18Z</time>
      </trkpt>
      <trkpt lat="46.30047" lon="-0.30503">
        <ele>77.4321</ele>
        <time>2010-12-26T10:03:19Z</time>
      </trkpt>
      <trkpt lat="46.30047" lon="-0.30505">
        <ele>77.4044</ele>
        <time>2010-12-26T10:03:20Z</time>
      </trkpt>
      <trkpt lat="46.30048" lon="-0.30507">
        <ele>77.3739</ele>
        <time>2010-12-26T10:03:20Z</time>
      </trkpt>
      <trkpt lat="46.30048" lon="-0.30509">
        <ele>77.3433</ele>
        <time>2010-12-26T10:03:22Z</time>
      </trkpt>
      <trkpt lat="46.30049" lon="-0.30511">
        <ele>77.3127</ele>
        <time>2010-12-26T10:03:23Z</time>
      </trkpt>
      <trkpt lat="46.30049" lon="-0.30513">
        <ele>77.283</ele>
        <time>2010-12-26T10:03:24Z</time>
      </trkpt>
      <trkpt lat="46.3005" lon="-0.30515">
        <ele>77.2537</ele>
        <time>2010-12-26T10:03:25Z</time>
      </trkpt>
      <trkpt lat="46.3005" lon="-0.30517">
        <ele>77.226</ele>
        <time>2010-12-26T10:03:26Z</time>
      </trkpt>
      <trkpt lat="46.30051" lon="-0.30519">
        <ele>77.2004</ele>
        <time>2010-12-26T10:03:27Z</time>
      </trkpt>
      <trkpt lat="46.30051" lon="-0.30521">
        <ele>77.1767</ele>
        <time>2010-12-26T10:03:28Z</time>
      </trkpt>
      <trkpt lat="46.30051" lon="-0.30523">
        <ele>77.1587</ele>
        <time>2010-12-26T10:03:29Z</time>
      </trkpt>
      <trkpt lat="46.30052" lon="-0.30525">
        <ele>77.1468</ele>
        <time>2010-12-26T10:03:30Z</time>
      </trkpt>
      <trkpt lat="46.30053" lon="-0.30526">
        <ele>77.1404</ele>
        <time>2010-12-26T10:03:31Z</time>
      </trkpt>
      <trkpt lat="46.30053" lon="-0.30528">
        <ele>77.1392</ele>
        <time>2010-12-26T10:03:32Z</time>
      </trkpt>
      <trkpt lat="46.30053" lon="-0.3053">
        <ele>77.1371</ele>
        <time>2010-12-26T10:03:33Z</time>
      </trkpt>
      <trkpt lat="46.30054" lon="-0.30531">
        <ele>77.1388</ele>
        <time>2010-12-26T10:03:34Z</time>
      </trkpt>
      <trkpt lat="46.30055" lon="-0.30533">
        <ele>77.1438</ele>
        <time>2010-12-26T10:03:35Z</time>
      </trkpt>
      <trkpt lat="46.30055" lon="-0.30535">
        <ele>77.1534</ele>
        <time>2010-12-26T10:03:36Z</time>
      </trkpt>
      <trkpt lat="46.30056" lon="-0.30536">
        <ele>77.1662</ele>
        <time>2010-12-26T10:03:37Z</time>
      </trkpt>
      <trkpt lat="46.30056" lon="-0.30538">
        <ele>77.179</ele>
        <time>2010-12-26T10:03:38Z</time>
      </trkpt>
      <trkpt lat="46.30057" lon="-0.3054">
        <ele>77.1957</ele>
        <time>2010-12-26T10:03:39Z</time>
      </trkpt>
      <trkpt lat="46.30058" lon="-0.30541">
        <ele>77.2158</ele>
        <time>2010-12-26T10:03:40Z</time>
      </trkpt>
      <trkpt lat="46.30058" lon="-0.30543">
        <ele>77.2355</ele>
        <time>2010-12-26T10:03:40Z</time>
      </trkpt>
      <trkpt lat="46.30059" lon="-0.30545">
        <ele>77.258</ele>
        <time>2010-12-26T10:03:42Z</time>
      </trkpt>
      <trkpt lat="46.30059" lon="-0.30546">
        <ele>77.2813</ele>
        <time>2010-12-26T10:03:43Z</time>
      </trkpt>
      <trkpt lat="46.3006" lon="-0.30548">
        <ele>77.3059</ele>
        <time>2010-12-26T10:03:44Z</time>
      </trkpt>
      <trkpt lat="46.3006" lon="-0.30549">
        <ele>77.3296</ele>
        <time>2010-12-26T10:03:45Z</time>
      </trkpt>
      <trkpt lat="46.30061" lon="-0.30551">
        <ele>77.3519</ele>
        <time>2010-12-26T10:03:46Z</time>
      </trkpt>
      <trkpt lat="46.30061" lon="-0.30553">
        <ele>77.3756</ele>
        <time>2010-12-26T10:03:47Z</time>
      </trkpt>
      <trkpt lat="46.30061" lon="-0.30554">
        <ele>77.4023</ele>
        <time>2010-12-26T10:03:48Z</time>
      </trkpt>
      <trkpt lat="46.30062" lon="-0.30556">
        <ele>77.4283</ele>
        <time>2010-12-26T10:03:49Z</time>
      </trkpt>
      <trkpt lat="46.30063" lon="-0.30558">
        <ele>77.4529</ele>
        <time>2010-12-26T10:03:50Z</time>
      </trkpt>
      <trkpt lat="46.30063" lon="-0.3056">
        <ele>77.4802</ele>
        <time>2010-12-26T10:03:51Z</time>
      </trkpt>
      <trkpt lat="46.30063" lon="-0.30561">
        <ele>77.5088</ele>
        <time>2010-12-26T10:03:52Z</time>
      </trkpt>
      <trkpt lat="46.30064" lon="-0.30563">
        <ele>77.5387</ele>
        <time>2010-12-26T10:03:53Z</time>
      </trkpt>
      <trkpt lat="46.30064" lon="-0.30564">
        <ele>77.5671</ele>
        <time>2010-12-26T10:03:54Z</time>
      </trkpt>
      <trkpt lat="46.30065" lon="-0.30566">
        <ele>77.5942</ele>
        <time>2010-12-26T10:03:55Z</time>
      </trkpt>
      <trkpt lat="46.30066" lon="-0.30568">
        <ele>77.6244</ele>
        <time>2010-12-26T10:03:56Z</time>
      </trkpt>
      <trkpt lat="46.30066" lon="-0.3057">
        <ele>77.653</ele>
        <time>2010-12-26T10:03:57Z</time>
      </trkpt>
      <trkpt lat="46.30067" lon="-0.30571">
        <ele>77.6791</ele>
        <time>2010-12-26T10:03:58Z</time>
      </trkpt>
      <trkpt lat="46.30067" lon="-0.30573">
        <ele>77.7038</ele>
        <time>2010-12-26T10:03:59Z</time>
      </trkpt>
      <trkpt lat="46.30068" lon="-0.30575">
        <ele>77.7271</ele>
        <time>2010-12-26T10:04:00Z</time>
      </trkpt>
      <trkpt lat="46.30068" lon="-0.30577">
        <ele>77.7487</ele>
        <time>2010-12-26T10:04:01Z</time>
      </trkpt>
      <trkpt lat="46.30069" lon="-0.30579">
        <ele>77.7691</ele>
        <time>2010-12-26T10:04:02Z</time>
      </trkpt>
      <trkpt lat="46.30069" lon="-0.30581">
        <ele>77.7887</ele>
        <time>2010-12-26T10:04:03Z</time>
      </trkpt>
      <trkpt lat="46.3007" lon="-0.30583">
        <ele>77.8077</ele>
        <time>2010-12-26T10:04:04Z</time>
      </trkpt>
      <trkpt lat="46.3007" lon="-0.30585">
        <ele>77.8259</ele>
        <time>2010-12-26T10:04:05Z</time>
      </trkpt>
      <trkpt lat="46.30071" lon="-0.30587">
        <ele>77.8427</ele>
        <time>2010-12-26T10:04:06Z</time>
      </trkpt>
      <trkpt lat="46.30071" lon="-0.30589">
        <ele>77.8583</ele>
        <time>2010-12-26T10:04:07Z</time>
      </trkpt>
      <trkpt lat="46.30071" lon="-0.30591">
        <ele>77.8725</ele>
        <time>2010-12-26T10:04:08Z</time>
      </trkpt>
      <trkpt lat="46.30072" lon="-0.30593">
        <ele>77.886</ele>
        <time>2010-12-26T10:04:09Z</time>
      </trkpt>
      <trkpt lat="46.30072" lon="-0.30595">
        <ele>77.8978</ele>
        <time>2010-12-26T10:04:10Z</time>
      </trkpt>
      <trkpt lat="46.30072" lon="-0.30597">
        <ele>77.9081</ele>
        <time>2010-12-26T10:04:11Z</time>
      </trkpt>
      <trkpt lat="46.30073" lon="-0.30599">
        <ele>77.917</ele>
        <time>2010-12-26T10:04:12Z</time>
      </trkpt>
      <trkpt lat="46.30073" lon="-0.30601">
        <ele>77.9238</ele>
        <time>2010-12-26T10:04:13Z</time>
      </trkpt>
      <trkpt lat="46.30074" lon="-0.30603">
        <ele>77.9298</ele>
        <time>2010-12-26T10:04:14Z</time>
      </trkpt>
      <trkpt lat="46.30074" lon="-0.30605">
        <ele>77.9348</ele>
        <time>2010-12-26T10:04:15Z</time>
      </trkpt>
      <trkpt lat="46.30074" lon="-0.30607">
        <ele>77.9386</ele>
        <time>2010-12-26T10:04:16Z</time>
      </trkpt>
      <trkpt lat="46.30075" lon="-0.3061">
        <ele>77.9384</ele>
        <time>2010-12-26T10:04:17Z</time>
      </trkpt>
      <trkpt lat="46.30075" lon="-0.30612">
        <ele>77.9342</ele>
        <time>2010-12-26T10:04:18Z</time>
      </trkpt>
      <trkpt lat="46.30076" lon="-0.30614">
        <ele>77.9291</ele>
        <time>2010-12-26T10:04:19Z</time>
      </trkpt>
      <trkpt lat="46.30076" lon="-0.30616">
        <ele>77.9232</ele>
        <time>2010-12-26T10:04:20Z</time>
      </trkpt>
      <trkpt lat="46.30076" lon="-0.30618">
        <ele>77.9165</ele>
        <time>2010-12-26T10:04:21Z</time>
      </trkpt>
      <trkpt lat="46.30076" lon="-0.3062">
        <ele>77.9097</ele>
        <time>2010-12-26T10:04:22Z</time>
      </trkpt>
      <trkpt lat="46.30077" lon="-0.30622">
        <ele>77.905</ele>
        <time>2010-12-26T10:04:23Z</time>
      </trkpt>
      <trkpt lat="46.30077" lon="-0.30624">
        <ele>77.8994</ele>
        <time>2010-12-26T10:04:24Z</time>
      </trkpt>
      <trkpt lat="46.30078" lon="-0.30626">
        <ele>77.8933</ele>
        <time>2010-12-26T10:04:25Z</time>
      </trkpt>
      <trkpt lat="46.30078" lon="-0.30628">
        <ele>77.8874</ele>
        <time>2010-12-26T10:04:26Z</time>
      </trkpt>
      <trkpt lat="46.30079" lon="-0.3063">
        <ele>77.882</ele>
        <time>2010-12-26T10:04:27Z</time>
      </trkpt>
      <trkpt lat="46.30079" lon="-0.30632">
        <ele>77.8802</ele>
        <time>2010-12-26T10:04:28Z</time>
      </trkpt>
      <trkpt lat="46.3008" lon="-0.30634">
        <ele>77.8783</ele>
        <time>2010-12-26T10:04:28Z</time>
      </trkpt>
      <trkpt lat="46.3008" lon="-0.30636">
        <ele>77.8754</ele>
        <time>2010-12-26T10:04:30Z</time>
      </trkpt>
      <trkpt lat="46.3008" lon="-0.30637">
        <ele>77.8702</ele>
        <time>2010-12-26T10:04:31Z</time>
      </trkpt>
      <trkpt lat="46.30081" lon="-0.30639">
        <ele>77.8676</ele>
        <time>2010-12-26T10:04:32Z</time>
      </trkpt>
      <trkpt lat="46.30082" lon="-0.30641">
        <ele>77.8653</ele>
        <time>2010-12-26T10:04:33Z</time>
      </trkpt>
      <trkpt lat="46.30082" lon="-0.30643">
        <ele>77.8607</ele>
        <time>2010-12-26T10:04:34Z</time>
      </trkpt>
      <trkpt lat="46.30082" lon="-0.30645">
        <ele>77.8553</ele>
        <time>2010-12-26T10:04:35Z</time>
      </trkpt>
      <trkpt lat="46.30082" lon="-0.30647">
        <ele>77.849</ele>
        <time>2010-12-26T10:04:36Z</time>
      </trkpt>
      <trkpt lat="46.30083" lon="-0.3065">
        <ele>77.843</ele>
        <time>2010-12-26T10:04:37Z</time>
      </trkpt>
      <trkpt lat="46.30083" lon="-0.30652">
        <ele>77.8362</ele>
        <time>2010-12-26T10:04:38Z</time>
      </trkpt>
      <trkpt lat="46.30083" lon="-0.30654">
        <ele>77.8281</ele>
        <time>2010-12-26T10:04:39Z</time>
      </trkpt>
      <trkpt lat="46.30084" lon="-0.30656">
        <ele>77.8244</ele>
        <time>2010-12-26T10:04:40Z</time>
      </trkpt>
      <trkpt lat="46.30084" lon="-0.30658">
        <ele>77.8202</ele>
        <time>2010-12-26T10:04:41Z</time>
      </trkpt>
      <trkpt lat="46.30084" lon="-0.3066">
        <ele>77.8156</ele>
        <time>2010-12-26T10:04:42Z</time>
      </trkpt>
      <trkpt lat="46.30085" lon="-0.30662">
        <ele>77.8093</ele>
        <time>2010-12-26T10:04:43Z</time>
      </trkpt>
      <trkpt lat="46.30085" lon="-0.30664">
        <ele>77.8007</ele>
        <time>2010-12-26T10:04:44Z</time>
      </trkpt>
      <trkpt lat="46.30086" lon="-0.30666">
        <ele>77.801</ele>
        <time>2010-12-26T10:04:45Z</time>
      </trkpt>
      <trkpt lat="46.30086" lon="-0.30668">
        <ele>77.8009</ele>
        <time>2010-12-26T10:04:46Z</time>
      </trkpt>
      <trkpt lat="46.30087" lon="-0.3067">
        <ele>77.7981</ele>
        <time>2010-12-26T10:04:47Z</time>
      </trkpt>
      <trkpt lat="46.30087" lon="-0.30672">
        <ele>77.8044</ele>
        <time>2010-12-26T10:04:48Z</time>
      </trkpt>
      <trkpt lat="46.30087" lon="-0.30674">
        <ele>77.8184</ele>
        <time>2010-12-26T10:04:49Z</time>
      </trkpt>
      <trkpt lat="46.30088" lon="-0.30676">
        <ele>77.8323</ele>
        <time>2010-12-26T10:04:50Z</time>
      </trkpt>
      <trkpt lat="46.30088" lon="-0.30678">
        <ele>77.8419</ele>
        <time>2010-12-26T10:04:51Z</time>
      </trkpt>
      <trkpt lat="46.30088" lon="-0.3068">
        <ele>77.8478</ele>
        <time>2010-12-26T10:04:52Z</time>
      </trkpt>
      <trkpt lat="46.30089" lon="-0.30683">
        <ele>77.8524</ele>
        <time>2010-12-26T10:04:53Z</time>
      </trkpt>
      <trkpt lat="46.30089" lon="-0.30685">
        <ele>77.8524</ele>
        <time>2010-12-26T10:04:54Z</time>
      </trkpt>
      <trkpt lat="46.30089" lon="-0.30687">
        <ele>77.8515</ele>
        <time>2010-12-26T10:04:55Z</time>
      </trkpt>
      <trkpt lat="46.30089" lon="-0.30689">
        <ele>77.8497</ele>
        <time>2010-12-26T10:04:56Z</time>
      </trkpt>
      <trkpt lat="46.3009" lon="-0.30691">
        <ele>77.845</ele>
        <time>2010-12-26T10:04:57Z</time>
      </trkpt>
      <trkpt lat="46.3009" lon="-0.30693">
        <ele>77.8395</ele>
        <time>2010-12-26T10:04:58Z</time>
      </trkpt>
      <trkpt lat="46.3009" lon="-0.30695">
        <ele>77.8316</ele>
        <time>2010-12-26T10:04:59Z</time>
      </trkpt>
      <trkpt lat="46.3009" lon="-0.30698">
        <ele>77.8227</ele>
        <time>2010-12-26T10:05:00Z</time>
      </trkpt>
      <trkpt lat="46.30091" lon="-0.307">
        <ele>77.8117</ele>
        <time>2010-12-26T10:05:01Z</time>
      </trkpt>
      <trkpt lat="46.30091" lon="-0.30702">
        <ele>77.8012</ele>
        <time>2010-12-26T10:05:02Z</time>
      </trkpt>
      <trkpt lat="46.30092" lon="-0.30704">
        <ele>77.791</ele>
        <time>2010-12-26T10:05:02Z</time>
      </trkpt>
      <trkpt lat="46.30092" lon="-0.30706">
        <ele>77.7813</ele>
        <time>2010-12-26T10:05:03Z</time>
      </trkpt>
      <trkpt lat="46.30092" lon="-0.30708">
        <ele>77.7718</ele>
        <time>2010-12-26T10:05:05Z</time>
      </trkpt>
      <trkpt lat="46.30093" lon="-0.30709">
        <ele>77.7625</ele>
        <time>2010-12-26T10:05:06Z</time>
      </trkpt>
      <trkpt lat="46.30093" lon="-0.30711">
        <ele>77.7532</ele>
        <time>2010-12-26T10:05:07Z</time>
      </trkpt>
      <trkpt lat="46.30093" lon="-0.30713">
        <ele>77.7457</ele>
        <time>2010-12-26T10:05:08Z</time>
      </trkpt>
      <trkpt lat="46.30094" lon="-0.30715">
        <ele>77.7378</ele>
        <time>2010-12-26T10:05:09Z</time>
      </trkpt>
      <trkpt lat="46.30095" lon="-0.30717">
        <ele>77.7333</ele>
        <time>2010-12-26T10:05:10Z</time>
      </trkpt>
      <trkpt lat="46.30095" lon="-0.30719">
        <ele>77.7318</ele>
        <time>2010-12-26T10:05:10Z</time>
      </trkpt>
      <trkpt lat="46.30096" lon="-0.3072">
        <ele>77.7317</ele>
        <time>2010-12-26T10:05:12Z</time>
      </trkpt>
      <trkpt lat="46.30096" lon="-0.30722">
        <ele>77.7355</ele>
        <time>2010-12-26T10:05:13Z</time>
      </trkpt>
      <trkpt lat="46.30096" lon="-0.30724">
        <ele>77.7399</ele>
        <time>2010-12-26T10:05:14Z</time>
      </trkpt>
      <trkpt lat="46.30097" lon="-0.30725">
        <ele>77.7488</ele>
        <time>2010-12-26T10:05:15Z</time>
      </trkpt>
      <trkpt lat="46.30098" lon="-0.30727">
        <ele>77.7561</ele>
        <time>2010-12-26T10:05:16Z</time>
      </trkpt>
      <trkpt lat="46.30098" lon="-0.30728">
        <ele>77.7666</ele>
        <time>2010-12-26T10:05:17Z</time>
      </trkpt>
      <trkpt lat="46.30098" lon="-0.3073">
        <ele>77.7762</ele>
        <time>2010-12-26T10:05:18Z</time>
      </trkpt>
      <trkpt lat="46.30099" lon="-0.30732">
        <ele>77.7888</ele>
        <time>2010-12-26T10:05:19Z</time>
      </trkpt>
      <trkpt lat="46.30099" lon="-0.30733">
        <ele>77.8025</ele>
        <time>2010-12-26T10:05:20Z</time>
      </trkpt>
      <trkpt lat="46.301" lon="-0.30735">
        <ele>77.815</ele>
        <time>2010-12-26T10:05:20Z</time>
      </trkpt>
      <trkpt lat="46.301" lon="-0.30737">
        <ele>77.8271</ele>
        <time>2010-12-26T10:05:22Z</time>
      </trkpt>
      <trkpt lat="46.301" lon="-0.30739">
        <ele>77.8388</ele>
        <time>2010-12-26T10:05:23Z</time>
      </trkpt>
      <trkpt lat="46.30101" lon="-0.30741">
        <ele>77.8499</ele>
        <time>2010-12-26T10:05:24Z</time>
      </trkpt>
      <trkpt lat="46.30101" lon="-0.30743">
        <ele>77.8608</ele>
        <time>2010-12-26T10:05:24Z</time>
      </trkpt>
      <trkpt lat="46.30101" lon="-0.30744">
        <ele>77.8721</ele>
        <time>2010-12-26T10:05:26Z</time>
      </trkpt>
      <trkpt lat="46.30102" lon="-0.30746">
        <ele>77.8833</ele>
        <time>2010-12-26T10:05:26Z</time>
      </trkpt>
      <trkpt lat="46.30102" lon="-0.30747">
        <ele>77.8941</ele>
        <time>2010-12-26T10:05:27Z</time>
      </trkpt>
      <trkpt lat="46.30102" lon="-0.30749">
        <ele>77.9002</ele>
        <time>2010-12-26T10:05:29Z</time>
      </trkpt>
      <trkpt lat="46.30103" lon="-0.30751">
        <ele>77.9014</ele>
        <time>2010-12-26T10:05:29Z</time>
      </trkpt>
      <trkpt lat="46.30103" lon="-0.30753">
        <ele>77.903</ele>
        <time>2010-12-26T10:05:30Z</time>
      </trkpt>
      <trkpt lat="46.30103" lon="-0.30755">
        <ele>77.9041</ele>
        <time>2010-12-26T10:05:31Z</time>
      </trkpt>
      <trkpt lat="46.30104" lon="-0.30757">
        <ele>77.8983</ele>
        <time>2010-12-26T10:05:32Z</time>
      </trkpt>
      <trkpt lat="46.30104" lon="-0.30759">
        <ele>77.8885</ele>
        <time>2010-12-26T10:05:33Z</time>
      </trkpt>
      <trkpt lat="46.30104" lon="-0.30761">
        <ele>77.8727</ele>
        <time>2010-12-26T10:05:34Z</time>
      </trkpt>
      <trkpt lat="46.30105" lon="-0.30763">
        <ele>77.8524</ele>
        <time>2010-12-26T10:05:35Z</time>
      </trkpt>
      <trkpt lat="46.30106" lon="-0.30765">
        <ele>77.824</ele>
        <time>2010-12-26T10:05:37Z</time>
      </trkpt>
      <trkpt lat="46.30106" lon="-0.30767">
        <ele>77.7919</ele>
        <time>2010-12-26T10:05:38Z</time>
      </trkpt>
      <trkpt lat="46.30107" lon="-0.30769">
        <ele>77.7597</ele>
        <time>2010-12-26T10:05:39Z</time>
      </trkpt>
      <trkpt lat="46.30108" lon="-0.30771">
        <ele>77.7282</ele>
        <time>2010-12-26T10:05:40Z</time>
      </trkpt>
      <trkpt lat="46.30108" lon="-0.30773">
        <ele>77.7004</ele>
        <time>2010-12-26T10:05:41Z</time>
      </trkpt>
      <trkpt lat="46.30109" lon="-0.30774">
        <ele>77.6768</ele>
        <time>2010-12-26T10:05:42Z</time>
      </trkpt>
      <trkpt lat="46.30109" lon="-0.30776">
        <ele>77.6539</ele>
        <time>2010-12-26T10:05:43Z</time>
      </trkpt>
      <trkpt lat="46.3011" lon="-0.30778">
        <ele>77.6312</ele>
        <time>2010-12-26T10:05:44Z</time>
      </trkpt>
      <trkpt lat="46.3011" lon="-0.3078">
        <ele>77.6074</ele>
        <time>2010-12-26T10:05:45Z</time>
      </trkpt>
      <trkpt lat="46.30111" lon="-0.30782">
        <ele>77.5847</ele>
        <time>2010-12-26T10:05:45Z</time>
      </trkpt>
      <trkpt lat="46.30111" lon="-0.30784">
        <ele>77.5654</ele>
        <time>2010-12-26T10:05:47Z</time>
      </trkpt>
      <trkpt lat="46.30112" lon="-0.30786">
        <ele>77.5473</ele>
        <time>2010-12-26T10:05:48Z</time>
      </trkpt>
      <trkpt lat="46.30112" lon="-0.30788">
        <ele>77.5305</ele>
        <time>2010-12-26T10:05:48Z</time>
      </trkpt>
      <trkpt lat="46.30113" lon="-0.3079">
        <ele>77.5104</ele>
        <time>2010-12-26T10:05:49Z</time>
      </trkpt>
      <trkpt lat="46.30113" lon="-0.30792">
        <ele>77.4886</ele>
        <time>2010-12-26T10:05:50Z</time>
      </trkpt>
      <trkpt lat="46.30113" lon="-0.30794">
        <ele>77.465</ele>
        <time>2010-12-26T10:05:51Z</time>
      </trkpt>
      <trkpt lat="46.30113" lon="-0.30796">
        <ele>77.438</ele>
        <time>2010-12-26T10:05:52Z</time>
      </trkpt>
      <trkpt lat="46.30114" lon="-0.30799">
        <ele>77.4092</ele>
        <time>2010-12-26T10:05:53Z</time>
      </trkpt>
      <trkpt lat="46.30114" lon="-0.30801">
        <ele>77.3781</ele>
        <time>2010-12-26T10:05:55Z</time>
      </trkpt>
      <trkpt lat="46.30114" lon="-0.30803">
        <ele>77.3462</ele>
        <time>2010-12-26T10:05:56Z</time>
      </trkpt>
      <trkpt lat="46.30114" lon="-0.30805">
        <ele>77.3177</ele>
        <time>2010-12-26T10:05:57Z</time>
      </trkpt>
      <trkpt lat="46.30115" lon="-0.30807">
        <ele>77.2929</ele>
        <time>2010-12-26T10:05:58Z</time>
      </trkpt>
      <trkpt lat="46.30116" lon="-0.3081">
        <ele>77.2641</ele>
        <time>2010-12-26T10:05:59Z</time>
      </trkpt>
      <trkpt lat="46.30116" lon="-0.30812">
        <ele>77.2389</ele>
        <time>2010-12-26T10:06:00Z</time>
      </trkpt>
      <trkpt lat="46.30117" lon="-0.30815">
        <ele>77.2159</ele>
        <time>2010-12-26T10:06:01Z</time>
      </trkpt>
      <trkpt lat="46.30117" lon="-0.30817">
        <ele>77.1937</ele>
        <time>2010-12-26T10:06:02Z</time>
      </trkpt>
      <trkpt lat="46.30117" lon="-0.3082">
        <ele>77.172</ele>
        <time>2010-12-26T10:06:03Z</time>
      </trkpt>
      <trkpt lat="46.30117" lon="-0.30823">
        <ele>77.1441</ele>
        <time>2010-12-26T10:06:04Z</time>
      </trkpt>
      <trkpt lat="46.30117" lon="-0.30825">
        <ele>77.1186</ele>
        <time>2010-12-26T10:06:05Z</time>
      </trkpt>
      <trkpt lat="46.30117" lon="-0.30827">
        <ele>77.0968</ele>
        <time>2010-12-26T10:06:05Z</time>
      </trkpt>
      <trkpt lat="46.30117" lon="-0.30829">
        <ele>77.079</ele>
        <time>2010-12-26T10:06:07Z</time>
      </trkpt>
      <trkpt lat="46.30117" lon="-0.30832">
        <ele>77.0641</ele>
        <time>2010-12-26T10:06:08Z</time>
      </trkpt>
      <trkpt lat="46.30117" lon="-0.30834">
        <ele>77.0496</ele>
        <time>2010-12-26T10:06:09Z</time>
      </trkpt>
      <trkpt lat="46.30117" lon="-0.30836">
        <ele>77.0357</ele>
        <time>2010-12-26T10:06:10Z</time>
      </trkpt>
      <trkpt lat="46.30117" lon="-0.30838">
        <ele>77.022</ele>
        <time>2010-12-26T10:06:10Z</time>
      </trkpt>
      <trkpt lat="46.30118" lon="-0.3084">
        <ele>77.0097</ele>
        <time>2010-12-26T10:06:12Z</time>
      </trkpt>
      <trkpt lat="46.30118" lon="-0.30843">
        <ele>76.9971</ele>
        <time>2010-12-26T10:06:13Z</time>
      </trkpt>
      <trkpt lat="46.30118" lon="-0.30845">
        <ele>76.9792</ele>
        <time>2010-12-26T10:06:14Z</time>
      </trkpt>
      <trkpt lat="46.30118" lon="-0.30847">
        <ele>76.9607</ele>
        <time>2010-12-26T10:06:15Z</time>
      </trkpt>
      <trkpt lat="46.30118" lon="-0.30849">
        <ele>76.9435</ele>
        <time>2010-12-26T10:06:16Z</time>
      </trkpt>
      <trkpt lat="46.30118" lon="-0.30851">
        <ele>76.9294</ele>
        <time>2010-12-26T10:06:17Z</time>
      </trkpt>
      <trkpt lat="46.30118" lon="-0.30853">
        <ele>76.9198</ele>
        <time>2010-12-26T10:06:18Z</time>
      </trkpt>
      <trkpt lat="46.30119" lon="-0.30855">
        <ele>76.9138</ele>
        <time>2010-12-26T10:06:19Z</time>
      </trkpt>
      <trkpt lat="46.30119" lon="-0.30856">
        <ele>76.9117</ele>
        <time>2010-12-26T10:06:20Z</time>
      </trkpt>
      <trkpt lat="46.30119" lon="-0.30858">
        <ele>76.9107</ele>
        <time>2010-12-26T10:06:21Z</time>
      </trkpt>
      <trkpt lat="46.3012" lon="-0.3086">
        <ele>76.9113</ele>
        <time>2010-12-26T10:06:22Z</time>
      </trkpt>
      <trkpt lat="46.3012" lon="-0.30862">
        <ele>76.9138</ele>
        <time>2010-12-26T10:06:23Z</time>
      </trkpt>
      <trkpt lat="46.30121" lon="-0.30864">
        <ele>76.9191</ele>
        <time>2010-12-26T10:06:24Z</time>
      </trkpt>
      <trkpt lat="46.30121" lon="-0.30866">
        <ele>76.9255</ele>
        <time>2010-12-26T10:06:25Z</time>
      </trkpt>
      <trkpt lat="46.30122" lon="-0.30868">
        <ele>76.9329</ele>
        <time>2010-12-26T10:06:25Z</time>
      </trkpt>
      <trkpt lat="46.30122" lon="-0.3087">
        <ele>76.9407</ele>
        <time>2010-12-26T10:06:26Z</time>
      </trkpt>
      <trkpt lat="46.30123" lon="-0.30871">
        <ele>76.9488</ele>
        <time>2010-12-26T10:06:27Z</time>
      </trkpt>
      <trkpt lat="46.30123" lon="-0.30873">
        <ele>76.959</ele>
        <time>2010-12-26T10:06:28Z</time>
      </trkpt>
      <trkpt lat="46.30124" lon="-0.30875">
        <ele>76.9695</ele>
        <time>2010-12-26T10:06:29Z</time>
      </trkpt>
      <trkpt lat="46.30124" lon="-0.30877">
        <ele>76.9846</ele>
        <time>2010-12-26T10:06:30Z</time>
      </trkpt>
      <trkpt lat="46.30125" lon="-0.30879">
        <ele>76.9997</ele>
        <time>2010-12-26T10:06:31Z</time>
      </trkpt>
      <trkpt lat="46.30126" lon="-0.3088">
        <ele>77.017</ele>
        <time>2010-12-26T10:06:32Z</time>
      </trkpt>
      <trkpt lat="46.30127" lon="-0.30882">
        <ele>77.036</ele>
        <time>2010-12-26T10:06:33Z</time>
      </trkpt>
      <trkpt lat="46.30127" lon="-0.30884">
        <ele>77.0593</ele>
        <time>2010-12-26T10:06:34Z</time>
      </trkpt>
      <trkpt lat="46.30128" lon="-0.30885">
        <ele>77.0861</ele>
        <time>2010-12-26T10:06:35Z</time>
      </trkpt>
      <trkpt lat="46.30129" lon="-0.30887">
        <ele>77.1143</ele>
        <time>2010-12-26T10:06:36Z</time>
      </trkpt>
      <trkpt lat="46.30129" lon="-0.30889">
        <ele>77.1471</ele>
        <time>2010-12-26T10:06:37Z</time>
      </trkpt>
      <trkpt lat="46.3013" lon="-0.3089">
        <ele>77.1851</ele>
        <time>2010-12-26T10:06:38Z</time>
      </trkpt>
      <trkpt lat="46.3013" lon="-0.30892">
        <ele>77.229</ele>
        <time>2010-12-26T10:06:39Z</time>
      </trkpt>
      <trkpt lat="46.30131" lon="-0.30894">
        <ele>77.2751</ele>
        <time>2010-12-26T10:06:40Z</time>
      </trkpt>
      <trkpt lat="46.30131" lon="-0.30896">
        <ele>77.3217</ele>
        <time>2010-12-26T10:06:41Z</time>
      </trkpt>
      <trkpt lat="46.30132" lon="-0.30898">
        <ele>77.369</ele>
        <time>2010-12-26T10:06:42Z</time>
      </trkpt>
      <trkpt lat="46.30132" lon="-0.30899">
        <ele>77.4174</ele>
        <time>2010-12-26T10:06:43Z</time>
      </trkpt>
      <trkpt lat="46.30133" lon="-0.30901">
        <ele>77.4641</ele>
        <time>2010-12-26T10:06:44Z</time>
      </trkpt>
      <trkpt lat="46.30133" lon="-0.30903">
        <ele>77.509</ele>
        <time>2010-12-26T10:06:45Z</time>
      </trkpt>
      <trkpt lat="46.30133" lon="-0.30905">
        <ele>77.5524</ele>
        <time>2010-12-26T10:06:46Z</time>
      </trkpt>
      <trkpt lat="46.30134" lon="-0.30907">
        <ele>77.594</ele>
        <time>2010-12-26T10:06:47Z</time>
      </trkpt>
      <trkpt lat="46.30134" lon="-0.30908">
        <ele>77.634</ele>
        <time>2010-12-26T10:06:49Z</time>
      </trkpt>
      <trkpt lat="46.30135" lon="-0.3091">
        <ele>77.6702</ele>
        <time>2010-12-26T10:06:49Z</time>
      </trkpt>
      <trkpt lat="46.30135" lon="-0.30912">
        <ele>77.705</ele>
        <time>2010-12-26T10:06:50Z</time>
      </trkpt>
      <trkpt lat="46.30136" lon="-0.30914">
        <ele>77.7385</ele>
        <time>2010-12-26T10:06:51Z</time>
      </trkpt>
      <trkpt lat="46.30136" lon="-0.30916">
        <ele>77.7385</ele>
        <time>2010-12-26T10:06:52Z</time>
      </trkpt>
      <trkpt lat="46.30137" lon="-0.30918">
        <ele>77.7685</ele>
        <time>2010-12-26T10:06:53Z</time>
      </trkpt>
      <trkpt lat="46.30137" lon="-0.30919">
        <ele>77.7953</ele>
        <time>2010-12-26T10:06:54Z</time>
      </trkpt>
      <trkpt lat="46.30137" lon="-0.30921">
        <ele>77.8258</ele>
        <time>2010-12-26T10:06:55Z</time>
      </trkpt>
      <trkpt lat="46.30137" lon="-0.30922">
        <ele>77.858</ele>
        <time>2010-12-26T10:06:56Z</time>
      </trkpt>
      <trkpt lat="46.30138" lon="-0.30924">
        <ele>77.8926</ele>
        <time>2010-12-26T10:06:57Z</time>
      </trkpt>
      <trkpt lat="46.30138" lon="-0.30926">
        <ele>77.9297</ele>
        <time>2010-12-26T10:06:58Z</time>
      </trkpt>
      <trkpt lat="46.30138" lon="-0.30928">
        <ele>77.9717</ele>
        <time>2010-12-26T10:06:59Z</time>
      </trkpt>
      <trkpt lat="46.30139" lon="-0.3093">
        <ele>78.018</ele>
        <time>2010-12-26T10:07:00Z</time>
      </trkpt>
      <trkpt lat="46.30139" lon="-0.30931">
        <ele>78.0636</ele>
        <time>2010-12-26T10:07:01Z</time>
      </trkpt>
      <trkpt lat="46.3014" lon="-0.30933">
        <ele>78.1096</ele>
        <time>2010-12-26T10:07:02Z</time>
      </trkpt>
      <trkpt lat="46.3014" lon="-0.30935">
        <ele>78.1728</ele>
        <time>2010-12-26T10:07:03Z</time>
      </trkpt>
      <trkpt lat="46.30141" lon="-0.30937">
        <ele>78.235</ele>
        <time>2010-12-26T10:07:04Z</time>
      </trkpt>
      <trkpt lat="46.30141" lon="-0.30939">
        <ele>78.2947</ele>
        <time>2010-12-26T10:07:05Z</time>
      </trkpt>
      <trkpt lat="46.30142" lon="-0.30941">
        <ele>78.3515</ele>
        <time>2010-12-26T10:07:06Z</time>
      </trkpt>
      <trkpt lat="46.30142" lon="-0.30943">
        <ele>78.4057</ele>
        <time>2010-12-26T10:07:07Z</time>
      </trkpt>
      <trkpt lat="46.30143" lon="-0.30945">
        <ele>78.4591</ele>
        <time>2010-12-26T10:07:08Z</time>
      </trkpt>
      <trkpt lat="46.30143" lon="-0.30947">
        <ele>78.5106</ele>
        <time>2010-12-26T10:07:09Z</time>
      </trkpt>
      <trkpt lat="46.30143" lon="-0.30949">
        <ele>78.5624</ele>
        <time>2010-12-26T10:07:10Z</time>
      </trkpt>
      <trkpt lat="46.30144" lon="-0.30951">
        <ele>78.6138</ele>
        <time>2010-12-26T10:07:11Z</time>
      </trkpt>
      <trkpt lat="46.30144" lon="-0.30953">
        <ele>78.6635</ele>
        <time>2010-12-26T10:07:12Z</time>
      </trkpt>
      <trkpt lat="46.30145" lon="-0.30955">
        <ele>78.7131</ele>
        <time>2010-12-26T10:07:13Z</time>
      </trkpt>
      <trkpt lat="46.30145" lon="-0.30957">
        <ele>78.7571</ele>
        <time>2010-12-26T10:07:14Z</time>
      </trkpt>
      <trkpt lat="46.30145" lon="-0.30959">
        <ele>78.7973</ele>
        <time>2010-12-26T10:07:15Z</time>
      </trkpt>
      <trkpt lat="46.30145" lon="-0.30961">
        <ele>78.8296</ele>
        <time>2010-12-26T10:07:16Z</time>
      </trkpt>
      <trkpt lat="46.30146" lon="-0.30963">
        <ele>78.8609</ele>
        <time>2010-12-26T10:07:17Z</time>
      </trkpt>
      <trkpt lat="46.30146" lon="-0.30965">
        <ele>78.891</ele>
        <time>2010-12-26T10:07:18Z</time>
      </trkpt>
      <trkpt lat="46.30146" lon="-0.30967">
        <ele>78.9207</ele>
        <time>2010-12-26T10:07:19Z</time>
      </trkpt>
      <trkpt lat="46.30147" lon="-0.30969">
        <ele>78.9486</ele>
        <time>2010-12-26T10:07:20Z</time>
      </trkpt>
      <trkpt lat="46.30147" lon="-0.30972">
        <ele>78.9786</ele>
        <time>2010-12-26T10:07:21Z</time>
      </trkpt>
      <trkpt lat="46.30148" lon="-0.30974">
        <ele>79.0175</ele>
        <time>2010-12-26T10:07:22Z</time>
      </trkpt>
      <trkpt lat="46.30148" lon="-0.30976">
        <ele>79.0571</ele>
        <time>2010-12-26T10:07:23Z</time>
      </trkpt>
      <trkpt lat="46.30149" lon="-0.30978">
        <ele>79.0968</ele>
        <time>2010-12-26T10:07:24Z</time>
      </trkpt>
      <trkpt lat="46.30149" lon="-0.3098">
        <ele>79.1359</ele>
        <time>2010-12-26T10:07:25Z</time>
      </trkpt>
      <trkpt lat="46.3015" lon="-0.30982">
        <ele>79.1749</ele>
        <time>2010-12-26T10:07:26Z</time>
      </trkpt>
      <trkpt lat="46.3015" lon="-0.30984">
        <ele>79.2124</ele>
        <time>2010-12-26T10:07:27Z</time>
      </trkpt>
      <trkpt lat="46.3015" lon="-0.30986">
        <ele>79.2438</ele>
        <time>2010-12-26T10:07:28Z</time>
      </trkpt>
      <trkpt lat="46.30151" lon="-0.30988">
        <ele>79.2712</ele>
        <time>2010-12-26T10:07:29Z</time>
      </trkpt>
      <trkpt lat="46.30151" lon="-0.3099">
        <ele>79.2963</ele>
        <time>2010-12-26T10:07:30Z</time>
      </trkpt>
      <trkpt lat="46.30151" lon="-0.30992">
        <ele>79.3191</ele>
        <time>2010-12-26T10:07:31Z</time>
      </trkpt>
      <trkpt lat="46.30152" lon="-0.30993">
        <ele>79.34</ele>
        <time>2010-12-26T10:07:32Z</time>
      </trkpt>
      <trkpt lat="46.30152" lon="-0.30995">
        <ele>79.3576</ele>
        <time>2010-12-26T10:07:33Z</time>
      </trkpt>
      <trkpt lat="46.30153" lon="-0.30997">
        <ele>79.3731</ele>
        <time>2010-12-26T10:07:34Z</time>
      </trkpt>
      <trkpt lat="46.30153" lon="-0.30999">
        <ele>79.3872</ele>
        <time>2010-12-26T10:07:35Z</time>
      </trkpt>
      <trkpt lat="46.30154" lon="-0.31001">
        <ele>79.4009</ele>
        <time>2010-12-26T10:07:36Z</time>
      </trkpt>
      <trkpt lat="46.30154" lon="-0.31003">
        <ele>79.4145</ele>
        <time>2010-12-26T10:07:37Z</time>
      </trkpt>
      <trkpt lat="46.30154" lon="-0.31006">
        <ele>79.428</ele>
        <time>2010-12-26T10:07:38Z</time>
      </trkpt>
      <trkpt lat="46.30155" lon="-0.31007">
        <ele>79.4406</ele>
        <time>2010-12-26T10:07:39Z</time>
      </trkpt>
      <trkpt lat="46.30155" lon="-0.31009">
        <ele>79.45</ele>
        <time>2010-12-26T10:07:40Z</time>
      </trkpt>
      <trkpt lat="46.30156" lon="-0.31011">
        <ele>79.4562</ele>
        <time>2010-12-26T10:07:41Z</time>
      </trkpt>
      <trkpt lat="46.30156" lon="-0.31013">
        <ele>79.4594</ele>
        <time>2010-12-26T10:07:42Z</time>
      </trkpt>
      <trkpt lat="46.30156" lon="-0.31015">
        <ele>79.4644</ele>
        <time>2010-12-26T10:07:43Z</time>
      </trkpt>
      <trkpt lat="46.30157" lon="-0.31017">
        <ele>79.4679</ele>
        <time>2010-12-26T10:07:44Z</time>
      </trkpt>
      <trkpt lat="46.30157" lon="-0.31018">
        <ele>79.4699</ele>
        <time>2010-12-26T10:07:45Z</time>
      </trkpt>
      <trkpt lat="46.30158" lon="-0.3102">
        <ele>79.4697</ele>
        <time>2010-12-26T10:07:46Z</time>
      </trkpt>
      <trkpt lat="46.30158" lon="-0.31022">
        <ele>79.4671</ele>
        <time>2010-12-26T10:07:47Z</time>
      </trkpt>
      <trkpt lat="46.30159" lon="-0.31023">
        <ele>79.4643</ele>
        <time>2010-12-26T10:07:48Z</time>
      </trkpt>
      <trkpt lat="46.30159" lon="-0.31025">
        <ele>79.4622</ele>
        <time>2010-12-26T10:07:49Z</time>
      </trkpt>
      <trkpt lat="46.30159" lon="-0.31027">
        <ele>79.4595</ele>
        <time>2010-12-26T10:07:50Z</time>
      </trkpt>
      <trkpt lat="46.3016" lon="-0.31029">
        <ele>79.456</ele>
        <time>2010-12-26T10:07:51Z</time>
      </trkpt>
      <trkpt lat="46.3016" lon="-0.3103">
        <ele>79.4515</ele>
        <time>2010-12-26T10:07:52Z</time>
      </trkpt>
      <trkpt lat="46.30161" lon="-0.31032">
        <ele>79.4457</ele>
        <time>2010-12-26T10:07:53Z</time>
      </trkpt>
      <trkpt lat="46.30161" lon="-0.31034">
        <ele>79.4387</ele>
        <time>2010-12-26T10:07:54Z</time>
      </trkpt>
      <trkpt lat="46.30161" lon="-0.31036">
        <ele>79.4325</ele>
        <time>2010-12-26T10:07:55Z</time>
      </trkpt>
      <trkpt lat="46.30162" lon="-0.31038">
        <ele>79.4267</ele>
        <time>2010-12-26T10:07:56Z</time>
      </trkpt>
      <trkpt lat="46.30162" lon="-0.3104">
        <ele>79.4208</ele>
        <time>2010-12-26T10:07:57Z</time>
      </trkpt>
      <trkpt lat="46.30163" lon="-0.31042">
        <ele>79.4165</ele>
        <time>2010-12-26T10:07:58Z</time>
      </trkpt>
      <trkpt lat="46.30163" lon="-0.31044">
        <ele>79.4161</ele>
        <time>2010-12-26T10:07:59Z</time>
      </trkpt>
      <trkpt lat="46.30164" lon="-0.31046">
        <ele>79.4181</ele>
        <time>2010-12-26T10:08:00Z</time>
      </trkpt>
      <trkpt lat="46.30164" lon="-0.31047">
        <ele>79.4213</ele>
        <time>2010-12-26T10:08:01Z</time>
      </trkpt>
      <trkpt lat="46.30165" lon="-0.31049">
        <ele>79.4252</ele>
        <time>2010-12-26T10:08:02Z</time>
      </trkpt>
      <trkpt lat="46.30165" lon="-0.31051">
        <ele>79.4296</ele>
        <time>2010-12-26T10:08:03Z</time>
      </trkpt>
      <trkpt lat="46.30166" lon="-0.31052">
        <ele>79.4349</ele>
        <time>2010-12-26T10:08:04Z</time>
      </trkpt>
      <trkpt lat="46.30166" lon="-0.31054">
        <ele>79.4408</ele>
        <time>2010-12-26T10:08:05Z</time>
      </trkpt>
      <trkpt lat="46.30166" lon="-0.31056">
        <ele>79.4496</ele>
        <time>2010-12-26T10:08:06Z</time>
      </trkpt>
      <trkpt lat="46.30167" lon="-0.31058">
        <ele>79.4574</ele>
        <time>2010-12-26T10:08:07Z</time>
      </trkpt>
      <trkpt lat="46.30167" lon="-0.31059">
        <ele>79.466</ele>
        <time>2010-12-26T10:08:08Z</time>
      </trkpt>
      <trkpt lat="46.30168" lon="-0.31061">
        <ele>79.4732</ele>
        <time>2010-12-26T10:08:09Z</time>
      </trkpt>
      <trkpt lat="46.30168" lon="-0.31063">
        <ele>79.4798</ele>
        <time>2010-12-26T10:08:10Z</time>
      </trkpt>
      <trkpt lat="46.30169" lon="-0.31064">
        <ele>79.486</ele>
        <time>2010-12-26T10:08:11Z</time>
      </trkpt>
      <trkpt lat="46.30169" lon="-0.31066">
        <ele>79.492</ele>
        <time>2010-12-26T10:08:12Z</time>
      </trkpt>
      <trkpt lat="46.30169" lon="-0.31068">
        <ele>79.4986</ele>
        <time>2010-12-26T10:08:13Z</time>
      </trkpt>
      <trkpt lat="46.3017" lon="-0.3107">
        <ele>79.5044</ele>
        <time>2010-12-26T10:08:14Z</time>
      </trkpt>
      <trkpt lat="46.3017" lon="-0.31072">
        <ele>79.5098</ele>
        <time>2010-12-26T10:08:15Z</time>
      </trkpt>
      <trkpt lat="46.3017" lon="-0.31074">
        <ele>79.5149</ele>
        <time>2010-12-26T10:08:16Z</time>
      </trkpt>
      <trkpt lat="46.30171" lon="-0.31076">
        <ele>79.5195</ele>
        <time>2010-12-26T10:08:17Z</time>
      </trkpt>
      <trkpt lat="46.30171" lon="-0.31079">
        <ele>79.5237</ele>
        <time>2010-12-26T10:08:18Z</time>
      </trkpt>
      <trkpt lat="46.30172" lon="-0.31081">
        <ele>79.5297</ele>
        <time>2010-12-26T10:08:19Z</time>
      </trkpt>
      <trkpt lat="46.30172" lon="-0.31083">
        <ele>79.5361</ele>
        <time>2010-12-26T10:08:20Z</time>
      </trkpt>
      <trkpt lat="46.30173" lon="-0.31085">
        <ele>79.5423</ele>
        <time>2010-12-26T10:08:21Z</time>
      </trkpt>
      <trkpt lat="46.30174" lon="-0.31086">
        <ele>79.5509</ele>
        <time>2010-12-26T10:08:22Z</time>
      </trkpt>
      <trkpt lat="46.30174" lon="-0.31088">
        <ele>79.5589</ele>
        <time>2010-12-26T10:08:23Z</time>
      </trkpt>
      <trkpt lat="46.30175" lon="-0.3109">
        <ele>79.567</ele>
        <time>2010-12-26T10:08:24Z</time>
      </trkpt>
      <trkpt lat="46.30175" lon="-0.31092">
        <ele>79.5718</ele>
        <time>2010-12-26T10:08:25Z</time>
      </trkpt>
      <trkpt lat="46.30175" lon="-0.31094">
        <ele>79.575</ele>
        <time>2010-12-26T10:08:26Z</time>
      </trkpt>
      <trkpt lat="46.30176" lon="-0.31096">
        <ele>79.5777</ele>
        <time>2010-12-26T10:08:27Z</time>
      </trkpt>
      <trkpt lat="46.30176" lon="-0.31098">
        <ele>79.5796</ele>
        <time>2010-12-26T10:08:28Z</time>
      </trkpt>
      <trkpt lat="46.30177" lon="-0.31101">
        <ele>79.5814</ele>
        <time>2010-12-26T10:08:29Z</time>
      </trkpt>
      <trkpt lat="46.30177" lon="-0.31103">
        <ele>79.5836</ele>
        <time>2010-12-26T10:08:30Z</time>
      </trkpt>
      <trkpt lat="46.30177" lon="-0.31105">
        <ele>79.5868</ele>
        <time>2010-12-26T10:08:31Z</time>
      </trkpt>
      <trkpt lat="46.30178" lon="-0.31107">
        <ele>79.5893</ele>
        <time>2010-12-26T10:08:32Z</time>
      </trkpt>
      <trkpt lat="46.30178" lon="-0.31109">
        <ele>79.5949</ele>
        <time>2010-12-26T10:08:33Z</time>
      </trkpt>
      <trkpt lat="46.30179" lon="-0.31111">
        <ele>79.6061</ele>
        <time>2010-12-26T10:08:34Z</time>
      </trkpt>
      <trkpt lat="46.30179" lon="-0.31113">
        <ele>79.6169</ele>
        <time>2010-12-26T10:08:35Z</time>
      </trkpt>
      <trkpt lat="46.30179" lon="-0.31115">
        <ele>79.6276</ele>
        <time>2010-12-26T10:08:36Z</time>
      </trkpt>
      <trkpt lat="46.3018" lon="-0.31117">
        <ele>79.6378</ele>
        <time>2010-12-26T10:08:37Z</time>
      </trkpt>
      <trkpt lat="46.3018" lon="-0.31119">
        <ele>79.6462</ele>
        <time>2010-12-26T10:08:38Z</time>
      </trkpt>
      <trkpt lat="46.30181" lon="-0.31121">
        <ele>79.6543</ele>
        <time>2010-12-26T10:08:39Z</time>
      </trkpt>
      <trkpt lat="46.30181" lon="-0.31123">
        <ele>79.6627</ele>
        <time>2010-12-26T10:08:40Z</time>
      </trkpt>
      <trkpt lat="46.30182" lon="-0.31125">
        <ele>79.6707</ele>
        <time>2010-12-26T10:08:41Z</time>
      </trkpt>
      <trkpt lat="46.30182" lon="-0.31127">
        <ele>79.6787</ele>
        <time>2010-12-26T10:08:42Z</time>
      </trkpt>
      <trkpt lat="46.30182" lon="-0.3113">
        <ele>79.6839</ele>
        <time>2010-12-26T10:08:43Z</time>
      </trkpt>
      <trkpt lat="46.30183" lon="-0.31132">
        <ele>79.6895</ele>
        <time>2010-12-26T10:08:44Z</time>
      </trkpt>
      <trkpt lat="46.30183" lon="-0.31133">
        <ele>79.6946</ele>
        <time>2010-12-26T10:08:45Z</time>
      </trkpt>
      <trkpt lat="46.30183" lon="-0.31135">
        <ele>79.7</ele>
        <time>2010-12-26T10:08:46Z</time>
      </trkpt>
      <trkpt lat="46.30184" lon="-0.31137">
        <ele>79.7051</ele>
        <time>2010-12-26T10:08:47Z</time>
      </trkpt>
      <trkpt lat="46.30185" lon="-0.31139">
        <ele>79.7074</ele>
        <time>2010-12-26T10:08:48Z</time>
      </trkpt>
      <trkpt lat="46.30185" lon="-0.3114">
        <ele>79.7085</ele>
        <time>2010-12-26T10:08:49Z</time>
      </trkpt>
      <trkpt lat="46.30185" lon="-0.31142">
        <ele>79.7091</ele>
        <time>2010-12-26T10:08:50Z</time>
      </trkpt>
      <trkpt lat="46.30186" lon="-0.31143">
        <ele>79.7086</ele>
        <time>2010-12-26T10:08:51Z</time>
      </trkpt>
      <trkpt lat="46.30187" lon="-0.31145">
        <ele>79.7105</ele>
        <time>2010-12-26T10:08:52Z</time>
      </trkpt>
      <trkpt lat="46.30187" lon="-0.31147">
        <ele>79.7145</ele>
        <time>2010-12-26T10:08:53Z</time>
      </trkpt>
      <trkpt lat="46.30187" lon="-0.31149">
        <ele>79.7111</ele>
        <time>2010-12-26T10:08:54Z</time>
      </trkpt>
      <trkpt lat="46.30188" lon="-0.31151">
        <ele>79.7062</ele>
        <time>2010-12-26T10:08:55Z</time>
      </trkpt>
      <trkpt lat="46.30188" lon="-0.31153">
        <ele>79.6985</ele>
        <time>2010-12-26T10:08:56Z</time>
      </trkpt>
      <trkpt lat="46.30189" lon="-0.31155">
        <ele>79.6906</ele>
        <time>2010-12-26T10:08:57Z</time>
      </trkpt>
      <trkpt lat="46.3019" lon="-0.31156">
        <ele>79.6851</ele>
        <time>2010-12-26T10:08:58Z</time>
      </trkpt>
      <trkpt lat="46.3019" lon="-0.31158">
        <ele>79.6788</ele>
        <time>2010-12-26T10:09:00Z</time>
      </trkpt>
      <trkpt lat="46.30191" lon="-0.3116">
        <ele>79.6698</ele>
        <time>2010-12-26T10:09:00Z</time>
      </trkpt>
      <trkpt lat="46.30191" lon="-0.31161">
        <ele>79.6646</ele>
        <time>2010-12-26T10:09:01Z</time>
      </trkpt>
      <trkpt lat="46.30192" lon="-0.31163">
        <ele>79.6569</ele>
        <time>2010-12-26T10:09:02Z</time>
      </trkpt>
      <trkpt lat="46.30193" lon="-0.31165">
        <ele>79.6461</ele>
        <time>2010-12-26T10:09:03Z</time>
      </trkpt>
      <trkpt lat="46.30193" lon="-0.31167">
        <ele>79.6273</ele>
        <time>2010-12-26T10:09:04Z</time>
      </trkpt>
      <trkpt lat="46.30194" lon="-0.3117">
        <ele>79.603</ele>
        <time>2010-12-26T10:09:05Z</time>
      </trkpt>
      <trkpt lat="46.30194" lon="-0.31172">
        <ele>79.5755</ele>
        <time>2010-12-26T10:09:06Z</time>
      </trkpt>
      <trkpt lat="46.30195" lon="-0.31175">
        <ele>79.5483</ele>
        <time>2010-12-26T10:09:07Z</time>
      </trkpt>
      <trkpt lat="46.30195" lon="-0.31178">
        <ele>79.5266</ele>
        <time>2010-12-26T10:09:08Z</time>
      </trkpt>
      <trkpt lat="46.30195" lon="-0.3118">
        <ele>79.5067</ele>
        <time>2010-12-26T10:09:09Z</time>
      </trkpt>
      <trkpt lat="46.30195" lon="-0.31183">
        <ele>79.4891</ele>
        <time>2010-12-26T10:09:10Z</time>
      </trkpt>
      <trkpt lat="46.30196" lon="-0.31185">
        <ele>79.4704</ele>
        <time>2010-12-26T10:09:11Z</time>
      </trkpt>
      <trkpt lat="46.30196" lon="-0.31188">
        <ele>79.4518</ele>
        <time>2010-12-26T10:09:12Z</time>
      </trkpt>
      <trkpt lat="46.30196" lon="-0.3119">
        <ele>79.4335</ele>
        <time>2010-12-26T10:09:13Z</time>
      </trkpt>
      <trkpt lat="46.30197" lon="-0.31193">
        <ele>79.4166</ele>
        <time>2010-12-26T10:09:14Z</time>
      </trkpt>
      <trkpt lat="46.30197" lon="-0.31195">
        <ele>79.3998</ele>
        <time>2010-12-26T10:09:15Z</time>
      </trkpt>
      <trkpt lat="46.30198" lon="-0.31197">
        <ele>79.3828</ele>
        <time>2010-12-26T10:09:16Z</time>
      </trkpt>
      <trkpt lat="46.30198" lon="-0.31199">
        <ele>79.3657</ele>
        <time>2010-12-26T10:09:17Z</time>
      </trkpt>
      <trkpt lat="46.30198" lon="-0.31201">
        <ele>79.3501</ele>
        <time>2010-12-26T10:09:18Z</time>
      </trkpt>
      <trkpt lat="46.30198" lon="-0.31203">
        <ele>79.3362</ele>
        <time>2010-12-26T10:09:19Z</time>
      </trkpt>
      <trkpt lat="46.30199" lon="-0.31205">
        <ele>79.3243</ele>
        <time>2010-12-26T10:09:20Z</time>
      </trkpt>
      <trkpt lat="46.30199" lon="-0.31207">
        <ele>79.3147</ele>
        <time>2010-12-26T10:09:21Z</time>
      </trkpt>
      <trkpt lat="46.30199" lon="-0.31208">
        <ele>79.3087</ele>
        <time>2010-12-26T10:09:22Z</time>
      </trkpt>
      <trkpt lat="46.30199" lon="-0.3121">
        <ele>79.3068</ele>
        <time>2010-12-26T10:09:23Z</time>
      </trkpt>
      <trkpt lat="46.302" lon="-0.31212">
        <ele>79.308</ele>
        <time>2010-12-26T10:09:24Z</time>
      </trkpt>
      <trkpt lat="46.302" lon="-0.31213">
        <ele>79.311</ele>
        <time>2010-12-26T10:09:25Z</time>
      </trkpt>
      <trkpt lat="46.30201" lon="-0.31215">
        <ele>79.3145</ele>
        <time>2010-12-26T10:09:26Z</time>
      </trkpt>
      <trkpt lat="46.30201" lon="-0.31217">
        <ele>79.3181</ele>
        <time>2010-12-26T10:09:27Z</time>
      </trkpt>
      <trkpt lat="46.30201" lon="-0.31218">
        <ele>79.3218</ele>
        <time>2010-12-26T10:09:28Z</time>
      </trkpt>
      <trkpt lat="46.30201" lon="-0.3122">
        <ele>79.3245</ele>
        <time>2010-12-26T10:09:29Z</time>
      </trkpt>
      <trkpt lat="46.30202" lon="-0.31222">
        <ele>79.3274</ele>
        <time>2010-12-26T10:09:30Z</time>
      </trkpt>
      <trkpt lat="46.30202" lon="-0.31224">
        <ele>79.3292</ele>
        <time>2010-12-26T10:09:31Z</time>
      </trkpt>
      <trkpt lat="46.30203" lon="-0.31226">
        <ele>79.3295</ele>
        <time>2010-12-26T10:09:32Z</time>
      </trkpt>
      <trkpt lat="46.30203" lon="-0.31228">
        <ele>79.3284</ele>
        <time>2010-12-26T10:09:33Z</time>
      </trkpt>
      <trkpt lat="46.30204" lon="-0.3123">
        <ele>79.3246</ele>
        <time>2010-12-26T10:09:34Z</time>
      </trkpt>
      <trkpt lat="46.30204" lon="-0.31232">
        <ele>79.3186</ele>
        <time>2010-12-26T10:09:35Z</time>
      </trkpt>
      <trkpt lat="46.30205" lon="-0.31234">
        <ele>79.3097</ele>
        <time>2010-12-26T10:09:36Z</time>
      </trkpt>
      <trkpt lat="46.30206" lon="-0.31237">
        <ele>79.299</ele>
        <time>2010-12-26T10:09:37Z</time>
      </trkpt>
      <trkpt lat="46.30206" lon="-0.31239">
        <ele>79.2846</ele>
        <time>2010-12-26T10:09:38Z</time>
      </trkpt>
      <trkpt lat="46.30207" lon="-0.31241">
        <ele>79.2669</ele>
        <time>2010-12-26T10:09:39Z</time>
      </trkpt>
      <trkpt lat="46.30207" lon="-0.31243">
        <ele>79.2453</ele>
        <time>2010-12-26T10:09:40Z</time>
      </trkpt>
      <trkpt lat="46.30208" lon="-0.31245">
        <ele>79.2209</ele>
        <time>2010-12-26T10:09:41Z</time>
      </trkpt>
      <trkpt lat="46.30209" lon="-0.31246">
        <ele>79.1942</ele>
        <time>2010-12-26T10:09:43Z</time>
      </trkpt>
      <trkpt lat="46.3021" lon="-0.31248">
        <ele>79.1677</ele>
        <time>2010-12-26T10:09:43Z</time>
      </trkpt>
      <trkpt lat="46.3021" lon="-0.3125">
        <ele>79.1404</ele>
        <time>2010-12-26T10:09:44Z</time>
      </trkpt>
      <trkpt lat="46.30211" lon="-0.31252">
        <ele>79.1129</ele>
        <time>2010-12-26T10:09:45Z</time>
      </trkpt>
      <trkpt lat="46.30211" lon="-0.31254">
        <ele>79.0853</ele>
        <time>2010-12-26T10:09:46Z</time>
      </trkpt>
      <trkpt lat="46.30212" lon="-0.31256">
        <ele>79.0583</ele>
        <time>2010-12-26T10:09:47Z</time>
      </trkpt>
      <trkpt lat="46.30212" lon="-0.31257">
        <ele>79.0311</ele>
        <time>2010-12-26T10:09:48Z</time>
      </trkpt>
      <trkpt lat="46.30213" lon="-0.31259">
        <ele>79.0038</ele>
        <time>2010-12-26T10:09:49Z</time>
      </trkpt>
      <trkpt lat="46.30214" lon="-0.3126">
        <ele>78.9774</ele>
        <time>2010-12-26T10:09:50Z</time>
      </trkpt>
      <trkpt lat="46.30214" lon="-0.31262">
        <ele>78.9524</ele>
        <time>2010-12-26T10:09:51Z</time>
      </trkpt>
      <trkpt lat="46.30215" lon="-0.31264">
        <ele>78.9284</ele>
        <time>2010-12-26T10:09:52Z</time>
      </trkpt>
      <trkpt lat="46.30216" lon="-0.31266">
        <ele>78.9045</ele>
        <time>2010-12-26T10:09:53Z</time>
      </trkpt>
      <trkpt lat="46.30216" lon="-0.31267">
        <ele>78.8805</ele>
        <time>2010-12-26T10:09:54Z</time>
      </trkpt>
      <trkpt lat="46.30217" lon="-0.31269">
        <ele>78.8553</ele>
        <time>2010-12-26T10:09:55Z</time>
      </trkpt>
      <trkpt lat="46.30217" lon="-0.31271">
        <ele>78.8305</ele>
        <time>2010-12-26T10:09:56Z</time>
      </trkpt>
      <trkpt lat="46.30218" lon="-0.31273">
        <ele>78.8056</ele>
        <time>2010-12-26T10:09:57Z</time>
      </trkpt>
      <trkpt lat="46.30218" lon="-0.31275">
        <ele>78.7808</ele>
        <time>2010-12-26T10:09:58Z</time>
      </trkpt>
      <trkpt lat="46.30219" lon="-0.31277">
        <ele>78.7566</ele>
        <time>2010-12-26T10:09:59Z</time>
      </trkpt>
      <trkpt lat="46.3022" lon="-0.31279">
        <ele>78.7328</ele>
        <time>2010-12-26T10:10:00Z</time>
      </trkpt>
      <trkpt lat="46.3022" lon="-0.31281">
        <ele>78.7093</ele>
        <time>2010-12-26T10:10:01Z</time>
      </trkpt>
      <trkpt lat="46.30221" lon="-0.31283">
        <ele>78.6865</ele>
        <time>2010-12-26T10:10:02Z</time>
      </trkpt>
      <trkpt lat="46.30221" lon="-0.31284">
        <ele>78.6641</ele>
        <time>2010-12-26T10:10:04Z</time>
      </trkpt>
      <trkpt lat="46.30222" lon="-0.31286">
        <ele>78.6421</ele>
        <time>2010-12-26T10:10:04Z</time>
      </trkpt>
      <trkpt lat="46.30222" lon="-0.31288">
        <ele>78.6205</ele>
        <time>2010-12-26T10:10:06Z</time>
      </trkpt>
      <trkpt lat="46.30223" lon="-0.3129">
        <ele>78.599</ele>
        <time>2010-12-26T10:10:06Z</time>
      </trkpt>
      <trkpt lat="46.30224" lon="-0.31291">
        <ele>78.5776</ele>
        <time>2010-12-26T10:10:07Z</time>
      </trkpt>
      <trkpt lat="46.30224" lon="-0.31293">
        <ele>78.5563</ele>
        <time>2010-12-26T10:10:09Z</time>
      </trkpt>
      <trkpt lat="46.30225" lon="-0.31295">
        <ele>78.5347</ele>
        <time>2010-12-26T10:10:10Z</time>
      </trkpt>
      <trkpt lat="46.30225" lon="-0.31297">
        <ele>78.5132</ele>
        <time>2010-12-26T10:10:10Z</time>
      </trkpt>
      <trkpt lat="46.30226" lon="-0.31299">
        <ele>78.4921</ele>
        <time>2010-12-26T10:10:11Z</time>
      </trkpt>
      <trkpt lat="46.30227" lon="-0.313">
        <ele>78.4708</ele>
        <time>2010-12-26T10:10:13Z</time>
      </trkpt>
      <trkpt lat="46.30228" lon="-0.31302">
        <ele>78.4493</ele>
        <time>2010-12-26T10:10:13Z</time>
      </trkpt>
      <trkpt lat="46.30228" lon="-0.31304">
        <ele>78.427</ele>
        <time>2010-12-26T10:10:14Z</time>
      </trkpt>
      <trkpt lat="46.30229" lon="-0.31306">
        <ele>78.404</ele>
        <time>2010-12-26T10:10:15Z</time>
      </trkpt>
      <trkpt lat="46.3023" lon="-0.31307">
        <ele>78.3813</ele>
        <time>2010-12-26T10:10:16Z</time>
      </trkpt>
      <trkpt lat="46.3023" lon="-0.31309">
        <ele>78.3587</ele>
        <time>2010-12-26T10:10:17Z</time>
      </trkpt>
      <trkpt lat="46.30231" lon="-0.31311">
        <ele>78.3367</ele>
        <time>2010-12-26T10:10:18Z</time>
      </trkpt>
      <trkpt lat="46.30232" lon="-0.31312">
        <ele>78.3152</ele>
        <time>2010-12-26T10:10:19Z</time>
      </trkpt>
      <trkpt lat="46.30232" lon="-0.31314">
        <ele>78.2946</ele>
        <time>2010-12-26T10:10:20Z</time>
      </trkpt>
      <trkpt lat="46.30233" lon="-0.31316">
        <ele>78.2737</ele>
        <time>2010-12-26T10:10:22Z</time>
      </trkpt>
      <trkpt lat="46.30233" lon="-0.31318">
        <ele>78.2533</ele>
        <time>2010-12-26T10:10:22Z</time>
      </trkpt>
      <trkpt lat="46.30234" lon="-0.31319">
        <ele>78.2328</ele>
        <time>2010-12-26T10:10:23Z</time>
      </trkpt>
      <trkpt lat="46.30235" lon="-0.31321">
        <ele>78.2122</ele>
        <time>2010-12-26T10:10:24Z</time>
      </trkpt>
      <trkpt lat="46.30235" lon="-0.31323">
        <ele>78.1915</ele>
        <time>2010-12-26T10:10:25Z</time>
      </trkpt>
      <trkpt lat="46.30236" lon="-0.31325">
        <ele>78.1711</ele>
        <time>2010-12-26T10:10:26Z</time>
      </trkpt>
      <trkpt lat="46.30237" lon="-0.31326">
        <ele>78.1507</ele>
        <time>2010-12-26T10:10:27Z</time>
      </trkpt>
      <trkpt lat="46.30238" lon="-0.31328">
        <ele>78.1306</ele>
        <time>2010-12-26T10:10:28Z</time>
      </trkpt>
      <trkpt lat="46.30238" lon="-0.3133">
        <ele>78.1107</ele>
        <time>2010-12-26T10:10:29Z</time>
      </trkpt>
      <trkpt lat="46.30239" lon="-0.31331">
        <ele>78.092</ele>
        <time>2010-12-26T10:10:30Z</time>
      </trkpt>
      <trkpt lat="46.3024" lon="-0.31333">
        <ele>78.0752</ele>
        <time>2010-12-26T10:10:31Z</time>
      </trkpt>
      <trkpt lat="46.30241" lon="-0.31335">
        <ele>78.0604</ele>
        <time>2010-12-26T10:10:32Z</time>
      </trkpt>
      <trkpt lat="46.30241" lon="-0.31336">
        <ele>78.0484</ele>
        <time>2010-12-26T10:10:33Z</time>
      </trkpt>
      <trkpt lat="46.30242" lon="-0.31338">
        <ele>78.0388</ele>
        <time>2010-12-26T10:10:34Z</time>
      </trkpt>
      <trkpt lat="46.30243" lon="-0.3134">
        <ele>78.0314</ele>
        <time>2010-12-26T10:10:35Z</time>
      </trkpt>
      <trkpt lat="46.30244" lon="-0.31341">
        <ele>78.0241</ele>
        <time>2010-12-26T10:10:36Z</time>
      </trkpt>
      <trkpt lat="46.30244" lon="-0.31343">
        <ele>78.0184</ele>
        <time>2010-12-26T10:10:37Z</time>
      </trkpt>
      <trkpt lat="46.30245" lon="-0.31345">
        <ele>78.015</ele>
        <time>2010-12-26T10:10:38Z</time>
      </trkpt>
      <trkpt lat="46.30246" lon="-0.31346">
        <ele>78.0138</ele>
        <time>2010-12-26T10:10:39Z</time>
      </trkpt>
      <trkpt lat="46.30247" lon="-0.31348">
        <ele>78.0141</ele>
        <time>2010-12-26T10:10:40Z</time>
      </trkpt>
      <trkpt lat="46.30248" lon="-0.3135">
        <ele>78.0151</ele>
        <time>2010-12-26T10:10:41Z</time>
      </trkpt>
      <trkpt lat="46.30249" lon="-0.31351">
        <ele>78.0167</ele>
        <time>2010-12-26T10:10:42Z</time>
      </trkpt>
      <trkpt lat="46.30249" lon="-0.31352">
        <ele>78.0191</ele>
        <time>2010-12-26T10:10:44Z</time>
      </trkpt>
      <trkpt lat="46.3025" lon="-0.31354">
        <ele>78.0218</ele>
        <time>2010-12-26T10:10:44Z</time>
      </trkpt>
      <trkpt lat="46.30251" lon="-0.31355">
        <ele>78.0147</ele>
        <time>2010-12-26T10:10:45Z</time>
      </trkpt>
      <trkpt lat="46.30251" lon="-0.31357">
        <ele>77.993</ele>
        <time>2010-12-26T10:10:47Z</time>
      </trkpt>
      <trkpt lat="46.30252" lon="-0.31359">
        <ele>77.9637</ele>
        <time>2010-12-26T10:10:47Z</time>
      </trkpt>
      <trkpt lat="46.30252" lon="-0.3136">
        <ele>77.9637</ele>
        <time>2010-12-26T10:10:48Z</time>
      </trkpt>
      <trkpt lat="46.30253" lon="-0.31362">
        <ele>77.9158</ele>
        <time>2010-12-26T10:10:49Z</time>
      </trkpt>
      <trkpt lat="46.30254" lon="-0.31364">
        <ele>77.8733</ele>
        <time>2010-12-26T10:10:50Z</time>
      </trkpt>
      <trkpt lat="46.30254" lon="-0.31366">
        <ele>77.8331</ele>
        <time>2010-12-26T10:10:51Z</time>
      </trkpt>
      <trkpt lat="46.30255" lon="-0.31368">
        <ele>77.7972</ele>
        <time>2010-12-26T10:10:52Z</time>
      </trkpt>
      <trkpt lat="46.30256" lon="-0.31371">
        <ele>77.7641</ele>
        <time>2010-12-26T10:10:53Z</time>
      </trkpt>
      <trkpt lat="46.30256" lon="-0.31373">
        <ele>77.7345</ele>
        <time>2010-12-26T10:10:54Z</time>
      </trkpt>
      <trkpt lat="46.30257" lon="-0.31375">
        <ele>77.7094</ele>
        <time>2010-12-26T10:10:55Z</time>
      </trkpt>
      <trkpt lat="46.30257" lon="-0.31377">
        <ele>77.6869</ele>
        <time>2010-12-26T10:10:56Z</time>
      </trkpt>
      <trkpt lat="46.30258" lon="-0.31379">
        <ele>77.6669</ele>
        <time>2010-12-26T10:10:57Z</time>
      </trkpt>
      <trkpt lat="46.30258" lon="-0.31381">
        <ele>77.6468</ele>
        <time>2010-12-26T10:10:58Z</time>
      </trkpt>
      <trkpt lat="46.30259" lon="-0.31383">
        <ele>77.6282</ele>
        <time>2010-12-26T10:10:59Z</time>
      </trkpt>
      <trkpt lat="46.30259" lon="-0.31385">
        <ele>77.6115</ele>
        <time>2010-12-26T10:11:00Z</time>
      </trkpt>
      <trkpt lat="46.3026" lon="-0.31387">
        <ele>77.5961</ele>
        <time>2010-12-26T10:11:01Z</time>
      </trkpt>
      <trkpt lat="46.3026" lon="-0.31389">
        <ele>77.5819</ele>
        <time>2010-12-26T10:11:02Z</time>
      </trkpt>
      <trkpt lat="46.30261" lon="-0.3139">
        <ele>77.5696</ele>
        <time>2010-12-26T10:11:03Z</time>
      </trkpt>
      <trkpt lat="46.30261" lon="-0.31392">
        <ele>77.5574</ele>
        <time>2010-12-26T10:11:05Z</time>
      </trkpt>
      <trkpt lat="46.30262" lon="-0.31394">
        <ele>77.5457</ele>
        <time>2010-12-26T10:11:05Z</time>
      </trkpt>
      <trkpt lat="46.30263" lon="-0.31395">
        <ele>77.5324</ele>
        <time>2010-12-26T10:11:06Z</time>
      </trkpt>
      <trkpt lat="46.30263" lon="-0.31397">
        <ele>77.5169</ele>
        <time>2010-12-26T10:11:07Z</time>
      </trkpt>
      <trkpt lat="46.30264" lon="-0.31398">
        <ele>77.5008</ele>
        <time>2010-12-26T10:11:08Z</time>
      </trkpt>
      <trkpt lat="46.30264" lon="-0.314">
        <ele>77.4847</ele>
        <time>2010-12-26T10:11:09Z</time>
      </trkpt>
      <trkpt lat="46.30265" lon="-0.31402">
        <ele>77.4689</ele>
        <time>2010-12-26T10:11:10Z</time>
      </trkpt>
      <trkpt lat="46.30266" lon="-0.31404">
        <ele>77.4531</ele>
        <time>2010-12-26T10:11:11Z</time>
      </trkpt>
      <trkpt lat="46.30267" lon="-0.31406">
        <ele>77.4378</ele>
        <time>2010-12-26T10:11:13Z</time>
      </trkpt>
      <trkpt lat="46.30267" lon="-0.31407">
        <ele>77.4223</ele>
        <time>2010-12-26T10:11:13Z</time>
      </trkpt>
      <trkpt lat="46.30268" lon="-0.31409">
        <ele>77.4079</ele>
        <time>2010-12-26T10:11:14Z</time>
      </trkpt>
      <trkpt lat="46.30269" lon="-0.31411">
        <ele>77.3948</ele>
        <time>2010-12-26T10:11:15Z</time>
      </trkpt>
      <trkpt lat="46.30269" lon="-0.31413">
        <ele>77.3828</ele>
        <time>2010-12-26T10:11:16Z</time>
      </trkpt>
      <trkpt lat="46.3027" lon="-0.31415">
        <ele>77.3727</ele>
        <time>2010-12-26T10:11:17Z</time>
      </trkpt>
      <trkpt lat="46.30271" lon="-0.31416">
        <ele>77.3645</ele>
        <time>2010-12-26T10:11:18Z</time>
      </trkpt>
      <trkpt lat="46.30272" lon="-0.31418">
        <ele>77.3573</ele>
        <time>2010-12-26T10:11:19Z</time>
      </trkpt>
      <trkpt lat="46.30272" lon="-0.3142">
        <ele>77.3518</ele>
        <time>2010-12-26T10:11:20Z</time>
      </trkpt>
      <trkpt lat="46.30273" lon="-0.31422">
        <ele>77.3483</ele>
        <time>2010-12-26T10:11:21Z</time>
      </trkpt>
      <trkpt lat="46.30274" lon="-0.31423">
        <ele>77.346</ele>
        <time>2010-12-26T10:11:22Z</time>
      </trkpt>
      <trkpt lat="46.30274" lon="-0.31425">
        <ele>77.3447</ele>
        <time>2010-12-26T10:11:23Z</time>
      </trkpt>
      <trkpt lat="46.30275" lon="-0.31427">
        <ele>77.3459</ele>
        <time>2010-12-26T10:11:24Z</time>
      </trkpt>
      <trkpt lat="46.30275" lon="-0.31428">
        <ele>77.3479</ele>
        <time>2010-12-26T10:11:25Z</time>
      </trkpt>
      <trkpt lat="46.30276" lon="-0.3143">
        <ele>77.3514</ele>
        <time>2010-12-26T10:11:26Z</time>
      </trkpt>
      <trkpt lat="46.30277" lon="-0.31432">
        <ele>77.3557</ele>
        <time>2010-12-26T10:11:27Z</time>
      </trkpt>
      <trkpt lat="46.30277" lon="-0.31434">
        <ele>77.3602</ele>
        <time>2010-12-26T10:11:28Z</time>
      </trkpt>
      <trkpt lat="46.30278" lon="-0.31436">
        <ele>77.3649</ele>
        <time>2010-12-26T10:11:29Z</time>
      </trkpt>
      <trkpt lat="46.30278" lon="-0.31438">
        <ele>77.3694</ele>
        <time>2010-12-26T10:11:30Z</time>
      </trkpt>
      <trkpt lat="46.30279" lon="-0.3144">
        <ele>77.3733</ele>
        <time>2010-12-26T10:11:31Z</time>
      </trkpt>
      <trkpt lat="46.3028" lon="-0.31442">
        <ele>77.3774</ele>
        <time>2010-12-26T10:11:32Z</time>
      </trkpt>
      <trkpt lat="46.3028" lon="-0.31444">
        <ele>77.3822</ele>
        <time>2010-12-26T10:11:33Z</time>
      </trkpt>
      <trkpt lat="46.30281" lon="-0.31445">
        <ele>77.3866</ele>
        <time>2010-12-26T10:11:34Z</time>
      </trkpt>
      <trkpt lat="46.30281" lon="-0.31447">
        <ele>77.3905</ele>
        <time>2010-12-26T10:11:35Z</time>
      </trkpt>
      <trkpt lat="46.30282" lon="-0.31449">
        <ele>77.3948</ele>
        <time>2010-12-26T10:11:36Z</time>
      </trkpt>
      <trkpt lat="46.30283" lon="-0.31451">
        <ele>77.4019</ele>
        <time>2010-12-26T10:11:37Z</time>
      </trkpt>
      <trkpt lat="46.30283" lon="-0.31453">
        <ele>77.4113</ele>
        <time>2010-12-26T10:11:38Z</time>
      </trkpt>
      <trkpt lat="46.30283" lon="-0.31455">
        <ele>77.4201</ele>
        <time>2010-12-26T10:11:39Z</time>
      </trkpt>
      <trkpt lat="46.30284" lon="-0.31457">
        <ele>77.428</ele>
        <time>2010-12-26T10:11:40Z</time>
      </trkpt>
      <trkpt lat="46.30284" lon="-0.31459">
        <ele>77.4351</ele>
        <time>2010-12-26T10:11:41Z</time>
      </trkpt>
      <trkpt lat="46.30285" lon="-0.31461">
        <ele>77.4409</ele>
        <time>2010-12-26T10:11:42Z</time>
      </trkpt>
      <trkpt lat="46.30285" lon="-0.31463">
        <ele>77.4468</ele>
        <time>2010-12-26T10:11:43Z</time>
      </trkpt>
      <trkpt lat="46.30286" lon="-0.31464">
        <ele>77.4527</ele>
        <time>2010-12-26T10:11:44Z</time>
      </trkpt>
      <trkpt lat="46.30286" lon="-0.31467">
        <ele>77.4604</ele>
        <time>2010-12-26T10:11:45Z</time>
      </trkpt>
      <trkpt lat="46.30287" lon="-0.31469">
        <ele>77.4686</ele>
        <time>2010-12-26T10:11:46Z</time>
      </trkpt>
      <trkpt lat="46.30288" lon="-0.31471">
        <ele>77.4777</ele>
        <time>2010-12-26T10:11:47Z</time>
      </trkpt>
      <trkpt lat="46.30288" lon="-0.31472">
        <ele>77.4885</ele>
        <time>2010-12-26T10:11:48Z</time>
      </trkpt>
      <trkpt lat="46.30289" lon="-0.31474">
        <ele>77.5008</ele>
        <time>2010-12-26T10:11:49Z</time>
      </trkpt>
      <trkpt lat="46.3029" lon="-0.31477">
        <ele>77.5129</ele>
        <time>2010-12-26T10:11:50Z</time>
      </trkpt>
      <trkpt lat="46.3029" lon="-0.31479">
        <ele>77.5262</ele>
        <time>2010-12-26T10:11:51Z</time>
      </trkpt>
      <trkpt lat="46.30291" lon="-0.31481">
        <ele>77.5397</ele>
        <time>2010-12-26T10:11:53Z</time>
      </trkpt>
      <trkpt lat="46.30292" lon="-0.31483">
        <ele>77.5544</ele>
        <time>2010-12-26T10:11:53Z</time>
      </trkpt>
      <trkpt lat="46.30292" lon="-0.31486">
        <ele>77.5702</ele>
        <time>2010-12-26T10:11:54Z</time>
      </trkpt>
      <trkpt lat="46.30293" lon="-0.31488">
        <ele>77.5858</ele>
        <time>2010-12-26T10:11:55Z</time>
      </trkpt>
      <trkpt lat="46.30293" lon="-0.3149">
        <ele>77.6006</ele>
        <time>2010-12-26T10:11:56Z</time>
      </trkpt>
      <trkpt lat="46.30294" lon="-0.31493">
        <ele>77.6144</ele>
        <time>2010-12-26T10:11:58Z</time>
      </trkpt>
      <trkpt lat="46.30294" lon="-0.31495">
        <ele>77.6296</ele>
        <time>2010-12-26T10:11:58Z</time>
      </trkpt>
      <trkpt lat="46.30295" lon="-0.31497">
        <ele>77.6451</ele>
        <time>2010-12-26T10:11:59Z</time>
      </trkpt>
      <trkpt lat="46.30295" lon="-0.31499">
        <ele>77.6602</ele>
        <time>2010-12-26T10:12:00Z</time>
      </trkpt>
      <trkpt lat="46.30296" lon="-0.31501">
        <ele>77.672</ele>
        <time>2010-12-26T10:12:02Z</time>
      </trkpt>
      <trkpt lat="46.30296" lon="-0.31503">
        <ele>77.6832</ele>
        <time>2010-12-26T10:12:02Z</time>
      </trkpt>
      <trkpt lat="46.30297" lon="-0.31505">
        <ele>77.6945</ele>
        <time>2010-12-26T10:12:03Z</time>
      </trkpt>
      <trkpt lat="46.30298" lon="-0.31506">
        <ele>77.7055</ele>
        <time>2010-12-26T10:12:04Z</time>
      </trkpt>
      <trkpt lat="46.30298" lon="-0.31508">
        <ele>77.7173</ele>
        <time>2010-12-26T10:12:05Z</time>
      </trkpt>
      <trkpt lat="46.30299" lon="-0.3151">
        <ele>77.7287</ele>
        <time>2010-12-26T10:12:06Z</time>
      </trkpt>
      <trkpt lat="46.30299" lon="-0.31512">
        <ele>77.7398</ele>
        <time>2010-12-26T10:12:07Z</time>
      </trkpt>
      <trkpt lat="46.303" lon="-0.31513">
        <ele>77.7497</ele>
        <time>2010-12-26T10:12:08Z</time>
      </trkpt>
      <trkpt lat="46.30301" lon="-0.31515">
        <ele>77.7587</ele>
        <time>2010-12-26T10:12:09Z</time>
      </trkpt>
      <trkpt lat="46.30301" lon="-0.31516">
        <ele>77.7663</ele>
        <time>2010-12-26T10:12:10Z</time>
      </trkpt>
      <trkpt lat="46.30302" lon="-0.31518">
        <ele>77.7733</ele>
        <time>2010-12-26T10:12:11Z</time>
      </trkpt>
      <trkpt lat="46.30302" lon="-0.3152">
        <ele>77.7792</ele>
        <time>2010-12-26T10:12:12Z</time>
      </trkpt>
      <trkpt lat="46.30303" lon="-0.31521">
        <ele>77.7848</ele>
        <time>2010-12-26T10:12:14Z</time>
      </trkpt>
      <trkpt lat="46.30304" lon="-0.31523">
        <ele>77.7904</ele>
        <time>2010-12-26T10:12:14Z</time>
      </trkpt>
      <trkpt lat="46.30304" lon="-0.31524">
        <ele>77.7966</ele>
        <time>2010-12-26T10:12:15Z</time>
      </trkpt>
      <trkpt lat="46.30305" lon="-0.31526">
        <ele>77.8027</ele>
        <time>2010-12-26T10:12:16Z</time>
      </trkpt>
      <trkpt lat="46.30306" lon="-0.31528">
        <ele>77.809</ele>
        <time>2010-12-26T10:12:17Z</time>
      </trkpt>
      <trkpt lat="46.30307" lon="-0.31529">
        <ele>77.8143</ele>
        <time>2010-12-26T10:12:19Z</time>
      </trkpt>
      <trkpt lat="46.30307" lon="-0.31531">
        <ele>77.8193</ele>
        <time>2010-12-26T10:12:19Z</time>
      </trkpt>
      <trkpt lat="46.30308" lon="-0.31533">
        <ele>77.8241</ele>
        <time>2010-12-26T10:12:20Z</time>
      </trkpt>
      <trkpt lat="46.30309" lon="-0.31535">
        <ele>77.8293</ele>
        <time>2010-12-26T10:12:21Z</time>
      </trkpt>
      <trkpt lat="46.30309" lon="-0.31537">
        <ele>77.8337</ele>
        <time>2010-12-26T10:12:22Z</time>
      </trkpt>
      <trkpt lat="46.3031" lon="-0.31539">
        <ele>77.8377</ele>
        <time>2010-12-26T10:12:23Z</time>
      </trkpt>
      <trkpt lat="46.3031" lon="-0.3154">
        <ele>77.8417</ele>
        <time>2010-12-26T10:12:24Z</time>
      </trkpt>
      <trkpt lat="46.3031" lon="-0.31542">
        <ele>77.8448</ele>
        <time>2010-12-26T10:12:25Z</time>
      </trkpt>
      <trkpt lat="46.3031" lon="-0.31544">
        <ele>77.8474</ele>
        <time>2010-12-26T10:12:26Z</time>
      </trkpt>
      <trkpt lat="46.3031" lon="-0.31546">
        <ele>77.8497</ele>
        <time>2010-12-26T10:12:27Z</time>
      </trkpt>
      <trkpt lat="46.3031" lon="-0.31547">
        <ele>77.8526</ele>
        <time>2010-12-26T10:12:28Z</time>
      </trkpt>
      <trkpt lat="46.30309" lon="-0.31549">
        <ele>77.8559</ele>
        <time>2010-12-26T10:12:29Z</time>
      </trkpt>
      <trkpt lat="46.30309" lon="-0.31551">
        <ele>77.8597</ele>
        <time>2010-12-26T10:12:31Z</time>
      </trkpt>
      <trkpt lat="46.30308" lon="-0.31553">
        <ele>77.8626</ele>
        <time>2010-12-26T10:12:31Z</time>
      </trkpt>
      <trkpt lat="46.30307" lon="-0.31555">
        <ele>77.8652</ele>
        <time>2010-12-26T10:12:32Z</time>
      </trkpt>
      <trkpt lat="46.30307" lon="-0.31556">
        <ele>77.869</ele>
        <time>2010-12-26T10:12:33Z</time>
      </trkpt>
      <trkpt lat="46.30306" lon="-0.31558">
        <ele>77.8722</ele>
        <time>2010-12-26T10:12:34Z</time>
      </trkpt>
      <trkpt lat="46.30306" lon="-0.3156">
        <ele>77.8754</ele>
        <time>2010-12-26T10:12:35Z</time>
      </trkpt>
      <trkpt lat="46.30306" lon="-0.31562">
        <ele>77.8779</ele>
        <time>2010-12-26T10:12:36Z</time>
      </trkpt>
      <trkpt lat="46.30306" lon="-0.31564">
        <ele>77.878</ele>
        <time>2010-12-26T10:12:37Z</time>
      </trkpt>
      <trkpt lat="46.30306" lon="-0.31565">
        <ele>77.8756</ele>
        <time>2010-12-26T10:12:38Z</time>
      </trkpt>
      <trkpt lat="46.30305" lon="-0.31567">
        <ele>77.8689</ele>
        <time>2010-12-26T10:12:39Z</time>
      </trkpt>
      <trkpt lat="46.30305" lon="-0.31569">
        <ele>77.8593</ele>
        <time>2010-12-26T10:12:40Z</time>
      </trkpt>
      <trkpt lat="46.30305" lon="-0.31571">
        <ele>77.8467</ele>
        <time>2010-12-26T10:12:41Z</time>
      </trkpt>
      <trkpt lat="46.30305" lon="-0.31573">
        <ele>77.8324</ele>
        <time>2010-12-26T10:12:42Z</time>
      </trkpt>
      <trkpt lat="46.30306" lon="-0.31575">
        <ele>77.8167</ele>
        <time>2010-12-26T10:12:43Z</time>
      </trkpt>
      <trkpt lat="46.30306" lon="-0.31577">
        <ele>77.7993</ele>
        <time>2010-12-26T10:12:44Z</time>
      </trkpt>
      <trkpt lat="46.30306" lon="-0.31579">
        <ele>77.781</ele>
        <time>2010-12-26T10:12:45Z</time>
      </trkpt>
      <trkpt lat="46.30307" lon="-0.31581">
        <ele>77.7611</ele>
        <time>2010-12-26T10:12:46Z</time>
      </trkpt>
      <trkpt lat="46.30307" lon="-0.31583">
        <ele>77.74</ele>
        <time>2010-12-26T10:12:47Z</time>
      </trkpt>
      <trkpt lat="46.30308" lon="-0.31586">
        <ele>77.7194</ele>
        <time>2010-12-26T10:12:48Z</time>
      </trkpt>
      <trkpt lat="46.30308" lon="-0.31588">
        <ele>77.7001</ele>
        <time>2010-12-26T10:12:49Z</time>
      </trkpt>
      <trkpt lat="46.30308" lon="-0.3159">
        <ele>77.6824</ele>
        <time>2010-12-26T10:12:50Z</time>
      </trkpt>
      <trkpt lat="46.30309" lon="-0.31592">
        <ele>77.6647</ele>
        <time>2010-12-26T10:12:51Z</time>
      </trkpt>
      <trkpt lat="46.30309" lon="-0.31594">
        <ele>77.6454</ele>
        <time>2010-12-26T10:12:52Z</time>
      </trkpt>
      <trkpt lat="46.30309" lon="-0.31596">
        <ele>77.6254</ele>
        <time>2010-12-26T10:12:54Z</time>
      </trkpt>
      <trkpt lat="46.30309" lon="-0.31599">
        <ele>77.6031</ele>
        <time>2010-12-26T10:12:54Z</time>
      </trkpt>
      <trkpt lat="46.3031" lon="-0.31601">
        <ele>77.5791</ele>
        <time>2010-12-26T10:12:55Z</time>
      </trkpt>
      <trkpt lat="46.3031" lon="-0.31603">
        <ele>77.5555</ele>
        <time>2010-12-26T10:12:56Z</time>
      </trkpt>
      <trkpt lat="46.3031" lon="-0.31605">
        <ele>77.5323</ele>
        <time>2010-12-26T10:12:57Z</time>
      </trkpt>
      <trkpt lat="46.30311" lon="-0.31607">
        <ele>77.5092</ele>
        <time>2010-12-26T10:12:58Z</time>
      </trkpt>
      <trkpt lat="46.30311" lon="-0.31609">
        <ele>77.4872</ele>
        <time>2010-12-26T10:12:59Z</time>
      </trkpt>
      <trkpt lat="46.30312" lon="-0.31612">
        <ele>77.4659</ele>
        <time>2010-12-26T10:13:00Z</time>
      </trkpt>
      <trkpt lat="46.30312" lon="-0.31614">
        <ele>77.4447</ele>
        <time>2010-12-26T10:13:01Z</time>
      </trkpt>
      <trkpt lat="46.30312" lon="-0.31616">
        <ele>77.4237</ele>
        <time>2010-12-26T10:13:02Z</time>
      </trkpt>
      <trkpt lat="46.30312" lon="-0.31618">
        <ele>77.4032</ele>
        <time>2010-12-26T10:13:03Z</time>
      </trkpt>
      <trkpt lat="46.30313" lon="-0.3162">
        <ele>77.3827</ele>
        <time>2010-12-26T10:13:04Z</time>
      </trkpt>
      <trkpt lat="46.30313" lon="-0.31622">
        <ele>77.3631</ele>
        <time>2010-12-26T10:13:05Z</time>
      </trkpt>
      <trkpt lat="46.30314" lon="-0.31623">
        <ele>77.3445</ele>
        <time>2010-12-26T10:13:06Z</time>
      </trkpt>
      <trkpt lat="46.30314" lon="-0.31625">
        <ele>77.3268</ele>
        <time>2010-12-26T10:13:07Z</time>
      </trkpt>
      <trkpt lat="46.30314" lon="-0.31627">
        <ele>77.3104</ele>
        <time>2010-12-26T10:13:08Z</time>
      </trkpt>
      <trkpt lat="46.30314" lon="-0.31629">
        <ele>77.2955</ele>
        <time>2010-12-26T10:13:09Z</time>
      </trkpt>
      <trkpt lat="46.30315" lon="-0.31631">
        <ele>77.2816</ele>
        <time>2010-12-26T10:13:10Z</time>
      </trkpt>
      <trkpt lat="46.30315" lon="-0.31633">
        <ele>77.2683</ele>
        <time>2010-12-26T10:13:11Z</time>
      </trkpt>
      <trkpt lat="46.30316" lon="-0.31635">
        <ele>77.2541</ele>
        <time>2010-12-26T10:13:12Z</time>
      </trkpt>
      <trkpt lat="46.30316" lon="-0.31636">
        <ele>77.2419</ele>
        <time>2010-12-26T10:13:13Z</time>
      </trkpt>
      <trkpt lat="46.30317" lon="-0.31638">
        <ele>77.2356</ele>
        <time>2010-12-26T10:13:15Z</time>
      </trkpt>
      <trkpt lat="46.30317" lon="-0.31639">
        <ele>77.2289</ele>
        <time>2010-12-26T10:13:15Z</time>
      </trkpt>
      <trkpt lat="46.30317" lon="-0.31641">
        <ele>77.2237</ele>
        <time>2010-12-26T10:13:16Z</time>
      </trkpt>
      <trkpt lat="46.30318" lon="-0.31643">
        <ele>77.219</ele>
        <time>2010-12-26T10:13:18Z</time>
      </trkpt>
      <trkpt lat="46.30318" lon="-0.31644">
        <ele>77.219</ele>
        <time>2010-12-26T10:13:18Z</time>
      </trkpt>
      <trkpt lat="46.30319" lon="-0.31647">
        <ele>77.2144</ele>
        <time>2010-12-26T10:13:19Z</time>
      </trkpt>
      <trkpt lat="46.30319" lon="-0.31649">
        <ele>77.1987</ele>
        <time>2010-12-26T10:13:20Z</time>
      </trkpt>
      <trkpt lat="46.30319" lon="-0.31651">
        <ele>77.1785</ele>
        <time>2010-12-26T10:13:21Z</time>
      </trkpt>
      <trkpt lat="46.3032" lon="-0.31653">
        <ele>77.1584</ele>
        <time>2010-12-26T10:13:22Z</time>
      </trkpt>
      <trkpt lat="46.3032" lon="-0.31655">
        <ele>77.1379</ele>
        <time>2010-12-26T10:13:23Z</time>
      </trkpt>
      <trkpt lat="46.3032" lon="-0.31657">
        <ele>77.116</ele>
        <time>2010-12-26T10:13:24Z</time>
      </trkpt>
      <trkpt lat="46.30321" lon="-0.31659">
        <ele>77.0929</ele>
        <time>2010-12-26T10:13:26Z</time>
      </trkpt>
      <trkpt lat="46.30321" lon="-0.31661">
        <ele>77.0704</ele>
        <time>2010-12-26T10:13:26Z</time>
      </trkpt>
      <trkpt lat="46.30322" lon="-0.31663">
        <ele>77.0464</ele>
        <time>2010-12-26T10:13:27Z</time>
      </trkpt>
      <trkpt lat="46.30322" lon="-0.31664">
        <ele>77.021</ele>
        <time>2010-12-26T10:13:28Z</time>
      </trkpt>
      <trkpt lat="46.30322" lon="-0.31666">
        <ele>76.9947</ele>
        <time>2010-12-26T10:13:29Z</time>
      </trkpt>
      <trkpt lat="46.30323" lon="-0.31669">
        <ele>76.9665</ele>
        <time>2010-12-26T10:13:30Z</time>
      </trkpt>
      <trkpt lat="46.30323" lon="-0.31671">
        <ele>76.9387</ele>
        <time>2010-12-26T10:13:31Z</time>
      </trkpt>
      <trkpt lat="46.30324" lon="-0.31673">
        <ele>76.9127</ele>
        <time>2010-12-26T10:13:32Z</time>
      </trkpt>
      <trkpt lat="46.30324" lon="-0.31675">
        <ele>76.8883</ele>
        <time>2010-12-26T10:13:33Z</time>
      </trkpt>
      <trkpt lat="46.30324" lon="-0.31677">
        <ele>76.8666</ele>
        <time>2010-12-26T10:13:34Z</time>
      </trkpt>
      <trkpt lat="46.30325" lon="-0.31679">
        <ele>76.8495</ele>
        <time>2010-12-26T10:13:35Z</time>
      </trkpt>
      <trkpt lat="46.30325" lon="-0.31681">
        <ele>76.837</ele>
        <time>2010-12-26T10:13:36Z</time>
      </trkpt>
      <trkpt lat="46.30326" lon="-0.31683">
        <ele>76.8264</ele>
        <time>2010-12-26T10:13:37Z</time>
      </trkpt>
      <trkpt lat="46.30326" lon="-0.31685">
        <ele>76.8161</ele>
        <time>2010-12-26T10:13:38Z</time>
      </trkpt>
      <trkpt lat="46.30327" lon="-0.31687">
        <ele>76.8064</ele>
        <time>2010-12-26T10:13:40Z</time>
      </trkpt>
      <trkpt lat="46.30327" lon="-0.31688">
        <ele>76.7982</ele>
        <time>2010-12-26T10:13:40Z</time>
      </trkpt>
      <trkpt lat="46.30327" lon="-0.3169">
        <ele>76.7913</ele>
        <time>2010-12-26T10:13:41Z</time>
      </trkpt>
      <trkpt lat="46.30328" lon="-0.31692">
        <ele>76.785</ele>
        <time>2010-12-26T10:13:42Z</time>
      </trkpt>
      <trkpt lat="46.30328" lon="-0.31694">
        <ele>76.7793</ele>
        <time>2010-12-26T10:13:43Z</time>
      </trkpt>
      <trkpt lat="46.30329" lon="-0.31696">
        <ele>76.7739</ele>
        <time>2010-12-26T10:13:44Z</time>
      </trkpt>
      <trkpt lat="46.30329" lon="-0.31698">
        <ele>76.7688</ele>
        <time>2010-12-26T10:13:45Z</time>
      </trkpt>
      <trkpt lat="46.3033" lon="-0.317">
        <ele>76.7637</ele>
        <time>2010-12-26T10:13:46Z</time>
      </trkpt>
      <trkpt lat="46.3033" lon="-0.31702">
        <ele>76.7587</ele>
        <time>2010-12-26T10:13:47Z</time>
      </trkpt>
      <trkpt lat="46.3033" lon="-0.31704">
        <ele>76.7535</ele>
        <time>2010-12-26T10:13:48Z</time>
      </trkpt>
      <trkpt lat="46.30331" lon="-0.31706">
        <ele>76.7484</ele>
        <time>2010-12-26T10:13:49Z</time>
      </trkpt>
      <trkpt lat="46.30331" lon="-0.31708">
        <ele>76.744</ele>
        <time>2010-12-26T10:13:50Z</time>
      </trkpt>
      <trkpt lat="46.30332" lon="-0.3171">
        <ele>76.7404</ele>
        <time>2010-12-26T10:13:51Z</time>
      </trkpt>
      <trkpt lat="46.30332" lon="-0.31712">
        <ele>76.7375</ele>
        <time>2010-12-26T10:13:52Z</time>
      </trkpt>
      <trkpt lat="46.30333" lon="-0.31714">
        <ele>76.7358</ele>
        <time>2010-12-26T10:13:53Z</time>
      </trkpt>
      <trkpt lat="46.30333" lon="-0.31715">
        <ele>76.7351</ele>
        <time>2010-12-26T10:13:54Z</time>
      </trkpt>
      <trkpt lat="46.30333" lon="-0.31717">
        <ele>76.735</ele>
        <time>2010-12-26T10:13:56Z</time>
      </trkpt>
      <trkpt lat="46.30334" lon="-0.31719">
        <ele>76.7349</ele>
        <time>2010-12-26T10:13:56Z</time>
      </trkpt>
      <trkpt lat="46.30335" lon="-0.31721">
        <ele>76.7347</ele>
        <time>2010-12-26T10:13:57Z</time>
      </trkpt>
      <trkpt lat="46.30335" lon="-0.31723">
        <ele>76.7344</ele>
        <time>2010-12-26T10:13:58Z</time>
      </trkpt>
      <trkpt lat="46.30335" lon="-0.31725">
        <ele>76.7339</ele>
        <time>2010-12-26T10:13:59Z</time>
      </trkpt>
      <trkpt lat="46.30336" lon="-0.31727">
        <ele>76.7327</ele>
        <time>2010-12-26T10:14:00Z</time>
      </trkpt>
      <trkpt lat="46.30336" lon="-0.31729">
        <ele>76.7312</ele>
        <time>2010-12-26T10:14:01Z</time>
      </trkpt>
      <trkpt lat="46.30337" lon="-0.31731">
        <ele>76.7299</ele>
        <time>2010-12-26T10:14:02Z</time>
      </trkpt>
      <trkpt lat="46.30337" lon="-0.31733">
        <ele>76.7281</ele>
        <time>2010-12-26T10:14:03Z</time>
      </trkpt>
      <trkpt lat="46.30338" lon="-0.31735">
        <ele>76.7265</ele>
        <time>2010-12-26T10:14:04Z</time>
      </trkpt>
      <trkpt lat="46.30338" lon="-0.31737">
        <ele>76.7246</ele>
        <time>2010-12-26T10:14:05Z</time>
      </trkpt>
      <trkpt lat="46.30339" lon="-0.31738">
        <ele>76.7216</ele>
        <time>2010-12-26T10:14:06Z</time>
      </trkpt>
      <trkpt lat="46.30339" lon="-0.3174">
        <ele>76.7191</ele>
        <time>2010-12-26T10:14:07Z</time>
      </trkpt>
      <trkpt lat="46.30339" lon="-0.31742">
        <ele>76.7162</ele>
        <time>2010-12-26T10:14:08Z</time>
      </trkpt>
      <trkpt lat="46.30339" lon="-0.31744">
        <ele>76.7133</ele>
        <time>2010-12-26T10:14:09Z</time>
      </trkpt>
      <trkpt lat="46.3034" lon="-0.31746">
        <ele>76.7095</ele>
        <time>2010-12-26T10:14:11Z</time>
      </trkpt>
      <trkpt lat="46.3034" lon="-0.31747">
        <ele>76.7057</ele>
        <time>2010-12-26T10:14:11Z</time>
      </trkpt>
      <trkpt lat="46.30341" lon="-0.31749">
        <ele>76.7009</ele>
        <time>2010-12-26T10:14:12Z</time>
      </trkpt>
      <trkpt lat="46.30341" lon="-0.31751">
        <ele>76.6953</ele>
        <time>2010-12-26T10:14:13Z</time>
      </trkpt>
      <trkpt lat="46.30341" lon="-0.31753">
        <ele>76.6887</ele>
        <time>2010-12-26T10:14:14Z</time>
      </trkpt>
      <trkpt lat="46.30341" lon="-0.31755">
        <ele>76.682</ele>
        <time>2010-12-26T10:14:15Z</time>
      </trkpt>
      <trkpt lat="46.30342" lon="-0.31757">
        <ele>76.6754</ele>
        <time>2010-12-26T10:14:16Z</time>
      </trkpt>
      <trkpt lat="46.30342" lon="-0.31759">
        <ele>76.6687</ele>
        <time>2010-12-26T10:14:17Z</time>
      </trkpt>
      <trkpt lat="46.30342" lon="-0.31761">
        <ele>76.6626</ele>
        <time>2010-12-26T10:14:18Z</time>
      </trkpt>
      <trkpt lat="46.30343" lon="-0.31763">
        <ele>76.6563</ele>
        <time>2010-12-26T10:14:19Z</time>
      </trkpt>
      <trkpt lat="46.30343" lon="-0.31765">
        <ele>76.6504</ele>
        <time>2010-12-26T10:14:21Z</time>
      </trkpt>
      <trkpt lat="46.30344" lon="-0.31767">
        <ele>76.6443</ele>
        <time>2010-12-26T10:14:21Z</time>
      </trkpt>
      <trkpt lat="46.30344" lon="-0.31769">
        <ele>76.6383</ele>
        <time>2010-12-26T10:14:22Z</time>
      </trkpt>
      <trkpt lat="46.30344" lon="-0.31771">
        <ele>76.6325</ele>
        <time>2010-12-26T10:14:23Z</time>
      </trkpt>
      <trkpt lat="46.30344" lon="-0.31773">
        <ele>76.627</ele>
        <time>2010-12-26T10:14:24Z</time>
      </trkpt>
      <trkpt lat="46.30345" lon="-0.31775">
        <ele>76.6221</ele>
        <time>2010-12-26T10:14:25Z</time>
      </trkpt>
      <trkpt lat="46.30345" lon="-0.31777">
        <ele>76.6174</ele>
        <time>2010-12-26T10:14:26Z</time>
      </trkpt>
      <trkpt lat="46.30345" lon="-0.3178">
        <ele>76.6148</ele>
        <time>2010-12-26T10:14:27Z</time>
      </trkpt>
      <trkpt lat="46.30346" lon="-0.31782">
        <ele>76.613</ele>
        <time>2010-12-26T10:14:28Z</time>
      </trkpt>
      <trkpt lat="46.30346" lon="-0.31784">
        <ele>76.6105</ele>
        <time>2010-12-26T10:14:29Z</time>
      </trkpt>
      <trkpt lat="46.30346" lon="-0.31787">
        <ele>76.6096</ele>
        <time>2010-12-26T10:14:30Z</time>
      </trkpt>
      <trkpt lat="46.30346" lon="-0.31789">
        <ele>76.6093</ele>
        <time>2010-12-26T10:14:31Z</time>
      </trkpt>
      <trkpt lat="46.30347" lon="-0.31791">
        <ele>76.609</ele>
        <time>2010-12-26T10:14:32Z</time>
      </trkpt>
      <trkpt lat="46.30347" lon="-0.31793">
        <ele>76.6081</ele>
        <time>2010-12-26T10:14:34Z</time>
      </trkpt>
      <trkpt lat="46.30347" lon="-0.31795">
        <ele>76.6081</ele>
        <time>2010-12-26T10:14:34Z</time>
      </trkpt>
      <trkpt lat="46.30348" lon="-0.31797">
        <ele>76.6083</ele>
        <time>2010-12-26T10:14:35Z</time>
      </trkpt>
      <trkpt lat="46.30349" lon="-0.31799">
        <ele>76.6092</ele>
        <time>2010-12-26T10:14:36Z</time>
      </trkpt>
      <trkpt lat="46.30349" lon="-0.31801">
        <ele>76.6091</ele>
        <time>2010-12-26T10:14:37Z</time>
      </trkpt>
      <trkpt lat="46.3035" lon="-0.31803">
        <ele>76.6079</ele>
        <time>2010-12-26T10:14:38Z</time>
      </trkpt>
      <trkpt lat="46.30351" lon="-0.31805">
        <ele>76.6067</ele>
        <time>2010-12-26T10:14:39Z</time>
      </trkpt>
      <trkpt lat="46.30351" lon="-0.31807">
        <ele>76.6057</ele>
        <time>2010-12-26T10:14:40Z</time>
      </trkpt>
      <trkpt lat="46.30352" lon="-0.31809">
        <ele>76.6053</ele>
        <time>2010-12-26T10:14:41Z</time>
      </trkpt>
      <trkpt lat="46.30352" lon="-0.3181">
        <ele>76.606</ele>
        <time>2010-12-26T10:14:42Z</time>
      </trkpt>
      <trkpt lat="46.30353" lon="-0.31812">
        <ele>76.6076</ele>
        <time>2010-12-26T10:14:43Z</time>
      </trkpt>
      <trkpt lat="46.30354" lon="-0.31814">
        <ele>76.6088</ele>
        <time>2010-12-26T10:14:45Z</time>
      </trkpt>
      <trkpt lat="46.30354" lon="-0.31816">
        <ele>76.6104</ele>
        <time>2010-12-26T10:14:45Z</time>
      </trkpt>
      <trkpt lat="46.30355" lon="-0.31818">
        <ele>76.6123</ele>
        <time>2010-12-26T10:14:46Z</time>
      </trkpt>
      <trkpt lat="46.30355" lon="-0.3182">
        <ele>76.615</ele>
        <time>2010-12-26T10:14:48Z</time>
      </trkpt>
      <trkpt lat="46.30356" lon="-0.31822">
        <ele>76.6179</ele>
        <time>2010-12-26T10:14:49Z</time>
      </trkpt>
      <trkpt lat="46.30356" lon="-0.31823">
        <ele>76.6214</ele>
        <time>2010-12-26T10:14:50Z</time>
      </trkpt>
      <trkpt lat="46.30357" lon="-0.31825">
        <ele>76.6248</ele>
        <time>2010-12-26T10:14:51Z</time>
      </trkpt>
      <trkpt lat="46.30357" lon="-0.31827">
        <ele>76.6291</ele>
        <time>2010-12-26T10:14:52Z</time>
      </trkpt>
      <trkpt lat="46.30357" lon="-0.31829">
        <ele>76.6339</ele>
        <time>2010-12-26T10:14:52Z</time>
      </trkpt>
      <trkpt lat="46.30358" lon="-0.31831">
        <ele>76.6398</ele>
        <time>2010-12-26T10:14:53Z</time>
      </trkpt>
      <trkpt lat="46.30358" lon="-0.31833">
        <ele>76.6469</ele>
        <time>2010-12-26T10:14:54Z</time>
      </trkpt>
      <trkpt lat="46.30359" lon="-0.31835">
        <ele>76.6549</ele>
        <time>2010-12-26T10:14:55Z</time>
      </trkpt>
      <trkpt lat="46.30359" lon="-0.31836">
        <ele>76.6634</ele>
        <time>2010-12-26T10:14:56Z</time>
      </trkpt>
      <trkpt lat="46.3036" lon="-0.31838">
        <ele>76.6717</ele>
        <time>2010-12-26T10:14:58Z</time>
      </trkpt>
      <trkpt lat="46.3036" lon="-0.31839">
        <ele>76.6805</ele>
        <time>2010-12-26T10:14:58Z</time>
      </trkpt>
      <trkpt lat="46.30361" lon="-0.31841">
        <ele>76.6893</ele>
        <time>2010-12-26T10:14:59Z</time>
      </trkpt>
      <trkpt lat="46.30361" lon="-0.31842">
        <ele>76.6983</ele>
        <time>2010-12-26T10:15:00Z</time>
      </trkpt>
      <trkpt lat="46.30362" lon="-0.31844">
        <ele>76.7074</ele>
        <time>2010-12-26T10:15:02Z</time>
      </trkpt>
      <trkpt lat="46.30362" lon="-0.31845">
        <ele>76.7167</ele>
        <time>2010-12-26T10:15:03Z</time>
      </trkpt>
      <trkpt lat="46.30362" lon="-0.31847">
        <ele>76.7258</ele>
        <time>2010-12-26T10:15:03Z</time>
      </trkpt>
      <trkpt lat="46.30363" lon="-0.31849">
        <ele>76.735</ele>
        <time>2010-12-26T10:15:04Z</time>
      </trkpt>
      <trkpt lat="46.30364" lon="-0.31851">
        <ele>76.7442</ele>
        <time>2010-12-26T10:15:05Z</time>
      </trkpt>
      <trkpt lat="46.30364" lon="-0.31853">
        <ele>76.7534</ele>
        <time>2010-12-26T10:15:06Z</time>
      </trkpt>
      <trkpt lat="46.30365" lon="-0.31855">
        <ele>76.763</ele>
        <time>2010-12-26T10:15:08Z</time>
      </trkpt>
      <trkpt lat="46.30365" lon="-0.31857">
        <ele>76.7722</ele>
        <time>2010-12-26T10:15:09Z</time>
      </trkpt>
      <trkpt lat="46.30366" lon="-0.31859">
        <ele>76.7807</ele>
        <time>2010-12-26T10:15:10Z</time>
      </trkpt>
      <trkpt lat="46.30366" lon="-0.3186">
        <ele>76.7889</ele>
        <time>2010-12-26T10:15:11Z</time>
      </trkpt>
      <trkpt lat="46.30366" lon="-0.31862">
        <ele>76.7969</ele>
        <time>2010-12-26T10:15:12Z</time>
      </trkpt>
      <trkpt lat="46.30367" lon="-0.31864">
        <ele>76.8046</ele>
        <time>2010-12-26T10:15:13Z</time>
      </trkpt>
      <trkpt lat="46.30367" lon="-0.31866">
        <ele>76.8115</ele>
        <time>2010-12-26T10:15:14Z</time>
      </trkpt>
      <trkpt lat="46.30367" lon="-0.31868">
        <ele>76.8172</ele>
        <time>2010-12-26T10:15:15Z</time>
      </trkpt>
      <trkpt lat="46.30368" lon="-0.3187">
        <ele>76.8221</ele>
        <time>2010-12-26T10:15:16Z</time>
      </trkpt>
      <trkpt lat="46.30368" lon="-0.31872">
        <ele>76.8262</ele>
        <time>2010-12-26T10:15:17Z</time>
      </trkpt>
      <trkpt lat="46.30368" lon="-0.31874">
        <ele>76.8298</ele>
        <time>2010-12-26T10:15:18Z</time>
      </trkpt>
      <trkpt lat="46.30369" lon="-0.31876">
        <ele>76.8332</ele>
        <time>2010-12-26T10:15:19Z</time>
      </trkpt>
      <trkpt lat="46.30369" lon="-0.31878">
        <ele>76.8365</ele>
        <time>2010-12-26T10:15:20Z</time>
      </trkpt>
      <trkpt lat="46.30369" lon="-0.3188">
        <ele>76.8398</ele>
        <time>2010-12-26T10:15:21Z</time>
      </trkpt>
      <trkpt lat="46.3037" lon="-0.31882">
        <ele>76.8414</ele>
        <time>2010-12-26T10:15:22Z</time>
      </trkpt>
      <trkpt lat="46.3037" lon="-0.31884">
        <ele>76.8424</ele>
        <time>2010-12-26T10:15:23Z</time>
      </trkpt>
      <trkpt lat="46.3037" lon="-0.31886">
        <ele>76.8424</ele>
        <time>2010-12-26T10:15:24Z</time>
      </trkpt>
      <trkpt lat="46.3037" lon="-0.31888">
        <ele>76.8415</ele>
        <time>2010-12-26T10:15:24Z</time>
      </trkpt>
      <trkpt lat="46.3037" lon="-0.3189">
        <ele>76.8398</ele>
        <time>2010-12-26T10:15:25Z</time>
      </trkpt>
      <trkpt lat="46.30371" lon="-0.31892">
        <ele>76.8368</ele>
        <time>2010-12-26T10:15:27Z</time>
      </trkpt>
      <trkpt lat="46.30372" lon="-0.31894">
        <ele>76.8321</ele>
        <time>2010-12-26T10:15:27Z</time>
      </trkpt>
      <trkpt lat="46.30372" lon="-0.31896">
        <ele>76.8289</ele>
        <time>2010-12-26T10:15:29Z</time>
      </trkpt>
      <trkpt lat="46.30373" lon="-0.31898">
        <ele>76.8256</ele>
        <time>2010-12-26T10:15:30Z</time>
      </trkpt>
      <trkpt lat="46.30373" lon="-0.319">
        <ele>76.8225</ele>
        <time>2010-12-26T10:15:31Z</time>
      </trkpt>
      <trkpt lat="46.30374" lon="-0.31902">
        <ele>76.8196</ele>
        <time>2010-12-26T10:15:32Z</time>
      </trkpt>
      <trkpt lat="46.30374" lon="-0.31903">
        <ele>76.8175</ele>
        <time>2010-12-26T10:15:33Z</time>
      </trkpt>
      <trkpt lat="46.30374" lon="-0.31905">
        <ele>76.8169</ele>
        <time>2010-12-26T10:15:34Z</time>
      </trkpt>
      <trkpt lat="46.30375" lon="-0.31907">
        <ele>76.8165</ele>
        <time>2010-12-26T10:15:35Z</time>
      </trkpt>
      <trkpt lat="46.30375" lon="-0.31909">
        <ele>76.8129</ele>
        <time>2010-12-26T10:15:36Z</time>
      </trkpt>
      <trkpt lat="46.30375" lon="-0.31911">
        <ele>76.8087</ele>
        <time>2010-12-26T10:15:37Z</time>
      </trkpt>
      <trkpt lat="46.30375" lon="-0.31913">
        <ele>76.8044</ele>
        <time>2010-12-26T10:15:38Z</time>
      </trkpt>
      <trkpt lat="46.30376" lon="-0.31915">
        <ele>76.8004</ele>
        <time>2010-12-26T10:15:39Z</time>
      </trkpt>
      <trkpt lat="46.30376" lon="-0.31917">
        <ele>76.7946</ele>
        <time>2010-12-26T10:15:40Z</time>
      </trkpt>
      <trkpt lat="46.30376" lon="-0.3192">
        <ele>76.789</ele>
        <time>2010-12-26T10:15:41Z</time>
      </trkpt>
      <trkpt lat="46.30376" lon="-0.31922">
        <ele>76.782</ele>
        <time>2010-12-26T10:15:42Z</time>
      </trkpt>
      <trkpt lat="46.30376" lon="-0.31924">
        <ele>76.7747</ele>
        <time>2010-12-26T10:15:43Z</time>
      </trkpt>
      <trkpt lat="46.30377" lon="-0.31926">
        <ele>76.7678</ele>
        <time>2010-12-26T10:15:44Z</time>
      </trkpt>
      <trkpt lat="46.30377" lon="-0.31928">
        <ele>76.7611</ele>
        <time>2010-12-26T10:15:45Z</time>
      </trkpt>
      <trkpt lat="46.30377" lon="-0.3193">
        <ele>76.7555</ele>
        <time>2010-12-26T10:15:46Z</time>
      </trkpt>
      <trkpt lat="46.30378" lon="-0.31932">
        <ele>76.7509</ele>
        <time>2010-12-26T10:15:47Z</time>
      </trkpt>
      <trkpt lat="46.30378" lon="-0.31934">
        <ele>76.7467</ele>
        <time>2010-12-26T10:15:48Z</time>
      </trkpt>
      <trkpt lat="46.30378" lon="-0.31936">
        <ele>76.7426</ele>
        <time>2010-12-26T10:15:49Z</time>
      </trkpt>
      <trkpt lat="46.30379" lon="-0.31938">
        <ele>76.7385</ele>
        <time>2010-12-26T10:15:50Z</time>
      </trkpt>
      <trkpt lat="46.30379" lon="-0.3194">
        <ele>76.7351</ele>
        <time>2010-12-26T10:15:51Z</time>
      </trkpt>
      <trkpt lat="46.3038" lon="-0.31942">
        <ele>76.7327</ele>
        <time>2010-12-26T10:15:52Z</time>
      </trkpt>
      <trkpt lat="46.3038" lon="-0.31944">
        <ele>76.732</ele>
        <time>2010-12-26T10:15:53Z</time>
      </trkpt>
      <trkpt lat="46.30381" lon="-0.31946">
        <ele>76.7309</ele>
        <time>2010-12-26T10:15:54Z</time>
      </trkpt>
      <trkpt lat="46.30381" lon="-0.31948">
        <ele>76.7307</ele>
        <time>2010-12-26T10:15:55Z</time>
      </trkpt>
      <trkpt lat="46.30382" lon="-0.3195">
        <ele>76.7324</ele>
        <time>2010-12-26T10:15:56Z</time>
      </trkpt>
      <trkpt lat="46.30382" lon="-0.31952">
        <ele>76.7355</ele>
        <time>2010-12-26T10:15:57Z</time>
      </trkpt>
      <trkpt lat="46.30383" lon="-0.31954">
        <ele>76.7397</ele>
        <time>2010-12-26T10:15:57Z</time>
      </trkpt>
      <trkpt lat="46.30383" lon="-0.31956">
        <ele>76.7438</ele>
        <time>2010-12-26T10:15:58Z</time>
      </trkpt>
      <trkpt lat="46.30384" lon="-0.31958">
        <ele>76.7491</ele>
        <time>2010-12-26T10:15:59Z</time>
      </trkpt>
      <trkpt lat="46.30384" lon="-0.3196">
        <ele>76.7507</ele>
        <time>2010-12-26T10:16:00Z</time>
      </trkpt>
      <trkpt lat="46.30384" lon="-0.31962">
        <ele>76.7523</ele>
        <time>2010-12-26T10:16:01Z</time>
      </trkpt>
      <trkpt lat="46.30385" lon="-0.31964">
        <ele>76.7543</ele>
        <time>2010-12-26T10:16:03Z</time>
      </trkpt>
      <trkpt lat="46.30385" lon="-0.31966">
        <ele>76.7575</ele>
        <time>2010-12-26T10:16:04Z</time>
      </trkpt>
      <trkpt lat="46.30386" lon="-0.31968">
        <ele>76.7624</ele>
        <time>2010-12-26T10:16:04Z</time>
      </trkpt>
      <trkpt lat="46.30386" lon="-0.3197">
        <ele>76.7662</ele>
        <time>2010-12-26T10:16:05Z</time>
      </trkpt>
      <trkpt lat="46.30387" lon="-0.31972">
        <ele>76.7719</ele>
        <time>2010-12-26T10:16:06Z</time>
      </trkpt>
      <trkpt lat="46.30387" lon="-0.31973">
        <ele>76.7796</ele>
        <time>2010-12-26T10:16:08Z</time>
      </trkpt>
      <trkpt lat="46.30388" lon="-0.31975">
        <ele>76.7885</ele>
        <time>2010-12-26T10:16:09Z</time>
      </trkpt>
      <trkpt lat="46.30388" lon="-0.31977">
        <ele>76.7997</ele>
        <time>2010-12-26T10:16:10Z</time>
      </trkpt>
      <trkpt lat="46.30388" lon="-0.31978">
        <ele>76.8132</ele>
        <time>2010-12-26T10:16:11Z</time>
      </trkpt>
      <trkpt lat="46.30389" lon="-0.3198">
        <ele>76.8292</ele>
        <time>2010-12-26T10:16:12Z</time>
      </trkpt>
      <trkpt lat="46.30389" lon="-0.31981">
        <ele>76.8457</ele>
        <time>2010-12-26T10:16:13Z</time>
      </trkpt>
      <trkpt lat="46.3039" lon="-0.31983">
        <ele>76.8623</ele>
        <time>2010-12-26T10:16:14Z</time>
      </trkpt>
      <trkpt lat="46.3039" lon="-0.31985">
        <ele>76.8783</ele>
        <time>2010-12-26T10:16:15Z</time>
      </trkpt>
      <trkpt lat="46.30391" lon="-0.31987">
        <ele>76.8938</ele>
        <time>2010-12-26T10:16:16Z</time>
      </trkpt>
      <trkpt lat="46.30391" lon="-0.31989">
        <ele>76.9074</ele>
        <time>2010-12-26T10:16:17Z</time>
      </trkpt>
      <trkpt lat="46.30392" lon="-0.31991">
        <ele>76.9199</ele>
        <time>2010-12-26T10:16:18Z</time>
      </trkpt>
      <trkpt lat="46.30392" lon="-0.31993">
        <ele>76.9323</ele>
        <time>2010-12-26T10:16:19Z</time>
      </trkpt>
      <trkpt lat="46.30393" lon="-0.31995">
        <ele>76.945</ele>
        <time>2010-12-26T10:16:20Z</time>
      </trkpt>
      <trkpt lat="46.30393" lon="-0.31997">
        <ele>76.9576</ele>
        <time>2010-12-26T10:16:21Z</time>
      </trkpt>
      <trkpt lat="46.30393" lon="-0.31999">
        <ele>76.9707</ele>
        <time>2010-12-26T10:16:22Z</time>
      </trkpt>
      <trkpt lat="46.30394" lon="-0.32">
        <ele>76.9842</ele>
        <time>2010-12-26T10:16:23Z</time>
      </trkpt>
      <trkpt lat="46.30394" lon="-0.32002">
        <ele>76.9973</ele>
        <time>2010-12-26T10:16:24Z</time>
      </trkpt>
      <trkpt lat="46.30394" lon="-0.32004">
        <ele>77.0102</ele>
        <time>2010-12-26T10:16:25Z</time>
      </trkpt>
      <trkpt lat="46.30395" lon="-0.32006">
        <ele>77.0232</ele>
        <time>2010-12-26T10:16:26Z</time>
      </trkpt>
      <trkpt lat="46.30396" lon="-0.32008">
        <ele>77.0363</ele>
        <time>2010-12-26T10:16:27Z</time>
      </trkpt>
      <trkpt lat="46.30396" lon="-0.3201">
        <ele>77.0495</ele>
        <time>2010-12-26T10:16:28Z</time>
      </trkpt>
      <trkpt lat="46.30396" lon="-0.32012">
        <ele>77.0632</ele>
        <time>2010-12-26T10:16:28Z</time>
      </trkpt>
      <trkpt lat="46.30397" lon="-0.32013">
        <ele>77.0761</ele>
        <time>2010-12-26T10:16:29Z</time>
      </trkpt>
      <trkpt lat="46.30397" lon="-0.32015">
        <ele>77.075</ele>
        <time>2010-12-26T10:16:30Z</time>
      </trkpt>
      <trkpt lat="46.30397" lon="-0.32016">
        <ele>77.0571</ele>
        <time>2010-12-26T10:16:31Z</time>
      </trkpt>
      <trkpt lat="46.30397" lon="-0.32018">
        <ele>77.0571</ele>
        <time>2010-12-26T10:16:32Z</time>
      </trkpt>
      <trkpt lat="46.30398" lon="-0.32021">
        <ele>77.0138</ele>
        <time>2010-12-26T10:16:33Z</time>
      </trkpt>
      <trkpt lat="46.30398" lon="-0.32023">
        <ele>76.9751</ele>
        <time>2010-12-26T10:16:34Z</time>
      </trkpt>
      <trkpt lat="46.30399" lon="-0.32025">
        <ele>76.9407</ele>
        <time>2010-12-26T10:16:36Z</time>
      </trkpt>
      <trkpt lat="46.30399" lon="-0.32027">
        <ele>76.9103</ele>
        <time>2010-12-26T10:16:36Z</time>
      </trkpt>
      <trkpt lat="46.304" lon="-0.32029">
        <ele>76.8833</ele>
        <time>2010-12-26T10:16:37Z</time>
      </trkpt>
      <trkpt lat="46.30401" lon="-0.32032">
        <ele>76.8601</ele>
        <time>2010-12-26T10:16:38Z</time>
      </trkpt>
      <trkpt lat="46.30401" lon="-0.32034">
        <ele>76.8394</ele>
        <time>2010-12-26T10:16:40Z</time>
      </trkpt>
      <trkpt lat="46.30402" lon="-0.32036">
        <ele>76.8224</ele>
        <time>2010-12-26T10:16:41Z</time>
      </trkpt>
      <trkpt lat="46.30402" lon="-0.32038">
        <ele>76.8082</ele>
        <time>2010-12-26T10:16:42Z</time>
      </trkpt>
      <trkpt lat="46.30403" lon="-0.3204">
        <ele>76.7961</ele>
        <time>2010-12-26T10:16:43Z</time>
      </trkpt>
      <trkpt lat="46.30403" lon="-0.32042">
        <ele>76.7864</ele>
        <time>2010-12-26T10:16:44Z</time>
      </trkpt>
      <trkpt lat="46.30404" lon="-0.32043">
        <ele>76.7783</ele>
        <time>2010-12-26T10:16:45Z</time>
      </trkpt>
      <trkpt lat="46.30404" lon="-0.32045">
        <ele>76.7717</ele>
        <time>2010-12-26T10:16:46Z</time>
      </trkpt>
      <trkpt lat="46.30405" lon="-0.32047">
        <ele>76.7658</ele>
        <time>2010-12-26T10:16:47Z</time>
      </trkpt>
      <trkpt lat="46.30405" lon="-0.32049">
        <ele>76.7614</ele>
        <time>2010-12-26T10:16:48Z</time>
      </trkpt>
      <trkpt lat="46.30406" lon="-0.32051">
        <ele>76.7588</ele>
        <time>2010-12-26T10:16:49Z</time>
      </trkpt>
      <trkpt lat="46.30406" lon="-0.32053">
        <ele>76.7578</ele>
        <time>2010-12-26T10:16:50Z</time>
      </trkpt>
      <trkpt lat="46.30407" lon="-0.32055">
        <ele>76.7586</ele>
        <time>2010-12-26T10:16:50Z</time>
      </trkpt>
      <trkpt lat="46.30407" lon="-0.32057">
        <ele>76.7602</ele>
        <time>2010-12-26T10:16:52Z</time>
      </trkpt>
      <trkpt lat="46.30408" lon="-0.32058">
        <ele>76.7619</ele>
        <time>2010-12-26T10:16:53Z</time>
      </trkpt>
      <trkpt lat="46.30408" lon="-0.32061">
        <ele>76.7629</ele>
        <time>2010-12-26T10:16:54Z</time>
      </trkpt>
      <trkpt lat="46.30409" lon="-0.32063">
        <ele>76.763</ele>
        <time>2010-12-26T10:16:54Z</time>
      </trkpt>
      <trkpt lat="46.30409" lon="-0.32064">
        <ele>76.7648</ele>
        <time>2010-12-26T10:16:55Z</time>
      </trkpt>
      <trkpt lat="46.30409" lon="-0.32066">
        <ele>76.7699</ele>
        <time>2010-12-26T10:16:57Z</time>
      </trkpt>
      <trkpt lat="46.3041" lon="-0.32068">
        <ele>76.7768</ele>
        <time>2010-12-26T10:16:57Z</time>
      </trkpt>
      <trkpt lat="46.3041" lon="-0.32069">
        <ele>76.7856</ele>
        <time>2010-12-26T10:16:59Z</time>
      </trkpt>
      <trkpt lat="46.3041" lon="-0.32071">
        <ele>76.797</ele>
        <time>2010-12-26T10:17:00Z</time>
      </trkpt>
      <trkpt lat="46.30411" lon="-0.32072">
        <ele>76.8101</ele>
        <time>2010-12-26T10:17:01Z</time>
      </trkpt>
      <trkpt lat="46.30411" lon="-0.32074">
        <ele>76.8258</ele>
        <time>2010-12-26T10:17:02Z</time>
      </trkpt>
      <trkpt lat="46.30411" lon="-0.32076">
        <ele>76.8427</ele>
        <time>2010-12-26T10:17:03Z</time>
      </trkpt>
      <trkpt lat="46.30411" lon="-0.32078">
        <ele>76.8579</ele>
        <time>2010-12-26T10:17:03Z</time>
      </trkpt>
      <trkpt lat="46.30412" lon="-0.32079">
        <ele>76.8757</ele>
        <time>2010-12-26T10:17:05Z</time>
      </trkpt>
      <trkpt lat="46.30412" lon="-0.32081">
        <ele>76.8959</ele>
        <time>2010-12-26T10:17:06Z</time>
      </trkpt>
      <trkpt lat="46.30412" lon="-0.32083">
        <ele>76.9174</ele>
        <time>2010-12-26T10:17:06Z</time>
      </trkpt>
      <trkpt lat="46.30412" lon="-0.32085">
        <ele>76.9387</ele>
        <time>2010-12-26T10:17:07Z</time>
      </trkpt>
      <trkpt lat="46.30412" lon="-0.32087">
        <ele>76.9597</ele>
        <time>2010-12-26T10:17:09Z</time>
      </trkpt>
      <trkpt lat="46.30413" lon="-0.32089">
        <ele>76.9813</ele>
        <time>2010-12-26T10:17:09Z</time>
      </trkpt>
      <trkpt lat="46.30413" lon="-0.32091">
        <ele>77.0037</ele>
        <time>2010-12-26T10:17:10Z</time>
      </trkpt>
      <trkpt lat="46.30414" lon="-0.32093">
        <ele>77.0271</ele>
        <time>2010-12-26T10:17:11Z</time>
      </trkpt>
      <trkpt lat="46.30414" lon="-0.32094">
        <ele>77.0535</ele>
        <time>2010-12-26T10:17:12Z</time>
      </trkpt>
      <trkpt lat="46.30415" lon="-0.32096">
        <ele>77.0828</ele>
        <time>2010-12-26T10:17:13Z</time>
      </trkpt>
      <trkpt lat="46.30415" lon="-0.32098">
        <ele>77.1145</ele>
        <time>2010-12-26T10:17:14Z</time>
      </trkpt>
      <trkpt lat="46.30415" lon="-0.321">
        <ele>77.1477</ele>
        <time>2010-12-26T10:17:15Z</time>
      </trkpt>
      <trkpt lat="46.30416" lon="-0.32102">
        <ele>77.1824</ele>
        <time>2010-12-26T10:17:16Z</time>
      </trkpt>
      <trkpt lat="46.30417" lon="-0.32104">
        <ele>77.2171</ele>
        <time>2010-12-26T10:17:18Z</time>
      </trkpt>
      <trkpt lat="46.30417" lon="-0.32106">
        <ele>77.2501</ele>
        <time>2010-12-26T10:17:18Z</time>
      </trkpt>
      <trkpt lat="46.30417" lon="-0.32108">
        <ele>77.2829</ele>
        <time>2010-12-26T10:17:19Z</time>
      </trkpt>
      <trkpt lat="46.30418" lon="-0.3211">
        <ele>77.314</ele>
        <time>2010-12-26T10:17:20Z</time>
      </trkpt>
      <trkpt lat="46.30418" lon="-0.32112">
        <ele>77.3449</ele>
        <time>2010-12-26T10:17:21Z</time>
      </trkpt>
      <trkpt lat="46.30418" lon="-0.32114">
        <ele>77.3748</ele>
        <time>2010-12-26T10:17:22Z</time>
      </trkpt>
      <trkpt lat="46.30418" lon="-0.32116">
        <ele>77.4038</ele>
        <time>2010-12-26T10:17:23Z</time>
      </trkpt>
      <trkpt lat="46.30419" lon="-0.32118">
        <ele>77.4311</ele>
        <time>2010-12-26T10:17:24Z</time>
      </trkpt>
      <trkpt lat="46.3042" lon="-0.32119">
        <ele>77.4567</ele>
        <time>2010-12-26T10:17:25Z</time>
      </trkpt>
      <trkpt lat="46.3042" lon="-0.32121">
        <ele>77.4795</ele>
        <time>2010-12-26T10:17:26Z</time>
      </trkpt>
      <trkpt lat="46.3042" lon="-0.32123">
        <ele>77.5001</ele>
        <time>2010-12-26T10:17:28Z</time>
      </trkpt>
      <trkpt lat="46.30421" lon="-0.32125">
        <ele>77.5183</ele>
        <time>2010-12-26T10:17:28Z</time>
      </trkpt>
      <trkpt lat="46.30421" lon="-0.32127">
        <ele>77.5344</ele>
        <time>2010-12-26T10:17:29Z</time>
      </trkpt>
      <trkpt lat="46.30422" lon="-0.32129">
        <ele>77.5496</ele>
        <time>2010-12-26T10:17:30Z</time>
      </trkpt>
      <trkpt lat="46.30423" lon="-0.32131">
        <ele>77.5637</ele>
        <time>2010-12-26T10:17:31Z</time>
      </trkpt>
      <trkpt lat="46.30423" lon="-0.32133">
        <ele>77.5786</ele>
        <time>2010-12-26T10:17:32Z</time>
      </trkpt>
      <trkpt lat="46.30423" lon="-0.32134">
        <ele>77.5925</ele>
        <time>2010-12-26T10:17:33Z</time>
      </trkpt>
      <trkpt lat="46.30424" lon="-0.32136">
        <ele>77.6075</ele>
        <time>2010-12-26T10:17:34Z</time>
      </trkpt>
      <trkpt lat="46.30425" lon="-0.32138">
        <ele>77.6229</ele>
        <time>2010-12-26T10:17:35Z</time>
      </trkpt>
      <trkpt lat="46.30425" lon="-0.3214">
        <ele>77.6397</ele>
        <time>2010-12-26T10:17:36Z</time>
      </trkpt>
      <trkpt lat="46.30425" lon="-0.32142">
        <ele>77.6572</ele>
        <time>2010-12-26T10:17:38Z</time>
      </trkpt>
      <trkpt lat="46.30426" lon="-0.32144">
        <ele>77.6748</ele>
        <time>2010-12-26T10:17:38Z</time>
      </trkpt>
      <trkpt lat="46.30426" lon="-0.32145">
        <ele>77.6918</ele>
        <time>2010-12-26T10:17:39Z</time>
      </trkpt>
      <trkpt lat="46.30427" lon="-0.32147">
        <ele>77.7092</ele>
        <time>2010-12-26T10:17:40Z</time>
      </trkpt>
      <trkpt lat="46.30428" lon="-0.32149">
        <ele>77.7253</ele>
        <time>2010-12-26T10:17:42Z</time>
      </trkpt>
      <trkpt lat="46.30429" lon="-0.32151">
        <ele>77.7253</ele>
        <time>2010-12-26T10:17:42Z</time>
      </trkpt>
      <trkpt lat="46.30429" lon="-0.32153">
        <ele>77.7406</ele>
        <time>2010-12-26T10:17:43Z</time>
      </trkpt>
      <trkpt lat="46.30429" lon="-0.32154">
        <ele>77.7522</ele>
        <time>2010-12-26T10:17:44Z</time>
      </trkpt>
      <trkpt lat="46.3043" lon="-0.32156">
        <ele>77.7587</ele>
        <time>2010-12-26T10:17:45Z</time>
      </trkpt>
      <trkpt lat="46.3043" lon="-0.32157">
        <ele>77.7607</ele>
        <time>2010-12-26T10:17:46Z</time>
      </trkpt>
      <trkpt lat="46.3043" lon="-0.32159">
        <ele>77.7565</ele>
        <time>2010-12-26T10:17:47Z</time>
      </trkpt>
      <trkpt lat="46.30431" lon="-0.32161">
        <ele>77.7461</ele>
        <time>2010-12-26T10:17:48Z</time>
      </trkpt>
      <trkpt lat="46.30431" lon="-0.32162">
        <ele>77.7308</ele>
        <time>2010-12-26T10:17:49Z</time>
      </trkpt>
      <trkpt lat="46.30432" lon="-0.32164">
        <ele>77.7129</ele>
        <time>2010-12-26T10:17:50Z</time>
      </trkpt>
      <trkpt lat="46.30433" lon="-0.32166">
        <ele>77.6918</ele>
        <time>2010-12-26T10:17:52Z</time>
      </trkpt>
      <trkpt lat="46.30433" lon="-0.32168">
        <ele>77.6677</ele>
        <time>2010-12-26T10:17:52Z</time>
      </trkpt>
      <trkpt lat="46.30433" lon="-0.3217">
        <ele>77.6423</ele>
        <time>2010-12-26T10:17:53Z</time>
      </trkpt>
      <trkpt lat="46.30434" lon="-0.32171">
        <ele>77.6158</ele>
        <time>2010-12-26T10:17:54Z</time>
      </trkpt>
      <trkpt lat="46.30434" lon="-0.32173">
        <ele>77.5892</ele>
        <time>2010-12-26T10:17:55Z</time>
      </trkpt>
      <trkpt lat="46.30434" lon="-0.32175">
        <ele>77.5624</ele>
        <time>2010-12-26T10:17:56Z</time>
      </trkpt>
      <trkpt lat="46.30435" lon="-0.32177">
        <ele>77.5358</ele>
        <time>2010-12-26T10:17:57Z</time>
      </trkpt>
      <trkpt lat="46.30436" lon="-0.32179">
        <ele>77.5093</ele>
        <time>2010-12-26T10:17:59Z</time>
      </trkpt>
      <trkpt lat="46.30436" lon="-0.32181">
        <ele>77.4836</ele>
        <time>2010-12-26T10:17:59Z</time>
      </trkpt>
      <trkpt lat="46.30437" lon="-0.32182">
        <ele>77.4588</ele>
        <time>2010-12-26T10:18:00Z</time>
      </trkpt>
      <trkpt lat="46.30437" lon="-0.32184">
        <ele>77.4344</ele>
        <time>2010-12-26T10:18:01Z</time>
      </trkpt>
      <trkpt lat="46.30438" lon="-0.32186">
        <ele>77.4106</ele>
        <time>2010-12-26T10:18:03Z</time>
      </trkpt>
      <trkpt lat="46.30438" lon="-0.32188">
        <ele>77.3876</ele>
        <time>2010-12-26T10:18:03Z</time>
      </trkpt>
      <trkpt lat="46.30438" lon="-0.3219">
        <ele>77.3647</ele>
        <time>2010-12-26T10:18:04Z</time>
      </trkpt>
      <trkpt lat="46.30438" lon="-0.32192">
        <ele>77.3439</ele>
        <time>2010-12-26T10:18:05Z</time>
      </trkpt>
      <trkpt lat="46.30438" lon="-0.32193">
        <ele>77.3184</ele>
        <time>2010-12-26T10:18:06Z</time>
      </trkpt>
      <trkpt lat="46.30438" lon="-0.32194">
        <ele>77.2832</ele>
        <time>2010-12-26T10:18:07Z</time>
      </trkpt>
      <trkpt lat="46.30439" lon="-0.32195">
        <ele>77.2832</ele>
        <time>2010-12-26T10:18:08Z</time>
      </trkpt>
      <trkpt lat="46.30439" lon="-0.32198">
        <ele>77.2237</ele>
        <time>2010-12-26T10:18:09Z</time>
      </trkpt>
      <trkpt lat="46.3044" lon="-0.322">
        <ele>77.1638</ele>
        <time>2010-12-26T10:18:10Z</time>
      </trkpt>
      <trkpt lat="46.30441" lon="-0.32202">
        <ele>77.0994</ele>
        <time>2010-12-26T10:18:11Z</time>
      </trkpt>
      <trkpt lat="46.30441" lon="-0.32204">
        <ele>77.0351</ele>
        <time>2010-12-26T10:18:12Z</time>
      </trkpt>
      <trkpt lat="46.30441" lon="-0.32207">
        <ele>76.9777</ele>
        <time>2010-12-26T10:18:13Z</time>
      </trkpt>
      <trkpt lat="46.30442" lon="-0.32209">
        <ele>76.9241</ele>
        <time>2010-12-26T10:18:14Z</time>
      </trkpt>
      <trkpt lat="46.30442" lon="-0.32211">
        <ele>76.8746</ele>
        <time>2010-12-26T10:18:15Z</time>
      </trkpt>
      <trkpt lat="46.30442" lon="-0.32213">
        <ele>76.8278</ele>
        <time>2010-12-26T10:18:16Z</time>
      </trkpt>
      <trkpt lat="46.30443" lon="-0.32216">
        <ele>76.7844</ele>
        <time>2010-12-26T10:18:17Z</time>
      </trkpt>
      <trkpt lat="46.30443" lon="-0.32218">
        <ele>76.7423</ele>
        <time>2010-12-26T10:18:18Z</time>
      </trkpt>
      <trkpt lat="46.30444" lon="-0.3222">
        <ele>76.7031</ele>
        <time>2010-12-26T10:18:19Z</time>
      </trkpt>
      <trkpt lat="46.30444" lon="-0.32222">
        <ele>76.665</ele>
        <time>2010-12-26T10:18:20Z</time>
      </trkpt>
      <trkpt lat="46.30444" lon="-0.32224">
        <ele>76.628</ele>
        <time>2010-12-26T10:18:21Z</time>
      </trkpt>
      <trkpt lat="46.30445" lon="-0.32226">
        <ele>76.5928</ele>
        <time>2010-12-26T10:18:22Z</time>
      </trkpt>
      <trkpt lat="46.30445" lon="-0.32228">
        <ele>76.5595</ele>
        <time>2010-12-26T10:18:23Z</time>
      </trkpt>
      <trkpt lat="46.30446" lon="-0.3223">
        <ele>76.5305</ele>
        <time>2010-12-26T10:18:24Z</time>
      </trkpt>
      <trkpt lat="46.30446" lon="-0.32232">
        <ele>76.5057</ele>
        <time>2010-12-26T10:18:25Z</time>
      </trkpt>
      <trkpt lat="46.30446" lon="-0.32234">
        <ele>76.4836</ele>
        <time>2010-12-26T10:18:27Z</time>
      </trkpt>
      <trkpt lat="46.30446" lon="-0.32236">
        <ele>76.4652</ele>
        <time>2010-12-26T10:18:27Z</time>
      </trkpt>
      <trkpt lat="46.30447" lon="-0.32238">
        <ele>76.4483</ele>
        <time>2010-12-26T10:18:28Z</time>
      </trkpt>
      <trkpt lat="46.30447" lon="-0.3224">
        <ele>76.4326</ele>
        <time>2010-12-26T10:18:30Z</time>
      </trkpt>
      <trkpt lat="46.30447" lon="-0.32242">
        <ele>76.4177</ele>
        <time>2010-12-26T10:18:30Z</time>
      </trkpt>
      <trkpt lat="46.30448" lon="-0.32244">
        <ele>76.4042</ele>
        <time>2010-12-26T10:18:31Z</time>
      </trkpt>
      <trkpt lat="46.30448" lon="-0.32245">
        <ele>76.3926</ele>
        <time>2010-12-26T10:18:32Z</time>
      </trkpt>
      <trkpt lat="46.30449" lon="-0.32247">
        <ele>76.3832</ele>
        <time>2010-12-26T10:18:33Z</time>
      </trkpt>
      <trkpt lat="46.30449" lon="-0.32249">
        <ele>76.3759</ele>
        <time>2010-12-26T10:18:34Z</time>
      </trkpt>
      <trkpt lat="46.30449" lon="-0.32251">
        <ele>76.3697</ele>
        <time>2010-12-26T10:18:35Z</time>
      </trkpt>
      <trkpt lat="46.3045" lon="-0.32253">
        <ele>76.3655</ele>
        <time>2010-12-26T10:18:36Z</time>
      </trkpt>
      <trkpt lat="46.3045" lon="-0.32255">
        <ele>76.3622</ele>
        <time>2010-12-26T10:18:37Z</time>
      </trkpt>
      <trkpt lat="46.3045" lon="-0.32258">
        <ele>76.3596</ele>
        <time>2010-12-26T10:18:38Z</time>
      </trkpt>
      <trkpt lat="46.30451" lon="-0.3226">
        <ele>76.3569</ele>
        <time>2010-12-26T10:18:39Z</time>
      </trkpt>
      <trkpt lat="46.30451" lon="-0.32262">
        <ele>76.3544</ele>
        <time>2010-12-26T10:18:41Z</time>
      </trkpt>
      <trkpt lat="46.30452" lon="-0.32264">
        <ele>76.3528</ele>
        <time>2010-12-26T10:18:41Z</time>
      </trkpt>
      <trkpt lat="46.30452" lon="-0.32266">
        <ele>76.3528</ele>
        <time>2010-12-26T10:18:42Z</time>
      </trkpt>
      <trkpt lat="46.30452" lon="-0.32268">
        <ele>76.3525</ele>
        <time>2010-12-26T10:18:43Z</time>
      </trkpt>
      <trkpt lat="46.30453" lon="-0.3227">
        <ele>76.3517</ele>
        <time>2010-12-26T10:18:44Z</time>
      </trkpt>
      <trkpt lat="46.30453" lon="-0.32272">
        <ele>76.3505</ele>
        <time>2010-12-26T10:18:46Z</time>
      </trkpt>
      <trkpt lat="46.30454" lon="-0.32274">
        <ele>76.349</ele>
        <time>2010-12-26T10:18:46Z</time>
      </trkpt>
      <trkpt lat="46.30454" lon="-0.32276">
        <ele>76.3478</ele>
        <time>2010-12-26T10:18:47Z</time>
      </trkpt>
      <trkpt lat="46.30455" lon="-0.32278">
        <ele>76.3469</ele>
        <time>2010-12-26T10:18:48Z</time>
      </trkpt>
      <trkpt lat="46.30455" lon="-0.32281">
        <ele>76.3467</ele>
        <time>2010-12-26T10:18:49Z</time>
      </trkpt>
      <trkpt lat="46.30455" lon="-0.32283">
        <ele>76.3471</ele>
        <time>2010-12-26T10:18:50Z</time>
      </trkpt>
      <trkpt lat="46.30456" lon="-0.32285">
        <ele>76.3477</ele>
        <time>2010-12-26T10:18:51Z</time>
      </trkpt>
      <trkpt lat="46.30456" lon="-0.32287">
        <ele>76.3474</ele>
        <time>2010-12-26T10:18:52Z</time>
      </trkpt>
      <trkpt lat="46.30457" lon="-0.32289">
        <ele>76.3456</ele>
        <time>2010-12-26T10:18:53Z</time>
      </trkpt>
      <trkpt lat="46.30457" lon="-0.32291">
        <ele>76.3428</ele>
        <time>2010-12-26T10:18:55Z</time>
      </trkpt>
      <trkpt lat="46.30457" lon="-0.32293">
        <ele>76.3391</ele>
        <time>2010-12-26T10:18:55Z</time>
      </trkpt>
      <trkpt lat="46.30458" lon="-0.32295">
        <ele>76.3345</ele>
        <time>2010-12-26T10:18:56Z</time>
      </trkpt>
      <trkpt lat="46.30458" lon="-0.32298">
        <ele>76.3286</ele>
        <time>2010-12-26T10:18:57Z</time>
      </trkpt>
      <trkpt lat="46.30459" lon="-0.323">
        <ele>76.3217</ele>
        <time>2010-12-26T10:18:58Z</time>
      </trkpt>
      <trkpt lat="46.30459" lon="-0.32302">
        <ele>76.3148</ele>
        <time>2010-12-26T10:18:59Z</time>
      </trkpt>
      <trkpt lat="46.30459" lon="-0.32303">
        <ele>76.3068</ele>
        <time>2010-12-26T10:19:01Z</time>
      </trkpt>
      <trkpt lat="46.3046" lon="-0.32305">
        <ele>76.2986</ele>
        <time>2010-12-26T10:19:01Z</time>
      </trkpt>
      <trkpt lat="46.3046" lon="-0.32308">
        <ele>76.2907</ele>
        <time>2010-12-26T10:19:02Z</time>
      </trkpt>
      <trkpt lat="46.3046" lon="-0.3231">
        <ele>76.283</ele>
        <time>2010-12-26T10:19:03Z</time>
      </trkpt>
      <trkpt lat="46.30461" lon="-0.32312">
        <ele>76.2749</ele>
        <time>2010-12-26T10:19:04Z</time>
      </trkpt>
      <trkpt lat="46.30461" lon="-0.32314">
        <ele>76.2664</ele>
        <time>2010-12-26T10:19:05Z</time>
      </trkpt>
      <trkpt lat="46.30462" lon="-0.32316">
        <ele>76.2577</ele>
        <time>2010-12-26T10:19:06Z</time>
      </trkpt>
      <trkpt lat="46.30462" lon="-0.32319">
        <ele>76.2495</ele>
        <time>2010-12-26T10:19:07Z</time>
      </trkpt>
      <trkpt lat="46.30462" lon="-0.32321">
        <ele>76.2418</ele>
        <time>2010-12-26T10:19:08Z</time>
      </trkpt>
      <trkpt lat="46.30463" lon="-0.32323">
        <ele>76.2342</ele>
        <time>2010-12-26T10:19:10Z</time>
      </trkpt>
      <trkpt lat="46.30463" lon="-0.32325">
        <ele>76.2263</ele>
        <time>2010-12-26T10:19:10Z</time>
      </trkpt>
      <trkpt lat="46.30464" lon="-0.32327">
        <ele>76.2188</ele>
        <time>2010-12-26T10:19:11Z</time>
      </trkpt>
      <trkpt lat="46.30464" lon="-0.32329">
        <ele>76.2116</ele>
        <time>2010-12-26T10:19:12Z</time>
      </trkpt>
      <trkpt lat="46.30464" lon="-0.32331">
        <ele>76.2042</ele>
        <time>2010-12-26T10:19:13Z</time>
      </trkpt>
      <trkpt lat="46.30465" lon="-0.32333">
        <ele>76.197</ele>
        <time>2010-12-26T10:19:14Z</time>
      </trkpt>
      <trkpt lat="46.30465" lon="-0.32335">
        <ele>76.1894</ele>
        <time>2010-12-26T10:19:15Z</time>
      </trkpt>
      <trkpt lat="46.30466" lon="-0.32337">
        <ele>76.1809</ele>
        <time>2010-12-26T10:19:16Z</time>
      </trkpt>
      <trkpt lat="46.30466" lon="-0.32339">
        <ele>76.1719</ele>
        <time>2010-12-26T10:19:17Z</time>
      </trkpt>
      <trkpt lat="46.30467" lon="-0.32341">
        <ele>76.1622</ele>
        <time>2010-12-26T10:19:18Z</time>
      </trkpt>
      <trkpt lat="46.30467" lon="-0.32342">
        <ele>76.1523</ele>
        <time>2010-12-26T10:19:19Z</time>
      </trkpt>
      <trkpt lat="46.30467" lon="-0.32344">
        <ele>76.1418</ele>
        <time>2010-12-26T10:19:20Z</time>
      </trkpt>
      <trkpt lat="46.30468" lon="-0.32346">
        <ele>76.1307</ele>
        <time>2010-12-26T10:19:21Z</time>
      </trkpt>
      <trkpt lat="46.30468" lon="-0.32348">
        <ele>76.1196</ele>
        <time>2010-12-26T10:19:22Z</time>
      </trkpt>
      <trkpt lat="46.30468" lon="-0.3235">
        <ele>76.1087</ele>
        <time>2010-12-26T10:19:23Z</time>
      </trkpt>
      <trkpt lat="46.30469" lon="-0.32353">
        <ele>76.0979</ele>
        <time>2010-12-26T10:19:24Z</time>
      </trkpt>
      <trkpt lat="46.3047" lon="-0.32355">
        <ele>76.0874</ele>
        <time>2010-12-26T10:19:25Z</time>
      </trkpt>
      <trkpt lat="46.3047" lon="-0.32357">
        <ele>76.0778</ele>
        <time>2010-12-26T10:19:26Z</time>
      </trkpt>
      <trkpt lat="46.3047" lon="-0.32359">
        <ele>76.0694</ele>
        <time>2010-12-26T10:19:27Z</time>
      </trkpt>
      <trkpt lat="46.30471" lon="-0.32361">
        <ele>76.0613</ele>
        <time>2010-12-26T10:19:28Z</time>
      </trkpt>
      <trkpt lat="46.30471" lon="-0.32363">
        <ele>76.0538</ele>
        <time>2010-12-26T10:19:29Z</time>
      </trkpt>
      <trkpt lat="46.30471" lon="-0.32365">
        <ele>76.0472</ele>
        <time>2010-12-26T10:19:30Z</time>
      </trkpt>
      <trkpt lat="46.30472" lon="-0.32367">
        <ele>76.0406</ele>
        <time>2010-12-26T10:19:31Z</time>
      </trkpt>
      <trkpt lat="46.30472" lon="-0.32369">
        <ele>76.0337</ele>
        <time>2010-12-26T10:19:32Z</time>
      </trkpt>
      <trkpt lat="46.30473" lon="-0.32371">
        <ele>76.0255</ele>
        <time>2010-12-26T10:19:33Z</time>
      </trkpt>
      <trkpt lat="46.30473" lon="-0.32373">
        <ele>76.0156</ele>
        <time>2010-12-26T10:19:35Z</time>
      </trkpt>
      <trkpt lat="46.30474" lon="-0.32375">
        <ele>76.0047</ele>
        <time>2010-12-26T10:19:35Z</time>
      </trkpt>
      <trkpt lat="46.30474" lon="-0.32377">
        <ele>75.9934</ele>
        <time>2010-12-26T10:19:36Z</time>
      </trkpt>
      <trkpt lat="46.30475" lon="-0.3238">
        <ele>75.9821</ele>
        <time>2010-12-26T10:19:37Z</time>
      </trkpt>
      <trkpt lat="46.30475" lon="-0.32382">
        <ele>75.9706</ele>
        <time>2010-12-26T10:19:38Z</time>
      </trkpt>
      <trkpt lat="46.30475" lon="-0.32384">
        <ele>75.9581</ele>
        <time>2010-12-26T10:19:39Z</time>
      </trkpt>
      <trkpt lat="46.30476" lon="-0.32386">
        <ele>75.945</ele>
        <time>2010-12-26T10:19:40Z</time>
      </trkpt>
      <trkpt lat="46.30476" lon="-0.32388">
        <ele>75.9314</ele>
        <time>2010-12-26T10:19:41Z</time>
      </trkpt>
      <trkpt lat="46.30476" lon="-0.32389">
        <ele>75.9174</ele>
        <time>2010-12-26T10:19:42Z</time>
      </trkpt>
      <trkpt lat="46.30477" lon="-0.32391">
        <ele>75.9029</ele>
        <time>2010-12-26T10:19:43Z</time>
      </trkpt>
      <trkpt lat="46.30477" lon="-0.32393">
        <ele>75.8885</ele>
        <time>2010-12-26T10:19:44Z</time>
      </trkpt>
      <trkpt lat="46.30478" lon="-0.32395">
        <ele>75.8745</ele>
        <time>2010-12-26T10:19:45Z</time>
      </trkpt>
      <trkpt lat="46.30478" lon="-0.32396">
        <ele>75.8619</ele>
        <time>2010-12-26T10:19:46Z</time>
      </trkpt>
      <trkpt lat="46.30479" lon="-0.32398">
        <ele>75.8501</ele>
        <time>2010-12-26T10:19:47Z</time>
      </trkpt>
      <trkpt lat="46.30479" lon="-0.324">
        <ele>75.8393</ele>
        <time>2010-12-26T10:19:48Z</time>
      </trkpt>
      <trkpt lat="46.30479" lon="-0.32401">
        <ele>75.8302</ele>
        <time>2010-12-26T10:19:49Z</time>
      </trkpt>
      <trkpt lat="46.3048" lon="-0.32403">
        <ele>75.822</ele>
        <time>2010-12-26T10:19:50Z</time>
      </trkpt>
      <trkpt lat="46.30481" lon="-0.32405">
        <ele>75.8145</ele>
        <time>2010-12-26T10:19:51Z</time>
      </trkpt>
      <trkpt lat="46.30481" lon="-0.32407">
        <ele>75.8077</ele>
        <time>2010-12-26T10:19:52Z</time>
      </trkpt>
      <trkpt lat="46.30481" lon="-0.32409">
        <ele>75.8012</ele>
        <time>2010-12-26T10:19:54Z</time>
      </trkpt>
      <trkpt lat="46.30482" lon="-0.32411">
        <ele>75.7949</ele>
        <time>2010-12-26T10:19:54Z</time>
      </trkpt>
      <trkpt lat="46.30482" lon="-0.32413">
        <ele>75.7891</ele>
        <time>2010-12-26T10:19:55Z</time>
      </trkpt>
      <trkpt lat="46.30483" lon="-0.32415">
        <ele>75.7843</ele>
        <time>2010-12-26T10:19:57Z</time>
      </trkpt>
      <trkpt lat="46.30483" lon="-0.32417">
        <ele>75.7796</ele>
        <time>2010-12-26T10:19:58Z</time>
      </trkpt>
      <trkpt lat="46.30484" lon="-0.32419">
        <ele>75.7756</ele>
        <time>2010-12-26T10:19:58Z</time>
      </trkpt>
      <trkpt lat="46.30484" lon="-0.32421">
        <ele>75.772</ele>
        <time>2010-12-26T10:19:59Z</time>
      </trkpt>
      <trkpt lat="46.30485" lon="-0.32424">
        <ele>75.7686</ele>
        <time>2010-12-26T10:20:00Z</time>
      </trkpt>
      <trkpt lat="46.30485" lon="-0.32426">
        <ele>75.7657</ele>
        <time>2010-12-26T10:20:02Z</time>
      </trkpt>
      <trkpt lat="46.30486" lon="-0.32428">
        <ele>75.7633</ele>
        <time>2010-12-26T10:20:02Z</time>
      </trkpt>
      <trkpt lat="46.30486" lon="-0.3243">
        <ele>75.7617</ele>
        <time>2010-12-26T10:20:03Z</time>
      </trkpt>
      <trkpt lat="46.30486" lon="-0.32432">
        <ele>75.7609</ele>
        <time>2010-12-26T10:20:05Z</time>
      </trkpt>
      <trkpt lat="46.30486" lon="-0.32433">
        <ele>75.7597</ele>
        <time>2010-12-26T10:20:06Z</time>
      </trkpt>
      <trkpt lat="46.30486" lon="-0.32435">
        <ele>75.7583</ele>
        <time>2010-12-26T10:20:07Z</time>
      </trkpt>
      <trkpt lat="46.30486" lon="-0.32437">
        <ele>75.7584</ele>
        <time>2010-12-26T10:20:08Z</time>
      </trkpt>
      <trkpt lat="46.30487" lon="-0.32439">
        <ele>75.7594</ele>
        <time>2010-12-26T10:20:09Z</time>
      </trkpt>
      <trkpt lat="46.30487" lon="-0.3244">
        <ele>75.7606</ele>
        <time>2010-12-26T10:20:10Z</time>
      </trkpt>
      <trkpt lat="46.30488" lon="-0.32442">
        <ele>75.7638</ele>
        <time>2010-12-26T10:20:11Z</time>
      </trkpt>
      <trkpt lat="46.30488" lon="-0.32443">
        <ele>75.7696</ele>
        <time>2010-12-26T10:20:12Z</time>
      </trkpt>
      <trkpt lat="46.30489" lon="-0.32445">
        <ele>75.7756</ele>
        <time>2010-12-26T10:20:13Z</time>
      </trkpt>
      <trkpt lat="46.30489" lon="-0.32447">
        <ele>75.7834</ele>
        <time>2010-12-26T10:20:14Z</time>
      </trkpt>
      <trkpt lat="46.30489" lon="-0.32449">
        <ele>75.7929</ele>
        <time>2010-12-26T10:20:15Z</time>
      </trkpt>
      <trkpt lat="46.3049" lon="-0.32451">
        <ele>75.8039</ele>
        <time>2010-12-26T10:20:16Z</time>
      </trkpt>
      <trkpt lat="46.30491" lon="-0.32453">
        <ele>75.816</ele>
        <time>2010-12-26T10:20:17Z</time>
      </trkpt>
      <trkpt lat="46.30491" lon="-0.32454">
        <ele>75.8297</ele>
        <time>2010-12-26T10:20:18Z</time>
      </trkpt>
      <trkpt lat="46.30491" lon="-0.32457">
        <ele>75.8441</ele>
        <time>2010-12-26T10:20:19Z</time>
      </trkpt>
      <trkpt lat="46.30492" lon="-0.32459">
        <ele>75.8595</ele>
        <time>2010-12-26T10:20:20Z</time>
      </trkpt>
      <trkpt lat="46.30492" lon="-0.32461">
        <ele>75.8753</ele>
        <time>2010-12-26T10:20:21Z</time>
      </trkpt>
      <trkpt lat="46.30493" lon="-0.32463">
        <ele>75.8912</ele>
        <time>2010-12-26T10:20:22Z</time>
      </trkpt>
      <trkpt lat="46.30493" lon="-0.32465">
        <ele>75.9074</ele>
        <time>2010-12-26T10:20:23Z</time>
      </trkpt>
      <trkpt lat="46.30494" lon="-0.32467">
        <ele>75.9234</ele>
        <time>2010-12-26T10:20:24Z</time>
      </trkpt>
      <trkpt lat="46.30494" lon="-0.3247">
        <ele>75.9394</ele>
        <time>2010-12-26T10:20:25Z</time>
      </trkpt>
      <trkpt lat="46.30494" lon="-0.32472">
        <ele>75.9556</ele>
        <time>2010-12-26T10:20:26Z</time>
      </trkpt>
      <trkpt lat="46.30495" lon="-0.32474">
        <ele>75.9714</ele>
        <time>2010-12-26T10:20:27Z</time>
      </trkpt>
      <trkpt lat="46.30495" lon="-0.32476">
        <ele>75.9865</ele>
        <time>2010-12-26T10:20:28Z</time>
      </trkpt>
      <trkpt lat="46.30496" lon="-0.32478">
        <ele>76.0011</ele>
        <time>2010-12-26T10:20:29Z</time>
      </trkpt>
      <trkpt lat="46.30496" lon="-0.3248">
        <ele>76.0145</ele>
        <time>2010-12-26T10:20:30Z</time>
      </trkpt>
      <trkpt lat="46.30496" lon="-0.32482">
        <ele>76.0267</ele>
        <time>2010-12-26T10:20:31Z</time>
      </trkpt>
      <trkpt lat="46.30496" lon="-0.32484">
        <ele>76.0381</ele>
        <time>2010-12-26T10:20:32Z</time>
      </trkpt>
      <trkpt lat="46.30497" lon="-0.32486">
        <ele>76.0488</ele>
        <time>2010-12-26T10:20:33Z</time>
      </trkpt>
      <trkpt lat="46.30497" lon="-0.32487">
        <ele>76.058</ele>
        <time>2010-12-26T10:20:34Z</time>
      </trkpt>
      <trkpt lat="46.30498" lon="-0.3249">
        <ele>76.0661</ele>
        <time>2010-12-26T10:20:35Z</time>
      </trkpt>
      <trkpt lat="46.30498" lon="-0.32492">
        <ele>76.0739</ele>
        <time>2010-12-26T10:20:36Z</time>
      </trkpt>
      <trkpt lat="46.30499" lon="-0.32494">
        <ele>76.0811</ele>
        <time>2010-12-26T10:20:37Z</time>
      </trkpt>
      <trkpt lat="46.30499" lon="-0.32496">
        <ele>76.0888</ele>
        <time>2010-12-26T10:20:38Z</time>
      </trkpt>
      <trkpt lat="46.30499" lon="-0.32497">
        <ele>76.0966</ele>
        <time>2010-12-26T10:20:39Z</time>
      </trkpt>
      <trkpt lat="46.305" lon="-0.32499">
        <ele>76.1055</ele>
        <time>2010-12-26T10:20:40Z</time>
      </trkpt>
      <trkpt lat="46.305" lon="-0.32501">
        <ele>76.1155</ele>
        <time>2010-12-26T10:20:41Z</time>
      </trkpt>
      <trkpt lat="46.305" lon="-0.32503">
        <ele>76.1264</ele>
        <time>2010-12-26T10:20:42Z</time>
      </trkpt>
      <trkpt lat="46.30501" lon="-0.32504">
        <ele>76.1373</ele>
        <time>2010-12-26T10:20:43Z</time>
      </trkpt>
      <trkpt lat="46.30502" lon="-0.32506">
        <ele>76.1475</ele>
        <time>2010-12-26T10:20:44Z</time>
      </trkpt>
      <trkpt lat="46.30502" lon="-0.32508">
        <ele>76.1565</ele>
        <time>2010-12-26T10:20:44Z</time>
      </trkpt>
      <trkpt lat="46.30502" lon="-0.3251">
        <ele>76.1647</ele>
        <time>2010-12-26T10:20:45Z</time>
      </trkpt>
      <trkpt lat="46.30503" lon="-0.32511">
        <ele>76.1719</ele>
        <time>2010-12-26T10:20:46Z</time>
      </trkpt>
      <trkpt lat="46.30503" lon="-0.32514">
        <ele>76.1791</ele>
        <time>2010-12-26T10:20:48Z</time>
      </trkpt>
      <trkpt lat="46.30503" lon="-0.32515">
        <ele>76.1859</ele>
        <time>2010-12-26T10:20:48Z</time>
      </trkpt>
      <trkpt lat="46.30504" lon="-0.32517">
        <ele>76.1937</ele>
        <time>2010-12-26T10:20:49Z</time>
      </trkpt>
      <trkpt lat="46.30504" lon="-0.32519">
        <ele>76.202</ele>
        <time>2010-12-26T10:20:50Z</time>
      </trkpt>
      <trkpt lat="46.30504" lon="-0.32521">
        <ele>76.2103</ele>
        <time>2010-12-26T10:20:51Z</time>
      </trkpt>
      <trkpt lat="46.30505" lon="-0.32523">
        <ele>76.2186</ele>
        <time>2010-12-26T10:20:52Z</time>
      </trkpt>
      <trkpt lat="46.30505" lon="-0.32524">
        <ele>76.2268</ele>
        <time>2010-12-26T10:20:53Z</time>
      </trkpt>
      <trkpt lat="46.30505" lon="-0.32526">
        <ele>76.2358</ele>
        <time>2010-12-26T10:20:54Z</time>
      </trkpt>
      <trkpt lat="46.30506" lon="-0.32528">
        <ele>76.2451</ele>
        <time>2010-12-26T10:20:55Z</time>
      </trkpt>
      <trkpt lat="46.30506" lon="-0.3253">
        <ele>76.2547</ele>
        <time>2010-12-26T10:20:56Z</time>
      </trkpt>
      <trkpt lat="46.30507" lon="-0.32532">
        <ele>76.2638</ele>
        <time>2010-12-26T10:20:57Z</time>
      </trkpt>
      <trkpt lat="46.30507" lon="-0.32534">
        <ele>76.2724</ele>
        <time>2010-12-26T10:20:58Z</time>
      </trkpt>
      <trkpt lat="46.30508" lon="-0.32535">
        <ele>76.281</ele>
        <time>2010-12-26T10:20:59Z</time>
      </trkpt>
      <trkpt lat="46.30508" lon="-0.32537">
        <ele>76.2899</ele>
        <time>2010-12-26T10:21:00Z</time>
      </trkpt>
      <trkpt lat="46.30508" lon="-0.32539">
        <ele>76.3004</ele>
        <time>2010-12-26T10:21:01Z</time>
      </trkpt>
      <trkpt lat="46.30509" lon="-0.32541">
        <ele>76.3108</ele>
        <time>2010-12-26T10:21:02Z</time>
      </trkpt>
      <trkpt lat="46.3051" lon="-0.32542">
        <ele>76.3214</ele>
        <time>2010-12-26T10:21:03Z</time>
      </trkpt>
      <trkpt lat="46.3051" lon="-0.32544">
        <ele>76.3332</ele>
        <time>2010-12-26T10:21:04Z</time>
      </trkpt>
      <trkpt lat="46.30511" lon="-0.32546">
        <ele>76.3436</ele>
        <time>2010-12-26T10:21:05Z</time>
      </trkpt>
      <trkpt lat="46.30511" lon="-0.32548">
        <ele>76.3581</ele>
        <time>2010-12-26T10:21:06Z</time>
      </trkpt>
      <trkpt lat="46.30512" lon="-0.3255">
        <ele>76.3717</ele>
        <time>2010-12-26T10:21:07Z</time>
      </trkpt>
      <trkpt lat="46.30512" lon="-0.32552">
        <ele>76.3853</ele>
        <time>2010-12-26T10:21:08Z</time>
      </trkpt>
      <trkpt lat="46.30512" lon="-0.32554">
        <ele>76.398</ele>
        <time>2010-12-26T10:21:09Z</time>
      </trkpt>
      <trkpt lat="46.30512" lon="-0.32556">
        <ele>76.4169</ele>
        <time>2010-12-26T10:21:10Z</time>
      </trkpt>
      <trkpt lat="46.30513" lon="-0.32557">
        <ele>76.445</ele>
        <time>2010-12-26T10:21:11Z</time>
      </trkpt>
      <trkpt lat="46.30513" lon="-0.32559">
        <ele>76.4796</ele>
        <time>2010-12-26T10:21:12Z</time>
      </trkpt>
      <trkpt lat="46.30513" lon="-0.32561">
        <ele>76.5177</ele>
        <time>2010-12-26T10:21:13Z</time>
      </trkpt>
      <trkpt lat="46.30514" lon="-0.32564">
        <ele>76.5548</ele>
        <time>2010-12-26T10:21:14Z</time>
      </trkpt>
      <trkpt lat="46.30514" lon="-0.32566">
        <ele>76.5901</ele>
        <time>2010-12-26T10:21:15Z</time>
      </trkpt>
      <trkpt lat="46.30515" lon="-0.32569">
        <ele>76.6244</ele>
        <time>2010-12-26T10:21:16Z</time>
      </trkpt>
      <trkpt lat="46.30515" lon="-0.32571">
        <ele>76.6551</ele>
        <time>2010-12-26T10:21:17Z</time>
      </trkpt>
      <trkpt lat="46.30516" lon="-0.32573">
        <ele>76.6826</ele>
        <time>2010-12-26T10:21:18Z</time>
      </trkpt>
      <trkpt lat="46.30516" lon="-0.32575">
        <ele>76.7074</ele>
        <time>2010-12-26T10:21:19Z</time>
      </trkpt>
      <trkpt lat="46.30516" lon="-0.32577">
        <ele>76.7331</ele>
        <time>2010-12-26T10:21:20Z</time>
      </trkpt>
      <trkpt lat="46.30517" lon="-0.32579">
        <ele>76.7559</ele>
        <time>2010-12-26T10:21:21Z</time>
      </trkpt>
      <trkpt lat="46.30518" lon="-0.32581">
        <ele>76.7769</ele>
        <time>2010-12-26T10:21:22Z</time>
      </trkpt>
      <trkpt lat="46.30518" lon="-0.32583">
        <ele>76.7996</ele>
        <time>2010-12-26T10:21:23Z</time>
      </trkpt>
      <trkpt lat="46.30519" lon="-0.32585">
        <ele>76.8229</ele>
        <time>2010-12-26T10:21:24Z</time>
      </trkpt>
      <trkpt lat="46.30519" lon="-0.32587">
        <ele>76.8477</ele>
        <time>2010-12-26T10:21:25Z</time>
      </trkpt>
      <trkpt lat="46.3052" lon="-0.32589">
        <ele>76.8735</ele>
        <time>2010-12-26T10:21:26Z</time>
      </trkpt>
      <trkpt lat="46.3052" lon="-0.3259">
        <ele>76.8988</ele>
        <time>2010-12-26T10:21:27Z</time>
      </trkpt>
      <trkpt lat="46.30521" lon="-0.32592">
        <ele>76.9227</ele>
        <time>2010-12-26T10:21:28Z</time>
      </trkpt>
      <trkpt lat="46.30521" lon="-0.32594">
        <ele>76.9449</ele>
        <time>2010-12-26T10:21:29Z</time>
      </trkpt>
      <trkpt lat="46.30521" lon="-0.32596">
        <ele>76.9653</ele>
        <time>2010-12-26T10:21:30Z</time>
      </trkpt>
      <trkpt lat="46.30522" lon="-0.32598">
        <ele>76.9849</ele>
        <time>2010-12-26T10:21:31Z</time>
      </trkpt>
      <trkpt lat="46.30522" lon="-0.326">
        <ele>77.0034</ele>
        <time>2010-12-26T10:21:32Z</time>
      </trkpt>
      <trkpt lat="46.30523" lon="-0.32602">
        <ele>77.0209</ele>
        <time>2010-12-26T10:21:33Z</time>
      </trkpt>
      <trkpt lat="46.30523" lon="-0.32604">
        <ele>77.0375</ele>
        <time>2010-12-26T10:21:34Z</time>
      </trkpt>
      <trkpt lat="46.30524" lon="-0.32605">
        <ele>77.0538</ele>
        <time>2010-12-26T10:21:35Z</time>
      </trkpt>
      <trkpt lat="46.30524" lon="-0.32607">
        <ele>77.0707</ele>
        <time>2010-12-26T10:21:37Z</time>
      </trkpt>
      <trkpt lat="46.30524" lon="-0.32609">
        <ele>77.0873</ele>
        <time>2010-12-26T10:21:37Z</time>
      </trkpt>
      <trkpt lat="46.30524" lon="-0.32612">
        <ele>77.1046</ele>
        <time>2010-12-26T10:21:38Z</time>
      </trkpt>
      <trkpt lat="46.30524" lon="-0.32613">
        <ele>77.121</ele>
        <time>2010-12-26T10:21:39Z</time>
      </trkpt>
      <trkpt lat="46.30524" lon="-0.32615">
        <ele>77.1372</ele>
        <time>2010-12-26T10:21:40Z</time>
      </trkpt>
      <trkpt lat="46.30525" lon="-0.32617">
        <ele>77.1531</ele>
        <time>2010-12-26T10:21:41Z</time>
      </trkpt>
      <trkpt lat="46.30525" lon="-0.32619">
        <ele>77.1683</ele>
        <time>2010-12-26T10:21:42Z</time>
      </trkpt>
      <trkpt lat="46.30525" lon="-0.3262">
        <ele>77.1831</ele>
        <time>2010-12-26T10:21:43Z</time>
      </trkpt>
      <trkpt lat="46.30526" lon="-0.32622">
        <ele>77.197</ele>
        <time>2010-12-26T10:21:44Z</time>
      </trkpt>
      <trkpt lat="46.30526" lon="-0.32624">
        <ele>77.2098</ele>
        <time>2010-12-26T10:21:45Z</time>
      </trkpt>
      <trkpt lat="46.30526" lon="-0.32626">
        <ele>77.2214</ele>
        <time>2010-12-26T10:21:46Z</time>
      </trkpt>
      <trkpt lat="46.30527" lon="-0.32628">
        <ele>77.2319</ele>
        <time>2010-12-26T10:21:47Z</time>
      </trkpt>
      <trkpt lat="46.30527" lon="-0.32631">
        <ele>77.2414</ele>
        <time>2010-12-26T10:21:48Z</time>
      </trkpt>
      <trkpt lat="46.30528" lon="-0.32633">
        <ele>77.2495</ele>
        <time>2010-12-26T10:21:49Z</time>
      </trkpt>
      <trkpt lat="46.30528" lon="-0.32634">
        <ele>77.2563</ele>
        <time>2010-12-26T10:21:50Z</time>
      </trkpt>
      <trkpt lat="46.30529" lon="-0.32636">
        <ele>77.2611</ele>
        <time>2010-12-26T10:21:52Z</time>
      </trkpt>
      <trkpt lat="46.30529" lon="-0.32638">
        <ele>77.2645</ele>
        <time>2010-12-26T10:21:52Z</time>
      </trkpt>
      <trkpt lat="46.3053" lon="-0.3264">
        <ele>77.2668</ele>
        <time>2010-12-26T10:21:53Z</time>
      </trkpt>
      <trkpt lat="46.30531" lon="-0.32642">
        <ele>77.2683</ele>
        <time>2010-12-26T10:21:54Z</time>
      </trkpt>
      <trkpt lat="46.30531" lon="-0.32644">
        <ele>77.2693</ele>
        <time>2010-12-26T10:21:55Z</time>
      </trkpt>
      <trkpt lat="46.30531" lon="-0.32646">
        <ele>77.2682</ele>
        <time>2010-12-26T10:21:56Z</time>
      </trkpt>
      <trkpt lat="46.30532" lon="-0.32648">
        <ele>77.2654</ele>
        <time>2010-12-26T10:21:57Z</time>
      </trkpt>
      <trkpt lat="46.30532" lon="-0.3265">
        <ele>77.2618</ele>
        <time>2010-12-26T10:21:58Z</time>
      </trkpt>
      <trkpt lat="46.30533" lon="-0.32652">
        <ele>77.257</ele>
        <time>2010-12-26T10:21:59Z</time>
      </trkpt>
      <trkpt lat="46.30533" lon="-0.32654">
        <ele>77.2512</ele>
        <time>2010-12-26T10:22:00Z</time>
      </trkpt>
      <trkpt lat="46.30533" lon="-0.32656">
        <ele>77.2451</ele>
        <time>2010-12-26T10:22:01Z</time>
      </trkpt>
      <trkpt lat="46.30534" lon="-0.32658">
        <ele>77.2391</ele>
        <time>2010-12-26T10:22:02Z</time>
      </trkpt>
      <trkpt lat="46.30534" lon="-0.3266">
        <ele>77.2335</ele>
        <time>2010-12-26T10:22:03Z</time>
      </trkpt>
      <trkpt lat="46.30534" lon="-0.32662">
        <ele>77.2284</ele>
        <time>2010-12-26T10:22:04Z</time>
      </trkpt>
      <trkpt lat="46.30535" lon="-0.32664">
        <ele>77.2238</ele>
        <time>2010-12-26T10:22:06Z</time>
      </trkpt>
      <trkpt lat="46.30535" lon="-0.32666">
        <ele>77.219</ele>
        <time>2010-12-26T10:22:07Z</time>
      </trkpt>
      <trkpt lat="46.30535" lon="-0.32668">
        <ele>77.2157</ele>
        <time>2010-12-26T10:22:07Z</time>
      </trkpt>
      <trkpt lat="46.30536" lon="-0.3267">
        <ele>77.2128</ele>
        <time>2010-12-26T10:22:09Z</time>
      </trkpt>
      <trkpt lat="46.30536" lon="-0.32672">
        <ele>77.2106</ele>
        <time>2010-12-26T10:22:10Z</time>
      </trkpt>
      <trkpt lat="46.30536" lon="-0.32674">
        <ele>77.2106</ele>
        <time>2010-12-26T10:22:10Z</time>
      </trkpt>
      <trkpt lat="46.30536" lon="-0.32676">
        <ele>77.2078</ele>
        <time>2010-12-26T10:22:11Z</time>
      </trkpt>
      <trkpt lat="46.30536" lon="-0.32677">
        <ele>77.2011</ele>
        <time>2010-12-26T10:22:12Z</time>
      </trkpt>
      <trkpt lat="46.30537" lon="-0.32679">
        <ele>77.1907</ele>
        <time>2010-12-26T10:22:13Z</time>
      </trkpt>
      <trkpt lat="46.30537" lon="-0.3268">
        <ele>77.1778</ele>
        <time>2010-12-26T10:22:15Z</time>
      </trkpt>
      <trkpt lat="46.30537" lon="-0.32682">
        <ele>77.1613</ele>
        <time>2010-12-26T10:22:15Z</time>
      </trkpt>
      <trkpt lat="46.30538" lon="-0.32683">
        <ele>77.1437</ele>
        <time>2010-12-26T10:22:16Z</time>
      </trkpt>
      <trkpt lat="46.30539" lon="-0.32685">
        <ele>77.1264</ele>
        <time>2010-12-26T10:22:18Z</time>
      </trkpt>
      <trkpt lat="46.30539" lon="-0.32687">
        <ele>77.1098</ele>
        <time>2010-12-26T10:22:18Z</time>
      </trkpt>
      <trkpt lat="46.3054" lon="-0.32688">
        <ele>77.0943</ele>
        <time>2010-12-26T10:22:20Z</time>
      </trkpt>
      <trkpt lat="46.30541" lon="-0.3269">
        <ele>77.0799</ele>
        <time>2010-12-26T10:22:20Z</time>
      </trkpt>
      <trkpt lat="46.30542" lon="-0.32692">
        <ele>77.0666</ele>
        <time>2010-12-26T10:22:21Z</time>
      </trkpt>
      <trkpt lat="46.30542" lon="-0.32694">
        <ele>77.0545</ele>
        <time>2010-12-26T10:22:22Z</time>
      </trkpt>
      <trkpt lat="46.30543" lon="-0.32696">
        <ele>77.0435</ele>
        <time>2010-12-26T10:22:23Z</time>
      </trkpt>
      <trkpt lat="46.30543" lon="-0.32697">
        <ele>77.0331</ele>
        <time>2010-12-26T10:22:24Z</time>
      </trkpt>
      <trkpt lat="46.30544" lon="-0.32699">
        <ele>77.0223</ele>
        <time>2010-12-26T10:22:25Z</time>
      </trkpt>
      <trkpt lat="46.30544" lon="-0.32701">
        <ele>77.0109</ele>
        <time>2010-12-26T10:22:27Z</time>
      </trkpt>
      <trkpt lat="46.30545" lon="-0.32703">
        <ele>76.9995</ele>
        <time>2010-12-26T10:22:27Z</time>
      </trkpt>
      <trkpt lat="46.30545" lon="-0.32705">
        <ele>76.9881</ele>
        <time>2010-12-26T10:22:28Z</time>
      </trkpt>
      <trkpt lat="46.30545" lon="-0.32706">
        <ele>76.9773</ele>
        <time>2010-12-26T10:22:29Z</time>
      </trkpt>
      <trkpt lat="46.30546" lon="-0.32708">
        <ele>76.9669</ele>
        <time>2010-12-26T10:22:30Z</time>
      </trkpt>
      <trkpt lat="46.30546" lon="-0.3271">
        <ele>76.9564</ele>
        <time>2010-12-26T10:22:31Z</time>
      </trkpt>
      <trkpt lat="46.30547" lon="-0.32712">
        <ele>76.9454</ele>
        <time>2010-12-26T10:22:33Z</time>
      </trkpt>
      <trkpt lat="46.30547" lon="-0.32714">
        <ele>76.9338</ele>
        <time>2010-12-26T10:22:33Z</time>
      </trkpt>
      <trkpt lat="46.30547" lon="-0.32716">
        <ele>76.9213</ele>
        <time>2010-12-26T10:22:34Z</time>
      </trkpt>
      <trkpt lat="46.30548" lon="-0.32718">
        <ele>76.9082</ele>
        <time>2010-12-26T10:22:35Z</time>
      </trkpt>
      <trkpt lat="46.30548" lon="-0.3272">
        <ele>76.8955</ele>
        <time>2010-12-26T10:22:36Z</time>
      </trkpt>
      <trkpt lat="46.30548" lon="-0.32722">
        <ele>76.8834</ele>
        <time>2010-12-26T10:22:37Z</time>
      </trkpt>
      <trkpt lat="46.30549" lon="-0.32724">
        <ele>76.8717</ele>
        <time>2010-12-26T10:22:38Z</time>
      </trkpt>
      <trkpt lat="46.30549" lon="-0.32726">
        <ele>76.8606</ele>
        <time>2010-12-26T10:22:39Z</time>
      </trkpt>
      <trkpt lat="46.30549" lon="-0.32728">
        <ele>76.85</ele>
        <time>2010-12-26T10:22:40Z</time>
      </trkpt>
      <trkpt lat="46.30549" lon="-0.3273">
        <ele>76.8413</ele>
        <time>2010-12-26T10:22:41Z</time>
      </trkpt>
      <trkpt lat="46.30549" lon="-0.32732">
        <ele>76.8324</ele>
        <time>2010-12-26T10:22:42Z</time>
      </trkpt>
      <trkpt lat="46.3055" lon="-0.32733">
        <ele>76.8232</ele>
        <time>2010-12-26T10:22:43Z</time>
      </trkpt>
      <trkpt lat="46.3055" lon="-0.32735">
        <ele>76.8232</ele>
        <time>2010-12-26T10:22:44Z</time>
      </trkpt>
      <trkpt lat="46.3055" lon="-0.32737">
        <ele>76.8141</ele>
        <time>2010-12-26T10:22:45Z</time>
      </trkpt>
      <trkpt lat="46.30551" lon="-0.32739">
        <ele>76.8073</ele>
        <time>2010-12-26T10:22:46Z</time>
      </trkpt>
      <trkpt lat="46.30551" lon="-0.3274">
        <ele>76.8015</ele>
        <time>2010-12-26T10:22:47Z</time>
      </trkpt>
      <trkpt lat="46.30552" lon="-0.32742">
        <ele>76.7988</ele>
        <time>2010-12-26T10:22:48Z</time>
      </trkpt>
      <trkpt lat="46.30552" lon="-0.32744">
        <ele>76.7987</ele>
        <time>2010-12-26T10:22:49Z</time>
      </trkpt>
      <trkpt lat="46.30553" lon="-0.32746">
        <ele>76.8003</ele>
        <time>2010-12-26T10:22:50Z</time>
      </trkpt>
      <trkpt lat="46.30553" lon="-0.32748">
        <ele>76.8041</ele>
        <time>2010-12-26T10:22:51Z</time>
      </trkpt>
      <trkpt lat="46.30553" lon="-0.3275">
        <ele>76.809</ele>
        <time>2010-12-26T10:22:52Z</time>
      </trkpt>
      <trkpt lat="46.30554" lon="-0.32752">
        <ele>76.8142</ele>
        <time>2010-12-26T10:22:54Z</time>
      </trkpt>
      <trkpt lat="46.30555" lon="-0.32753">
        <ele>76.8197</ele>
        <time>2010-12-26T10:22:54Z</time>
      </trkpt>
      <trkpt lat="46.30555" lon="-0.32755">
        <ele>76.825</ele>
        <time>2010-12-26T10:22:55Z</time>
      </trkpt>
      <trkpt lat="46.30556" lon="-0.32757">
        <ele>76.829</ele>
        <time>2010-12-26T10:22:56Z</time>
      </trkpt>
      <trkpt lat="46.30556" lon="-0.32758">
        <ele>76.8324</ele>
        <time>2010-12-26T10:22:57Z</time>
      </trkpt>
      <trkpt lat="46.30557" lon="-0.3276">
        <ele>76.8358</ele>
        <time>2010-12-26T10:22:58Z</time>
      </trkpt>
      <trkpt lat="46.30557" lon="-0.32762">
        <ele>76.8381</ele>
        <time>2010-12-26T10:22:59Z</time>
      </trkpt>
      <trkpt lat="46.30557" lon="-0.32764">
        <ele>76.8381</ele>
        <time>2010-12-26T10:23:00Z</time>
      </trkpt>
      <trkpt lat="46.30558" lon="-0.32766">
        <ele>76.8396</ele>
        <time>2010-12-26T10:23:01Z</time>
      </trkpt>
      <trkpt lat="46.30558" lon="-0.32767">
        <ele>76.8384</ele>
        <time>2010-12-26T10:23:02Z</time>
      </trkpt>
      <trkpt lat="46.30558" lon="-0.32769">
        <ele>76.8339</ele>
        <time>2010-12-26T10:23:03Z</time>
      </trkpt>
      <trkpt lat="46.30559" lon="-0.32771">
        <ele>76.8276</ele>
        <time>2010-12-26T10:23:04Z</time>
      </trkpt>
      <trkpt lat="46.30559" lon="-0.32773">
        <ele>76.8175</ele>
        <time>2010-12-26T10:23:05Z</time>
      </trkpt>
      <trkpt lat="46.3056" lon="-0.32775">
        <ele>76.8052</ele>
        <time>2010-12-26T10:23:06Z</time>
      </trkpt>
      <trkpt lat="46.3056" lon="-0.32777">
        <ele>76.7912</ele>
        <time>2010-12-26T10:23:07Z</time>
      </trkpt>
      <trkpt lat="46.30561" lon="-0.32779">
        <ele>76.7762</ele>
        <time>2010-12-26T10:23:08Z</time>
      </trkpt>
      <trkpt lat="46.30561" lon="-0.32781">
        <ele>76.7601</ele>
        <time>2010-12-26T10:23:09Z</time>
      </trkpt>
      <trkpt lat="46.30561" lon="-0.32783">
        <ele>76.7439</ele>
        <time>2010-12-26T10:23:10Z</time>
      </trkpt>
      <trkpt lat="46.30562" lon="-0.32785">
        <ele>76.7271</ele>
        <time>2010-12-26T10:23:11Z</time>
      </trkpt>
      <trkpt lat="46.30562" lon="-0.32787">
        <ele>76.7095</ele>
        <time>2010-12-26T10:23:13Z</time>
      </trkpt>
      <trkpt lat="46.30563" lon="-0.32789">
        <ele>76.6905</ele>
        <time>2010-12-26T10:23:13Z</time>
      </trkpt>
      <trkpt lat="46.30563" lon="-0.32792">
        <ele>76.6698</ele>
        <time>2010-12-26T10:23:14Z</time>
      </trkpt>
      <trkpt lat="46.30563" lon="-0.32793">
        <ele>76.6466</ele>
        <time>2010-12-26T10:23:15Z</time>
      </trkpt>
      <trkpt lat="46.30564" lon="-0.32795">
        <ele>76.6225</ele>
        <time>2010-12-26T10:23:16Z</time>
      </trkpt>
      <trkpt lat="46.30564" lon="-0.32797">
        <ele>76.5974</ele>
        <time>2010-12-26T10:23:17Z</time>
      </trkpt>
      <trkpt lat="46.30565" lon="-0.32799">
        <ele>76.5715</ele>
        <time>2010-12-26T10:23:18Z</time>
      </trkpt>
      <trkpt lat="46.30565" lon="-0.32801">
        <ele>76.5455</ele>
        <time>2010-12-26T10:23:19Z</time>
      </trkpt>
      <trkpt lat="46.30565" lon="-0.32803">
        <ele>76.5192</ele>
        <time>2010-12-26T10:23:20Z</time>
      </trkpt>
      <trkpt lat="46.30566" lon="-0.32805">
        <ele>76.4933</ele>
        <time>2010-12-26T10:23:21Z</time>
      </trkpt>
      <trkpt lat="46.30566" lon="-0.32807">
        <ele>76.4696</ele>
        <time>2010-12-26T10:23:22Z</time>
      </trkpt>
      <trkpt lat="46.30566" lon="-0.32809">
        <ele>76.4461</ele>
        <time>2010-12-26T10:23:23Z</time>
      </trkpt>
      <trkpt lat="46.30567" lon="-0.32811">
        <ele>76.4233</ele>
        <time>2010-12-26T10:23:24Z</time>
      </trkpt>
      <trkpt lat="46.30567" lon="-0.32813">
        <ele>76.4007</ele>
        <time>2010-12-26T10:23:25Z</time>
      </trkpt>
      <trkpt lat="46.30568" lon="-0.32815">
        <ele>76.3787</ele>
        <time>2010-12-26T10:23:26Z</time>
      </trkpt>
      <trkpt lat="46.30568" lon="-0.32817">
        <ele>76.3558</ele>
        <time>2010-12-26T10:23:27Z</time>
      </trkpt>
      <trkpt lat="46.30569" lon="-0.32819">
        <ele>76.3331</ele>
        <time>2010-12-26T10:23:28Z</time>
      </trkpt>
      <trkpt lat="46.30569" lon="-0.32821">
        <ele>76.3104</ele>
        <time>2010-12-26T10:23:30Z</time>
      </trkpt>
      <trkpt lat="46.30569" lon="-0.32823">
        <ele>76.2877</ele>
        <time>2010-12-26T10:23:30Z</time>
      </trkpt>
      <trkpt lat="46.3057" lon="-0.32825">
        <ele>76.2654</ele>
        <time>2010-12-26T10:23:31Z</time>
      </trkpt>
      <trkpt lat="46.3057" lon="-0.32827">
        <ele>76.2433</ele>
        <time>2010-12-26T10:23:33Z</time>
      </trkpt>
      <trkpt lat="46.3057" lon="-0.32829">
        <ele>76.2219</ele>
        <time>2010-12-26T10:23:33Z</time>
      </trkpt>
      <trkpt lat="46.30571" lon="-0.32831">
        <ele>76.2001</ele>
        <time>2010-12-26T10:23:34Z</time>
      </trkpt>
      <trkpt lat="46.30571" lon="-0.32833">
        <ele>76.1801</ele>
        <time>2010-12-26T10:23:35Z</time>
      </trkpt>
      <trkpt lat="46.30572" lon="-0.32835">
        <ele>76.1609</ele>
        <time>2010-12-26T10:23:36Z</time>
      </trkpt>
      <trkpt lat="46.30572" lon="-0.32837">
        <ele>76.1413</ele>
        <time>2010-12-26T10:23:37Z</time>
      </trkpt>
      <trkpt lat="46.30573" lon="-0.3284">
        <ele>76.1215</ele>
        <time>2010-12-26T10:23:39Z</time>
      </trkpt>
      <trkpt lat="46.30573" lon="-0.32842">
        <ele>76.1021</ele>
        <time>2010-12-26T10:23:39Z</time>
      </trkpt>
      <trkpt lat="46.30574" lon="-0.32844">
        <ele>76.0828</ele>
        <time>2010-12-26T10:23:40Z</time>
      </trkpt>
      <trkpt lat="46.30574" lon="-0.32846">
        <ele>76.0641</ele>
        <time>2010-12-26T10:23:42Z</time>
      </trkpt>
      <trkpt lat="46.30574" lon="-0.32848">
        <ele>76.0461</ele>
        <time>2010-12-26T10:23:42Z</time>
      </trkpt>
      <trkpt lat="46.30575" lon="-0.3285">
        <ele>76.0289</ele>
        <time>2010-12-26T10:23:43Z</time>
      </trkpt>
      <trkpt lat="46.30575" lon="-0.32852">
        <ele>76.0121</ele>
        <time>2010-12-26T10:23:44Z</time>
      </trkpt>
      <trkpt lat="46.30575" lon="-0.32853">
        <ele>75.9957</ele>
        <time>2010-12-26T10:23:45Z</time>
      </trkpt>
      <trkpt lat="46.30576" lon="-0.32855">
        <ele>75.9779</ele>
        <time>2010-12-26T10:23:46Z</time>
      </trkpt>
      <trkpt lat="46.30576" lon="-0.32857">
        <ele>75.9603</ele>
        <time>2010-12-26T10:23:48Z</time>
      </trkpt>
      <trkpt lat="46.30577" lon="-0.32859">
        <ele>75.941</ele>
        <time>2010-12-26T10:23:49Z</time>
      </trkpt>
      <trkpt lat="46.30577" lon="-0.32861">
        <ele>75.9217</ele>
        <time>2010-12-26T10:23:50Z</time>
      </trkpt>
      <trkpt lat="46.30578" lon="-0.32863">
        <ele>75.9029</ele>
        <time>2010-12-26T10:23:51Z</time>
      </trkpt>
      <trkpt lat="46.30578" lon="-0.32865">
        <ele>75.8845</ele>
        <time>2010-12-26T10:23:52Z</time>
      </trkpt>
      <trkpt lat="46.30578" lon="-0.32867">
        <ele>75.8655</ele>
        <time>2010-12-26T10:23:53Z</time>
      </trkpt>
      <trkpt lat="46.30579" lon="-0.32869">
        <ele>75.8462</ele>
        <time>2010-12-26T10:23:54Z</time>
      </trkpt>
      <trkpt lat="46.30579" lon="-0.32871">
        <ele>75.8267</ele>
        <time>2010-12-26T10:23:55Z</time>
      </trkpt>
      <trkpt lat="46.30579" lon="-0.32873">
        <ele>75.8074</ele>
        <time>2010-12-26T10:23:56Z</time>
      </trkpt>
      <trkpt lat="46.3058" lon="-0.32875">
        <ele>75.7891</ele>
        <time>2010-12-26T10:23:57Z</time>
      </trkpt>
      <trkpt lat="46.30581" lon="-0.32877">
        <ele>75.7719</ele>
        <time>2010-12-26T10:23:58Z</time>
      </trkpt>
      <trkpt lat="46.30581" lon="-0.32879">
        <ele>75.7551</ele>
        <time>2010-12-26T10:23:59Z</time>
      </trkpt>
      <trkpt lat="46.30581" lon="-0.32881">
        <ele>75.7395</ele>
        <time>2010-12-26T10:24:00Z</time>
      </trkpt>
      <trkpt lat="46.30582" lon="-0.32883">
        <ele>75.7244</ele>
        <time>2010-12-26T10:24:01Z</time>
      </trkpt>
      <trkpt lat="46.30582" lon="-0.32885">
        <ele>75.7095</ele>
        <time>2010-12-26T10:24:02Z</time>
      </trkpt>
      <trkpt lat="46.30582" lon="-0.32887">
        <ele>75.6945</ele>
        <time>2010-12-26T10:24:03Z</time>
      </trkpt>
      <trkpt lat="46.30583" lon="-0.32889">
        <ele>75.6797</ele>
        <time>2010-12-26T10:24:04Z</time>
      </trkpt>
      <trkpt lat="46.30584" lon="-0.32892">
        <ele>75.6648</ele>
        <time>2010-12-26T10:24:05Z</time>
      </trkpt>
      <trkpt lat="46.30584" lon="-0.32894">
        <ele>75.6495</ele>
        <time>2010-12-26T10:24:05Z</time>
      </trkpt>
      <trkpt lat="46.30585" lon="-0.32895">
        <ele>75.6344</ele>
        <time>2010-12-26T10:24:07Z</time>
      </trkpt>
      <trkpt lat="46.30586" lon="-0.32897">
        <ele>75.619</ele>
        <time>2010-12-26T10:24:08Z</time>
      </trkpt>
      <trkpt lat="46.30586" lon="-0.32899">
        <ele>75.6054</ele>
        <time>2010-12-26T10:24:09Z</time>
      </trkpt>
      <trkpt lat="46.30587" lon="-0.32901">
        <ele>75.5934</ele>
        <time>2010-12-26T10:24:10Z</time>
      </trkpt>
      <trkpt lat="46.30587" lon="-0.32903">
        <ele>75.5839</ele>
        <time>2010-12-26T10:24:11Z</time>
      </trkpt>
      <trkpt lat="46.30588" lon="-0.32905">
        <ele>75.575</ele>
        <time>2010-12-26T10:24:12Z</time>
      </trkpt>
      <trkpt lat="46.30588" lon="-0.32906">
        <ele>75.5661</ele>
        <time>2010-12-26T10:24:13Z</time>
      </trkpt>
      <trkpt lat="46.30589" lon="-0.32908">
        <ele>75.5578</ele>
        <time>2010-12-26T10:24:14Z</time>
      </trkpt>
      <trkpt lat="46.30589" lon="-0.3291">
        <ele>75.5502</ele>
        <time>2010-12-26T10:24:15Z</time>
      </trkpt>
      <trkpt lat="46.3059" lon="-0.32912">
        <ele>75.5414</ele>
        <time>2010-12-26T10:24:16Z</time>
      </trkpt>
      <trkpt lat="46.3059" lon="-0.32914">
        <ele>75.5313</ele>
        <time>2010-12-26T10:24:17Z</time>
      </trkpt>
      <trkpt lat="46.30591" lon="-0.32916">
        <ele>75.5206</ele>
        <time>2010-12-26T10:24:18Z</time>
      </trkpt>
      <trkpt lat="46.30591" lon="-0.32918">
        <ele>75.5091</ele>
        <time>2010-12-26T10:24:19Z</time>
      </trkpt>
      <trkpt lat="46.30592" lon="-0.3292">
        <ele>75.4972</ele>
        <time>2010-12-26T10:24:20Z</time>
      </trkpt>
      <trkpt lat="46.30592" lon="-0.32923">
        <ele>75.4847</ele>
        <time>2010-12-26T10:24:21Z</time>
      </trkpt>
      <trkpt lat="46.30592" lon="-0.32925">
        <ele>75.4728</ele>
        <time>2010-12-26T10:24:22Z</time>
      </trkpt>
      <trkpt lat="46.30593" lon="-0.32927">
        <ele>75.4611</ele>
        <time>2010-12-26T10:24:23Z</time>
      </trkpt>
      <trkpt lat="46.30593" lon="-0.32929">
        <ele>75.4489</ele>
        <time>2010-12-26T10:24:24Z</time>
      </trkpt>
      <trkpt lat="46.30594" lon="-0.32931">
        <ele>75.4361</ele>
        <time>2010-12-26T10:24:25Z</time>
      </trkpt>
      <trkpt lat="46.30594" lon="-0.32933">
        <ele>75.4235</ele>
        <time>2010-12-26T10:24:26Z</time>
      </trkpt>
      <trkpt lat="46.30594" lon="-0.32935">
        <ele>75.4103</ele>
        <time>2010-12-26T10:24:27Z</time>
      </trkpt>
      <trkpt lat="46.30595" lon="-0.32937">
        <ele>75.3967</ele>
        <time>2010-12-26T10:24:28Z</time>
      </trkpt>
      <trkpt lat="46.30595" lon="-0.32938">
        <ele>75.3813</ele>
        <time>2010-12-26T10:24:29Z</time>
      </trkpt>
      <trkpt lat="46.30596" lon="-0.3294">
        <ele>75.3651</ele>
        <time>2010-12-26T10:24:30Z</time>
      </trkpt>
      <trkpt lat="46.30596" lon="-0.32942">
        <ele>75.3484</ele>
        <time>2010-12-26T10:24:31Z</time>
      </trkpt>
      <trkpt lat="46.30597" lon="-0.32944">
        <ele>75.3316</ele>
        <time>2010-12-26T10:24:32Z</time>
      </trkpt>
      <trkpt lat="46.30597" lon="-0.32946">
        <ele>75.3149</ele>
        <time>2010-12-26T10:24:33Z</time>
      </trkpt>
      <trkpt lat="46.30597" lon="-0.32948">
        <ele>75.2983</ele>
        <time>2010-12-26T10:24:34Z</time>
      </trkpt>
      <trkpt lat="46.30598" lon="-0.3295">
        <ele>75.2827</ele>
        <time>2010-12-26T10:24:35Z</time>
      </trkpt>
      <trkpt lat="46.30598" lon="-0.32952">
        <ele>75.268</ele>
        <time>2010-12-26T10:24:35Z</time>
      </trkpt>
      <trkpt lat="46.30599" lon="-0.32954">
        <ele>75.2543</ele>
        <time>2010-12-26T10:24:37Z</time>
      </trkpt>
      <trkpt lat="46.30599" lon="-0.32955">
        <ele>75.2418</ele>
        <time>2010-12-26T10:24:38Z</time>
      </trkpt>
      <trkpt lat="46.306" lon="-0.32957">
        <ele>75.2312</ele>
        <time>2010-12-26T10:24:39Z</time>
      </trkpt>
      <trkpt lat="46.306" lon="-0.32959">
        <ele>75.2206</ele>
        <time>2010-12-26T10:24:40Z</time>
      </trkpt>
      <trkpt lat="46.30601" lon="-0.32961">
        <ele>75.2103</ele>
        <time>2010-12-26T10:24:41Z</time>
      </trkpt>
      <trkpt lat="46.30602" lon="-0.32962">
        <ele>75.2003</ele>
        <time>2010-12-26T10:24:42Z</time>
      </trkpt>
      <trkpt lat="46.30602" lon="-0.32964">
        <ele>75.1904</ele>
        <time>2010-12-26T10:24:43Z</time>
      </trkpt>
      <trkpt lat="46.30602" lon="-0.32966">
        <ele>75.1808</ele>
        <time>2010-12-26T10:24:44Z</time>
      </trkpt>
      <trkpt lat="46.30603" lon="-0.32968">
        <ele>75.1717</ele>
        <time>2010-12-26T10:24:45Z</time>
      </trkpt>
      <trkpt lat="46.30603" lon="-0.3297">
        <ele>75.1628</ele>
        <time>2010-12-26T10:24:46Z</time>
      </trkpt>
      <trkpt lat="46.30603" lon="-0.32972">
        <ele>75.1546</ele>
        <time>2010-12-26T10:24:47Z</time>
      </trkpt>
      <trkpt lat="46.30604" lon="-0.32974">
        <ele>75.1463</ele>
        <time>2010-12-26T10:24:48Z</time>
      </trkpt>
      <trkpt lat="46.30604" lon="-0.32976">
        <ele>75.1385</ele>
        <time>2010-12-26T10:24:49Z</time>
      </trkpt>
      <trkpt lat="46.30605" lon="-0.32978">
        <ele>75.1308</ele>
        <time>2010-12-26T10:24:50Z</time>
      </trkpt>
      <trkpt lat="46.30605" lon="-0.3298">
        <ele>75.1229</ele>
        <time>2010-12-26T10:24:51Z</time>
      </trkpt>
      <trkpt lat="46.30606" lon="-0.32982">
        <ele>75.1147</ele>
        <time>2010-12-26T10:24:52Z</time>
      </trkpt>
      <trkpt lat="46.30606" lon="-0.32984">
        <ele>75.1067</ele>
        <time>2010-12-26T10:24:53Z</time>
      </trkpt>
      <trkpt lat="46.30607" lon="-0.32986">
        <ele>75.0986</ele>
        <time>2010-12-26T10:24:54Z</time>
      </trkpt>
      <trkpt lat="46.30607" lon="-0.32988">
        <ele>75.0898</ele>
        <time>2010-12-26T10:24:55Z</time>
      </trkpt>
      <trkpt lat="46.30608" lon="-0.3299">
        <ele>75.0808</ele>
        <time>2010-12-26T10:24:56Z</time>
      </trkpt>
      <trkpt lat="46.30608" lon="-0.32992">
        <ele>75.0712</ele>
        <time>2010-12-26T10:24:57Z</time>
      </trkpt>
      <trkpt lat="46.30608" lon="-0.32994">
        <ele>75.061</ele>
        <time>2010-12-26T10:24:58Z</time>
      </trkpt>
      <trkpt lat="46.30609" lon="-0.32996">
        <ele>75.0507</ele>
        <time>2010-12-26T10:24:59Z</time>
      </trkpt>
      <trkpt lat="46.30609" lon="-0.32998">
        <ele>75.0413</ele>
        <time>2010-12-26T10:25:00Z</time>
      </trkpt>
      <trkpt lat="46.3061" lon="-0.33">
        <ele>75.0322</ele>
        <time>2010-12-26T10:25:01Z</time>
      </trkpt>
      <trkpt lat="46.3061" lon="-0.33002">
        <ele>75.0232</ele>
        <time>2010-12-26T10:25:02Z</time>
      </trkpt>
      <trkpt lat="46.30611" lon="-0.33004">
        <ele>75.0146</ele>
        <time>2010-12-26T10:25:03Z</time>
      </trkpt>
      <trkpt lat="46.30611" lon="-0.33006">
        <ele>75.0072</ele>
        <time>2010-12-26T10:25:04Z</time>
      </trkpt>
      <trkpt lat="46.30611" lon="-0.33008">
        <ele>75.0001</ele>
        <time>2010-12-26T10:25:05Z</time>
      </trkpt>
      <trkpt lat="46.30612" lon="-0.3301">
        <ele>74.9919</ele>
        <time>2010-12-26T10:25:05Z</time>
      </trkpt>
      <trkpt lat="46.30612" lon="-0.33011">
        <ele>74.9834</ele>
        <time>2010-12-26T10:25:07Z</time>
      </trkpt>
      <trkpt lat="46.30613" lon="-0.33013">
        <ele>74.9748</ele>
        <time>2010-12-26T10:25:08Z</time>
      </trkpt>
      <trkpt lat="46.30613" lon="-0.33015">
        <ele>74.9656</ele>
        <time>2010-12-26T10:25:09Z</time>
      </trkpt>
      <trkpt lat="46.30614" lon="-0.33017">
        <ele>74.9564</ele>
        <time>2010-12-26T10:25:10Z</time>
      </trkpt>
      <trkpt lat="46.30614" lon="-0.33019">
        <ele>74.9469</ele>
        <time>2010-12-26T10:25:11Z</time>
      </trkpt>
      <trkpt lat="46.30615" lon="-0.3302">
        <ele>74.9372</ele>
        <time>2010-12-26T10:25:12Z</time>
      </trkpt>
      <trkpt lat="46.30615" lon="-0.33022">
        <ele>74.927</ele>
        <time>2010-12-26T10:25:13Z</time>
      </trkpt>
      <trkpt lat="46.30616" lon="-0.33024">
        <ele>74.9169</ele>
        <time>2010-12-26T10:25:14Z</time>
      </trkpt>
      <trkpt lat="46.30616" lon="-0.33026">
        <ele>74.9065</ele>
        <time>2010-12-26T10:25:15Z</time>
      </trkpt>
      <trkpt lat="46.30617" lon="-0.33028">
        <ele>74.8956</ele>
        <time>2010-12-26T10:25:16Z</time>
      </trkpt>
      <trkpt lat="46.30618" lon="-0.3303">
        <ele>74.8848</ele>
        <time>2010-12-26T10:25:17Z</time>
      </trkpt>
      <trkpt lat="46.30618" lon="-0.33032">
        <ele>74.8731</ele>
        <time>2010-12-26T10:25:18Z</time>
      </trkpt>
      <trkpt lat="46.30619" lon="-0.33034">
        <ele>74.86</ele>
        <time>2010-12-26T10:25:19Z</time>
      </trkpt>
      <trkpt lat="46.30619" lon="-0.33036">
        <ele>74.8462</ele>
        <time>2010-12-26T10:25:20Z</time>
      </trkpt>
      <trkpt lat="46.3062" lon="-0.33038">
        <ele>74.832</ele>
        <time>2010-12-26T10:25:21Z</time>
      </trkpt>
      <trkpt lat="46.3062" lon="-0.3304">
        <ele>74.8174</ele>
        <time>2010-12-26T10:25:22Z</time>
      </trkpt>
      <trkpt lat="46.30621" lon="-0.33042">
        <ele>74.803</ele>
        <time>2010-12-26T10:25:23Z</time>
      </trkpt>
      <trkpt lat="46.30621" lon="-0.33043">
        <ele>74.7899</ele>
        <time>2010-12-26T10:25:24Z</time>
      </trkpt>
      <trkpt lat="46.30621" lon="-0.33045">
        <ele>74.7779</ele>
        <time>2010-12-26T10:25:25Z</time>
      </trkpt>
      <trkpt lat="46.30622" lon="-0.33047">
        <ele>74.7656</ele>
        <time>2010-12-26T10:25:25Z</time>
      </trkpt>
      <trkpt lat="46.30622" lon="-0.33048">
        <ele>74.7554</ele>
        <time>2010-12-26T10:25:26Z</time>
      </trkpt>
      <trkpt lat="46.30622" lon="-0.3305">
        <ele>74.7472</ele>
        <time>2010-12-26T10:25:27Z</time>
      </trkpt>
      <trkpt lat="46.30623" lon="-0.33051">
        <ele>74.7412</ele>
        <time>2010-12-26T10:25:28Z</time>
      </trkpt>
      <trkpt lat="46.30623" lon="-0.33053">
        <ele>74.7371</ele>
        <time>2010-12-26T10:25:29Z</time>
      </trkpt>
      <trkpt lat="46.30623" lon="-0.33055">
        <ele>74.7344</ele>
        <time>2010-12-26T10:25:31Z</time>
      </trkpt>
      <trkpt lat="46.30623" lon="-0.33057">
        <ele>74.722</ele>
        <time>2010-12-26T10:25:31Z</time>
      </trkpt>
      <trkpt lat="46.30624" lon="-0.33059">
        <ele>74.6983</ele>
        <time>2010-12-26T10:25:32Z</time>
      </trkpt>
      <trkpt lat="46.30624" lon="-0.33061">
        <ele>74.6687</ele>
        <time>2010-12-26T10:25:33Z</time>
      </trkpt>
      <trkpt lat="46.30624" lon="-0.33063">
        <ele>74.6294</ele>
        <time>2010-12-26T10:25:35Z</time>
      </trkpt>
      <trkpt lat="46.30624" lon="-0.33065">
        <ele>74.5895</ele>
        <time>2010-12-26T10:25:35Z</time>
      </trkpt>
      <trkpt lat="46.30625" lon="-0.33067">
        <ele>74.5484</ele>
        <time>2010-12-26T10:25:37Z</time>
      </trkpt>
      <trkpt lat="46.30625" lon="-0.33069">
        <ele>74.5061</ele>
        <time>2010-12-26T10:25:38Z</time>
      </trkpt>
      <trkpt lat="46.30625" lon="-0.33071">
        <ele>74.4618</ele>
        <time>2010-12-26T10:25:39Z</time>
      </trkpt>
      <trkpt lat="46.30626" lon="-0.33073">
        <ele>74.4175</ele>
        <time>2010-12-26T10:25:40Z</time>
      </trkpt>
      <trkpt lat="46.30626" lon="-0.33075">
        <ele>74.3727</ele>
        <time>2010-12-26T10:25:41Z</time>
      </trkpt>
      <trkpt lat="46.30626" lon="-0.33077">
        <ele>74.3294</ele>
        <time>2010-12-26T10:25:42Z</time>
      </trkpt>
      <trkpt lat="46.30626" lon="-0.3308">
        <ele>74.2901</ele>
        <time>2010-12-26T10:25:43Z</time>
      </trkpt>
      <trkpt lat="46.30627" lon="-0.33082">
        <ele>74.2521</ele>
        <time>2010-12-26T10:25:44Z</time>
      </trkpt>
      <trkpt lat="46.30627" lon="-0.33084">
        <ele>74.2159</ele>
        <time>2010-12-26T10:25:45Z</time>
      </trkpt>
      <trkpt lat="46.30627" lon="-0.33086">
        <ele>74.1854</ele>
        <time>2010-12-26T10:25:46Z</time>
      </trkpt>
      <trkpt lat="46.30627" lon="-0.33089">
        <ele>74.1567</ele>
        <time>2010-12-26T10:25:47Z</time>
      </trkpt>
      <trkpt lat="46.30627" lon="-0.33092">
        <ele>74.1341</ele>
        <time>2010-12-26T10:25:48Z</time>
      </trkpt>
      <trkpt lat="46.30628" lon="-0.33094">
        <ele>74.1121</ele>
        <time>2010-12-26T10:25:49Z</time>
      </trkpt>
      <trkpt lat="46.30628" lon="-0.33096">
        <ele>74.0903</ele>
        <time>2010-12-26T10:25:50Z</time>
      </trkpt>
      <trkpt lat="46.30629" lon="-0.33098">
        <ele>74.0685</ele>
        <time>2010-12-26T10:25:51Z</time>
      </trkpt>
      <trkpt lat="46.30629" lon="-0.33101">
        <ele>74.0477</ele>
        <time>2010-12-26T10:25:52Z</time>
      </trkpt>
      <trkpt lat="46.30629" lon="-0.33103">
        <ele>74.0276</ele>
        <time>2010-12-26T10:25:53Z</time>
      </trkpt>
      <trkpt lat="46.3063" lon="-0.33105">
        <ele>74.0082</ele>
        <time>2010-12-26T10:25:54Z</time>
      </trkpt>
      <trkpt lat="46.30631" lon="-0.33107">
        <ele>73.991</ele>
        <time>2010-12-26T10:25:55Z</time>
      </trkpt>
      <trkpt lat="46.30631" lon="-0.33109">
        <ele>73.9762</ele>
        <time>2010-12-26T10:25:56Z</time>
      </trkpt>
      <trkpt lat="46.30632" lon="-0.3311">
        <ele>73.9633</ele>
        <time>2010-12-26T10:25:57Z</time>
      </trkpt>
      <trkpt lat="46.30632" lon="-0.33112">
        <ele>73.9521</ele>
        <time>2010-12-26T10:25:58Z</time>
      </trkpt>
      <trkpt lat="46.30632" lon="-0.33114">
        <ele>73.9415</ele>
        <time>2010-12-26T10:25:59Z</time>
      </trkpt>
      <trkpt lat="46.30633" lon="-0.33116">
        <ele>73.9317</ele>
        <time>2010-12-26T10:26:00Z</time>
      </trkpt>
      <trkpt lat="46.30633" lon="-0.33118">
        <ele>73.9247</ele>
        <time>2010-12-26T10:26:01Z</time>
      </trkpt>
      <trkpt lat="46.30634" lon="-0.33119">
        <ele>73.9171</ele>
        <time>2010-12-26T10:26:02Z</time>
      </trkpt>
      <trkpt lat="46.30634" lon="-0.33121">
        <ele>73.9082</ele>
        <time>2010-12-26T10:26:03Z</time>
      </trkpt>
      <trkpt lat="46.30634" lon="-0.33123">
        <ele>73.8992</ele>
        <time>2010-12-26T10:26:04Z</time>
      </trkpt>
      <trkpt lat="46.30635" lon="-0.33125">
        <ele>73.8907</ele>
        <time>2010-12-26T10:26:05Z</time>
      </trkpt>
      <trkpt lat="46.30635" lon="-0.33126">
        <ele>73.8826</ele>
        <time>2010-12-26T10:26:05Z</time>
      </trkpt>
      <trkpt lat="46.30636" lon="-0.33128">
        <ele>73.8751</ele>
        <time>2010-12-26T10:26:07Z</time>
      </trkpt>
      <trkpt lat="46.30636" lon="-0.33129">
        <ele>73.8676</ele>
        <time>2010-12-26T10:26:08Z</time>
      </trkpt>
      <trkpt lat="46.30637" lon="-0.33131">
        <ele>73.8595</ele>
        <time>2010-12-26T10:26:09Z</time>
      </trkpt>
      <trkpt lat="46.30637" lon="-0.33133">
        <ele>73.8514</ele>
        <time>2010-12-26T10:26:10Z</time>
      </trkpt>
      <trkpt lat="46.30638" lon="-0.33134">
        <ele>73.8432</ele>
        <time>2010-12-26T10:26:11Z</time>
      </trkpt>
      <trkpt lat="46.30639" lon="-0.33136">
        <ele>73.8356</ele>
        <time>2010-12-26T10:26:12Z</time>
      </trkpt>
      <trkpt lat="46.30639" lon="-0.33138">
        <ele>73.8271</ele>
        <time>2010-12-26T10:26:13Z</time>
      </trkpt>
      <trkpt lat="46.30639" lon="-0.33139">
        <ele>73.8189</ele>
        <time>2010-12-26T10:26:14Z</time>
      </trkpt>
      <trkpt lat="46.3064" lon="-0.33141">
        <ele>73.8115</ele>
        <time>2010-12-26T10:26:15Z</time>
      </trkpt>
      <trkpt lat="46.3064" lon="-0.33143">
        <ele>73.8034</ele>
        <time>2010-12-26T10:26:16Z</time>
      </trkpt>
      <trkpt lat="46.3064" lon="-0.33144">
        <ele>73.7943</ele>
        <time>2010-12-26T10:26:17Z</time>
      </trkpt>
      <trkpt lat="46.30641" lon="-0.33146">
        <ele>73.7838</ele>
        <time>2010-12-26T10:26:18Z</time>
      </trkpt>
      <trkpt lat="46.30641" lon="-0.33148">
        <ele>73.7719</ele>
        <time>2010-12-26T10:26:19Z</time>
      </trkpt>
      <trkpt lat="46.30642" lon="-0.33149">
        <ele>73.7597</ele>
        <time>2010-12-26T10:26:20Z</time>
      </trkpt>
      <trkpt lat="46.30642" lon="-0.33151">
        <ele>73.7469</ele>
        <time>2010-12-26T10:26:21Z</time>
      </trkpt>
      <trkpt lat="46.30642" lon="-0.33153">
        <ele>73.7329</ele>
        <time>2010-12-26T10:26:22Z</time>
      </trkpt>
      <trkpt lat="46.30643" lon="-0.33155">
        <ele>73.7178</ele>
        <time>2010-12-26T10:26:23Z</time>
      </trkpt>
      <trkpt lat="46.30644" lon="-0.33156">
        <ele>73.7018</ele>
        <time>2010-12-26T10:26:24Z</time>
      </trkpt>
      <trkpt lat="46.30644" lon="-0.33158">
        <ele>73.6851</ele>
        <time>2010-12-26T10:26:25Z</time>
      </trkpt>
      <trkpt lat="46.30644" lon="-0.33161">
        <ele>73.6731</ele>
        <time>2010-12-26T10:26:26Z</time>
      </trkpt>
      <trkpt lat="46.30645" lon="-0.33163">
        <ele>73.6608</ele>
        <time>2010-12-26T10:26:27Z</time>
      </trkpt>
      <trkpt lat="46.30644" lon="-0.33165">
        <ele>73.6544</ele>
        <time>2010-12-26T10:26:28Z</time>
      </trkpt>
      <trkpt lat="46.30645" lon="-0.33168">
        <ele>73.6483</ele>
        <time>2010-12-26T10:26:29Z</time>
      </trkpt>
      <trkpt lat="46.30645" lon="-0.3317">
        <ele>73.642</ele>
        <time>2010-12-26T10:26:30Z</time>
      </trkpt>
      <trkpt lat="46.30645" lon="-0.33172">
        <ele>73.6357</ele>
        <time>2010-12-26T10:26:31Z</time>
      </trkpt>
      <trkpt lat="46.30645" lon="-0.33174">
        <ele>73.6291</ele>
        <time>2010-12-26T10:26:32Z</time>
      </trkpt>
      <trkpt lat="46.30646" lon="-0.33177">
        <ele>73.6213</ele>
        <time>2010-12-26T10:26:33Z</time>
      </trkpt>
      <trkpt lat="46.30646" lon="-0.33179">
        <ele>73.6103</ele>
        <time>2010-12-26T10:26:34Z</time>
      </trkpt>
      <trkpt lat="46.30647" lon="-0.33181">
        <ele>73.5986</ele>
        <time>2010-12-26T10:26:35Z</time>
      </trkpt>
      <trkpt lat="46.30647" lon="-0.33183">
        <ele>73.5867</ele>
        <time>2010-12-26T10:26:35Z</time>
      </trkpt>
      <trkpt lat="46.30647" lon="-0.33185">
        <ele>73.5743</ele>
        <time>2010-12-26T10:26:37Z</time>
      </trkpt>
      <trkpt lat="46.30647" lon="-0.33187">
        <ele>73.5631</ele>
        <time>2010-12-26T10:26:38Z</time>
      </trkpt>
      <trkpt lat="46.30648" lon="-0.33189">
        <ele>73.5511</ele>
        <time>2010-12-26T10:26:39Z</time>
      </trkpt>
      <trkpt lat="46.30648" lon="-0.33191">
        <ele>73.5395</ele>
        <time>2010-12-26T10:26:40Z</time>
      </trkpt>
      <trkpt lat="46.30649" lon="-0.33193">
        <ele>73.5272</ele>
        <time>2010-12-26T10:26:41Z</time>
      </trkpt>
      <trkpt lat="46.30649" lon="-0.33195">
        <ele>73.5146</ele>
        <time>2010-12-26T10:26:42Z</time>
      </trkpt>
      <trkpt lat="46.3065" lon="-0.33197">
        <ele>73.5013</ele>
        <time>2010-12-26T10:26:43Z</time>
      </trkpt>
      <trkpt lat="46.3065" lon="-0.33199">
        <ele>73.4865</ele>
        <time>2010-12-26T10:26:44Z</time>
      </trkpt>
      <trkpt lat="46.3065" lon="-0.332">
        <ele>73.4709</ele>
        <time>2010-12-26T10:26:45Z</time>
      </trkpt>
      <trkpt lat="46.30651" lon="-0.33202">
        <ele>73.448</ele>
        <time>2010-12-26T10:26:46Z</time>
      </trkpt>
      <trkpt lat="46.30652" lon="-0.33204">
        <ele>73.4248</ele>
        <time>2010-12-26T10:26:47Z</time>
      </trkpt>
      <trkpt lat="46.30652" lon="-0.33205">
        <ele>73.4046</ele>
        <time>2010-12-26T10:26:48Z</time>
      </trkpt>
      <trkpt lat="46.30652" lon="-0.33206">
        <ele>73.3792</ele>
        <time>2010-12-26T10:26:49Z</time>
      </trkpt>
      <trkpt lat="46.30653" lon="-0.33208">
        <ele>73.3548</ele>
        <time>2010-12-26T10:26:50Z</time>
      </trkpt>
      <trkpt lat="46.30653" lon="-0.33209">
        <ele>73.3355</ele>
        <time>2010-12-26T10:26:51Z</time>
      </trkpt>
      <trkpt lat="46.30653" lon="-0.33211">
        <ele>73.3135</ele>
        <time>2010-12-26T10:26:52Z</time>
      </trkpt>
      <trkpt lat="46.30653" lon="-0.33213">
        <ele>73.3135</ele>
        <time>2010-12-26T10:26:52Z</time>
      </trkpt>
      <trkpt lat="46.30655" lon="-0.33215">
        <ele>73.2915</ele>
        <time>2010-12-26T10:26:53Z</time>
      </trkpt>
      <trkpt lat="46.30655" lon="-0.33217">
        <ele>73.2769</ele>
        <time>2010-12-26T10:26:55Z</time>
      </trkpt>
      <trkpt lat="46.30656" lon="-0.33219">
        <ele>73.2579</ele>
        <time>2010-12-26T10:26:56Z</time>
      </trkpt>
      <trkpt lat="46.30657" lon="-0.33221">
        <ele>73.2399</ele>
        <time>2010-12-26T10:26:57Z</time>
      </trkpt>
      <trkpt lat="46.30658" lon="-0.33223">
        <ele>73.2255</ele>
        <time>2010-12-26T10:26:58Z</time>
      </trkpt>
      <trkpt lat="46.3066" lon="-0.33226">
        <ele>73.214</ele>
        <time>2010-12-26T10:26:59Z</time>
      </trkpt>
      <trkpt lat="46.30661" lon="-0.33229">
        <ele>73.2038</ele>
        <time>2010-12-26T10:27:00Z</time>
      </trkpt>
      <trkpt lat="46.30662" lon="-0.33231">
        <ele>73.1931</ele>
        <time>2010-12-26T10:27:01Z</time>
      </trkpt>
      <trkpt lat="46.30663" lon="-0.33233">
        <ele>73.1826</ele>
        <time>2010-12-26T10:27:02Z</time>
      </trkpt>
      <trkpt lat="46.30664" lon="-0.33235">
        <ele>73.1729</ele>
        <time>2010-12-26T10:27:03Z</time>
      </trkpt>
      <trkpt lat="46.30665" lon="-0.33236">
        <ele>73.1581</ele>
        <time>2010-12-26T10:27:04Z</time>
      </trkpt>
      <trkpt lat="46.30666" lon="-0.33238">
        <ele>73.1399</ele>
        <time>2010-12-26T10:27:05Z</time>
      </trkpt>
      <trkpt lat="46.30666" lon="-0.3324">
        <ele>73.1177</ele>
        <time>2010-12-26T10:27:05Z</time>
      </trkpt>
      <trkpt lat="46.30666" lon="-0.33241">
        <ele>73.0925</ele>
        <time>2010-12-26T10:27:07Z</time>
      </trkpt>
      <trkpt lat="46.30667" lon="-0.33243">
        <ele>73.0654</ele>
        <time>2010-12-26T10:27:08Z</time>
      </trkpt>
      <trkpt lat="46.30667" lon="-0.33244">
        <ele>73.037</ele>
        <time>2010-12-26T10:27:09Z</time>
      </trkpt>
      <trkpt lat="46.30668" lon="-0.33246">
        <ele>73.0075</ele>
        <time>2010-12-26T10:27:10Z</time>
      </trkpt>
      <trkpt lat="46.30668" lon="-0.33248">
        <ele>72.9774</ele>
        <time>2010-12-26T10:27:11Z</time>
      </trkpt>
      <trkpt lat="46.30669" lon="-0.33249">
        <ele>72.9471</ele>
        <time>2010-12-26T10:27:12Z</time>
      </trkpt>
      <trkpt lat="46.30669" lon="-0.33251">
        <ele>72.9172</ele>
        <time>2010-12-26T10:27:13Z</time>
      </trkpt>
      <trkpt lat="46.30669" lon="-0.33253">
        <ele>72.8872</ele>
        <time>2010-12-26T10:27:14Z</time>
      </trkpt>
      <trkpt lat="46.30669" lon="-0.33255">
        <ele>72.8566</ele>
        <time>2010-12-26T10:27:15Z</time>
      </trkpt>
      <trkpt lat="46.3067" lon="-0.33257">
        <ele>72.8233</ele>
        <time>2010-12-26T10:27:16Z</time>
      </trkpt>
      <trkpt lat="46.30671" lon="-0.33258">
        <ele>72.7887</ele>
        <time>2010-12-26T10:27:17Z</time>
      </trkpt>
      <trkpt lat="46.30671" lon="-0.3326">
        <ele>72.7551</ele>
        <time>2010-12-26T10:27:18Z</time>
      </trkpt>
      <trkpt lat="46.30671" lon="-0.33262">
        <ele>72.7261</ele>
        <time>2010-12-26T10:27:19Z</time>
      </trkpt>
      <trkpt lat="46.30671" lon="-0.33264">
        <ele>72.6999</ele>
        <time>2010-12-26T10:27:20Z</time>
      </trkpt>
      <trkpt lat="46.30672" lon="-0.33266">
        <ele>72.6782</ele>
        <time>2010-12-26T10:27:21Z</time>
      </trkpt>
      <trkpt lat="46.30672" lon="-0.33268">
        <ele>72.6566</ele>
        <time>2010-12-26T10:27:22Z</time>
      </trkpt>
      <trkpt lat="46.30672" lon="-0.33271">
        <ele>72.6496</ele>
        <time>2010-12-26T10:27:23Z</time>
      </trkpt>
      <trkpt lat="46.30673" lon="-0.33273">
        <ele>72.6455</ele>
        <time>2010-12-26T10:27:24Z</time>
      </trkpt>
      <trkpt lat="46.30673" lon="-0.33276">
        <ele>72.6431</ele>
        <time>2010-12-26T10:27:25Z</time>
      </trkpt>
      <trkpt lat="46.30673" lon="-0.33278">
        <ele>72.6442</ele>
        <time>2010-12-26T10:27:26Z</time>
      </trkpt>
      <trkpt lat="46.30673" lon="-0.33281">
        <ele>72.6451</ele>
        <time>2010-12-26T10:27:27Z</time>
      </trkpt>
      <trkpt lat="46.30673" lon="-0.33283">
        <ele>72.646</ele>
        <time>2010-12-26T10:27:28Z</time>
      </trkpt>
      <trkpt lat="46.30673" lon="-0.33285">
        <ele>72.6461</ele>
        <time>2010-12-26T10:27:29Z</time>
      </trkpt>
      <trkpt lat="46.30674" lon="-0.33288">
        <ele>72.6531</ele>
        <time>2010-12-26T10:27:30Z</time>
      </trkpt>
      <trkpt lat="46.30674" lon="-0.3329">
        <ele>72.6602</ele>
        <time>2010-12-26T10:27:31Z</time>
      </trkpt>
      <trkpt lat="46.30674" lon="-0.33293">
        <ele>72.6761</ele>
        <time>2010-12-26T10:27:32Z</time>
      </trkpt>
      <trkpt lat="46.30674" lon="-0.33295">
        <ele>72.6937</ele>
        <time>2010-12-26T10:27:33Z</time>
      </trkpt>
      <trkpt lat="46.30675" lon="-0.33297">
        <ele>72.7109</ele>
        <time>2010-12-26T10:27:34Z</time>
      </trkpt>
      <trkpt lat="46.30675" lon="-0.333">
        <ele>72.7297</ele>
        <time>2010-12-26T10:27:35Z</time>
      </trkpt>
      <trkpt lat="46.30675" lon="-0.33302">
        <ele>72.7482</ele>
        <time>2010-12-26T10:27:36Z</time>
      </trkpt>
      <trkpt lat="46.30676" lon="-0.33304">
        <ele>72.7658</ele>
        <time>2010-12-26T10:27:37Z</time>
      </trkpt>
      <trkpt lat="46.30676" lon="-0.33306">
        <ele>72.7932</ele>
        <time>2010-12-26T10:27:38Z</time>
      </trkpt>
      <trkpt lat="46.30676" lon="-0.33309">
        <ele>72.8198</ele>
        <time>2010-12-26T10:27:39Z</time>
      </trkpt>
      <trkpt lat="46.30677" lon="-0.33311">
        <ele>72.8452</ele>
        <time>2010-12-26T10:27:40Z</time>
      </trkpt>
      <trkpt lat="46.30677" lon="-0.33313">
        <ele>72.8687</ele>
        <time>2010-12-26T10:27:41Z</time>
      </trkpt>
      <trkpt lat="46.30677" lon="-0.33316">
        <ele>72.8915</ele>
        <time>2010-12-26T10:27:42Z</time>
      </trkpt>
      <trkpt lat="46.30678" lon="-0.33318">
        <ele>72.9132</ele>
        <time>2010-12-26T10:27:43Z</time>
      </trkpt>
      <trkpt lat="46.30678" lon="-0.3332">
        <ele>72.9345</ele>
        <time>2010-12-26T10:27:44Z</time>
      </trkpt>
      <trkpt lat="46.30678" lon="-0.33321">
        <ele>72.9549</ele>
        <time>2010-12-26T10:27:45Z</time>
      </trkpt>
      <trkpt lat="46.30679" lon="-0.33323">
        <ele>72.973</ele>
        <time>2010-12-26T10:27:46Z</time>
      </trkpt>
      <trkpt lat="46.30679" lon="-0.33325">
        <ele>72.9905</ele>
        <time>2010-12-26T10:27:47Z</time>
      </trkpt>
      <trkpt lat="46.30679" lon="-0.33328">
        <ele>73.0079</ele>
        <time>2010-12-26T10:27:48Z</time>
      </trkpt>
      <trkpt lat="46.3068" lon="-0.33329">
        <ele>73.0254</ele>
        <time>2010-12-26T10:27:49Z</time>
      </trkpt>
      <trkpt lat="46.30681" lon="-0.33331">
        <ele>73.043</ele>
        <time>2010-12-26T10:27:50Z</time>
      </trkpt>
      <trkpt lat="46.30681" lon="-0.33333">
        <ele>73.0589</ele>
        <time>2010-12-26T10:27:51Z</time>
      </trkpt>
      <trkpt lat="46.30681" lon="-0.33335">
        <ele>73.0774</ele>
        <time>2010-12-26T10:27:52Z</time>
      </trkpt>
      <trkpt lat="46.30681" lon="-0.33336">
        <ele>73.0955</ele>
        <time>2010-12-26T10:27:53Z</time>
      </trkpt>
      <trkpt lat="46.30682" lon="-0.33338">
        <ele>73.1092</ele>
        <time>2010-12-26T10:27:54Z</time>
      </trkpt>
      <trkpt lat="46.30682" lon="-0.3334">
        <ele>73.1211</ele>
        <time>2010-12-26T10:27:55Z</time>
      </trkpt>
      <trkpt lat="46.30683" lon="-0.33341">
        <ele>73.1298</ele>
        <time>2010-12-26T10:27:56Z</time>
      </trkpt>
      <trkpt lat="46.30684" lon="-0.33343">
        <ele>73.1482</ele>
        <time>2010-12-26T10:27:57Z</time>
      </trkpt>
      <trkpt lat="46.30684" lon="-0.33345">
        <ele>73.1642</ele>
        <time>2010-12-26T10:27:58Z</time>
      </trkpt>
      <trkpt lat="46.30685" lon="-0.33346">
        <ele>73.1771</ele>
        <time>2010-12-26T10:27:59Z</time>
      </trkpt>
      <trkpt lat="46.30685" lon="-0.33348">
        <ele>73.1896</ele>
        <time>2010-12-26T10:28:00Z</time>
      </trkpt>
      <trkpt lat="46.30685" lon="-0.3335">
        <ele>73.2011</ele>
        <time>2010-12-26T10:28:01Z</time>
      </trkpt>
      <trkpt lat="46.30685" lon="-0.33352">
        <ele>73.21</ele>
        <time>2010-12-26T10:28:02Z</time>
      </trkpt>
      <trkpt lat="46.30685" lon="-0.33354">
        <ele>73.2268</ele>
        <time>2010-12-26T10:28:03Z</time>
      </trkpt>
      <trkpt lat="46.30685" lon="-0.33356">
        <ele>73.2426</ele>
        <time>2010-12-26T10:28:04Z</time>
      </trkpt>
      <trkpt lat="46.30685" lon="-0.33358">
        <ele>73.258</ele>
        <time>2010-12-26T10:28:05Z</time>
      </trkpt>
      <trkpt lat="46.30685" lon="-0.33361">
        <ele>73.2728</ele>
        <time>2010-12-26T10:28:06Z</time>
      </trkpt>
      <trkpt lat="46.30685" lon="-0.33363">
        <ele>73.2876</ele>
        <time>2010-12-26T10:28:07Z</time>
      </trkpt>
      <trkpt lat="46.30685" lon="-0.33365">
        <ele>73.3026</ele>
        <time>2010-12-26T10:28:08Z</time>
      </trkpt>
      <trkpt lat="46.30685" lon="-0.33366">
        <ele>73.3156</ele>
        <time>2010-12-26T10:28:09Z</time>
      </trkpt>
      <trkpt lat="46.30684" lon="-0.33369">
        <ele>73.3451</ele>
        <time>2010-12-26T10:28:10Z</time>
      </trkpt>
      <trkpt lat="46.30683" lon="-0.3337">
        <ele>73.3718</ele>
        <time>2010-12-26T10:28:11Z</time>
      </trkpt>
      <trkpt lat="46.30682" lon="-0.33372">
        <ele>73.3947</ele>
        <time>2010-12-26T10:28:12Z</time>
      </trkpt>
      <trkpt lat="46.30681" lon="-0.33373">
        <ele>73.4158</ele>
        <time>2010-12-26T10:28:13Z</time>
      </trkpt>
      <trkpt lat="46.3068" lon="-0.33373">
        <ele>73.4361</ele>
        <time>2010-12-26T10:28:14Z</time>
      </trkpt>
      <trkpt lat="46.30679" lon="-0.33374">
        <ele>73.4551</ele>
        <time>2010-12-26T10:28:15Z</time>
      </trkpt>
      <trkpt lat="46.30677" lon="-0.33375">
        <ele>73.473</ele>
        <time>2010-12-26T10:28:15Z</time>
      </trkpt>
      <trkpt lat="46.30676" lon="-0.33376">
        <ele>73.4907</ele>
        <time>2010-12-26T10:28:17Z</time>
      </trkpt>
      <trkpt lat="46.30676" lon="-0.33377">
        <ele>73.5075</ele>
        <time>2010-12-26T10:28:18Z</time>
      </trkpt>
      <trkpt lat="46.30674" lon="-0.33377">
        <ele>73.5249</ele>
        <time>2010-12-26T10:28:19Z</time>
      </trkpt>
      <trkpt lat="46.30673" lon="-0.33377">
        <ele>73.5415</ele>
        <time>2010-12-26T10:28:20Z</time>
      </trkpt>
      <trkpt lat="46.30672" lon="-0.33377">
        <ele>73.5511</ele>
        <time>2010-12-26T10:28:21Z</time>
      </trkpt>
      <trkpt lat="46.30671" lon="-0.33378">
        <ele>73.5549</ele>
        <time>2010-12-26T10:28:22Z</time>
      </trkpt>
      <trkpt lat="46.30669" lon="-0.33378">
        <ele>73.5547</ele>
        <time>2010-12-26T10:28:23Z</time>
      </trkpt>
      <trkpt lat="46.30669" lon="-0.33378">
        <ele>73.5543</ele>
        <time>2010-12-26T10:28:24Z</time>
      </trkpt>
      <trkpt lat="46.30668" lon="-0.33379">
        <ele>73.5525</ele>
        <time>2010-12-26T10:28:25Z</time>
      </trkpt>
      <trkpt lat="46.30667" lon="-0.33379">
        <ele>73.5435</ele>
        <time>2010-12-26T10:28:26Z</time>
      </trkpt>
      <trkpt lat="46.30666" lon="-0.3338">
        <ele>73.5342</ele>
        <time>2010-12-26T10:28:27Z</time>
      </trkpt>
      <trkpt lat="46.30665" lon="-0.3338">
        <ele>73.5227</ele>
        <time>2010-12-26T10:28:28Z</time>
      </trkpt>
      <trkpt lat="46.30664" lon="-0.33381">
        <ele>73.5066</ele>
        <time>2010-12-26T10:28:29Z</time>
      </trkpt>
      <trkpt lat="46.30663" lon="-0.33381">
        <ele>73.4774</ele>
        <time>2010-12-26T10:28:30Z</time>
      </trkpt>
      <trkpt lat="46.30662" lon="-0.33382">
        <ele>73.4472</ele>
        <time>2010-12-26T10:28:31Z</time>
      </trkpt>
      <trkpt lat="46.30661" lon="-0.33382">
        <ele>73.4165</ele>
        <time>2010-12-26T10:28:32Z</time>
      </trkpt>
      <trkpt lat="46.3066" lon="-0.33383">
        <ele>73.3756</ele>
        <time>2010-12-26T10:28:33Z</time>
      </trkpt>
      <trkpt lat="46.3066" lon="-0.33385">
        <ele>73.3469</ele>
        <time>2010-12-26T10:28:34Z</time>
      </trkpt>
      <trkpt lat="46.30659" lon="-0.33386">
        <ele>73.3204</ele>
        <time>2010-12-26T10:28:35Z</time>
      </trkpt>
      <trkpt lat="46.30658" lon="-0.33387">
        <ele>73.2938</ele>
        <time>2010-12-26T10:28:36Z</time>
      </trkpt>
      <trkpt lat="46.30658" lon="-0.33388">
        <ele>73.2647</ele>
        <time>2010-12-26T10:28:37Z</time>
      </trkpt>
      <trkpt lat="46.30656" lon="-0.33389">
        <ele>73.2336</ele>
        <time>2010-12-26T10:28:38Z</time>
      </trkpt>
      <trkpt lat="46.30655" lon="-0.33389">
        <ele>73.2052</ele>
        <time>2010-12-26T10:28:39Z</time>
      </trkpt>
      <trkpt lat="46.30653" lon="-0.3339">
        <ele>73.1791</ele>
        <time>2010-12-26T10:28:39Z</time>
      </trkpt>
      <trkpt lat="46.30651" lon="-0.33391">
        <ele>73.1559</ele>
        <time>2010-12-26T10:28:40Z</time>
      </trkpt>
      <trkpt lat="46.3065" lon="-0.33391">
        <ele>73.132</ele>
        <time>2010-12-26T10:28:42Z</time>
      </trkpt>
      <trkpt lat="46.30648" lon="-0.33392">
        <ele>73.1111</ele>
        <time>2010-12-26T10:28:43Z</time>
      </trkpt>
      <trkpt lat="46.30648" lon="-0.33393">
        <ele>73.0897</ele>
        <time>2010-12-26T10:28:44Z</time>
      </trkpt>
      <trkpt lat="46.30647" lon="-0.33393">
        <ele>73.0733</ele>
        <time>2010-12-26T10:28:45Z</time>
      </trkpt>
      <trkpt lat="46.30646" lon="-0.33393">
        <ele>73.0564</ele>
        <time>2010-12-26T10:28:46Z</time>
      </trkpt>
      <trkpt lat="46.30645" lon="-0.33394">
        <ele>73.035</ele>
        <time>2010-12-26T10:28:47Z</time>
      </trkpt>
      <trkpt lat="46.30644" lon="-0.33394">
        <ele>73.0023</ele>
        <time>2010-12-26T10:28:48Z</time>
      </trkpt>
      <trkpt lat="46.30643" lon="-0.33395">
        <ele>72.9542</ele>
        <time>2010-12-26T10:28:49Z</time>
      </trkpt>
      <trkpt lat="46.30642" lon="-0.33395">
        <ele>72.895</ele>
        <time>2010-12-26T10:28:50Z</time>
      </trkpt>
      <trkpt lat="46.3064" lon="-0.33396">
        <ele>72.827</ele>
        <time>2010-12-26T10:28:51Z</time>
      </trkpt>
      <trkpt lat="46.30639" lon="-0.33397">
        <ele>72.747</ele>
        <time>2010-12-26T10:28:52Z</time>
      </trkpt>
      <trkpt lat="46.30637" lon="-0.33397">
        <ele>72.6738</ele>
        <time>2010-12-26T10:28:53Z</time>
      </trkpt>
      <trkpt lat="46.30635" lon="-0.33398">
        <ele>72.5897</ele>
        <time>2010-12-26T10:28:54Z</time>
      </trkpt>
      <trkpt lat="46.30634" lon="-0.33399">
        <ele>72.5041</ele>
        <time>2010-12-26T10:28:55Z</time>
      </trkpt>
      <trkpt lat="46.30632" lon="-0.334">
        <ele>72.4259</ele>
        <time>2010-12-26T10:28:56Z</time>
      </trkpt>
      <trkpt lat="46.3063" lon="-0.33401">
        <ele>72.3498</ele>
        <time>2010-12-26T10:28:57Z</time>
      </trkpt>
      <trkpt lat="46.30629" lon="-0.33402">
        <ele>72.2793</ele>
        <time>2010-12-26T10:28:58Z</time>
      </trkpt>
      <trkpt lat="46.30627" lon="-0.33402">
        <ele>72.2088</ele>
        <time>2010-12-26T10:28:59Z</time>
      </trkpt>
      <trkpt lat="46.30626" lon="-0.33403">
        <ele>72.1301</ele>
        <time>2010-12-26T10:29:00Z</time>
      </trkpt>
      <trkpt lat="46.30624" lon="-0.33404">
        <ele>72.0512</ele>
        <time>2010-12-26T10:29:01Z</time>
      </trkpt>
      <trkpt lat="46.30623" lon="-0.33405">
        <ele>71.9753</ele>
        <time>2010-12-26T10:29:02Z</time>
      </trkpt>
      <trkpt lat="46.30621" lon="-0.33406">
        <ele>71.9115</ele>
        <time>2010-12-26T10:29:03Z</time>
      </trkpt>
      <trkpt lat="46.3062" lon="-0.33407">
        <ele>71.8494</ele>
        <time>2010-12-26T10:29:04Z</time>
      </trkpt>
      <trkpt lat="46.30619" lon="-0.33409">
        <ele>71.7868</ele>
        <time>2010-12-26T10:29:05Z</time>
      </trkpt>
      <trkpt lat="46.30618" lon="-0.3341">
        <ele>71.7263</ele>
        <time>2010-12-26T10:29:06Z</time>
      </trkpt>
      <trkpt lat="46.30617" lon="-0.33412">
        <ele>71.6646</ele>
        <time>2010-12-26T10:29:07Z</time>
      </trkpt>
      <trkpt lat="46.30616" lon="-0.33413">
        <ele>71.6006</ele>
        <time>2010-12-26T10:29:08Z</time>
      </trkpt>
      <trkpt lat="46.30615" lon="-0.33415">
        <ele>71.553</ele>
        <time>2010-12-26T10:29:09Z</time>
      </trkpt>
      <trkpt lat="46.30615" lon="-0.33417">
        <ele>71.5115</ele>
        <time>2010-12-26T10:29:10Z</time>
      </trkpt>
      <trkpt lat="46.30615" lon="-0.33419">
        <ele>71.4657</ele>
        <time>2010-12-26T10:29:11Z</time>
      </trkpt>
      <trkpt lat="46.30615" lon="-0.33421">
        <ele>71.4419</ele>
        <time>2010-12-26T10:29:12Z</time>
      </trkpt>
      <trkpt lat="46.30615" lon="-0.33424">
        <ele>71.4234</ele>
        <time>2010-12-26T10:29:13Z</time>
      </trkpt>
      <trkpt lat="46.30615" lon="-0.33426">
        <ele>71.4084</ele>
        <time>2010-12-26T10:29:14Z</time>
      </trkpt>
      <trkpt lat="46.30615" lon="-0.33429">
        <ele>71.3997</ele>
        <time>2010-12-26T10:29:15Z</time>
      </trkpt>
      <trkpt lat="46.30615" lon="-0.33431">
        <ele>71.3938</ele>
        <time>2010-12-26T10:29:16Z</time>
      </trkpt>
      <trkpt lat="46.30615" lon="-0.33433">
        <ele>71.3869</ele>
        <time>2010-12-26T10:29:17Z</time>
      </trkpt>
      <trkpt lat="46.30615" lon="-0.33436">
        <ele>71.3776</ele>
        <time>2010-12-26T10:29:18Z</time>
      </trkpt>
      <trkpt lat="46.30615" lon="-0.33438">
        <ele>71.365</ele>
        <time>2010-12-26T10:29:19Z</time>
      </trkpt>
      <trkpt lat="46.30616" lon="-0.3344">
        <ele>71.3487</ele>
        <time>2010-12-26T10:29:20Z</time>
      </trkpt>
      <trkpt lat="46.30616" lon="-0.33442">
        <ele>71.3282</ele>
        <time>2010-12-26T10:29:21Z</time>
      </trkpt>
      <trkpt lat="46.30616" lon="-0.33444">
        <ele>71.3213</ele>
        <time>2010-12-26T10:29:22Z</time>
      </trkpt>
      <trkpt lat="46.30617" lon="-0.33446">
        <ele>71.3135</ele>
        <time>2010-12-26T10:29:23Z</time>
      </trkpt>
      <trkpt lat="46.30618" lon="-0.33449">
        <ele>71.3116</ele>
        <time>2010-12-26T10:29:24Z</time>
      </trkpt>
      <trkpt lat="46.30618" lon="-0.33451">
        <ele>71.32</ele>
        <time>2010-12-26T10:29:25Z</time>
      </trkpt>
      <trkpt lat="46.30619" lon="-0.33454">
        <ele>71.3326</ele>
        <time>2010-12-26T10:29:26Z</time>
      </trkpt>
      <trkpt lat="46.30619" lon="-0.33456">
        <ele>71.3589</ele>
        <time>2010-12-26T10:29:27Z</time>
      </trkpt>
      <trkpt lat="46.30619" lon="-0.33458">
        <ele>71.3869</ele>
        <time>2010-12-26T10:29:28Z</time>
      </trkpt>
      <trkpt lat="46.3062" lon="-0.33461">
        <ele>71.4161</ele>
        <time>2010-12-26T10:29:29Z</time>
      </trkpt>
      <trkpt lat="46.30621" lon="-0.33463">
        <ele>71.4498</ele>
        <time>2010-12-26T10:29:30Z</time>
      </trkpt>
      <trkpt lat="46.30621" lon="-0.33465">
        <ele>71.5013</ele>
        <time>2010-12-26T10:29:31Z</time>
      </trkpt>
      <trkpt lat="46.30621" lon="-0.33467">
        <ele>71.5537</ele>
        <time>2010-12-26T10:29:32Z</time>
      </trkpt>
      <trkpt lat="46.30622" lon="-0.33469">
        <ele>71.6151</ele>
        <time>2010-12-26T10:29:33Z</time>
      </trkpt>
      <trkpt lat="46.30622" lon="-0.33472">
        <ele>71.6771</ele>
        <time>2010-12-26T10:29:34Z</time>
      </trkpt>
      <trkpt lat="46.30623" lon="-0.33474">
        <ele>71.7442</ele>
        <time>2010-12-26T10:29:35Z</time>
      </trkpt>
      <trkpt lat="46.30623" lon="-0.33476">
        <ele>71.816</ele>
        <time>2010-12-26T10:29:36Z</time>
      </trkpt>
      <trkpt lat="46.30624" lon="-0.33479">
        <ele>71.8815</ele>
        <time>2010-12-26T10:29:37Z</time>
      </trkpt>
      <trkpt lat="46.30624" lon="-0.33481">
        <ele>71.964</ele>
        <time>2010-12-26T10:29:38Z</time>
      </trkpt>
      <trkpt lat="46.30624" lon="-0.33483">
        <ele>72.0362</ele>
        <time>2010-12-26T10:29:39Z</time>
      </trkpt>
      <trkpt lat="46.30625" lon="-0.33485">
        <ele>72.1151</ele>
        <time>2010-12-26T10:29:40Z</time>
      </trkpt>
      <trkpt lat="46.30626" lon="-0.33488">
        <ele>72.1967</ele>
        <time>2010-12-26T10:29:41Z</time>
      </trkpt>
      <trkpt lat="46.30627" lon="-0.3349">
        <ele>72.2736</ele>
        <time>2010-12-26T10:29:42Z</time>
      </trkpt>
      <trkpt lat="46.30627" lon="-0.33492">
        <ele>72.3386</ele>
        <time>2010-12-26T10:29:43Z</time>
      </trkpt>
      <trkpt lat="46.30629" lon="-0.33493">
        <ele>72.3965</ele>
        <time>2010-12-26T10:29:44Z</time>
      </trkpt>
      <trkpt lat="46.30629" lon="-0.33495">
        <ele>72.448</ele>
        <time>2010-12-26T10:29:45Z</time>
      </trkpt>
      <trkpt lat="46.30631" lon="-0.33496">
        <ele>72.4945</ele>
        <time>2010-12-26T10:29:46Z</time>
      </trkpt>
      <trkpt lat="46.30632" lon="-0.33498">
        <ele>72.5391</ele>
        <time>2010-12-26T10:29:47Z</time>
      </trkpt>
      <trkpt lat="46.30633" lon="-0.33499">
        <ele>72.573</ele>
        <time>2010-12-26T10:29:48Z</time>
      </trkpt>
      <trkpt lat="46.30634" lon="-0.335">
        <ele>72.6046</ele>
        <time>2010-12-26T10:29:49Z</time>
      </trkpt>
      <trkpt lat="46.30635" lon="-0.33502">
        <ele>72.6349</ele>
        <time>2010-12-26T10:29:50Z</time>
      </trkpt>
      <trkpt lat="46.30635" lon="-0.33503">
        <ele>72.6591</ele>
        <time>2010-12-26T10:29:51Z</time>
      </trkpt>
      <trkpt lat="46.30636" lon="-0.33504">
        <ele>72.6733</ele>
        <time>2010-12-26T10:29:52Z</time>
      </trkpt>
      <trkpt lat="46.30636" lon="-0.33506">
        <ele>72.6913</ele>
        <time>2010-12-26T10:29:53Z</time>
      </trkpt>
      <trkpt lat="46.30637" lon="-0.33507">
        <ele>72.7253</ele>
        <time>2010-12-26T10:29:54Z</time>
      </trkpt>
      <trkpt lat="46.30637" lon="-0.33508">
        <ele>72.7593</ele>
        <time>2010-12-26T10:29:55Z</time>
      </trkpt>
      <trkpt lat="46.30638" lon="-0.33509">
        <ele>72.7914</ele>
        <time>2010-12-26T10:29:56Z</time>
      </trkpt>
      <trkpt lat="46.30639" lon="-0.3351">
        <ele>72.8227</ele>
        <time>2010-12-26T10:29:57Z</time>
      </trkpt>
      <trkpt lat="46.3064" lon="-0.33511">
        <ele>72.8455</ele>
        <time>2010-12-26T10:29:58Z</time>
      </trkpt>
      <trkpt lat="46.30641" lon="-0.33512">
        <ele>72.8593</ele>
        <time>2010-12-26T10:29:59Z</time>
      </trkpt>
      <trkpt lat="46.30642" lon="-0.33513">
        <ele>72.8695</ele>
        <time>2010-12-26T10:30:00Z</time>
      </trkpt>
      <trkpt lat="46.30643" lon="-0.33513">
        <ele>72.8799</ele>
        <time>2010-12-26T10:30:01Z</time>
      </trkpt>
      <trkpt lat="46.30645" lon="-0.33514">
        <ele>72.8888</ele>
        <time>2010-12-26T10:30:02Z</time>
      </trkpt>
      <trkpt lat="46.30646" lon="-0.33515">
        <ele>72.9033</ele>
        <time>2010-12-26T10:30:03Z</time>
      </trkpt>
      <trkpt lat="46.30647" lon="-0.33516">
        <ele>72.9111</ele>
        <time>2010-12-26T10:30:04Z</time>
      </trkpt>
      <trkpt lat="46.30648" lon="-0.33518">
        <ele>72.9252</ele>
        <time>2010-12-26T10:30:05Z</time>
      </trkpt>
      <trkpt lat="46.3065" lon="-0.33519">
        <ele>72.935</ele>
        <time>2010-12-26T10:30:06Z</time>
      </trkpt>
      <trkpt lat="46.30651" lon="-0.3352">
        <ele>72.9415</ele>
        <time>2010-12-26T10:30:07Z</time>
      </trkpt>
      <trkpt lat="46.30652" lon="-0.33522">
        <ele>72.9434</ele>
        <time>2010-12-26T10:30:08Z</time>
      </trkpt>
      <trkpt lat="46.30653" lon="-0.33523">
        <ele>72.9438</ele>
        <time>2010-12-26T10:30:09Z</time>
      </trkpt>
      <trkpt lat="46.30654" lon="-0.33525">
        <ele>72.9476</ele>
        <time>2010-12-26T10:30:10Z</time>
      </trkpt>
      <trkpt lat="46.30655" lon="-0.33526">
        <ele>72.9584</ele>
        <time>2010-12-26T10:30:11Z</time>
      </trkpt>
      <trkpt lat="46.30656" lon="-0.33527">
        <ele>72.967</ele>
        <time>2010-12-26T10:30:12Z</time>
      </trkpt>
      <trkpt lat="46.30658" lon="-0.33528">
        <ele>72.9662</ele>
        <time>2010-12-26T10:30:13Z</time>
      </trkpt>
      <trkpt lat="46.30659" lon="-0.3353">
        <ele>72.9664</ele>
        <time>2010-12-26T10:30:14Z</time>
      </trkpt>
      <trkpt lat="46.3066" lon="-0.33531">
        <ele>72.9637</ele>
        <time>2010-12-26T10:30:15Z</time>
      </trkpt>
      <trkpt lat="46.30661" lon="-0.33533">
        <ele>72.9572</ele>
        <time>2010-12-26T10:30:16Z</time>
      </trkpt>
      <trkpt lat="46.30663" lon="-0.33534">
        <ele>72.942</ele>
        <time>2010-12-26T10:30:17Z</time>
      </trkpt>
      <trkpt lat="46.30664" lon="-0.33536">
        <ele>72.9268</ele>
        <time>2010-12-26T10:30:18Z</time>
      </trkpt>
      <trkpt lat="46.30665" lon="-0.33538">
        <ele>72.9114</ele>
        <time>2010-12-26T10:30:19Z</time>
      </trkpt>
      <trkpt lat="46.30666" lon="-0.3354">
        <ele>72.8994</ele>
        <time>2010-12-26T10:30:20Z</time>
      </trkpt>
      <trkpt lat="46.30667" lon="-0.33541">
        <ele>72.8842</ele>
        <time>2010-12-26T10:30:21Z</time>
      </trkpt>
      <trkpt lat="46.30668" lon="-0.33543">
        <ele>72.8677</ele>
        <time>2010-12-26T10:30:22Z</time>
      </trkpt>
      <trkpt lat="46.30669" lon="-0.33545">
        <ele>72.8512</ele>
        <time>2010-12-26T10:30:23Z</time>
      </trkpt>
      <trkpt lat="46.30671" lon="-0.33546">
        <ele>72.8355</ele>
        <time>2010-12-26T10:30:24Z</time>
      </trkpt>
      <trkpt lat="46.30671" lon="-0.33548">
        <ele>72.8204</ele>
        <time>2010-12-26T10:30:25Z</time>
      </trkpt>
      <trkpt lat="46.30673" lon="-0.33549">
        <ele>72.8051</ele>
        <time>2010-12-26T10:30:26Z</time>
      </trkpt>
      <trkpt lat="46.30673" lon="-0.33551">
        <ele>72.7877</ele>
        <time>2010-12-26T10:30:27Z</time>
      </trkpt>
      <trkpt lat="46.30674" lon="-0.33552">
        <ele>72.7702</ele>
        <time>2010-12-26T10:30:28Z</time>
      </trkpt>
      <trkpt lat="46.30676" lon="-0.33554">
        <ele>72.7537</ele>
        <time>2010-12-26T10:30:29Z</time>
      </trkpt>
      <trkpt lat="46.30676" lon="-0.33556">
        <ele>72.7371</ele>
        <time>2010-12-26T10:30:30Z</time>
      </trkpt>
      <trkpt lat="46.30677" lon="-0.33557">
        <ele>72.7204</ele>
        <time>2010-12-26T10:30:31Z</time>
      </trkpt>
      <trkpt lat="46.30679" lon="-0.33559">
        <ele>72.7119</ele>
        <time>2010-12-26T10:30:32Z</time>
      </trkpt>
      <trkpt lat="46.30681" lon="-0.33561">
        <ele>72.7122</ele>
        <time>2010-12-26T10:30:33Z</time>
      </trkpt>
      <trkpt lat="46.30682" lon="-0.33562">
        <ele>72.7088</ele>
        <time>2010-12-26T10:30:34Z</time>
      </trkpt>
      <trkpt lat="46.30684" lon="-0.33564">
        <ele>72.7039</ele>
        <time>2010-12-26T10:30:35Z</time>
      </trkpt>
      <trkpt lat="46.30685" lon="-0.33565">
        <ele>72.6972</ele>
        <time>2010-12-26T10:30:36Z</time>
      </trkpt>
      <trkpt lat="46.30687" lon="-0.33567">
        <ele>72.6907</ele>
        <time>2010-12-26T10:30:37Z</time>
      </trkpt>
      <trkpt lat="46.30688" lon="-0.33568">
        <ele>72.6808</ele>
        <time>2010-12-26T10:30:38Z</time>
      </trkpt>
      <trkpt lat="46.3069" lon="-0.3357">
        <ele>72.669</ele>
        <time>2010-12-26T10:30:39Z</time>
      </trkpt>
      <trkpt lat="46.30691" lon="-0.33571">
        <ele>72.6533</ele>
        <time>2010-12-26T10:30:40Z</time>
      </trkpt>
      <trkpt lat="46.30692" lon="-0.33572">
        <ele>72.6345</ele>
        <time>2010-12-26T10:30:41Z</time>
      </trkpt>
      <trkpt lat="46.30693" lon="-0.33574">
        <ele>72.6131</ele>
        <time>2010-12-26T10:30:42Z</time>
      </trkpt>
      <trkpt lat="46.30694" lon="-0.33575">
        <ele>72.5907</ele>
        <time>2010-12-26T10:30:43Z</time>
      </trkpt>
      <trkpt lat="46.30695" lon="-0.33576">
        <ele>72.5672</ele>
        <time>2010-12-26T10:30:44Z</time>
      </trkpt>
      <trkpt lat="46.30696" lon="-0.33577">
        <ele>72.5406</ele>
        <time>2010-12-26T10:30:45Z</time>
      </trkpt>
      <trkpt lat="46.30697" lon="-0.33579">
        <ele>72.5105</ele>
        <time>2010-12-26T10:30:46Z</time>
      </trkpt>
      <trkpt lat="46.30698" lon="-0.3358">
        <ele>72.4809</ele>
        <time>2010-12-26T10:30:47Z</time>
      </trkpt>
      <trkpt lat="46.30699" lon="-0.33581">
        <ele>72.4515</ele>
        <time>2010-12-26T10:30:48Z</time>
      </trkpt>
      <trkpt lat="46.307" lon="-0.33583">
        <ele>72.4205</ele>
        <time>2010-12-26T10:30:49Z</time>
      </trkpt>
      <trkpt lat="46.30701" lon="-0.33584">
        <ele>72.3801</ele>
        <time>2010-12-26T10:30:50Z</time>
      </trkpt>
      <trkpt lat="46.30702" lon="-0.33586">
        <ele>72.3313</ele>
        <time>2010-12-26T10:30:51Z</time>
      </trkpt>
      <trkpt lat="46.30703" lon="-0.33588">
        <ele>72.2812</ele>
        <time>2010-12-26T10:30:52Z</time>
      </trkpt>
      <trkpt lat="46.30703" lon="-0.33589">
        <ele>72.2287</ele>
        <time>2010-12-26T10:30:53Z</time>
      </trkpt>
      <trkpt lat="46.30704" lon="-0.33591">
        <ele>72.1739</ele>
        <time>2010-12-26T10:30:54Z</time>
      </trkpt>
      <trkpt lat="46.30705" lon="-0.33592">
        <ele>72.1168</ele>
        <time>2010-12-26T10:30:55Z</time>
      </trkpt>
      <trkpt lat="46.30706" lon="-0.33594">
        <ele>72.0589</ele>
        <time>2010-12-26T10:30:56Z</time>
      </trkpt>
      <trkpt lat="46.30707" lon="-0.33596">
        <ele>72</ele>
        <time>2010-12-26T10:30:57Z</time>
      </trkpt>
      <trkpt lat="46.30708" lon="-0.33597">
        <ele>71.9412</ele>
        <time>2010-12-26T10:30:58Z</time>
      </trkpt>
      <trkpt lat="46.30709" lon="-0.33599">
        <ele>71.8797</ele>
        <time>2010-12-26T10:30:59Z</time>
      </trkpt>
      <trkpt lat="46.3071" lon="-0.33601">
        <ele>71.8177</ele>
        <time>2010-12-26T10:31:00Z</time>
      </trkpt>
      <trkpt lat="46.30711" lon="-0.33603">
        <ele>71.7567</ele>
        <time>2010-12-26T10:31:01Z</time>
      </trkpt>
      <trkpt lat="46.30711" lon="-0.33604">
        <ele>71.6961</ele>
        <time>2010-12-26T10:31:02Z</time>
      </trkpt>
      <trkpt lat="46.30712" lon="-0.33606">
        <ele>71.6317</ele>
        <time>2010-12-26T10:31:03Z</time>
      </trkpt>
      <trkpt lat="46.30712" lon="-0.33608">
        <ele>71.5671</ele>
        <time>2010-12-26T10:31:04Z</time>
      </trkpt>
      <trkpt lat="46.30713" lon="-0.3361">
        <ele>71.5003</ele>
        <time>2010-12-26T10:31:05Z</time>
      </trkpt>
      <trkpt lat="46.30714" lon="-0.33612">
        <ele>71.426</ele>
        <time>2010-12-26T10:31:06Z</time>
      </trkpt>
      <trkpt lat="46.30714" lon="-0.33613">
        <ele>71.3414</ele>
        <time>2010-12-26T10:31:07Z</time>
      </trkpt>
      <trkpt lat="46.30715" lon="-0.33616">
        <ele>71.2547</ele>
        <time>2010-12-26T10:31:08Z</time>
      </trkpt>
      <trkpt lat="46.30716" lon="-0.33618">
        <ele>71.1695</ele>
        <time>2010-12-26T10:31:09Z</time>
      </trkpt>
      <trkpt lat="46.30717" lon="-0.33621">
        <ele>71.086</ele>
        <time>2010-12-26T10:31:10Z</time>
      </trkpt>
      <trkpt lat="46.30718" lon="-0.33623">
        <ele>70.9974</ele>
        <time>2010-12-26T10:31:11Z</time>
      </trkpt>
      <trkpt lat="46.30718" lon="-0.33626">
        <ele>70.9156</ele>
        <time>2010-12-26T10:31:12Z</time>
      </trkpt>
      <trkpt lat="46.30719" lon="-0.33628">
        <ele>70.8354</ele>
        <time>2010-12-26T10:31:13Z</time>
      </trkpt>
      <trkpt lat="46.30719" lon="-0.33631">
        <ele>70.7649</ele>
        <time>2010-12-26T10:31:14Z</time>
      </trkpt>
      <trkpt lat="46.30719" lon="-0.33634">
        <ele>70.7028</ele>
        <time>2010-12-26T10:31:15Z</time>
      </trkpt>
      <trkpt lat="46.3072" lon="-0.33637">
        <ele>70.6447</ele>
        <time>2010-12-26T10:31:16Z</time>
      </trkpt>
      <trkpt lat="46.3072" lon="-0.33639">
        <ele>70.59</ele>
        <time>2010-12-26T10:31:17Z</time>
      </trkpt>
      <trkpt lat="46.3072" lon="-0.33641">
        <ele>70.537</ele>
        <time>2010-12-26T10:31:18Z</time>
      </trkpt>
      <trkpt lat="46.30721" lon="-0.33644">
        <ele>70.4838</ele>
        <time>2010-12-26T10:31:19Z</time>
      </trkpt>
      <trkpt lat="46.30721" lon="-0.33646">
        <ele>70.4334</ele>
        <time>2010-12-26T10:31:20Z</time>
      </trkpt>
      <trkpt lat="46.30722" lon="-0.33648">
        <ele>70.3868</ele>
        <time>2010-12-26T10:31:21Z</time>
      </trkpt>
      <trkpt lat="46.30722" lon="-0.3365">
        <ele>70.3498</ele>
        <time>2010-12-26T10:31:22Z</time>
      </trkpt>
      <trkpt lat="46.30722" lon="-0.33652">
        <ele>70.3177</ele>
        <time>2010-12-26T10:31:23Z</time>
      </trkpt>
      <trkpt lat="46.30722" lon="-0.33654">
        <ele>70.2922</ele>
        <time>2010-12-26T10:31:24Z</time>
      </trkpt>
      <trkpt lat="46.30722" lon="-0.33656">
        <ele>70.2663</ele>
        <time>2010-12-26T10:31:25Z</time>
      </trkpt>
      <trkpt lat="46.30722" lon="-0.33658">
        <ele>70.2393</ele>
        <time>2010-12-26T10:31:26Z</time>
      </trkpt>
      <trkpt lat="46.30722" lon="-0.3366">
        <ele>70.215</ele>
        <time>2010-12-26T10:31:27Z</time>
      </trkpt>
      <trkpt lat="46.30723" lon="-0.33662">
        <ele>70.1903</ele>
        <time>2010-12-26T10:31:28Z</time>
      </trkpt>
      <trkpt lat="46.30724" lon="-0.33664">
        <ele>70.166</ele>
        <time>2010-12-26T10:31:29Z</time>
      </trkpt>
      <trkpt lat="46.30724" lon="-0.33665">
        <ele>70.1413</ele>
        <time>2010-12-26T10:31:30Z</time>
      </trkpt>
      <trkpt lat="46.30725" lon="-0.33667">
        <ele>70.1126</ele>
        <time>2010-12-26T10:31:31Z</time>
      </trkpt>
      <trkpt lat="46.30726" lon="-0.33668">
        <ele>70.0814</ele>
        <time>2010-12-26T10:31:32Z</time>
      </trkpt>
      <trkpt lat="46.30726" lon="-0.3367">
        <ele>70.0359</ele>
        <time>2010-12-26T10:31:33Z</time>
      </trkpt>
      <trkpt lat="46.30726" lon="-0.33672">
        <ele>69.9768</ele>
        <time>2010-12-26T10:31:34Z</time>
      </trkpt>
      <trkpt lat="46.30727" lon="-0.33674">
        <ele>69.9093</ele>
        <time>2010-12-26T10:31:35Z</time>
      </trkpt>
      <trkpt lat="46.30727" lon="-0.33676">
        <ele>69.8493</ele>
        <time>2010-12-26T10:31:36Z</time>
      </trkpt>
      <trkpt lat="46.30727" lon="-0.33678">
        <ele>69.7861</ele>
        <time>2010-12-26T10:31:37Z</time>
      </trkpt>
      <trkpt lat="46.30728" lon="-0.3368">
        <ele>69.7295</ele>
        <time>2010-12-26T10:31:38Z</time>
      </trkpt>
      <trkpt lat="46.30728" lon="-0.33683">
        <ele>69.6762</ele>
        <time>2010-12-26T10:31:39Z</time>
      </trkpt>
      <trkpt lat="46.30728" lon="-0.33686">
        <ele>69.625</ele>
        <time>2010-12-26T10:31:40Z</time>
      </trkpt>
      <trkpt lat="46.30729" lon="-0.33688">
        <ele>69.5718</ele>
        <time>2010-12-26T10:31:40Z</time>
      </trkpt>
      <trkpt lat="46.30729" lon="-0.33691">
        <ele>69.5176</ele>
        <time>2010-12-26T10:31:42Z</time>
      </trkpt>
      <trkpt lat="46.3073" lon="-0.33694">
        <ele>69.4672</ele>
        <time>2010-12-26T10:31:43Z</time>
      </trkpt>
      <trkpt lat="46.3073" lon="-0.33696">
        <ele>69.4236</ele>
        <time>2010-12-26T10:31:44Z</time>
      </trkpt>
      <trkpt lat="46.30731" lon="-0.33699">
        <ele>69.3852</ele>
        <time>2010-12-26T10:31:45Z</time>
      </trkpt>
      <trkpt lat="46.30732" lon="-0.33701">
        <ele>69.3475</ele>
        <time>2010-12-26T10:31:46Z</time>
      </trkpt>
      <trkpt lat="46.30732" lon="-0.33703">
        <ele>69.3102</ele>
        <time>2010-12-26T10:31:47Z</time>
      </trkpt>
      <trkpt lat="46.30732" lon="-0.33705">
        <ele>69.2703</ele>
        <time>2010-12-26T10:31:48Z</time>
      </trkpt>
      <trkpt lat="46.30732" lon="-0.33707">
        <ele>69.2322</ele>
        <time>2010-12-26T10:31:49Z</time>
      </trkpt>
      <trkpt lat="46.30733" lon="-0.33709">
        <ele>69.1938</ele>
        <time>2010-12-26T10:31:50Z</time>
      </trkpt>
      <trkpt lat="46.30733" lon="-0.3371">
        <ele>69.1588</ele>
        <time>2010-12-26T10:31:51Z</time>
      </trkpt>
      <trkpt lat="46.30734" lon="-0.33712">
        <ele>69.1266</ele>
        <time>2010-12-26T10:31:52Z</time>
      </trkpt>
      <trkpt lat="46.30734" lon="-0.33714">
        <ele>69.0967</ele>
        <time>2010-12-26T10:31:53Z</time>
      </trkpt>
      <trkpt lat="46.30734" lon="-0.33715">
        <ele>69.0692</ele>
        <time>2010-12-26T10:31:54Z</time>
      </trkpt>
      <trkpt lat="46.30735" lon="-0.33717">
        <ele>69.0403</ele>
        <time>2010-12-26T10:31:55Z</time>
      </trkpt>
      <trkpt lat="46.30735" lon="-0.33719">
        <ele>69.0121</ele>
        <time>2010-12-26T10:31:56Z</time>
      </trkpt>
      <trkpt lat="46.30735" lon="-0.3372">
        <ele>68.9798</ele>
        <time>2010-12-26T10:31:57Z</time>
      </trkpt>
      <trkpt lat="46.30736" lon="-0.33721">
        <ele>68.9478</ele>
        <time>2010-12-26T10:31:58Z</time>
      </trkpt>
      <trkpt lat="46.30737" lon="-0.33723">
        <ele>68.9163</ele>
        <time>2010-12-26T10:31:59Z</time>
      </trkpt>
      <trkpt lat="46.30737" lon="-0.33724">
        <ele>68.8772</ele>
        <time>2010-12-26T10:32:00Z</time>
      </trkpt>
      <trkpt lat="46.30738" lon="-0.33726">
        <ele>68.8384</ele>
        <time>2010-12-26T10:32:01Z</time>
      </trkpt>
      <trkpt lat="46.30738" lon="-0.33727">
        <ele>68.7958</ele>
        <time>2010-12-26T10:32:02Z</time>
      </trkpt>
      <trkpt lat="46.30739" lon="-0.33729">
        <ele>68.7566</ele>
        <time>2010-12-26T10:32:03Z</time>
      </trkpt>
      <trkpt lat="46.30739" lon="-0.33731">
        <ele>68.7171</ele>
        <time>2010-12-26T10:32:04Z</time>
      </trkpt>
      <trkpt lat="46.30739" lon="-0.33733">
        <ele>68.6807</ele>
        <time>2010-12-26T10:32:05Z</time>
      </trkpt>
      <trkpt lat="46.3074" lon="-0.33735">
        <ele>68.6455</ele>
        <time>2010-12-26T10:32:06Z</time>
      </trkpt>
      <trkpt lat="46.3074" lon="-0.33737">
        <ele>68.6093</ele>
        <time>2010-12-26T10:32:07Z</time>
      </trkpt>
      <trkpt lat="46.3074" lon="-0.33738">
        <ele>68.5727</ele>
        <time>2010-12-26T10:32:08Z</time>
      </trkpt>
      <trkpt lat="46.3074" lon="-0.3374">
        <ele>68.5335</ele>
        <time>2010-12-26T10:32:09Z</time>
      </trkpt>
      <trkpt lat="46.30741" lon="-0.33742">
        <ele>68.493</ele>
        <time>2010-12-26T10:32:09Z</time>
      </trkpt>
      <trkpt lat="46.30741" lon="-0.33744">
        <ele>68.4501</ele>
        <time>2010-12-26T10:32:10Z</time>
      </trkpt>
      <trkpt lat="46.30741" lon="-0.33746">
        <ele>68.4127</ele>
        <time>2010-12-26T10:32:11Z</time>
      </trkpt>
      <trkpt lat="46.30742" lon="-0.33747">
        <ele>68.3747</ele>
        <time>2010-12-26T10:32:12Z</time>
      </trkpt>
      <trkpt lat="46.30742" lon="-0.33749">
        <ele>68.3382</ele>
        <time>2010-12-26T10:32:13Z</time>
      </trkpt>
      <trkpt lat="46.30743" lon="-0.33751">
        <ele>68.3033</ele>
        <time>2010-12-26T10:32:15Z</time>
      </trkpt>
      <trkpt lat="46.30743" lon="-0.33753">
        <ele>68.2692</ele>
        <time>2010-12-26T10:32:16Z</time>
      </trkpt>
      <trkpt lat="46.30743" lon="-0.33755">
        <ele>68.234</ele>
        <time>2010-12-26T10:32:17Z</time>
      </trkpt>
      <trkpt lat="46.30744" lon="-0.33757">
        <ele>68.1988</ele>
        <time>2010-12-26T10:32:18Z</time>
      </trkpt>
      <trkpt lat="46.30744" lon="-0.33759">
        <ele>68.1649</ele>
        <time>2010-12-26T10:32:19Z</time>
      </trkpt>
      <trkpt lat="46.30745" lon="-0.33761">
        <ele>68.1318</ele>
        <time>2010-12-26T10:32:20Z</time>
      </trkpt>
      <trkpt lat="46.30745" lon="-0.33763">
        <ele>68.095</ele>
        <time>2010-12-26T10:32:21Z</time>
      </trkpt>
      <trkpt lat="46.30745" lon="-0.33765">
        <ele>68.061</ele>
        <time>2010-12-26T10:32:22Z</time>
      </trkpt>
      <trkpt lat="46.30746" lon="-0.33767">
        <ele>68.0263</ele>
        <time>2010-12-26T10:32:22Z</time>
      </trkpt>
      <trkpt lat="46.30747" lon="-0.33769">
        <ele>67.99</ele>
        <time>2010-12-26T10:32:23Z</time>
      </trkpt>
      <trkpt lat="46.30748" lon="-0.3377">
        <ele>67.9548</ele>
        <time>2010-12-26T10:32:24Z</time>
      </trkpt>
      <trkpt lat="46.30748" lon="-0.33772">
        <ele>67.916</ele>
        <time>2010-12-26T10:32:25Z</time>
      </trkpt>
      <trkpt lat="46.3075" lon="-0.33774">
        <ele>67.8786</ele>
        <time>2010-12-26T10:32:26Z</time>
      </trkpt>
      <trkpt lat="46.3075" lon="-0.33776">
        <ele>67.8415</ele>
        <time>2010-12-26T10:32:27Z</time>
      </trkpt>
      <trkpt lat="46.30751" lon="-0.33777">
        <ele>67.8051</ele>
        <time>2010-12-26T10:32:28Z</time>
      </trkpt>
      <trkpt lat="46.30752" lon="-0.33779">
        <ele>67.7642</ele>
        <time>2010-12-26T10:32:29Z</time>
      </trkpt>
      <trkpt lat="46.30753" lon="-0.33781">
        <ele>67.7195</ele>
        <time>2010-12-26T10:32:31Z</time>
      </trkpt>
      <trkpt lat="46.30753" lon="-0.33782">
        <ele>67.6764</ele>
        <time>2010-12-26T10:32:32Z</time>
      </trkpt>
      <trkpt lat="46.30754" lon="-0.33784">
        <ele>67.6297</ele>
        <time>2010-12-26T10:32:33Z</time>
      </trkpt>
      <trkpt lat="46.30755" lon="-0.33785">
        <ele>67.584</ele>
        <time>2010-12-26T10:32:34Z</time>
      </trkpt>
      <trkpt lat="46.30756" lon="-0.33787">
        <ele>67.5341</ele>
        <time>2010-12-26T10:32:35Z</time>
      </trkpt>
      <trkpt lat="46.30757" lon="-0.33788">
        <ele>67.4813</ele>
        <time>2010-12-26T10:32:36Z</time>
      </trkpt>
      <trkpt lat="46.30758" lon="-0.3379">
        <ele>67.4339</ele>
        <time>2010-12-26T10:32:37Z</time>
      </trkpt>
      <trkpt lat="46.30759" lon="-0.33792">
        <ele>67.3901</ele>
        <time>2010-12-26T10:32:38Z</time>
      </trkpt>
      <trkpt lat="46.30759" lon="-0.33793">
        <ele>67.346</ele>
        <time>2010-12-26T10:32:39Z</time>
      </trkpt>
      <trkpt lat="46.3076" lon="-0.33795">
        <ele>67.3071</ele>
        <time>2010-12-26T10:32:40Z</time>
      </trkpt>
      <trkpt lat="46.30761" lon="-0.33798">
        <ele>67.2755</ele>
        <time>2010-12-26T10:32:41Z</time>
      </trkpt>
      <trkpt lat="46.30762" lon="-0.338">
        <ele>67.2454</ele>
        <time>2010-12-26T10:32:42Z</time>
      </trkpt>
      <trkpt lat="46.30763" lon="-0.33802">
        <ele>67.2212</ele>
        <time>2010-12-26T10:32:43Z</time>
      </trkpt>
      <trkpt lat="46.30763" lon="-0.33804">
        <ele>67.1985</ele>
        <time>2010-12-26T10:32:44Z</time>
      </trkpt>
      <trkpt lat="46.30764" lon="-0.33805">
        <ele>67.1801</ele>
        <time>2010-12-26T10:32:45Z</time>
      </trkpt>
      <trkpt lat="46.30764" lon="-0.33807">
        <ele>67.1681</ele>
        <time>2010-12-26T10:32:46Z</time>
      </trkpt>
      <trkpt lat="46.30765" lon="-0.33809">
        <ele>67.1593</ele>
        <time>2010-12-26T10:32:47Z</time>
      </trkpt>
      <trkpt lat="46.30766" lon="-0.33811">
        <ele>67.1537</ele>
        <time>2010-12-26T10:32:48Z</time>
      </trkpt>
      <trkpt lat="46.30766" lon="-0.33812">
        <ele>67.1484</ele>
        <time>2010-12-26T10:32:49Z</time>
      </trkpt>
      <trkpt lat="46.30767" lon="-0.33814">
        <ele>67.1432</ele>
        <time>2010-12-26T10:32:50Z</time>
      </trkpt>
      <trkpt lat="46.30768" lon="-0.33816">
        <ele>67.1408</ele>
        <time>2010-12-26T10:32:51Z</time>
      </trkpt>
      <trkpt lat="46.30769" lon="-0.33818">
        <ele>67.1431</ele>
        <time>2010-12-26T10:32:52Z</time>
      </trkpt>
      <trkpt lat="46.30769" lon="-0.3382">
        <ele>67.1259</ele>
        <time>2010-12-26T10:32:53Z</time>
      </trkpt>
      <trkpt lat="46.3077" lon="-0.33822">
        <ele>67.1087</ele>
        <time>2010-12-26T10:32:54Z</time>
      </trkpt>
      <trkpt lat="46.30771" lon="-0.33824">
        <ele>67.0762</ele>
        <time>2010-12-26T10:32:55Z</time>
      </trkpt>
      <trkpt lat="46.30772" lon="-0.33826">
        <ele>67.0402</ele>
        <time>2010-12-26T10:32:56Z</time>
      </trkpt>
      <trkpt lat="46.30773" lon="-0.33828">
        <ele>66.998</ele>
        <time>2010-12-26T10:32:57Z</time>
      </trkpt>
      <trkpt lat="46.30774" lon="-0.3383">
        <ele>66.9525</ele>
        <time>2010-12-26T10:32:58Z</time>
      </trkpt>
      <trkpt lat="46.30775" lon="-0.33832">
        <ele>66.9045</ele>
        <time>2010-12-26T10:32:59Z</time>
      </trkpt>
      <trkpt lat="46.30776" lon="-0.33834">
        <ele>66.8585</ele>
        <time>2010-12-26T10:33:00Z</time>
      </trkpt>
      <trkpt lat="46.30776" lon="-0.33836">
        <ele>66.8116</ele>
        <time>2010-12-26T10:33:01Z</time>
      </trkpt>
      <trkpt lat="46.30777" lon="-0.33837">
        <ele>66.7634</ele>
        <time>2010-12-26T10:33:02Z</time>
      </trkpt>
      <trkpt lat="46.30778" lon="-0.33839">
        <ele>66.7167</ele>
        <time>2010-12-26T10:33:03Z</time>
      </trkpt>
      <trkpt lat="46.30779" lon="-0.33841">
        <ele>66.6664</ele>
        <time>2010-12-26T10:33:04Z</time>
      </trkpt>
      <trkpt lat="46.3078" lon="-0.33843">
        <ele>66.6086</ele>
        <time>2010-12-26T10:33:05Z</time>
      </trkpt>
      <trkpt lat="46.30781" lon="-0.33844">
        <ele>66.5515</ele>
        <time>2010-12-26T10:33:06Z</time>
      </trkpt>
      <trkpt lat="46.30782" lon="-0.33845">
        <ele>66.4981</ele>
        <time>2010-12-26T10:33:07Z</time>
      </trkpt>
      <trkpt lat="46.30783" lon="-0.33847">
        <ele>66.4407</ele>
        <time>2010-12-26T10:33:08Z</time>
      </trkpt>
      <trkpt lat="46.30784" lon="-0.33848">
        <ele>66.383</ele>
        <time>2010-12-26T10:33:09Z</time>
      </trkpt>
      <trkpt lat="46.30785" lon="-0.33849">
        <ele>66.3238</ele>
        <time>2010-12-26T10:33:10Z</time>
      </trkpt>
      <trkpt lat="46.30786" lon="-0.33851">
        <ele>66.2661</ele>
        <time>2010-12-26T10:33:11Z</time>
      </trkpt>
      <trkpt lat="46.30787" lon="-0.33852">
        <ele>66.1992</ele>
        <time>2010-12-26T10:33:12Z</time>
      </trkpt>
      <trkpt lat="46.30788" lon="-0.33854">
        <ele>66.1253</ele>
        <time>2010-12-26T10:33:13Z</time>
      </trkpt>
      <trkpt lat="46.3079" lon="-0.33855">
        <ele>66.0498</ele>
        <time>2010-12-26T10:33:14Z</time>
      </trkpt>
      <trkpt lat="46.30791" lon="-0.33857">
        <ele>65.9785</ele>
        <time>2010-12-26T10:33:15Z</time>
      </trkpt>
      <trkpt lat="46.30793" lon="-0.33858">
        <ele>65.8985</ele>
        <time>2010-12-26T10:33:16Z</time>
      </trkpt>
      <trkpt lat="46.30794" lon="-0.3386">
        <ele>65.8222</ele>
        <time>2010-12-26T10:33:17Z</time>
      </trkpt>
      <trkpt lat="46.30796" lon="-0.33863">
        <ele>65.7453</ele>
        <time>2010-12-26T10:33:18Z</time>
      </trkpt>
      <trkpt lat="46.30797" lon="-0.33864">
        <ele>65.6634</ele>
        <time>2010-12-26T10:33:19Z</time>
      </trkpt>
      <trkpt lat="46.30798" lon="-0.33866">
        <ele>65.5875</ele>
        <time>2010-12-26T10:33:20Z</time>
      </trkpt>
      <trkpt lat="46.308" lon="-0.33867">
        <ele>65.5183</ele>
        <time>2010-12-26T10:33:21Z</time>
      </trkpt>
      <trkpt lat="46.30801" lon="-0.33869">
        <ele>65.4559</ele>
        <time>2010-12-26T10:33:21Z</time>
      </trkpt>
      <trkpt lat="46.30803" lon="-0.3387">
        <ele>65.4225</ele>
        <time>2010-12-26T10:33:22Z</time>
      </trkpt>
      <trkpt lat="46.30805" lon="-0.33871">
        <ele>65.4129</ele>
        <time>2010-12-26T10:33:23Z</time>
      </trkpt>
      <trkpt lat="46.30808" lon="-0.33872">
        <ele>65.4142</ele>
        <time>2010-12-26T10:33:24Z</time>
      </trkpt>
      <trkpt lat="46.30809" lon="-0.33873">
        <ele>65.4252</ele>
        <time>2010-12-26T10:33:25Z</time>
      </trkpt>
      <trkpt lat="46.30811" lon="-0.33874">
        <ele>65.438</ele>
        <time>2010-12-26T10:33:26Z</time>
      </trkpt>
      <trkpt lat="46.30813" lon="-0.33875">
        <ele>65.4518</ele>
        <time>2010-12-26T10:33:27Z</time>
      </trkpt>
      <trkpt lat="46.30814" lon="-0.33876">
        <ele>65.4638</ele>
        <time>2010-12-26T10:33:28Z</time>
      </trkpt>
      <trkpt lat="46.30815" lon="-0.33877">
        <ele>65.4755</ele>
        <time>2010-12-26T10:33:30Z</time>
      </trkpt>
      <trkpt lat="46.30816" lon="-0.33879">
        <ele>65.484</ele>
        <time>2010-12-26T10:33:31Z</time>
      </trkpt>
      <trkpt lat="46.30817" lon="-0.3388">
        <ele>65.4834</ele>
        <time>2010-12-26T10:33:32Z</time>
      </trkpt>
      <trkpt lat="46.30817" lon="-0.33881">
        <ele>65.4846</ele>
        <time>2010-12-26T10:33:33Z</time>
      </trkpt>
      <trkpt lat="46.30818" lon="-0.33883">
        <ele>65.4868</ele>
        <time>2010-12-26T10:33:34Z</time>
      </trkpt>
      <trkpt lat="46.30819" lon="-0.33884">
        <ele>65.4914</ele>
        <time>2010-12-26T10:33:35Z</time>
      </trkpt>
      <trkpt lat="46.30819" lon="-0.33886">
        <ele>65.4939</ele>
        <time>2010-12-26T10:33:36Z</time>
      </trkpt>
      <trkpt lat="46.3082" lon="-0.33887">
        <ele>65.4968</ele>
        <time>2010-12-26T10:33:37Z</time>
      </trkpt>
      <trkpt lat="46.30821" lon="-0.33889">
        <ele>65.5006</ele>
        <time>2010-12-26T10:33:38Z</time>
      </trkpt>
      <trkpt lat="46.30821" lon="-0.3389">
        <ele>65.5048</ele>
        <time>2010-12-26T10:33:38Z</time>
      </trkpt>
      <trkpt lat="46.30822" lon="-0.33892">
        <ele>65.5096</ele>
        <time>2010-12-26T10:33:40Z</time>
      </trkpt>
      <trkpt lat="46.30823" lon="-0.33893">
        <ele>65.5091</ele>
        <time>2010-12-26T10:33:41Z</time>
      </trkpt>
      <trkpt lat="46.30824" lon="-0.33895">
        <ele>65.5101</ele>
        <time>2010-12-26T10:33:42Z</time>
      </trkpt>
      <trkpt lat="46.30825" lon="-0.33896">
        <ele>65.5106</ele>
        <time>2010-12-26T10:33:43Z</time>
      </trkpt>
      <trkpt lat="46.30825" lon="-0.33898">
        <ele>65.5107</ele>
        <time>2010-12-26T10:33:44Z</time>
      </trkpt>
      <trkpt lat="46.30826" lon="-0.339">
        <ele>65.5108</ele>
        <time>2010-12-26T10:33:45Z</time>
      </trkpt>
      <trkpt lat="46.30826" lon="-0.33901">
        <ele>65.5094</ele>
        <time>2010-12-26T10:33:46Z</time>
      </trkpt>
      <trkpt lat="46.30827" lon="-0.33903">
        <ele>65.5067</ele>
        <time>2010-12-26T10:33:47Z</time>
      </trkpt>
      <trkpt lat="46.30827" lon="-0.33905">
        <ele>65.5113</ele>
        <time>2010-12-26T10:33:48Z</time>
      </trkpt>
      <trkpt lat="46.30828" lon="-0.33907">
        <ele>65.5171</ele>
        <time>2010-12-26T10:33:49Z</time>
      </trkpt>
      <trkpt lat="46.30828" lon="-0.3391">
        <ele>65.5382</ele>
        <time>2010-12-26T10:33:50Z</time>
      </trkpt>
      <trkpt lat="46.30828" lon="-0.33912">
        <ele>65.5619</ele>
        <time>2010-12-26T10:33:51Z</time>
      </trkpt>
      <trkpt lat="46.30828" lon="-0.33915">
        <ele>65.5892</ele>
        <time>2010-12-26T10:33:52Z</time>
      </trkpt>
      <trkpt lat="46.30829" lon="-0.33917">
        <ele>65.6134</ele>
        <time>2010-12-26T10:33:53Z</time>
      </trkpt>
      <trkpt lat="46.30829" lon="-0.3392">
        <ele>65.6303</ele>
        <time>2010-12-26T10:33:54Z</time>
      </trkpt>
      <trkpt lat="46.30829" lon="-0.33922">
        <ele>65.6477</ele>
        <time>2010-12-26T10:33:55Z</time>
      </trkpt>
      <trkpt lat="46.3083" lon="-0.33924">
        <ele>65.6615</ele>
        <time>2010-12-26T10:33:56Z</time>
      </trkpt>
      <trkpt lat="46.3083" lon="-0.33926">
        <ele>65.6748</ele>
        <time>2010-12-26T10:33:57Z</time>
      </trkpt>
      <trkpt lat="46.3083" lon="-0.33928">
        <ele>65.688</ele>
        <time>2010-12-26T10:33:58Z</time>
      </trkpt>
      <trkpt lat="46.30831" lon="-0.3393">
        <ele>65.6973</ele>
        <time>2010-12-26T10:33:59Z</time>
      </trkpt>
      <trkpt lat="46.30832" lon="-0.33932">
        <ele>65.7076</ele>
        <time>2010-12-26T10:34:00Z</time>
      </trkpt>
      <trkpt lat="46.30833" lon="-0.33933">
        <ele>65.717</ele>
        <time>2010-12-26T10:34:01Z</time>
      </trkpt>
      <trkpt lat="46.30835" lon="-0.33936">
        <ele>65.7234</ele>
        <time>2010-12-26T10:34:02Z</time>
      </trkpt>
      <trkpt lat="46.30837" lon="-0.33938">
        <ele>65.7269</ele>
        <time>2010-12-26T10:34:03Z</time>
      </trkpt>
      <trkpt lat="46.30838" lon="-0.3394">
        <ele>65.7301</ele>
        <time>2010-12-26T10:34:04Z</time>
      </trkpt>
      <trkpt lat="46.30839" lon="-0.33942">
        <ele>65.7374</ele>
        <time>2010-12-26T10:34:05Z</time>
      </trkpt>
      <trkpt lat="46.30839" lon="-0.33944">
        <ele>65.7448</ele>
        <time>2010-12-26T10:34:06Z</time>
      </trkpt>
      <trkpt lat="46.3084" lon="-0.33945">
        <ele>65.7534</ele>
        <time>2010-12-26T10:34:07Z</time>
      </trkpt>
      <trkpt lat="46.3084" lon="-0.33947">
        <ele>65.7605</ele>
        <time>2010-12-26T10:34:08Z</time>
      </trkpt>
      <trkpt lat="46.30841" lon="-0.33949">
        <ele>65.7705</ele>
        <time>2010-12-26T10:34:09Z</time>
      </trkpt>
      <trkpt lat="46.30841" lon="-0.3395">
        <ele>65.7818</ele>
        <time>2010-12-26T10:34:10Z</time>
      </trkpt>
      <trkpt lat="46.30842" lon="-0.33952">
        <ele>65.7941</ele>
        <time>2010-12-26T10:34:11Z</time>
      </trkpt>
      <trkpt lat="46.30843" lon="-0.33954">
        <ele>65.8149</ele>
        <time>2010-12-26T10:34:12Z</time>
      </trkpt>
      <trkpt lat="46.30843" lon="-0.33956">
        <ele>65.8289</ele>
        <time>2010-12-26T10:34:13Z</time>
      </trkpt>
      <trkpt lat="46.30844" lon="-0.33958">
        <ele>65.8449</ele>
        <time>2010-12-26T10:34:14Z</time>
      </trkpt>
      <trkpt lat="46.30844" lon="-0.33961">
        <ele>65.8762</ele>
        <time>2010-12-26T10:34:15Z</time>
      </trkpt>
      <trkpt lat="46.30844" lon="-0.33964">
        <ele>65.9059</ele>
        <time>2010-12-26T10:34:16Z</time>
      </trkpt>
      <trkpt lat="46.30845" lon="-0.33966">
        <ele>65.9347</ele>
        <time>2010-12-26T10:34:17Z</time>
      </trkpt>
      <trkpt lat="46.30845" lon="-0.33967">
        <ele>65.962</ele>
        <time>2010-12-26T10:34:18Z</time>
      </trkpt>
      <trkpt lat="46.30846" lon="-0.33969">
        <ele>65.9867</ele>
        <time>2010-12-26T10:34:19Z</time>
      </trkpt>
      <trkpt lat="46.30846" lon="-0.33972">
        <ele>66.0118</ele>
        <time>2010-12-26T10:34:20Z</time>
      </trkpt>
      <trkpt lat="46.30846" lon="-0.33974">
        <ele>66.0344</ele>
        <time>2010-12-26T10:34:21Z</time>
      </trkpt>
      <trkpt lat="46.30846" lon="-0.33976">
        <ele>66.0546</ele>
        <time>2010-12-26T10:34:22Z</time>
      </trkpt>
      <trkpt lat="46.30846" lon="-0.33977">
        <ele>66.0729</ele>
        <time>2010-12-26T10:34:23Z</time>
      </trkpt>
      <trkpt lat="46.30847" lon="-0.33979">
        <ele>66.0841</ele>
        <time>2010-12-26T10:34:24Z</time>
      </trkpt>
      <trkpt lat="46.30847" lon="-0.33981">
        <ele>66.1048</ele>
        <time>2010-12-26T10:34:25Z</time>
      </trkpt>
      <trkpt lat="46.30847" lon="-0.33983">
        <ele>66.1239</ele>
        <time>2010-12-26T10:34:26Z</time>
      </trkpt>
      <trkpt lat="46.30846" lon="-0.33985">
        <ele>66.1457</ele>
        <time>2010-12-26T10:34:27Z</time>
      </trkpt>
      <trkpt lat="46.30846" lon="-0.33987">
        <ele>66.165</ele>
        <time>2010-12-26T10:34:28Z</time>
      </trkpt>
      <trkpt lat="46.30846" lon="-0.33989">
        <ele>66.1803</ele>
        <time>2010-12-26T10:34:29Z</time>
      </trkpt>
      <trkpt lat="46.30845" lon="-0.33991">
        <ele>66.1957</ele>
        <time>2010-12-26T10:34:30Z</time>
      </trkpt>
      <trkpt lat="46.30845" lon="-0.33993">
        <ele>66.2104</ele>
        <time>2010-12-26T10:34:31Z</time>
      </trkpt>
      <trkpt lat="46.30844" lon="-0.33995">
        <ele>66.2183</ele>
        <time>2010-12-26T10:34:32Z</time>
      </trkpt>
      <trkpt lat="46.30844" lon="-0.33997">
        <ele>66.2234</ele>
        <time>2010-12-26T10:34:33Z</time>
      </trkpt>
      <trkpt lat="46.30844" lon="-0.33998">
        <ele>66.2248</ele>
        <time>2010-12-26T10:34:34Z</time>
      </trkpt>
      <trkpt lat="46.30843" lon="-0.34">
        <ele>66.2159</ele>
        <time>2010-12-26T10:34:35Z</time>
      </trkpt>
      <trkpt lat="46.30843" lon="-0.34001">
        <ele>66.2049</ele>
        <time>2010-12-26T10:34:36Z</time>
      </trkpt>
      <trkpt lat="46.30843" lon="-0.34003">
        <ele>66.1956</ele>
        <time>2010-12-26T10:34:37Z</time>
      </trkpt>
      <trkpt lat="46.30843" lon="-0.34005">
        <ele>66.1879</ele>
        <time>2010-12-26T10:34:38Z</time>
      </trkpt>
      <trkpt lat="46.30842" lon="-0.34007">
        <ele>66.1803</ele>
        <time>2010-12-26T10:34:39Z</time>
      </trkpt>
      <trkpt lat="46.30842" lon="-0.34009">
        <ele>66.1766</ele>
        <time>2010-12-26T10:34:40Z</time>
      </trkpt>
      <trkpt lat="46.30842" lon="-0.34011">
        <ele>66.1738</ele>
        <time>2010-12-26T10:34:41Z</time>
      </trkpt>
      <trkpt lat="46.30842" lon="-0.34013">
        <ele>66.1712</ele>
        <time>2010-12-26T10:34:42Z</time>
      </trkpt>
      <trkpt lat="46.30842" lon="-0.34015">
        <ele>66.1466</ele>
        <time>2010-12-26T10:34:43Z</time>
      </trkpt>
      <trkpt lat="46.30842" lon="-0.34018">
        <ele>66.1109</ele>
        <time>2010-12-26T10:34:44Z</time>
      </trkpt>
      <trkpt lat="46.30842" lon="-0.34021">
        <ele>66.0751</ele>
        <time>2010-12-26T10:34:45Z</time>
      </trkpt>
      <trkpt lat="46.30843" lon="-0.34025">
        <ele>66.0189</ele>
        <time>2010-12-26T10:34:46Z</time>
      </trkpt>
      <trkpt lat="46.30843" lon="-0.34028">
        <ele>65.965</ele>
        <time>2010-12-26T10:34:47Z</time>
      </trkpt>
      <trkpt lat="46.30843" lon="-0.34031">
        <ele>65.8985</ele>
        <time>2010-12-26T10:34:48Z</time>
      </trkpt>
      <trkpt lat="46.30844" lon="-0.34035">
        <ele>65.8262</ele>
        <time>2010-12-26T10:34:49Z</time>
      </trkpt>
      <trkpt lat="46.30844" lon="-0.34038">
        <ele>65.7448</ele>
        <time>2010-12-26T10:34:50Z</time>
      </trkpt>
      <trkpt lat="46.30844" lon="-0.3404">
        <ele>65.6659</ele>
        <time>2010-12-26T10:34:51Z</time>
      </trkpt>
      <trkpt lat="46.30844" lon="-0.34043">
        <ele>65.5934</ele>
        <time>2010-12-26T10:34:52Z</time>
      </trkpt>
      <trkpt lat="46.30844" lon="-0.34046">
        <ele>65.5165</ele>
        <time>2010-12-26T10:34:53Z</time>
      </trkpt>
      <trkpt lat="46.30844" lon="-0.34048">
        <ele>65.446</ele>
        <time>2010-12-26T10:34:54Z</time>
      </trkpt>
      <trkpt lat="46.30845" lon="-0.3405">
        <ele>65.3798</ele>
        <time>2010-12-26T10:34:55Z</time>
      </trkpt>
      <trkpt lat="46.30845" lon="-0.34052">
        <ele>65.3164</ele>
        <time>2010-12-26T10:34:56Z</time>
      </trkpt>
      <trkpt lat="46.30846" lon="-0.34054">
        <ele>65.2563</ele>
        <time>2010-12-26T10:34:57Z</time>
      </trkpt>
      <trkpt lat="46.30846" lon="-0.34055">
        <ele>65.2002</ele>
        <time>2010-12-26T10:34:58Z</time>
      </trkpt>
      <trkpt lat="46.30846" lon="-0.34057">
        <ele>65.1478</ele>
        <time>2010-12-26T10:34:59Z</time>
      </trkpt>
      <trkpt lat="46.30846" lon="-0.34058">
        <ele>65.099</ele>
        <time>2010-12-26T10:35:00Z</time>
      </trkpt>
      <trkpt lat="46.30846" lon="-0.3406">
        <ele>65.0479</ele>
        <time>2010-12-26T10:35:01Z</time>
      </trkpt>
      <trkpt lat="46.30845" lon="-0.34061">
        <ele>64.9963</ele>
        <time>2010-12-26T10:35:02Z</time>
      </trkpt>
      <trkpt lat="46.30845" lon="-0.34062">
        <ele>64.9449</ele>
        <time>2010-12-26T10:35:03Z</time>
      </trkpt>
      <trkpt lat="46.30845" lon="-0.34063">
        <ele>64.8874</ele>
        <time>2010-12-26T10:35:04Z</time>
      </trkpt>
      <trkpt lat="46.30844" lon="-0.34064">
        <ele>64.825</ele>
        <time>2010-12-26T10:35:05Z</time>
      </trkpt>
      <trkpt lat="46.30843" lon="-0.34065">
        <ele>64.7558</ele>
        <time>2010-12-26T10:35:06Z</time>
      </trkpt>
      <trkpt lat="46.30844" lon="-0.34066">
        <ele>64.6828</ele>
        <time>2010-12-26T10:35:07Z</time>
      </trkpt>
      <trkpt lat="46.30844" lon="-0.34067">
        <ele>64.6039</ele>
        <time>2010-12-26T10:35:08Z</time>
      </trkpt>
      <trkpt lat="46.30843" lon="-0.34068">
        <ele>64.5208</ele>
        <time>2010-12-26T10:35:09Z</time>
      </trkpt>
      <trkpt lat="46.30843" lon="-0.3407">
        <ele>64.4427</ele>
        <time>2010-12-26T10:35:10Z</time>
      </trkpt>
      <trkpt lat="46.30843" lon="-0.34071">
        <ele>64.3653</ele>
        <time>2010-12-26T10:35:11Z</time>
      </trkpt>
      <trkpt lat="46.30842" lon="-0.34072">
        <ele>64.2825</ele>
        <time>2010-12-26T10:35:12Z</time>
      </trkpt>
      <trkpt lat="46.30841" lon="-0.34073">
        <ele>64.1944</ele>
        <time>2010-12-26T10:35:13Z</time>
      </trkpt>
      <trkpt lat="46.3084" lon="-0.34075">
        <ele>64.0911</ele>
        <time>2010-12-26T10:35:14Z</time>
      </trkpt>
      <trkpt lat="46.30839" lon="-0.34076">
        <ele>63.9794</ele>
        <time>2010-12-26T10:35:15Z</time>
      </trkpt>
      <trkpt lat="46.30838" lon="-0.34078">
        <ele>63.8631</ele>
        <time>2010-12-26T10:35:16Z</time>
      </trkpt>
      <trkpt lat="46.30836" lon="-0.34079">
        <ele>63.7413</ele>
        <time>2010-12-26T10:35:17Z</time>
      </trkpt>
      <trkpt lat="46.30835" lon="-0.3408">
        <ele>63.6083</ele>
        <time>2010-12-26T10:35:18Z</time>
      </trkpt>
      <trkpt lat="46.30833" lon="-0.34081">
        <ele>63.4679</ele>
        <time>2010-12-26T10:35:19Z</time>
      </trkpt>
      <trkpt lat="46.30832" lon="-0.34083">
        <ele>63.3225</ele>
        <time>2010-12-26T10:35:20Z</time>
      </trkpt>
      <trkpt lat="46.3083" lon="-0.34084">
        <ele>63.1741</ele>
        <time>2010-12-26T10:35:21Z</time>
      </trkpt>
      <trkpt lat="46.30829" lon="-0.34085">
        <ele>63.0298</ele>
        <time>2010-12-26T10:35:22Z</time>
      </trkpt>
      <trkpt lat="46.30827" lon="-0.34085">
        <ele>62.8948</ele>
        <time>2010-12-26T10:35:23Z</time>
      </trkpt>
      <trkpt lat="46.30826" lon="-0.34086">
        <ele>62.767</ele>
        <time>2010-12-26T10:35:24Z</time>
      </trkpt>
      <trkpt lat="46.30824" lon="-0.34087">
        <ele>62.6484</ele>
        <time>2010-12-26T10:35:25Z</time>
      </trkpt>
      <trkpt lat="46.30823" lon="-0.34088">
        <ele>62.5338</ele>
        <time>2010-12-26T10:35:26Z</time>
      </trkpt>
      <trkpt lat="46.30822" lon="-0.34089">
        <ele>62.4221</ele>
        <time>2010-12-26T10:35:27Z</time>
      </trkpt>
      <trkpt lat="46.30821" lon="-0.34089">
        <ele>62.3134</ele>
        <time>2010-12-26T10:35:28Z</time>
      </trkpt>
      <trkpt lat="46.3082" lon="-0.3409">
        <ele>62.2071</ele>
        <time>2010-12-26T10:35:29Z</time>
      </trkpt>
      <trkpt lat="46.30819" lon="-0.34091">
        <ele>62.1027</ele>
        <time>2010-12-26T10:35:30Z</time>
      </trkpt>
      <trkpt lat="46.30817" lon="-0.34092">
        <ele>62.0114</ele>
        <time>2010-12-26T10:35:31Z</time>
      </trkpt>
      <trkpt lat="46.30816" lon="-0.34092">
        <ele>61.9236</ele>
        <time>2010-12-26T10:35:32Z</time>
      </trkpt>
      <trkpt lat="46.30814" lon="-0.34093">
        <ele>61.8423</ele>
        <time>2010-12-26T10:35:33Z</time>
      </trkpt>
      <trkpt lat="46.30813" lon="-0.34094">
        <ele>61.781</ele>
        <time>2010-12-26T10:35:34Z</time>
      </trkpt>
      <trkpt lat="46.30813" lon="-0.34094">
        <ele>61.7286</ele>
        <time>2010-12-26T10:35:35Z</time>
      </trkpt>
      <trkpt lat="46.30811" lon="-0.34095">
        <ele>61.6965</ele>
        <time>2010-12-26T10:35:36Z</time>
      </trkpt>
      <trkpt lat="46.3081" lon="-0.34096">
        <ele>61.6855</ele>
        <time>2010-12-26T10:35:37Z</time>
      </trkpt>
      <trkpt lat="46.30809" lon="-0.34097">
        <ele>61.6789</ele>
        <time>2010-12-26T10:35:38Z</time>
      </trkpt>
      <trkpt lat="46.30808" lon="-0.34098">
        <ele>61.6908</ele>
        <time>2010-12-26T10:35:39Z</time>
      </trkpt>
      <trkpt lat="46.30806" lon="-0.34099">
        <ele>61.7095</ele>
        <time>2010-12-26T10:35:40Z</time>
      </trkpt>
      <trkpt lat="46.30804" lon="-0.341">
        <ele>61.764</ele>
        <time>2010-12-26T10:35:41Z</time>
      </trkpt>
      <trkpt lat="46.30803" lon="-0.34102">
        <ele>61.8344</ele>
        <time>2010-12-26T10:35:42Z</time>
      </trkpt>
      <trkpt lat="46.30801" lon="-0.34103">
        <ele>61.899</ele>
        <time>2010-12-26T10:35:43Z</time>
      </trkpt>
      <trkpt lat="46.308" lon="-0.34103">
        <ele>61.9628</ele>
        <time>2010-12-26T10:35:44Z</time>
      </trkpt>
      <trkpt lat="46.30798" lon="-0.34104">
        <ele>62.021</ele>
        <time>2010-12-26T10:35:45Z</time>
      </trkpt>
      <trkpt lat="46.30797" lon="-0.34105">
        <ele>62.0755</ele>
        <time>2010-12-26T10:35:46Z</time>
      </trkpt>
      <trkpt lat="46.30795" lon="-0.34106">
        <ele>62.1316</ele>
        <time>2010-12-26T10:35:47Z</time>
      </trkpt>
      <trkpt lat="46.30794" lon="-0.34107">
        <ele>62.1916</ele>
        <time>2010-12-26T10:35:48Z</time>
      </trkpt>
      <trkpt lat="46.30792" lon="-0.34108">
        <ele>62.2771</ele>
        <time>2010-12-26T10:35:49Z</time>
      </trkpt>
      <trkpt lat="46.30791" lon="-0.34109">
        <ele>62.364</ele>
        <time>2010-12-26T10:35:50Z</time>
      </trkpt>
      <trkpt lat="46.30789" lon="-0.3411">
        <ele>62.4725</ele>
        <time>2010-12-26T10:35:51Z</time>
      </trkpt>
      <trkpt lat="46.30788" lon="-0.34111">
        <ele>62.582</ele>
        <time>2010-12-26T10:35:52Z</time>
      </trkpt>
      <trkpt lat="46.30786" lon="-0.34112">
        <ele>62.7044</ele>
        <time>2010-12-26T10:35:53Z</time>
      </trkpt>
      <trkpt lat="46.30785" lon="-0.34113">
        <ele>62.8351</ele>
        <time>2010-12-26T10:35:54Z</time>
      </trkpt>
      <trkpt lat="46.30783" lon="-0.34114">
        <ele>62.9634</ele>
        <time>2010-12-26T10:35:55Z</time>
      </trkpt>
      <trkpt lat="46.30781" lon="-0.34115">
        <ele>63.0916</ele>
        <time>2010-12-26T10:35:56Z</time>
      </trkpt>
      <trkpt lat="46.3078" lon="-0.34116">
        <ele>63.2228</ele>
        <time>2010-12-26T10:35:57Z</time>
      </trkpt>
      <trkpt lat="46.30778" lon="-0.34117">
        <ele>63.35</ele>
        <time>2010-12-26T10:35:58Z</time>
      </trkpt>
      <trkpt lat="46.30777" lon="-0.34118">
        <ele>63.4743</ele>
        <time>2010-12-26T10:35:59Z</time>
      </trkpt>
      <trkpt lat="46.30776" lon="-0.34119">
        <ele>63.5971</ele>
        <time>2010-12-26T10:36:00Z</time>
      </trkpt>
      <trkpt lat="46.30774" lon="-0.3412">
        <ele>63.7172</ele>
        <time>2010-12-26T10:36:01Z</time>
      </trkpt>
      <trkpt lat="46.30773" lon="-0.34121">
        <ele>63.8394</ele>
        <time>2010-12-26T10:36:02Z</time>
      </trkpt>
      <trkpt lat="46.30772" lon="-0.34121">
        <ele>63.9634</ele>
        <time>2010-12-26T10:36:03Z</time>
      </trkpt>
      <trkpt lat="46.30771" lon="-0.34122">
        <ele>64.0834</ele>
        <time>2010-12-26T10:36:04Z</time>
      </trkpt>
      <trkpt lat="46.30769" lon="-0.34122">
        <ele>64.1961</ele>
        <time>2010-12-26T10:36:05Z</time>
      </trkpt>
      <trkpt lat="46.30768" lon="-0.34122">
        <ele>64.3039</ele>
        <time>2010-12-26T10:36:06Z</time>
      </trkpt>
      <trkpt lat="46.30766" lon="-0.34123">
        <ele>64.4088</ele>
        <time>2010-12-26T10:36:07Z</time>
      </trkpt>
      <trkpt lat="46.30765" lon="-0.34123">
        <ele>64.5213</ele>
        <time>2010-12-26T10:36:08Z</time>
      </trkpt>
      <trkpt lat="46.30764" lon="-0.34124">
        <ele>64.6309</ele>
        <time>2010-12-26T10:36:09Z</time>
      </trkpt>
      <trkpt lat="46.30762" lon="-0.34124">
        <ele>64.7317</ele>
        <time>2010-12-26T10:36:10Z</time>
      </trkpt>
      <trkpt lat="46.30761" lon="-0.34125">
        <ele>64.8269</ele>
        <time>2010-12-26T10:36:11Z</time>
      </trkpt>
      <trkpt lat="46.30759" lon="-0.34125">
        <ele>64.9159</ele>
        <time>2010-12-26T10:36:12Z</time>
      </trkpt>
      <trkpt lat="46.30758" lon="-0.34126">
        <ele>65.0027</ele>
        <time>2010-12-26T10:36:13Z</time>
      </trkpt>
      <trkpt lat="46.30756" lon="-0.34126">
        <ele>65.0825</ele>
        <time>2010-12-26T10:36:14Z</time>
      </trkpt>
      <trkpt lat="46.30755" lon="-0.34127">
        <ele>65.1934</ele>
        <time>2010-12-26T10:36:15Z</time>
      </trkpt>
      <trkpt lat="46.30753" lon="-0.34128">
        <ele>65.3147</ele>
        <time>2010-12-26T10:36:16Z</time>
      </trkpt>
      <trkpt lat="46.30751" lon="-0.34129">
        <ele>65.4338</ele>
        <time>2010-12-26T10:36:17Z</time>
      </trkpt>
      <trkpt lat="46.3075" lon="-0.34129">
        <ele>65.551</ele>
        <time>2010-12-26T10:36:18Z</time>
      </trkpt>
      <trkpt lat="46.30748" lon="-0.3413">
        <ele>65.6686</ele>
        <time>2010-12-26T10:36:19Z</time>
      </trkpt>
      <trkpt lat="46.30747" lon="-0.34131">
        <ele>65.7894</ele>
        <time>2010-12-26T10:36:20Z</time>
      </trkpt>
      <trkpt lat="46.30746" lon="-0.34132">
        <ele>65.9089</ele>
        <time>2010-12-26T10:36:21Z</time>
      </trkpt>
      <trkpt lat="46.30744" lon="-0.34133">
        <ele>66.0273</ele>
        <time>2010-12-26T10:36:22Z</time>
      </trkpt>
      <trkpt lat="46.30743" lon="-0.34133">
        <ele>66.1432</ele>
        <time>2010-12-26T10:36:23Z</time>
      </trkpt>
      <trkpt lat="46.30742" lon="-0.34134">
        <ele>66.257</ele>
        <time>2010-12-26T10:36:24Z</time>
      </trkpt>
      <trkpt lat="46.3074" lon="-0.34135">
        <ele>66.3657</ele>
        <time>2010-12-26T10:36:25Z</time>
      </trkpt>
      <trkpt lat="46.30738" lon="-0.34136">
        <ele>66.4737</ele>
        <time>2010-12-26T10:36:26Z</time>
      </trkpt>
      <trkpt lat="46.30737" lon="-0.34137">
        <ele>66.5917</ele>
        <time>2010-12-26T10:36:27Z</time>
      </trkpt>
      <trkpt lat="46.30736" lon="-0.34138">
        <ele>66.7201</ele>
        <time>2010-12-26T10:36:28Z</time>
      </trkpt>
      <trkpt lat="46.30735" lon="-0.3414">
        <ele>66.8468</ele>
        <time>2010-12-26T10:36:29Z</time>
      </trkpt>
      <trkpt lat="46.30735" lon="-0.34142">
        <ele>66.9681</ele>
        <time>2010-12-26T10:36:30Z</time>
      </trkpt>
      <trkpt lat="46.30734" lon="-0.34144">
        <ele>67.0896</ele>
        <time>2010-12-26T10:36:31Z</time>
      </trkpt>
      <trkpt lat="46.30734" lon="-0.34145">
        <ele>67.2053</ele>
        <time>2010-12-26T10:36:32Z</time>
      </trkpt>
      <trkpt lat="46.30734" lon="-0.34147">
        <ele>67.3137</ele>
        <time>2010-12-26T10:36:33Z</time>
      </trkpt>
      <trkpt lat="46.30733" lon="-0.34149">
        <ele>67.4182</ele>
        <time>2010-12-26T10:36:34Z</time>
      </trkpt>
      <trkpt lat="46.30733" lon="-0.3415">
        <ele>67.5235</ele>
        <time>2010-12-26T10:36:35Z</time>
      </trkpt>
      <trkpt lat="46.30733" lon="-0.34152">
        <ele>67.6231</ele>
        <time>2010-12-26T10:36:36Z</time>
      </trkpt>
      <trkpt lat="46.30733" lon="-0.34154">
        <ele>67.718</ele>
        <time>2010-12-26T10:36:37Z</time>
      </trkpt>
      <trkpt lat="46.30733" lon="-0.34155">
        <ele>67.8092</ele>
        <time>2010-12-26T10:36:38Z</time>
      </trkpt>
      <trkpt lat="46.30733" lon="-0.34157">
        <ele>67.887</ele>
        <time>2010-12-26T10:36:39Z</time>
      </trkpt>
      <trkpt lat="46.30733" lon="-0.34159">
        <ele>67.9607</ele>
        <time>2010-12-26T10:36:40Z</time>
      </trkpt>
      <trkpt lat="46.30732" lon="-0.34161">
        <ele>68.0306</ele>
        <time>2010-12-26T10:36:41Z</time>
      </trkpt>
      <trkpt lat="46.30732" lon="-0.34163">
        <ele>68.0965</ele>
        <time>2010-12-26T10:36:42Z</time>
      </trkpt>
      <trkpt lat="46.30732" lon="-0.34165">
        <ele>68.1587</ele>
        <time>2010-12-26T10:36:43Z</time>
      </trkpt>
      <trkpt lat="46.30732" lon="-0.34167">
        <ele>68.2167</ele>
        <time>2010-12-26T10:36:44Z</time>
      </trkpt>
      <trkpt lat="46.30732" lon="-0.34169">
        <ele>68.27</ele>
        <time>2010-12-26T10:36:45Z</time>
      </trkpt>
      <trkpt lat="46.30731" lon="-0.34171">
        <ele>68.3204</ele>
        <time>2010-12-26T10:36:46Z</time>
      </trkpt>
      <trkpt lat="46.30731" lon="-0.34173">
        <ele>68.3683</ele>
        <time>2010-12-26T10:36:47Z</time>
      </trkpt>
      <trkpt lat="46.30731" lon="-0.34176">
        <ele>68.4138</ele>
        <time>2010-12-26T10:36:48Z</time>
      </trkpt>
      <trkpt lat="46.30731" lon="-0.34178">
        <ele>68.4571</ele>
        <time>2010-12-26T10:36:49Z</time>
      </trkpt>
      <trkpt lat="46.30731" lon="-0.3418">
        <ele>68.4992</ele>
        <time>2010-12-26T10:36:50Z</time>
      </trkpt>
      <trkpt lat="46.30731" lon="-0.34182">
        <ele>68.5409</ele>
        <time>2010-12-26T10:36:51Z</time>
      </trkpt>
      <trkpt lat="46.30731" lon="-0.34184">
        <ele>68.5922</ele>
        <time>2010-12-26T10:36:52Z</time>
      </trkpt>
      <trkpt lat="46.30731" lon="-0.34186">
        <ele>68.6291</ele>
        <time>2010-12-26T10:36:53Z</time>
      </trkpt>
      <trkpt lat="46.3073" lon="-0.34189">
        <ele>68.6529</ele>
        <time>2010-12-26T10:36:54Z</time>
      </trkpt>
      <trkpt lat="46.3073" lon="-0.34192">
        <ele>68.677</ele>
        <time>2010-12-26T10:36:55Z</time>
      </trkpt>
      <trkpt lat="46.3073" lon="-0.34195">
        <ele>68.7039</ele>
        <time>2010-12-26T10:36:56Z</time>
      </trkpt>
      <trkpt lat="46.3073" lon="-0.34197">
        <ele>68.7275</ele>
        <time>2010-12-26T10:36:57Z</time>
      </trkpt>
      <trkpt lat="46.3073" lon="-0.342">
        <ele>68.7592</ele>
        <time>2010-12-26T10:36:58Z</time>
      </trkpt>
      <trkpt lat="46.30729" lon="-0.34203">
        <ele>68.8095</ele>
        <time>2010-12-26T10:36:59Z</time>
      </trkpt>
      <trkpt lat="46.30729" lon="-0.34206">
        <ele>68.8621</ele>
        <time>2010-12-26T10:37:00Z</time>
      </trkpt>
      <trkpt lat="46.30729" lon="-0.34209">
        <ele>68.9014</ele>
        <time>2010-12-26T10:37:01Z</time>
      </trkpt>
      <trkpt lat="46.30728" lon="-0.34212">
        <ele>68.934</ele>
        <time>2010-12-26T10:37:02Z</time>
      </trkpt>
      <trkpt lat="46.30728" lon="-0.34215">
        <ele>68.9571</ele>
        <time>2010-12-26T10:37:03Z</time>
      </trkpt>
      <trkpt lat="46.30728" lon="-0.34217">
        <ele>68.9758</ele>
        <time>2010-12-26T10:37:04Z</time>
      </trkpt>
      <trkpt lat="46.30727" lon="-0.34219">
        <ele>68.9845</ele>
        <time>2010-12-26T10:37:05Z</time>
      </trkpt>
      <trkpt lat="46.30727" lon="-0.34224">
        <ele>68.8473</ele>
        <time>2010-12-26T10:37:12Z</time>
      </trkpt>
      <trkpt lat="46.30727" lon="-0.34225">
        <ele>68.8047</ele>
        <time>2010-12-26T10:37:13Z</time>
      </trkpt>
      <trkpt lat="46.30726" lon="-0.34227">
        <ele>68.7034</ele>
        <time>2010-12-26T10:37:15Z</time>
      </trkpt>
      <trkpt lat="46.30726" lon="-0.34228">
        <ele>68.6485</ele>
        <time>2010-12-26T10:37:16Z</time>
      </trkpt>
      <trkpt lat="46.30726" lon="-0.34229">
        <ele>68.5828</ele>
        <time>2010-12-26T10:37:17Z</time>
      </trkpt>
      <trkpt lat="46.30725" lon="-0.34231">
        <ele>68.5246</ele>
        <time>2010-12-26T10:37:18Z</time>
      </trkpt>
      <trkpt lat="46.30725" lon="-0.34232">
        <ele>68.4731</ele>
        <time>2010-12-26T10:37:19Z</time>
      </trkpt>
      <trkpt lat="46.30724" lon="-0.34234">
        <ele>68.4232</ele>
        <time>2010-12-26T10:37:20Z</time>
      </trkpt>
    </trkseg>
  </trk>
</gpx>